<?xml version='1.0' encoding='UTF-8'?><gpx version="1.1" creator="JPX - https://github.com/jenetics/jpx" xmlns="http://www.topografix.com/GPX/1/1"><trk><trkseg><trkpt lat="41.2834073" lon="1.7238793"><ele>123.0</ele><time>2026-04-04T11:08:26.092Z</time></trkpt><trkpt lat="41.2834773" lon="1.7237494"><ele>123.00000000000001</ele><time>2026-04-04T11:08:28.085Z</time></trkpt><trkpt lat="41.2835399" lon="1.7237025"><ele>123.00000000000001</ele><time>2026-04-04T11:08:29.088Z</time></trkpt><trkpt lat="41.2836355" lon="1.7236872"><ele>123.0</ele><time>2026-04-04T11:08:30.078Z</time></trkpt><trkpt lat="41.2837559" lon="1.7236827"><ele>123.0</ele><time>2026-04-04T11:08:31.077Z</time></trkpt><trkpt lat="41.2838863" lon="1.7236822"><ele>122.5</ele><time>2026-04-04T11:08:32.084Z</time></trkpt><trkpt lat="41.28403" lon="1.7236858"><ele>122.0</ele><time>2026-04-04T11:08:33.079Z</time></trkpt><trkpt lat="41.284172" lon="1.7236915"><ele>121.5</ele><time>2026-04-04T11:08:34.078Z</time></trkpt><trkpt lat="41.2843183" lon="1.7237073"><ele>121.0</ele><time>2026-04-04T11:08:35.091Z</time></trkpt><trkpt lat="41.2844456" lon="1.7237301"><ele>121.0</ele><time>2026-04-04T11:08:36.086Z</time></trkpt><trkpt lat="41.2845585" lon="1.7237683"><ele>121.0</ele><time>2026-04-04T11:08:37.086Z</time></trkpt><trkpt lat="41.2846563" lon="1.7238403"><ele>121.0</ele><time>2026-04-04T11:08:38.092Z</time></trkpt><trkpt lat="41.2847425" lon="1.7239227"><ele>121.0</ele><time>2026-04-04T11:08:39.087Z</time></trkpt><trkpt lat="41.2848342" lon="1.7239663"><ele>121.0</ele><time>2026-04-04T11:08:40.1Z</time></trkpt><trkpt lat="41.2849327" lon="1.7239649"><ele>120.5</ele><time>2026-04-04T11:08:41.093Z</time></trkpt><trkpt lat="41.285044" lon="1.7239148"><ele>120.0</ele><time>2026-04-04T11:08:42.09Z</time></trkpt><trkpt lat="41.2851682" lon="1.7238429"><ele>119.5</ele><time>2026-04-04T11:08:43.09Z</time></trkpt><trkpt lat="41.2852987" lon="1.7238024"><ele>119.0</ele><time>2026-04-04T11:08:44.088Z</time></trkpt><trkpt lat="41.2854429" lon="1.7237944"><ele>119.0</ele><time>2026-04-04T11:08:45.091Z</time></trkpt><trkpt lat="41.2855919" lon="1.7238041"><ele>119.0</ele><time>2026-04-04T11:08:46.086Z</time></trkpt><trkpt lat="41.2857498" lon="1.723815"><ele>119.0</ele><time>2026-04-04T11:08:47.092Z</time></trkpt><trkpt lat="41.2859117" lon="1.72383"><ele>119.33333333333333</ele><time>2026-04-04T11:08:48.101Z</time></trkpt><trkpt lat="41.2860794" lon="1.7238394"><ele>119.66666666666666</ele><time>2026-04-04T11:08:49.096Z</time></trkpt><trkpt lat="41.2862459" lon="1.7238557"><ele>120.0</ele><time>2026-04-04T11:08:50.1Z</time></trkpt><trkpt lat="41.2864091" lon="1.7238801"><ele>120.0</ele><time>2026-04-04T11:08:51.098Z</time></trkpt><trkpt lat="41.2865644" lon="1.7238974"><ele>120.0</ele><time>2026-04-04T11:08:52.116Z</time></trkpt><trkpt lat="41.2867147" lon="1.7239198"><ele>120.0</ele><time>2026-04-04T11:08:53.215Z</time></trkpt><trkpt lat="41.2868749" lon="1.7239319"><ele>120.0</ele><time>2026-04-04T11:08:54.197Z</time></trkpt><trkpt lat="41.2870382" lon="1.7239506"><ele>120.0</ele><time>2026-04-04T11:08:55.202Z</time></trkpt><trkpt lat="41.287342" lon="1.7239877"><ele>119.5</ele><time>2026-04-04T11:08:57.092Z</time></trkpt><trkpt lat="41.2874758" lon="1.7239982"><ele>119.0</ele><time>2026-04-04T11:08:58.085Z</time></trkpt><trkpt lat="41.2875957" lon="1.7240065"><ele>118.5</ele><time>2026-04-04T11:08:59.094Z</time></trkpt><trkpt lat="41.2877127" lon="1.7240202"><ele>118.0</ele><time>2026-04-04T11:09:00.092Z</time></trkpt><trkpt lat="41.2878459" lon="1.7240329"><ele>118.0</ele><time>2026-04-04T11:09:01.092Z</time></trkpt><trkpt lat="41.2879922" lon="1.7240468"><ele>118.0</ele><time>2026-04-04T11:09:02.085Z</time></trkpt><trkpt lat="41.2881336" lon="1.7240568"><ele>118.0</ele><time>2026-04-04T11:09:03.091Z</time></trkpt><trkpt lat="41.2882771" lon="1.7240825"><ele>118.0</ele><time>2026-04-04T11:09:04.085Z</time></trkpt><trkpt lat="41.2884188" lon="1.7241048"><ele>118.0</ele><time>2026-04-04T11:09:05.093Z</time></trkpt><trkpt lat="41.2885561" lon="1.7241351"><ele>118.0</ele><time>2026-04-04T11:09:06.092Z</time></trkpt><trkpt lat="41.2886899" lon="1.7241654"><ele>118.0</ele><time>2026-04-04T11:09:07.096Z</time></trkpt><trkpt lat="41.2888132" lon="1.7241967"><ele>118.0</ele><time>2026-04-04T11:09:08.093Z</time></trkpt><trkpt lat="41.2889333" lon="1.7242365"><ele>118.0</ele><time>2026-04-04T11:09:09.088Z</time></trkpt><trkpt lat="41.2890489" lon="1.7242714"><ele>118.0</ele><time>2026-04-04T11:09:10.092Z</time></trkpt><trkpt lat="41.2891627" lon="1.7243149"><ele>118.0</ele><time>2026-04-04T11:09:11.095Z</time></trkpt><trkpt lat="41.2892863" lon="1.7243663"><ele>118.0</ele><time>2026-04-04T11:09:12.096Z</time></trkpt><trkpt lat="41.289415" lon="1.72442"><ele>118.25</ele><time>2026-04-04T11:09:13.093Z</time></trkpt><trkpt lat="41.2895521" lon="1.7244724"><ele>118.5</ele><time>2026-04-04T11:09:14.095Z</time></trkpt><trkpt lat="41.2896903" lon="1.724511"><ele>118.75</ele><time>2026-04-04T11:09:15.091Z</time></trkpt><trkpt lat="41.2898342" lon="1.7245074"><ele>119.0</ele><time>2026-04-04T11:09:16.094Z</time></trkpt><trkpt lat="41.2899719" lon="1.7244691"><ele>119.25</ele><time>2026-04-04T11:09:17.102Z</time></trkpt><trkpt lat="41.2901167" lon="1.7244281"><ele>119.5</ele><time>2026-04-04T11:09:18.096Z</time></trkpt><trkpt lat="41.2902532" lon="1.7243894"><ele>119.75</ele><time>2026-04-04T11:09:19.091Z</time></trkpt><trkpt lat="41.2903874" lon="1.724349"><ele>120.0</ele><time>2026-04-04T11:09:20.095Z</time></trkpt><trkpt lat="41.2905043" lon="1.7243096"><ele>120.2</ele><time>2026-04-04T11:09:21.093Z</time></trkpt><trkpt lat="41.2906179" lon="1.7242815"><ele>120.4</ele><time>2026-04-04T11:09:22.09Z</time></trkpt><trkpt lat="41.290728" lon="1.7242825"><ele>120.6</ele><time>2026-04-04T11:09:23.102Z</time></trkpt><trkpt lat="41.2908144" lon="1.7243115"><ele>120.8</ele><time>2026-04-04T11:09:24.106Z</time></trkpt><trkpt lat="41.2908776" lon="1.7243738"><ele>121.0</ele><time>2026-04-04T11:09:25.099Z</time></trkpt><trkpt lat="41.2909113" lon="1.7244719"><ele>121.0</ele><time>2026-04-04T11:09:26.096Z</time></trkpt><trkpt lat="41.2909276" lon="1.7245832"><ele>121.0</ele><time>2026-04-04T11:09:27.067Z</time></trkpt><trkpt lat="41.2909048" lon="1.7246933"><ele>121.0</ele><time>2026-04-04T11:09:28.063Z</time></trkpt><trkpt lat="41.2908479" lon="1.7247947"><ele>121.0</ele><time>2026-04-04T11:09:29.059Z</time></trkpt><trkpt lat="41.2907606" lon="1.7248803"><ele>121.0</ele><time>2026-04-04T11:09:30.058Z</time></trkpt><trkpt lat="41.2906833" lon="1.7249842"><ele>121.0</ele><time>2026-04-04T11:09:31.043Z</time></trkpt><trkpt lat="41.2906291" lon="1.72511"><ele>121.0</ele><time>2026-04-04T11:09:32.041Z</time></trkpt><trkpt lat="41.290617" lon="1.7252376"><ele>121.0</ele><time>2026-04-04T11:09:33.046Z</time></trkpt><trkpt lat="41.2906621" lon="1.7253635"><ele>121.0</ele><time>2026-04-04T11:09:34.056Z</time></trkpt><trkpt lat="41.290736" lon="1.7254678"><ele>121.0</ele><time>2026-04-04T11:09:35.055Z</time></trkpt><trkpt lat="41.2908211" lon="1.7255483"><ele>124.5</ele><time>2026-04-04T11:09:36.052Z</time></trkpt><trkpt lat="41.2909172" lon="1.7256048"><ele>128.0</ele><time>2026-04-04T11:09:37.058Z</time></trkpt><trkpt lat="41.2910321" lon="1.7256284"><ele>131.5</ele><time>2026-04-04T11:09:38.055Z</time></trkpt><trkpt lat="41.291143" lon="1.7256787"><ele>135.0</ele><time>2026-04-04T11:09:39.06Z</time></trkpt><trkpt lat="41.2912479" lon="1.7257533"><ele>135.0</ele><time>2026-04-04T11:09:40.054Z</time></trkpt><trkpt lat="41.2913505" lon="1.7258377"><ele>135.0</ele><time>2026-04-04T11:09:41.048Z</time></trkpt><trkpt lat="41.2914575" lon="1.725904"><ele>135.0</ele><time>2026-04-04T11:09:42.055Z</time></trkpt><trkpt lat="41.2915771" lon="1.7259311"><ele>135.0</ele><time>2026-04-04T11:09:43.053Z</time></trkpt><trkpt lat="41.2917067" lon="1.7259074"><ele>133.75</ele><time>2026-04-04T11:09:44.05Z</time></trkpt><trkpt lat="41.2918407" lon="1.7258812"><ele>132.5</ele><time>2026-04-04T11:09:45.052Z</time></trkpt><trkpt lat="41.291985" lon="1.7258679"><ele>131.25</ele><time>2026-04-04T11:09:46.05Z</time></trkpt><trkpt lat="41.2921316" lon="1.7258635"><ele>130.0</ele><time>2026-04-04T11:09:47.06Z</time></trkpt><trkpt lat="41.2922916" lon="1.7258652"><ele>130.0</ele><time>2026-04-04T11:09:48.066Z</time></trkpt><trkpt lat="41.2924554" lon="1.7258674"><ele>130.0</ele><time>2026-04-04T11:09:49.061Z</time></trkpt><trkpt lat="41.2926143" lon="1.7258695"><ele>130.0</ele><time>2026-04-04T11:09:50.063Z</time></trkpt><trkpt lat="41.2927721" lon="1.7258757"><ele>130.0</ele><time>2026-04-04T11:09:51.058Z</time></trkpt><trkpt lat="41.2929344" lon="1.7258801"><ele>130.0</ele><time>2026-04-04T11:09:52.064Z</time></trkpt><trkpt lat="41.2931008" lon="1.7258947"><ele>130.0</ele><time>2026-04-04T11:09:53.061Z</time></trkpt><trkpt lat="41.2932643" lon="1.7259228"><ele>130.33333333333334</ele><time>2026-04-04T11:09:54.057Z</time></trkpt><trkpt lat="41.2934175" lon="1.7259422"><ele>130.66666666666666</ele><time>2026-04-04T11:09:55.079Z</time></trkpt><trkpt lat="41.2935705" lon="1.7259714"><ele>131.0</ele><time>2026-04-04T11:09:56.064Z</time></trkpt><trkpt lat="41.2937316" lon="1.7259935"><ele>131.0</ele><time>2026-04-04T11:09:57.063Z</time></trkpt><trkpt lat="41.2938937" lon="1.726018"><ele>131.0</ele><time>2026-04-04T11:09:58.067Z</time></trkpt><trkpt lat="41.2940573" lon="1.7260569"><ele>131.0</ele><time>2026-04-04T11:09:59.061Z</time></trkpt><trkpt lat="41.2942295" lon="1.7260951"><ele>136.33333333333331</ele><time>2026-04-04T11:10:00.066Z</time></trkpt><trkpt lat="41.2944042" lon="1.726139"><ele>141.66666666666666</ele><time>2026-04-04T11:10:01.055Z</time></trkpt><trkpt lat="41.2945854" lon="1.7261914"><ele>147.0</ele><time>2026-04-04T11:10:02.056Z</time></trkpt><trkpt lat="41.2947623" lon="1.7262642"><ele>147.0</ele><time>2026-04-04T11:10:03.055Z</time></trkpt><trkpt lat="41.2949443" lon="1.7263268"><ele>147.0</ele><time>2026-04-04T11:10:04.056Z</time></trkpt><trkpt lat="41.2951292" lon="1.7263809"><ele>147.0</ele><time>2026-04-04T11:10:05.053Z</time></trkpt><trkpt lat="41.2953091" lon="1.726425"><ele>147.0</ele><time>2026-04-04T11:10:06.049Z</time></trkpt><trkpt lat="41.2954892" lon="1.7264595"><ele>147.0</ele><time>2026-04-04T11:10:07.052Z</time></trkpt><trkpt lat="41.2956697" lon="1.7264961"><ele>147.0</ele><time>2026-04-04T11:10:08.053Z</time></trkpt><trkpt lat="41.2958522" lon="1.7265365"><ele>144.0</ele><time>2026-04-04T11:10:09.051Z</time></trkpt><trkpt lat="41.2960348" lon="1.7265893"><ele>141.0</ele><time>2026-04-04T11:10:10.053Z</time></trkpt><trkpt lat="41.2962161" lon="1.7266582"><ele>138.0</ele><time>2026-04-04T11:10:11.056Z</time></trkpt><trkpt lat="41.2964009" lon="1.7267315"><ele>140.33333333333334</ele><time>2026-04-04T11:10:12.067Z</time></trkpt><trkpt lat="41.2965857" lon="1.7268112"><ele>142.66666666666669</ele><time>2026-04-04T11:10:13.062Z</time></trkpt><trkpt lat="41.2967691" lon="1.7268865"><ele>145.0</ele><time>2026-04-04T11:10:14.061Z</time></trkpt><trkpt lat="41.2969505" lon="1.7269587"><ele>145.0</ele><time>2026-04-04T11:10:15.063Z</time></trkpt><trkpt lat="41.297133" lon="1.7270325"><ele>145.0</ele><time>2026-04-04T11:10:16.064Z</time></trkpt><trkpt lat="41.2973072" lon="1.7271043"><ele>145.0</ele><time>2026-04-04T11:10:17.068Z</time></trkpt><trkpt lat="41.2974725" lon="1.7271802"><ele>143.0</ele><time>2026-04-04T11:10:18.065Z</time></trkpt><trkpt lat="41.297635" lon="1.7272711"><ele>141.0</ele><time>2026-04-04T11:10:19.059Z</time></trkpt><trkpt lat="41.2977837" lon="1.7273797"><ele>139.0</ele><time>2026-04-04T11:10:20.059Z</time></trkpt><trkpt lat="41.2979282" lon="1.7275072"><ele>139.0</ele><time>2026-04-04T11:10:21.054Z</time></trkpt><trkpt lat="41.2980644" lon="1.7276483"><ele>139.0</ele><time>2026-04-04T11:10:22.059Z</time></trkpt><trkpt lat="41.2981983" lon="1.7277897"><ele>139.0</ele><time>2026-04-04T11:10:23.051Z</time></trkpt><trkpt lat="41.2983315" lon="1.7279395"><ele>140.66666666666669</ele><time>2026-04-04T11:10:24.049Z</time></trkpt><trkpt lat="41.2984555" lon="1.7281005"><ele>142.33333333333334</ele><time>2026-04-04T11:10:25.061Z</time></trkpt><trkpt lat="41.2985774" lon="1.7282633"><ele>144.0</ele><time>2026-04-04T11:10:26.045Z</time></trkpt><trkpt lat="41.2986849" lon="1.7284132"><ele>144.0</ele><time>2026-04-04T11:10:27.043Z</time></trkpt><trkpt lat="41.2987878" lon="1.7285432"><ele>144.0</ele><time>2026-04-04T11:10:28.041Z</time></trkpt><trkpt lat="41.2988983" lon="1.7286782"><ele>144.0</ele><time>2026-04-04T11:10:29.041Z</time></trkpt><trkpt lat="41.2990197" lon="1.7287954"><ele>144.0</ele><time>2026-04-04T11:10:30.042Z</time></trkpt><trkpt lat="41.2991573" lon="1.7288884"><ele>142.66666666666666</ele><time>2026-04-04T11:10:31.015Z</time></trkpt><trkpt lat="41.2993061" lon="1.7289755"><ele>141.33333333333331</ele><time>2026-04-04T11:10:32.042Z</time></trkpt><trkpt lat="41.2994555" lon="1.7290358"><ele>140.0</ele><time>2026-04-04T11:10:33.041Z</time></trkpt><trkpt lat="41.2996115" lon="1.7290619"><ele>140.0</ele><time>2026-04-04T11:10:34.046Z</time></trkpt><trkpt lat="41.299775" lon="1.7290504"><ele>140.0</ele><time>2026-04-04T11:10:35.053Z</time></trkpt><trkpt lat="41.2999367" lon="1.7290151"><ele>140.0</ele><time>2026-04-04T11:10:36.042Z</time></trkpt><trkpt lat="41.3000992" lon="1.7289618"><ele>140.0</ele><time>2026-04-04T11:10:37.042Z</time></trkpt><trkpt lat="41.3002598" lon="1.7288918"><ele>140.0</ele><time>2026-04-04T11:10:38.042Z</time></trkpt><trkpt lat="41.3004113" lon="1.7287919"><ele>140.0</ele><time>2026-04-04T11:10:39.045Z</time></trkpt><trkpt lat="41.3005525" lon="1.7286672"><ele>137.66666666666666</ele><time>2026-04-04T11:10:40.057Z</time></trkpt><trkpt lat="41.30069" lon="1.7285059"><ele>135.33333333333334</ele><time>2026-04-04T11:10:41.046Z</time></trkpt><trkpt lat="41.3008181" lon="1.728327"><ele>133.0</ele><time>2026-04-04T11:10:42.051Z</time></trkpt><trkpt lat="41.3009482" lon="1.7281419"><ele>133.0</ele><time>2026-04-04T11:10:43.047Z</time></trkpt><trkpt lat="41.3010711" lon="1.7279494"><ele>133.0</ele><time>2026-04-04T11:10:44.052Z</time></trkpt><trkpt lat="41.3011762" lon="1.7277551"><ele>133.0</ele><time>2026-04-04T11:10:45.07Z</time></trkpt><trkpt lat="41.3012863" lon="1.7275687"><ele>134.33333333333334</ele><time>2026-04-04T11:10:46.056Z</time></trkpt><trkpt lat="41.3013983" lon="1.7273777"><ele>135.66666666666666</ele><time>2026-04-04T11:10:47.06Z</time></trkpt><trkpt lat="41.3015041" lon="1.727197"><ele>137.0</ele><time>2026-04-04T11:10:48.058Z</time></trkpt><trkpt lat="41.3016014" lon="1.7270186"><ele>136.4</ele><time>2026-04-04T11:10:49.048Z</time></trkpt><trkpt lat="41.3016832" lon="1.7268727"><ele>135.79999999999998</ele><time>2026-04-04T11:10:50.061Z</time></trkpt><trkpt lat="41.3017492" lon="1.7267587"><ele>135.2</ele><time>2026-04-04T11:10:51.053Z</time></trkpt><trkpt lat="41.3017989" lon="1.7266728"><ele>134.6</ele><time>2026-04-04T11:10:52.049Z</time></trkpt><trkpt lat="41.3018599" lon="1.7266177"><ele>134.0</ele><time>2026-04-04T11:10:53.053Z</time></trkpt><trkpt lat="41.3019275" lon="1.726604"><ele>134.0</ele><time>2026-04-04T11:10:54.046Z</time></trkpt><trkpt lat="41.3020115" lon="1.7266133"><ele>134.0</ele><time>2026-04-04T11:10:55.066Z</time></trkpt><trkpt lat="41.3020961" lon="1.7266558"><ele>134.0</ele><time>2026-04-04T11:10:56.065Z</time></trkpt><trkpt lat="41.3021843" lon="1.7267414"><ele>134.0</ele><time>2026-04-04T11:10:57.061Z</time></trkpt><trkpt lat="41.3022816" lon="1.7268258"><ele>134.0</ele><time>2026-04-04T11:10:58.048Z</time></trkpt><trkpt lat="41.3023756" lon="1.7269055"><ele>137.0</ele><time>2026-04-04T11:10:59.047Z</time></trkpt><trkpt lat="41.3024709" lon="1.7270025"><ele>140.0</ele><time>2026-04-04T11:11:00.061Z</time></trkpt><trkpt lat="41.302561" lon="1.7271038"><ele>143.0</ele><time>2026-04-04T11:11:01.037Z</time></trkpt><trkpt lat="41.3026505" lon="1.7272174"><ele>146.0</ele><time>2026-04-04T11:11:02.053Z</time></trkpt><trkpt lat="41.3027427" lon="1.7273335"><ele>146.0</ele><time>2026-04-04T11:11:03.049Z</time></trkpt><trkpt lat="41.3028449" lon="1.727449"><ele>146.0</ele><time>2026-04-04T11:11:04.037Z</time></trkpt><trkpt lat="41.3029497" lon="1.7275556"><ele>146.0</ele><time>2026-04-04T11:11:05.056Z</time></trkpt><trkpt lat="41.3030553" lon="1.7276573"><ele>146.0</ele><time>2026-04-04T11:11:06.012Z</time></trkpt><trkpt lat="41.3031634" lon="1.7277503"><ele>148.5</ele><time>2026-04-04T11:11:07.036Z</time></trkpt><trkpt lat="41.3032718" lon="1.7278492"><ele>151.0</ele><time>2026-04-04T11:11:08.038Z</time></trkpt><trkpt lat="41.3033746" lon="1.7279561"><ele>153.5</ele><time>2026-04-04T11:11:09.038Z</time></trkpt><trkpt lat="41.3034698" lon="1.7280769"><ele>156.0</ele><time>2026-04-04T11:11:10.037Z</time></trkpt><trkpt lat="41.3035611" lon="1.7282082"><ele>156.0</ele><time>2026-04-04T11:11:11.037Z</time></trkpt><trkpt lat="41.303642" lon="1.7283481"><ele>156.0</ele><time>2026-04-04T11:11:12.04Z</time></trkpt><trkpt lat="41.3037203" lon="1.7284919"><ele>156.0</ele><time>2026-04-04T11:11:13.003Z</time></trkpt><trkpt lat="41.3037927" lon="1.7286324"><ele>156.0</ele><time>2026-04-04T11:11:14.042Z</time></trkpt><trkpt lat="41.30386" lon="1.7287768"><ele>156.25</ele><time>2026-04-04T11:11:15.036Z</time></trkpt><trkpt lat="41.3039184" lon="1.7289257"><ele>156.5</ele><time>2026-04-04T11:11:16.043Z</time></trkpt><trkpt lat="41.3039726" lon="1.7290725"><ele>156.75</ele><time>2026-04-04T11:11:17.058Z</time></trkpt><trkpt lat="41.3040409" lon="1.7292062"><ele>157.0</ele><time>2026-04-04T11:11:18.048Z</time></trkpt><trkpt lat="41.3041157" lon="1.7293173"><ele>159.0</ele><time>2026-04-04T11:11:19.039Z</time></trkpt><trkpt lat="41.3042013" lon="1.7294214"><ele>161.0</ele><time>2026-04-04T11:11:20.044Z</time></trkpt><trkpt lat="41.3042921" lon="1.729495"><ele>163.0</ele><time>2026-04-04T11:11:21.046Z</time></trkpt><trkpt lat="41.3043788" lon="1.7295375"><ele>165.0</ele><time>2026-04-04T11:11:22.007Z</time></trkpt><trkpt lat="41.3044611" lon="1.729574"><ele>167.0</ele><time>2026-04-04T11:11:23.02Z</time></trkpt><trkpt lat="41.3045316" lon="1.7296074"><ele>167.0</ele><time>2026-04-04T11:11:23.991Z</time></trkpt><trkpt lat="41.3045902" lon="1.7296465"><ele>167.0</ele><time>2026-04-04T11:11:25.003Z</time></trkpt><trkpt lat="41.3046799" lon="1.7297074"><ele>167.0</ele><time>2026-04-04T11:11:27.005Z</time></trkpt><trkpt lat="41.3047471" lon="1.7297511"><ele>167.0</ele><time>2026-04-04T11:11:29.024Z</time></trkpt><trkpt lat="41.304809" lon="1.7297696"><ele>167.0</ele><time>2026-04-04T11:11:32.036Z</time></trkpt><trkpt lat="41.3048884" lon="1.729823"><ele>167.0</ele><time>2026-04-04T11:11:36.033Z</time></trkpt><trkpt lat="41.3049447" lon="1.7299087"><ele>166.85714285714286</ele><time>2026-04-04T11:11:39.035Z</time></trkpt><trkpt lat="41.3049969" lon="1.7300138"><ele>166.71428571428572</ele><time>2026-04-04T11:11:42.036Z</time></trkpt><trkpt lat="41.3050037" lon="1.730105"><ele>166.57142857142856</ele><time>2026-04-04T11:11:44.05Z</time></trkpt><trkpt lat="41.3049897" lon="1.7301979"><ele>166.42857142857144</ele><time>2026-04-04T11:11:46.041Z</time></trkpt><trkpt lat="41.3049593" lon="1.7302865"><ele>166.2857142857143</ele><time>2026-04-04T11:11:48.044Z</time></trkpt><trkpt lat="41.30493" lon="1.7303671"><ele>166.14285714285714</ele><time>2026-04-04T11:11:50.043Z</time></trkpt><trkpt lat="41.3048864" lon="1.7304449"><ele>166.0</ele><time>2026-04-04T11:11:52.048Z</time></trkpt><trkpt lat="41.3048336" lon="1.7305196"><ele>166.0</ele><time>2026-04-04T11:11:54.091Z</time></trkpt><trkpt lat="41.3047619" lon="1.7306478"><ele>166.0</ele><time>2026-04-04T11:11:57.077Z</time></trkpt><trkpt lat="41.3047609" lon="1.7307512"><ele>166.0</ele><time>2026-04-04T11:11:59.075Z</time></trkpt><trkpt lat="41.3048567" lon="1.7307938"><ele>166.0</ele><time>2026-04-04T11:12:01.058Z</time></trkpt><trkpt lat="41.3049183" lon="1.7307373"><ele>166.0</ele><time>2026-04-04T11:12:02.052Z</time></trkpt><trkpt lat="41.3049747" lon="1.7306607"><ele>166.0</ele><time>2026-04-04T11:12:03.053Z</time></trkpt><trkpt lat="41.3050276" lon="1.7305815"><ele>166.0</ele><time>2026-04-04T11:12:04.06Z</time></trkpt><trkpt lat="41.3050855" lon="1.7304993"><ele>166.0</ele><time>2026-04-04T11:12:05.063Z</time></trkpt><trkpt lat="41.3051506" lon="1.7304284"><ele>166.0</ele><time>2026-04-04T11:12:06.059Z</time></trkpt><trkpt lat="41.3052164" lon="1.7303982"><ele>166.0</ele><time>2026-04-04T11:12:07.062Z</time></trkpt><trkpt lat="41.3052779" lon="1.7304276"><ele>166.0</ele><time>2026-04-04T11:12:08.062Z</time></trkpt><trkpt lat="41.3053143" lon="1.7305049"><ele>166.0</ele><time>2026-04-04T11:12:09.06Z</time></trkpt><trkpt lat="41.3053362" lon="1.730612"><ele>166.0</ele><time>2026-04-04T11:12:10.064Z</time></trkpt><trkpt lat="41.305331" lon="1.7307352"><ele>166.0</ele><time>2026-04-04T11:12:11.062Z</time></trkpt><trkpt lat="41.3053231" lon="1.7308689"><ele>166.0</ele><time>2026-04-04T11:12:12.062Z</time></trkpt><trkpt lat="41.3053168" lon="1.7310065"><ele>166.0</ele><time>2026-04-04T11:12:13.062Z</time></trkpt><trkpt lat="41.3053166" lon="1.7311562"><ele>166.60000000000002</ele><time>2026-04-04T11:12:14.061Z</time></trkpt><trkpt lat="41.3053253" lon="1.7313062"><ele>167.2</ele><time>2026-04-04T11:12:15.068Z</time></trkpt><trkpt lat="41.3053391" lon="1.7314473"><ele>167.8</ele><time>2026-04-04T11:12:16.057Z</time></trkpt><trkpt lat="41.3053577" lon="1.7315707"><ele>168.39999999999998</ele><time>2026-04-04T11:12:17.063Z</time></trkpt><trkpt lat="41.3053781" lon="1.7316837"><ele>169.0</ele><time>2026-04-04T11:12:18.061Z</time></trkpt><trkpt lat="41.3053902" lon="1.7317801"><ele>169.0</ele><time>2026-04-04T11:12:19.054Z</time></trkpt><trkpt lat="41.3053956" lon="1.7318662"><ele>169.0</ele><time>2026-04-04T11:12:20.062Z</time></trkpt><trkpt lat="41.3054026" lon="1.7319583"><ele>169.0</ele><time>2026-04-04T11:12:21.058Z</time></trkpt><trkpt lat="41.3054143" lon="1.7320605"><ele>169.0</ele><time>2026-04-04T11:12:22.065Z</time></trkpt><trkpt lat="41.3054242" lon="1.7321703"><ele>169.0</ele><time>2026-04-04T11:12:23.063Z</time></trkpt><trkpt lat="41.3054296" lon="1.7322842"><ele>169.0</ele><time>2026-04-04T11:12:24.061Z</time></trkpt><trkpt lat="41.3054227" lon="1.7323944"><ele>170.0</ele><time>2026-04-04T11:12:25.059Z</time></trkpt><trkpt lat="41.3054157" lon="1.7325103"><ele>171.0</ele><time>2026-04-04T11:12:26.066Z</time></trkpt><trkpt lat="41.3053996" lon="1.7326289"><ele>172.0</ele><time>2026-04-04T11:12:27.066Z</time></trkpt><trkpt lat="41.3053849" lon="1.7327503"><ele>173.0</ele><time>2026-04-04T11:12:28.062Z</time></trkpt><trkpt lat="41.3053739" lon="1.7328815"><ele>174.0</ele><time>2026-04-04T11:12:29.069Z</time></trkpt><trkpt lat="41.3053621" lon="1.7330166"><ele>174.2</ele><time>2026-04-04T11:12:30.073Z</time></trkpt><trkpt lat="41.3053506" lon="1.733155"><ele>174.39999999999998</ele><time>2026-04-04T11:12:31.063Z</time></trkpt><trkpt lat="41.305337" lon="1.7332981"><ele>174.6</ele><time>2026-04-04T11:12:32.061Z</time></trkpt><trkpt lat="41.3053197" lon="1.7334443"><ele>174.8</ele><time>2026-04-04T11:12:33.057Z</time></trkpt><trkpt lat="41.3053035" lon="1.733588"><ele>175.0</ele><time>2026-04-04T11:12:34.06Z</time></trkpt><trkpt lat="41.3052897" lon="1.7337255"><ele>175.2</ele><time>2026-04-04T11:12:35.062Z</time></trkpt><trkpt lat="41.3052775" lon="1.7338642"><ele>175.4</ele><time>2026-04-04T11:12:36.062Z</time></trkpt><trkpt lat="41.305265" lon="1.734001"><ele>175.60000000000002</ele><time>2026-04-04T11:12:37.063Z</time></trkpt><trkpt lat="41.3052482" lon="1.7341341"><ele>175.8</ele><time>2026-04-04T11:12:38.065Z</time></trkpt><trkpt lat="41.3052347" lon="1.7342663"><ele>176.0</ele><time>2026-04-04T11:12:39.063Z</time></trkpt><trkpt lat="41.3052208" lon="1.7343967"><ele>176.66666666666666</ele><time>2026-04-04T11:12:40.064Z</time></trkpt><trkpt lat="41.3052052" lon="1.7345269"><ele>177.33333333333331</ele><time>2026-04-04T11:12:41.065Z</time></trkpt><trkpt lat="41.3051874" lon="1.7346499"><ele>178.0</ele><time>2026-04-04T11:12:42.062Z</time></trkpt><trkpt lat="41.3051702" lon="1.7347623"><ele>178.66666666666666</ele><time>2026-04-04T11:12:43.06Z</time></trkpt><trkpt lat="41.3051564" lon="1.7348585"><ele>179.33333333333334</ele><time>2026-04-04T11:12:44.061Z</time></trkpt><trkpt lat="41.305147" lon="1.7349458"><ele>180.0</ele><time>2026-04-04T11:12:45.068Z</time></trkpt><trkpt lat="41.3051419" lon="1.7350314"><ele>180.0</ele><time>2026-04-04T11:12:46.064Z</time></trkpt><trkpt lat="41.3051348" lon="1.7351224"><ele>180.0</ele><time>2026-04-04T11:12:47.07Z</time></trkpt><trkpt lat="41.3051258" lon="1.7352105"><ele>180.0</ele><time>2026-04-04T11:12:48.063Z</time></trkpt><trkpt lat="41.3051163" lon="1.7352988"><ele>180.0</ele><time>2026-04-04T11:12:49.059Z</time></trkpt><trkpt lat="41.3051094" lon="1.735384"><ele>180.0</ele><time>2026-04-04T11:12:50.065Z</time></trkpt><trkpt lat="41.3051041" lon="1.7354701"><ele>180.0</ele><time>2026-04-04T11:12:51.065Z</time></trkpt><trkpt lat="41.3051014" lon="1.7355539"><ele>180.0</ele><time>2026-04-04T11:12:52.068Z</time></trkpt><trkpt lat="41.3051212" lon="1.735712"><ele>180.33333333333334</ele><time>2026-04-04T11:12:54.062Z</time></trkpt><trkpt lat="41.3051783" lon="1.735862"><ele>180.66666666666666</ele><time>2026-04-04T11:12:56.059Z</time></trkpt><trkpt lat="41.3052201" lon="1.7359426"><ele>181.0</ele><time>2026-04-04T11:12:57.068Z</time></trkpt><trkpt lat="41.3052684" lon="1.7360234"><ele>181.33333333333331</ele><time>2026-04-04T11:12:58.063Z</time></trkpt><trkpt lat="41.305321" lon="1.736113"><ele>181.66666666666666</ele><time>2026-04-04T11:12:59.06Z</time></trkpt><trkpt lat="41.305372" lon="1.7362028"><ele>182.0</ele><time>2026-04-04T11:13:00.076Z</time></trkpt><trkpt lat="41.3054154" lon="1.7362918"><ele>182.0</ele><time>2026-04-04T11:13:01.065Z</time></trkpt><trkpt lat="41.3054556" lon="1.7363755"><ele>182.0</ele><time>2026-04-04T11:13:02.067Z</time></trkpt><trkpt lat="41.3054948" lon="1.7364565"><ele>182.0</ele><time>2026-04-04T11:13:03.064Z</time></trkpt><trkpt lat="41.3055441" lon="1.7365306"><ele>182.0</ele><time>2026-04-04T11:13:04.063Z</time></trkpt><trkpt lat="41.3055925" lon="1.7365928"><ele>182.0</ele><time>2026-04-04T11:13:05.057Z</time></trkpt><trkpt lat="41.3056446" lon="1.7366745"><ele>182.0</ele><time>2026-04-04T11:13:07.06Z</time></trkpt><trkpt lat="41.3057432" lon="1.7367225"><ele>182.0</ele><time>2026-04-04T11:13:24.06Z</time></trkpt><trkpt lat="41.3058237" lon="1.7367924"><ele>182.0</ele><time>2026-04-04T11:13:26.054Z</time></trkpt><trkpt lat="41.3059074" lon="1.736854"><ele>182.0</ele><time>2026-04-04T11:13:28.053Z</time></trkpt><trkpt lat="41.3059921" lon="1.736916"><ele>182.0</ele><time>2026-04-04T11:13:30.045Z</time></trkpt><trkpt lat="41.3061064" lon="1.7369184"><ele>182.0</ele><time>2026-04-04T11:13:32.062Z</time></trkpt><trkpt lat="41.306225" lon="1.7369011"><ele>182.0</ele><time>2026-04-04T11:13:34.059Z</time></trkpt><trkpt lat="41.3063456" lon="1.7368932"><ele>182.0</ele><time>2026-04-04T11:13:36.05Z</time></trkpt><trkpt lat="41.3064089" lon="1.7368899"><ele>182.0</ele><time>2026-04-04T11:13:37.069Z</time></trkpt><trkpt lat="41.3064759" lon="1.7368891"><ele>182.0</ele><time>2026-04-04T11:13:38.064Z</time></trkpt><trkpt lat="41.306547" lon="1.7368981"><ele>182.0</ele><time>2026-04-04T11:13:39.08Z</time></trkpt><trkpt lat="41.3066153" lon="1.736925"><ele>182.0</ele><time>2026-04-04T11:13:40.072Z</time></trkpt><trkpt lat="41.3066842" lon="1.7369671"><ele>182.71428571428572</ele><time>2026-04-04T11:13:41.065Z</time></trkpt><trkpt lat="41.3067546" lon="1.7370157"><ele>183.42857142857144</ele><time>2026-04-04T11:13:42.064Z</time></trkpt><trkpt lat="41.3068182" lon="1.737061"><ele>184.14285714285714</ele><time>2026-04-04T11:13:43.069Z</time></trkpt><trkpt lat="41.3068835" lon="1.737089"><ele>184.85714285714286</ele><time>2026-04-04T11:13:44.069Z</time></trkpt><trkpt lat="41.3069494" lon="1.7371045"><ele>185.57142857142858</ele><time>2026-04-04T11:13:45.054Z</time></trkpt><trkpt lat="41.3070187" lon="1.7371077"><ele>186.28571428571428</ele><time>2026-04-04T11:13:46.056Z</time></trkpt><trkpt lat="41.307087" lon="1.7371171"><ele>187.0</ele><time>2026-04-04T11:13:47.075Z</time></trkpt><trkpt lat="41.307158" lon="1.7371256"><ele>187.0</ele><time>2026-04-04T11:13:48.068Z</time></trkpt><trkpt lat="41.3072332" lon="1.7371229"><ele>187.0</ele><time>2026-04-04T11:13:49.07Z</time></trkpt><trkpt lat="41.3073202" lon="1.7371141"><ele>187.0</ele><time>2026-04-04T11:13:50.074Z</time></trkpt><trkpt lat="41.3074157" lon="1.7371045"><ele>187.0</ele><time>2026-04-04T11:13:51.078Z</time></trkpt><trkpt lat="41.3075162" lon="1.7370958"><ele>187.0</ele><time>2026-04-04T11:13:52.071Z</time></trkpt><trkpt lat="41.307621" lon="1.7370839"><ele>188.0</ele><time>2026-04-04T11:13:53.085Z</time></trkpt><trkpt lat="41.3077314" lon="1.7370708"><ele>189.0</ele><time>2026-04-04T11:13:54.062Z</time></trkpt><trkpt lat="41.3078365" lon="1.7370592"><ele>190.0</ele><time>2026-04-04T11:13:55.072Z</time></trkpt><trkpt lat="41.3079393" lon="1.7370481"><ele>191.0</ele><time>2026-04-04T11:13:56.077Z</time></trkpt><trkpt lat="41.3080401" lon="1.7370306"><ele>192.0</ele><time>2026-04-04T11:13:57.075Z</time></trkpt><trkpt lat="41.3081426" lon="1.73701"><ele>192.0</ele><time>2026-04-04T11:13:58.083Z</time></trkpt><trkpt lat="41.3082406" lon="1.7369803"><ele>192.0</ele><time>2026-04-04T11:13:59.063Z</time></trkpt><trkpt lat="41.3083369" lon="1.7369464"><ele>192.0</ele><time>2026-04-04T11:14:00.063Z</time></trkpt><trkpt lat="41.3084343" lon="1.7369123"><ele>192.0</ele><time>2026-04-04T11:14:01.064Z</time></trkpt><trkpt lat="41.3085344" lon="1.7368719"><ele>192.0</ele><time>2026-04-04T11:14:02.074Z</time></trkpt><trkpt lat="41.3086362" lon="1.7368282"><ele>193.8</ele><time>2026-04-04T11:14:03.075Z</time></trkpt><trkpt lat="41.3087375" lon="1.7367802"><ele>195.6</ele><time>2026-04-04T11:14:04.062Z</time></trkpt><trkpt lat="41.3088358" lon="1.7367314"><ele>197.4</ele><time>2026-04-04T11:14:05.067Z</time></trkpt><trkpt lat="41.3089228" lon="1.7366843"><ele>199.20000000000002</ele><time>2026-04-04T11:14:06.065Z</time></trkpt><trkpt lat="41.3089972" lon="1.736651"><ele>201.0</ele><time>2026-04-04T11:14:07.066Z</time></trkpt><trkpt lat="41.309097" lon="1.736679"><ele>201.66666666666666</ele><time>2026-04-04T11:14:09.069Z</time></trkpt><trkpt lat="41.3092011" lon="1.7367125"><ele>202.33333333333331</ele><time>2026-04-04T11:14:11.065Z</time></trkpt><trkpt lat="41.3092761" lon="1.7367118"><ele>203.0</ele><time>2026-04-04T11:14:12.006Z</time></trkpt><trkpt lat="41.3093627" lon="1.736709"><ele>203.66666666666666</ele><time>2026-04-04T11:14:13.04Z</time></trkpt><trkpt lat="41.3094521" lon="1.7367132"><ele>204.33333333333331</ele><time>2026-04-04T11:14:14.037Z</time></trkpt><trkpt lat="41.3095379" lon="1.7367075"><ele>205.0</ele><time>2026-04-04T11:14:15.061Z</time></trkpt><trkpt lat="41.309618" lon="1.7366869"><ele>205.0</ele><time>2026-04-04T11:14:16.063Z</time></trkpt><trkpt lat="41.3096979" lon="1.7366587"><ele>205.0</ele><time>2026-04-04T11:14:17.06Z</time></trkpt><trkpt lat="41.3097699" lon="1.7366236"><ele>205.0</ele><time>2026-04-04T11:14:18.059Z</time></trkpt><trkpt lat="41.3098312" lon="1.7365729"><ele>205.0</ele><time>2026-04-04T11:14:19.075Z</time></trkpt><trkpt lat="41.3098902" lon="1.7365158"><ele>205.0</ele><time>2026-04-04T11:14:20.058Z</time></trkpt><trkpt lat="41.3099484" lon="1.7364656"><ele>205.0</ele><time>2026-04-04T11:14:21.05Z</time></trkpt><trkpt lat="41.3100083" lon="1.7364198"><ele>205.0</ele><time>2026-04-04T11:14:22.055Z</time></trkpt><trkpt lat="41.3100705" lon="1.7363844"><ele>203.6</ele><time>2026-04-04T11:14:23.021Z</time></trkpt><trkpt lat="41.3101339" lon="1.7363566"><ele>202.2</ele><time>2026-04-04T11:14:24.058Z</time></trkpt><trkpt lat="41.31025" lon="1.7363234"><ele>200.8</ele><time>2026-04-04T11:14:26.071Z</time></trkpt><trkpt lat="41.3103452" lon="1.7363218"><ele>199.4</ele><time>2026-04-04T11:14:28.084Z</time></trkpt><trkpt lat="41.3104322" lon="1.7363355"><ele>198.0</ele><time>2026-04-04T11:14:30.087Z</time></trkpt><trkpt lat="41.3105097" lon="1.7363879"><ele>197.8</ele><time>2026-04-04T11:14:32.079Z</time></trkpt><trkpt lat="41.3105841" lon="1.7364724"><ele>197.60000000000002</ele><time>2026-04-04T11:14:34.076Z</time></trkpt><trkpt lat="41.3106558" lon="1.7365542"><ele>197.39999999999998</ele><time>2026-04-04T11:14:36.071Z</time></trkpt><trkpt lat="41.3107342" lon="1.7366292"><ele>197.2</ele><time>2026-04-04T11:14:38.074Z</time></trkpt><trkpt lat="41.3108236" lon="1.7367067"><ele>197.0</ele><time>2026-04-04T11:14:40.072Z</time></trkpt><trkpt lat="41.3108831" lon="1.7367558"><ele>197.00000000000003</ele><time>2026-04-04T11:14:41.072Z</time></trkpt><trkpt lat="41.3109476" lon="1.7368075"><ele>197.0</ele><time>2026-04-04T11:14:42.077Z</time></trkpt><trkpt lat="41.3110159" lon="1.7368666"><ele>197.0</ele><time>2026-04-04T11:14:43.08Z</time></trkpt><trkpt lat="41.3110872" lon="1.7369384"><ele>197.0</ele><time>2026-04-04T11:14:44.077Z</time></trkpt><trkpt lat="41.3111565" lon="1.7370224"><ele>197.00000000000003</ele><time>2026-04-04T11:14:45.072Z</time></trkpt><trkpt lat="41.3112214" lon="1.7371186"><ele>197.0</ele><time>2026-04-04T11:14:46.075Z</time></trkpt><trkpt lat="41.311266" lon="1.7372288"><ele>197.8</ele><time>2026-04-04T11:14:47.077Z</time></trkpt><trkpt lat="41.3112936" lon="1.7373506"><ele>198.6</ele><time>2026-04-04T11:14:48.068Z</time></trkpt><trkpt lat="41.3113073" lon="1.737461"><ele>199.4</ele><time>2026-04-04T11:14:49.069Z</time></trkpt><trkpt lat="41.3113151" lon="1.7375524"><ele>200.20000000000002</ele><time>2026-04-04T11:14:50.061Z</time></trkpt><trkpt lat="41.3113391" lon="1.7376959"><ele>201.0</ele><time>2026-04-04T11:14:52.056Z</time></trkpt><trkpt lat="41.3114157" lon="1.7377837"><ele>201.0</ele><time>2026-04-04T11:14:54.059Z</time></trkpt><trkpt lat="41.3115401" lon="1.7378266"><ele>201.0</ele><time>2026-04-04T11:14:56.05Z</time></trkpt><trkpt lat="41.3116142" lon="1.7378475"><ele>201.0</ele><time>2026-04-04T11:14:57.072Z</time></trkpt><trkpt lat="41.311688" lon="1.7378765"><ele>201.0</ele><time>2026-04-04T11:14:58.051Z</time></trkpt><trkpt lat="41.3117653" lon="1.7379156"><ele>201.0</ele><time>2026-04-04T11:14:59.045Z</time></trkpt><trkpt lat="41.3118389" lon="1.7379535"><ele>201.0</ele><time>2026-04-04T11:15:00.048Z</time></trkpt><trkpt lat="41.3119143" lon="1.7379926"><ele>201.0</ele><time>2026-04-04T11:15:01.051Z</time></trkpt><trkpt lat="41.3119906" lon="1.7380346"><ele>201.0</ele><time>2026-04-04T11:15:02.058Z</time></trkpt><trkpt lat="41.3120721" lon="1.7380741"><ele>201.0</ele><time>2026-04-04T11:15:03.056Z</time></trkpt><trkpt lat="41.3121584" lon="1.738109"><ele>201.0</ele><time>2026-04-04T11:15:04.063Z</time></trkpt><trkpt lat="41.3122482" lon="1.7381385"><ele>201.0</ele><time>2026-04-04T11:15:05.055Z</time></trkpt><trkpt lat="41.3123454" lon="1.7381649"><ele>202.20000000000002</ele><time>2026-04-04T11:15:06.058Z</time></trkpt><trkpt lat="41.3124469" lon="1.738199"><ele>203.4</ele><time>2026-04-04T11:15:07.054Z</time></trkpt><trkpt lat="41.3125501" lon="1.738241"><ele>204.6</ele><time>2026-04-04T11:15:08.064Z</time></trkpt><trkpt lat="41.3126526" lon="1.7382818"><ele>205.8</ele><time>2026-04-04T11:15:09.061Z</time></trkpt><trkpt lat="41.3127561" lon="1.738327"><ele>207.0</ele><time>2026-04-04T11:15:10.059Z</time></trkpt><trkpt lat="41.3128593" lon="1.7383808"><ele>207.0</ele><time>2026-04-04T11:15:11.058Z</time></trkpt><trkpt lat="41.3129704" lon="1.7384348"><ele>207.0</ele><time>2026-04-04T11:15:12.062Z</time></trkpt><trkpt lat="41.3130813" lon="1.7384809"><ele>207.0</ele><time>2026-04-04T11:15:13.059Z</time></trkpt><trkpt lat="41.3131887" lon="1.7385056"><ele>207.0</ele><time>2026-04-04T11:15:14.058Z</time></trkpt><trkpt lat="41.3132774" lon="1.7385007"><ele>207.0</ele><time>2026-04-04T11:15:15.066Z</time></trkpt><trkpt lat="41.3133425" lon="1.7384793"><ele>206.8</ele><time>2026-04-04T11:15:16.068Z</time></trkpt><trkpt lat="41.3134713" lon="1.7384902"><ele>206.6</ele><time>2026-04-04T11:15:18.067Z</time></trkpt><trkpt lat="41.3135426" lon="1.7385383"><ele>206.4</ele><time>2026-04-04T11:15:19.053Z</time></trkpt><trkpt lat="41.3136303" lon="1.7385922"><ele>206.20000000000002</ele><time>2026-04-04T11:15:20.061Z</time></trkpt><trkpt lat="41.3137265" lon="1.7386571"><ele>206.0</ele><time>2026-04-04T11:15:21.059Z</time></trkpt><trkpt lat="41.3138271" lon="1.7387331"><ele>207.0</ele><time>2026-04-04T11:15:22.058Z</time></trkpt><trkpt lat="41.3139287" lon="1.7388263"><ele>208.0</ele><time>2026-04-04T11:15:23.067Z</time></trkpt><trkpt lat="41.3140278" lon="1.7389402"><ele>209.0</ele><time>2026-04-04T11:15:24.07Z</time></trkpt><trkpt lat="41.3141216" lon="1.7390537"><ele>210.0</ele><time>2026-04-04T11:15:25.056Z</time></trkpt><trkpt lat="41.3142095" lon="1.7391564"><ele>210.0</ele><time>2026-04-04T11:15:26.062Z</time></trkpt><trkpt lat="41.3142896" lon="1.7392238"><ele>210.0</ele><time>2026-04-04T11:15:27.066Z</time></trkpt><trkpt lat="41.314365" lon="1.7392746"><ele>210.0</ele><time>2026-04-04T11:15:28.079Z</time></trkpt><trkpt lat="41.3144405" lon="1.7393137"><ele>210.0</ele><time>2026-04-04T11:15:29.068Z</time></trkpt><trkpt lat="41.3145153" lon="1.7393338"><ele>210.0</ele><time>2026-04-04T11:15:30.066Z</time></trkpt><trkpt lat="41.3145877" lon="1.7393355"><ele>210.0</ele><time>2026-04-04T11:15:31.067Z</time></trkpt><trkpt lat="41.3146571" lon="1.7393383"><ele>210.66666666666666</ele><time>2026-04-04T11:15:32.066Z</time></trkpt><trkpt lat="41.3147742" lon="1.739406"><ele>211.33333333333331</ele><time>2026-04-04T11:15:34.056Z</time></trkpt><trkpt lat="41.3148249" lon="1.7394659"><ele>212.0</ele><time>2026-04-04T11:15:35.028Z</time></trkpt><trkpt lat="41.3148544" lon="1.7395493"><ele>212.66666666666666</ele><time>2026-04-04T11:15:36.069Z</time></trkpt><trkpt lat="41.314858" lon="1.7396673"><ele>213.33333333333331</ele><time>2026-04-04T11:15:37.068Z</time></trkpt><trkpt lat="41.3148587" lon="1.7397899"><ele>214.0</ele><time>2026-04-04T11:15:38.068Z</time></trkpt><trkpt lat="41.3148662" lon="1.7398989"><ele>213.99999999999997</ele><time>2026-04-04T11:15:39.072Z</time></trkpt><trkpt lat="41.3148671" lon="1.7399935"><ele>214.0</ele><time>2026-04-04T11:15:40.049Z</time></trkpt><trkpt lat="41.3148547" lon="1.7400815"><ele>214.0</ele><time>2026-04-04T11:15:41.063Z</time></trkpt><trkpt lat="41.314813" lon="1.7401564"><ele>214.0</ele><time>2026-04-04T11:15:42.056Z</time></trkpt><trkpt lat="41.3147668" lon="1.7402304"><ele>213.99999999999997</ele><time>2026-04-04T11:15:43.051Z</time></trkpt><trkpt lat="41.3147505" lon="1.7403819"><ele>214.0</ele><time>2026-04-04T11:15:45.068Z</time></trkpt><trkpt lat="41.3147836" lon="1.7404613"><ele>214.39999999999998</ele><time>2026-04-04T11:15:46.071Z</time></trkpt><trkpt lat="41.3148333" lon="1.7405482"><ele>214.79999999999998</ele><time>2026-04-04T11:15:47.067Z</time></trkpt><trkpt lat="41.3148987" lon="1.7406458"><ele>215.20000000000002</ele><time>2026-04-04T11:15:48.071Z</time></trkpt><trkpt lat="41.314957" lon="1.7407582"><ele>215.60000000000002</ele><time>2026-04-04T11:15:49.065Z</time></trkpt><trkpt lat="41.3150053" lon="1.7408853"><ele>216.0</ele><time>2026-04-04T11:15:50.056Z</time></trkpt><trkpt lat="41.315055" lon="1.7410217"><ele>216.75</ele><time>2026-04-04T11:15:51.071Z</time></trkpt><trkpt lat="41.3151059" lon="1.7411675"><ele>217.5</ele><time>2026-04-04T11:15:52.048Z</time></trkpt><trkpt lat="41.3151505" lon="1.7413122"><ele>218.25</ele><time>2026-04-04T11:15:53.079Z</time></trkpt><trkpt lat="41.315195" lon="1.7414603"><ele>219.0</ele><time>2026-04-04T11:15:54.067Z</time></trkpt><trkpt lat="41.3152363" lon="1.7416064"><ele>219.0</ele><time>2026-04-04T11:15:55.065Z</time></trkpt><trkpt lat="41.3152815" lon="1.7417434"><ele>219.0</ele><time>2026-04-04T11:15:56.058Z</time></trkpt><trkpt lat="41.3153316" lon="1.7418929"><ele>219.0</ele><time>2026-04-04T11:15:57.075Z</time></trkpt><trkpt lat="41.3153751" lon="1.742042"><ele>219.0</ele><time>2026-04-04T11:15:58.063Z</time></trkpt><trkpt lat="41.3154087" lon="1.7421768"><ele>219.33333333333334</ele><time>2026-04-04T11:15:59.071Z</time></trkpt><trkpt lat="41.3154179" lon="1.7422843"><ele>219.66666666666669</ele><time>2026-04-04T11:16:00.064Z</time></trkpt><trkpt lat="41.3154019" lon="1.7423738"><ele>220.0</ele><time>2026-04-04T11:16:01.064Z</time></trkpt><trkpt lat="41.31537" lon="1.7424542"><ele>220.33333333333334</ele><time>2026-04-04T11:16:02.075Z</time></trkpt><trkpt lat="41.3153233" lon="1.7425361"><ele>220.66666666666669</ele><time>2026-04-04T11:16:03.059Z</time></trkpt><trkpt lat="41.3152666" lon="1.7426273"><ele>221.0</ele><time>2026-04-04T11:16:04.057Z</time></trkpt><trkpt lat="41.3152119" lon="1.7427219"><ele>221.16666666666669</ele><time>2026-04-04T11:16:05.055Z</time></trkpt><trkpt lat="41.3151718" lon="1.742822"><ele>221.33333333333334</ele><time>2026-04-04T11:16:06.064Z</time></trkpt><trkpt lat="41.3151486" lon="1.7429254"><ele>221.5</ele><time>2026-04-04T11:16:07.064Z</time></trkpt><trkpt lat="41.3151478" lon="1.7430349"><ele>221.66666666666669</ele><time>2026-04-04T11:16:08.061Z</time></trkpt><trkpt lat="41.3151712" lon="1.7431288"><ele>221.83333333333334</ele><time>2026-04-04T11:16:09.061Z</time></trkpt><trkpt lat="41.3152352" lon="1.7432284"><ele>222.0</ele><time>2026-04-04T11:16:10.059Z</time></trkpt><trkpt lat="41.3153057" lon="1.7433394"><ele>222.0</ele><time>2026-04-04T11:16:11.06Z</time></trkpt><trkpt lat="41.315375" lon="1.7434531"><ele>222.0</ele><time>2026-04-04T11:16:12.035Z</time></trkpt><trkpt lat="41.3154405" lon="1.7435733"><ele>222.0</ele><time>2026-04-04T11:16:13.062Z</time></trkpt><trkpt lat="41.3154992" lon="1.7436947"><ele>222.0</ele><time>2026-04-04T11:16:14.058Z</time></trkpt><trkpt lat="41.3155612" lon="1.7438108"><ele>222.0</ele><time>2026-04-04T11:16:15.067Z</time></trkpt><trkpt lat="41.3156347" lon="1.7439069"><ele>223.6</ele><time>2026-04-04T11:16:16.063Z</time></trkpt><trkpt lat="41.3157167" lon="1.7439773"><ele>225.2</ele><time>2026-04-04T11:16:17.055Z</time></trkpt><trkpt lat="41.3157987" lon="1.7440515"><ele>226.8</ele><time>2026-04-04T11:16:18.021Z</time></trkpt><trkpt lat="41.3158693" lon="1.7441402"><ele>228.4</ele><time>2026-04-04T11:16:19.074Z</time></trkpt><trkpt lat="41.3159162" lon="1.7442422"><ele>230.0</ele><time>2026-04-04T11:16:20.064Z</time></trkpt><trkpt lat="41.315944" lon="1.744348"><ele>230.16666666666669</ele><time>2026-04-04T11:16:21.064Z</time></trkpt><trkpt lat="41.3159822" lon="1.7444489"><ele>230.33333333333334</ele><time>2026-04-04T11:16:22.06Z</time></trkpt><trkpt lat="41.3160318" lon="1.7445581"><ele>230.5</ele><time>2026-04-04T11:16:23.09Z</time></trkpt><trkpt lat="41.3160853" lon="1.7446628"><ele>230.66666666666669</ele><time>2026-04-04T11:16:24.057Z</time></trkpt><trkpt lat="41.3161228" lon="1.7447664"><ele>230.83333333333334</ele><time>2026-04-04T11:16:25.068Z</time></trkpt><trkpt lat="41.316127" lon="1.7448686"><ele>231.0</ele><time>2026-04-04T11:16:26.069Z</time></trkpt><trkpt lat="41.3160883" lon="1.744967"><ele>231.0</ele><time>2026-04-04T11:16:27.067Z</time></trkpt><trkpt lat="41.3160188" lon="1.7450435"><ele>231.0</ele><time>2026-04-04T11:16:28.074Z</time></trkpt><trkpt lat="41.3159406" lon="1.7450866"><ele>231.0</ele><time>2026-04-04T11:16:29.058Z</time></trkpt><trkpt lat="41.3158635" lon="1.745104"><ele>231.0</ele><time>2026-04-04T11:16:30.057Z</time></trkpt><trkpt lat="41.3157816" lon="1.7451662"><ele>231.0</ele><time>2026-04-04T11:16:32.059Z</time></trkpt><trkpt lat="41.3158426" lon="1.745275"><ele>231.0</ele><time>2026-04-04T11:16:34.066Z</time></trkpt><trkpt lat="41.3159072" lon="1.7453227"><ele>231.8</ele><time>2026-04-04T11:16:35.068Z</time></trkpt><trkpt lat="41.3159707" lon="1.7453804"><ele>232.60000000000002</ele><time>2026-04-04T11:16:36.065Z</time></trkpt><trkpt lat="41.3160409" lon="1.7454442"><ele>233.4</ele><time>2026-04-04T11:16:37.076Z</time></trkpt><trkpt lat="41.3161125" lon="1.7455151"><ele>234.2</ele><time>2026-04-04T11:16:38.085Z</time></trkpt><trkpt lat="41.3161896" lon="1.745604"><ele>235.0</ele><time>2026-04-04T11:16:39.068Z</time></trkpt><trkpt lat="41.3162616" lon="1.745716"><ele>235.0</ele><time>2026-04-04T11:16:40.061Z</time></trkpt><trkpt lat="41.3163169" lon="1.7458289"><ele>235.0</ele><time>2026-04-04T11:16:41.055Z</time></trkpt><trkpt lat="41.3163782" lon="1.745923"><ele>235.0</ele><time>2026-04-04T11:16:42.075Z</time></trkpt><trkpt lat="41.3164527" lon="1.7460016"><ele>235.0</ele><time>2026-04-04T11:16:43.083Z</time></trkpt><trkpt lat="41.3165481" lon="1.7460699"><ele>235.0</ele><time>2026-04-04T11:16:44.068Z</time></trkpt><trkpt lat="41.3166481" lon="1.7461537"><ele>236.75</ele><time>2026-04-04T11:16:45.055Z</time></trkpt><trkpt lat="41.3167399" lon="1.7462361"><ele>238.5</ele><time>2026-04-04T11:16:46.056Z</time></trkpt><trkpt lat="41.3168309" lon="1.7463279"><ele>240.25</ele><time>2026-04-04T11:16:47.069Z</time></trkpt><trkpt lat="41.3169221" lon="1.7464247"><ele>242.0</ele><time>2026-04-04T11:16:48.084Z</time></trkpt><trkpt lat="41.3170079" lon="1.7465264"><ele>242.0</ele><time>2026-04-04T11:16:49.072Z</time></trkpt><trkpt lat="41.31708" lon="1.7466397"><ele>242.0</ele><time>2026-04-04T11:16:50.072Z</time></trkpt><trkpt lat="41.3171389" lon="1.7467642"><ele>242.0</ele><time>2026-04-04T11:16:51.072Z</time></trkpt><trkpt lat="41.317189" lon="1.7468848"><ele>242.0</ele><time>2026-04-04T11:16:52.07Z</time></trkpt><trkpt lat="41.3172361" lon="1.7469832"><ele>242.0</ele><time>2026-04-04T11:16:53.082Z</time></trkpt><trkpt lat="41.3172868" lon="1.7470342"><ele>242.83333333333334</ele><time>2026-04-04T11:16:54.066Z</time></trkpt><trkpt lat="41.3173484" lon="1.7470636"><ele>243.66666666666669</ele><time>2026-04-04T11:16:55.016Z</time></trkpt><trkpt lat="41.3174147" lon="1.7470939"><ele>244.5</ele><time>2026-04-04T11:16:56.064Z</time></trkpt><trkpt lat="41.3174891" lon="1.7471408"><ele>245.33333333333331</ele><time>2026-04-04T11:16:57.063Z</time></trkpt><trkpt lat="41.3175706" lon="1.7472041"><ele>246.16666666666666</ele><time>2026-04-04T11:16:58.071Z</time></trkpt><trkpt lat="41.3176552" lon="1.7472727"><ele>247.0</ele><time>2026-04-04T11:16:59.059Z</time></trkpt><trkpt lat="41.3177514" lon="1.7473454"><ele>247.0</ele><time>2026-04-04T11:17:00.062Z</time></trkpt><trkpt lat="41.3178579" lon="1.7474166"><ele>247.0</ele><time>2026-04-04T11:17:01.057Z</time></trkpt><trkpt lat="41.3179732" lon="1.7475011"><ele>247.0</ele><time>2026-04-04T11:17:02.059Z</time></trkpt><trkpt lat="41.3180898" lon="1.7475949"><ele>247.0</ele><time>2026-04-04T11:17:03.053Z</time></trkpt><trkpt lat="41.3182052" lon="1.7476979"><ele>249.0</ele><time>2026-04-04T11:17:04.066Z</time></trkpt><trkpt lat="41.3183152" lon="1.7478097"><ele>251.0</ele><time>2026-04-04T11:17:05.074Z</time></trkpt><trkpt lat="41.3184245" lon="1.7479275"><ele>253.0</ele><time>2026-04-04T11:17:06.07Z</time></trkpt><trkpt lat="41.3185294" lon="1.7480343"><ele>255.0</ele><time>2026-04-04T11:17:07.064Z</time></trkpt><trkpt lat="41.3186314" lon="1.7481304"><ele>255.0</ele><time>2026-04-04T11:17:08.075Z</time></trkpt><trkpt lat="41.3187436" lon="1.7481982"><ele>255.0</ele><time>2026-04-04T11:17:09.057Z</time></trkpt><trkpt lat="41.3188583" lon="1.7482501"><ele>255.0</ele><time>2026-04-04T11:17:10.057Z</time></trkpt><trkpt lat="41.3189693" lon="1.7483001"><ele>255.0</ele><time>2026-04-04T11:17:11.067Z</time></trkpt><trkpt lat="41.3190754" lon="1.7483539"><ele>255.2</ele><time>2026-04-04T11:17:12.067Z</time></trkpt><trkpt lat="41.319171" lon="1.748411"><ele>255.4</ele><time>2026-04-04T11:17:13.058Z</time></trkpt><trkpt lat="41.3192498" lon="1.7484798"><ele>255.60000000000002</ele><time>2026-04-04T11:17:14.024Z</time></trkpt><trkpt lat="41.3193008" lon="1.7485694"><ele>255.8</ele><time>2026-04-04T11:17:15.067Z</time></trkpt><trkpt lat="41.3193412" lon="1.7486893"><ele>256.0</ele><time>2026-04-04T11:17:16.063Z</time></trkpt><trkpt lat="41.3193773" lon="1.7488379"><ele>256.0</ele><time>2026-04-04T11:17:17.061Z</time></trkpt><trkpt lat="41.31942" lon="1.7489893"><ele>256.0</ele><time>2026-04-04T11:17:18.064Z</time></trkpt><trkpt lat="41.3194606" lon="1.7491403"><ele>256.0</ele><time>2026-04-04T11:17:19.069Z</time></trkpt><trkpt lat="41.3194933" lon="1.7492857"><ele>256.0</ele><time>2026-04-04T11:17:20.07Z</time></trkpt><trkpt lat="41.3195281" lon="1.7494423"><ele>255.5</ele><time>2026-04-04T11:17:21.072Z</time></trkpt><trkpt lat="41.3195639" lon="1.7496109"><ele>255.0</ele><time>2026-04-04T11:17:22.069Z</time></trkpt><trkpt lat="41.3195985" lon="1.7497815"><ele>254.5</ele><time>2026-04-04T11:17:23.084Z</time></trkpt><trkpt lat="41.3196335" lon="1.7499407"><ele>254.0</ele><time>2026-04-04T11:17:24.062Z</time></trkpt><trkpt lat="41.3196617" lon="1.7500876"><ele>254.33333333333334</ele><time>2026-04-04T11:17:25.068Z</time></trkpt><trkpt lat="41.3196786" lon="1.7502233"><ele>254.66666666666669</ele><time>2026-04-04T11:17:26.072Z</time></trkpt><trkpt lat="41.3196774" lon="1.7503454"><ele>255.0</ele><time>2026-04-04T11:17:27.065Z</time></trkpt><trkpt lat="41.3196643" lon="1.7504637"><ele>255.33333333333331</ele><time>2026-04-04T11:17:28.072Z</time></trkpt><trkpt lat="41.3196498" lon="1.7505742"><ele>255.66666666666666</ele><time>2026-04-04T11:17:29.065Z</time></trkpt><trkpt lat="41.3196359" lon="1.7506731"><ele>256.0</ele><time>2026-04-04T11:17:30.064Z</time></trkpt><trkpt lat="41.3196334" lon="1.7507675"><ele>256.0</ele><time>2026-04-04T11:17:31.065Z</time></trkpt><trkpt lat="41.3196637" lon="1.7509024"><ele>256.0</ele><time>2026-04-04T11:17:33.07Z</time></trkpt><trkpt lat="41.3197474" lon="1.7509658"><ele>256.0</ele><time>2026-04-04T11:17:35.069Z</time></trkpt><trkpt lat="41.3198679" lon="1.7509752"><ele>256.0</ele><time>2026-04-04T11:17:37.077Z</time></trkpt><trkpt lat="41.3199382" lon="1.7509668"><ele>256.0</ele><time>2026-04-04T11:17:38.055Z</time></trkpt><trkpt lat="41.3200122" lon="1.7509652"><ele>255.99999999999997</ele><time>2026-04-04T11:17:39.027Z</time></trkpt><trkpt lat="41.3200841" lon="1.7509664"><ele>256.0</ele><time>2026-04-04T11:17:40.017Z</time></trkpt><trkpt lat="41.320158" lon="1.7509691"><ele>256.0</ele><time>2026-04-04T11:17:41.075Z</time></trkpt><trkpt lat="41.3202338" lon="1.7509866"><ele>256.0</ele><time>2026-04-04T11:17:42.075Z</time></trkpt><trkpt lat="41.3203062" lon="1.7510172"><ele>255.99999999999997</ele><time>2026-04-04T11:17:43.063Z</time></trkpt><trkpt lat="41.3203769" lon="1.7510687"><ele>256.0</ele><time>2026-04-04T11:17:44.061Z</time></trkpt><trkpt lat="41.3204412" lon="1.7511278"><ele>255.83333333333331</ele><time>2026-04-04T11:17:45.064Z</time></trkpt><trkpt lat="41.3204887" lon="1.7511887"><ele>255.66666666666666</ele><time>2026-04-04T11:17:46.058Z</time></trkpt><trkpt lat="41.3205361" lon="1.751322"><ele>255.5</ele><time>2026-04-04T11:17:48.065Z</time></trkpt><trkpt lat="41.3205655" lon="1.7514333"><ele>255.33333333333331</ele><time>2026-04-04T11:17:50.071Z</time></trkpt><trkpt lat="41.3206373" lon="1.7515362"><ele>255.16666666666666</ele><time>2026-04-04T11:17:52.078Z</time></trkpt><trkpt lat="41.3206868" lon="1.7516117"><ele>255.0</ele><time>2026-04-04T11:17:53.084Z</time></trkpt><trkpt lat="41.320734" lon="1.7516928"><ele>254.66666666666666</ele><time>2026-04-04T11:17:54.076Z</time></trkpt><trkpt lat="41.3207814" lon="1.75176"><ele>254.33333333333331</ele><time>2026-04-04T11:17:55.082Z</time></trkpt><trkpt lat="41.3208578" lon="1.7518089"><ele>254.0</ele><time>2026-04-04T11:17:57.071Z</time></trkpt><trkpt lat="41.3209233" lon="1.7518166"><ele>253.66666666666666</ele><time>2026-04-04T11:17:59.066Z</time></trkpt><trkpt lat="41.3209867" lon="1.7518654"><ele>253.33333333333331</ele><time>2026-04-04T11:18:12.072Z</time></trkpt><trkpt lat="41.3210539" lon="1.7519258"><ele>253.0</ele><time>2026-04-04T11:18:14.068Z</time></trkpt><trkpt lat="41.3211366" lon="1.7519656"><ele>252.99999999999997</ele><time>2026-04-04T11:18:16.061Z</time></trkpt><trkpt lat="41.3212157" lon="1.7520211"><ele>253.0</ele><time>2026-04-04T11:18:18.075Z</time></trkpt><trkpt lat="41.3212788" lon="1.7521248"><ele>253.0</ele><time>2026-04-04T11:18:20.08Z</time></trkpt><trkpt lat="41.3213263" lon="1.7522485"><ele>253.0</ele><time>2026-04-04T11:18:22.081Z</time></trkpt><trkpt lat="41.3213585" lon="1.7523228"><ele>252.99999999999997</ele><time>2026-04-04T11:18:23.065Z</time></trkpt><trkpt lat="41.3213995" lon="1.7524006"><ele>253.0</ele><time>2026-04-04T11:18:24.058Z</time></trkpt><trkpt lat="41.3214361" lon="1.7524776"><ele>255.8</ele><time>2026-04-04T11:18:25.053Z</time></trkpt><trkpt lat="41.3214646" lon="1.7525625"><ele>258.6</ele><time>2026-04-04T11:18:26.069Z</time></trkpt><trkpt lat="41.3214816" lon="1.7526557"><ele>261.4</ele><time>2026-04-04T11:18:27.074Z</time></trkpt><trkpt lat="41.3214886" lon="1.7528185"><ele>264.2</ele><time>2026-04-04T11:18:29.071Z</time></trkpt><trkpt lat="41.3215211" lon="1.7529588"><ele>267.0</ele><time>2026-04-04T11:18:31.077Z</time></trkpt><trkpt lat="41.321561" lon="1.7531066"><ele>267.0</ele><time>2026-04-04T11:18:33.065Z</time></trkpt><trkpt lat="41.3215936" lon="1.7531786"><ele>267.0</ele><time>2026-04-04T11:18:34.027Z</time></trkpt><trkpt lat="41.3216592" lon="1.7532686"><ele>267.0</ele><time>2026-04-04T11:18:36.076Z</time></trkpt><trkpt lat="41.32173" lon="1.7532363"><ele>267.0</ele><time>2026-04-04T11:18:55.066Z</time></trkpt><trkpt lat="41.3218261" lon="1.7532798"><ele>267.0</ele><time>2026-04-04T11:18:57.082Z</time></trkpt><trkpt lat="41.3219215" lon="1.7533192"><ele>267.0</ele><time>2026-04-04T11:18:59.08Z</time></trkpt><trkpt lat="41.3220094" lon="1.7533705"><ele>267.0</ele><time>2026-04-04T11:19:01.066Z</time></trkpt><trkpt lat="41.3220931" lon="1.7534157"><ele>267.0</ele><time>2026-04-04T11:19:03.077Z</time></trkpt><trkpt lat="41.3221805" lon="1.7534528"><ele>267.0</ele><time>2026-04-04T11:19:05.051Z</time></trkpt><trkpt lat="41.322282" lon="1.7534736"><ele>267.0</ele><time>2026-04-04T11:19:07.085Z</time></trkpt><trkpt lat="41.3223728" lon="1.7534873"><ele>267.0</ele><time>2026-04-04T11:19:09.063Z</time></trkpt><trkpt lat="41.3224751" lon="1.7535008"><ele>267.3333333333333</ele><time>2026-04-04T11:19:11.096Z</time></trkpt><trkpt lat="41.3225135" lon="1.7535948"><ele>267.6666666666667</ele><time>2026-04-04T11:20:44.031Z</time></trkpt><trkpt lat="41.322529" lon="1.7536796"><ele>268.0</ele><time>2026-04-04T11:20:46.076Z</time></trkpt><trkpt lat="41.3225607" lon="1.7537945"><ele>268.33333333333337</ele><time>2026-04-04T11:20:49.053Z</time></trkpt><trkpt lat="41.3225873" lon="1.7538761"><ele>268.6666666666667</ele><time>2026-04-04T11:20:52.077Z</time></trkpt><trkpt lat="41.3225933" lon="1.7539708"><ele>269.0</ele><time>2026-04-04T11:23:50.085Z</time></trkpt><trkpt lat="41.3225907" lon="1.7540817"><ele>269.0</ele><time>2026-04-04T11:23:52.076Z</time></trkpt><trkpt lat="41.3225823" lon="1.7541918"><ele>269.0</ele><time>2026-04-04T11:23:54.07Z</time></trkpt><trkpt lat="41.3225429" lon="1.7542854"><ele>269.0</ele><time>2026-04-04T11:24:03.081Z</time></trkpt><trkpt lat="41.3225041" lon="1.754366"><ele>269.0</ele><time>2026-04-04T11:24:07.083Z</time></trkpt><trkpt lat="41.3225844" lon="1.7544429"><ele>269.0</ele><time>2026-04-04T11:24:09.088Z</time></trkpt><trkpt lat="41.3226405" lon="1.7544975"><ele>269.0</ele><time>2026-04-04T11:24:10.105Z</time></trkpt><trkpt lat="41.3226851" lon="1.7545621"><ele>267.57142857142856</ele><time>2026-04-04T11:24:11.092Z</time></trkpt><trkpt lat="41.3227203" lon="1.7546417"><ele>266.14285714285717</ele><time>2026-04-04T11:24:12.091Z</time></trkpt><trkpt lat="41.3227418" lon="1.7547347"><ele>264.7142857142857</ele><time>2026-04-04T11:24:13.083Z</time></trkpt><trkpt lat="41.3227587" lon="1.7548257"><ele>263.2857142857143</ele><time>2026-04-04T11:24:14.09Z</time></trkpt><trkpt lat="41.3227756" lon="1.7549176"><ele>261.8571428571429</ele><time>2026-04-04T11:24:15.11Z</time></trkpt><trkpt lat="41.322791" lon="1.7550112"><ele>260.42857142857144</ele><time>2026-04-04T11:24:16.093Z</time></trkpt><trkpt lat="41.3228079" lon="1.7551108"><ele>259.0</ele><time>2026-04-04T11:24:17.09Z</time></trkpt><trkpt lat="41.3228088" lon="1.7552159"><ele>257.3333333333333</ele><time>2026-04-04T11:24:18.096Z</time></trkpt><trkpt lat="41.3227948" lon="1.7553221"><ele>255.66666666666666</ele><time>2026-04-04T11:24:19.098Z</time></trkpt><trkpt lat="41.322784" lon="1.7554286"><ele>254.0</ele><time>2026-04-04T11:24:20.124Z</time></trkpt><trkpt lat="41.3227774" lon="1.7555278"><ele>252.33333333333331</ele><time>2026-04-04T11:24:21.099Z</time></trkpt><trkpt lat="41.3227717" lon="1.7556167"><ele>250.66666666666666</ele><time>2026-04-04T11:24:22.096Z</time></trkpt><trkpt lat="41.3227557" lon="1.7557782"><ele>249.0</ele><time>2026-04-04T11:24:24.101Z</time></trkpt><trkpt lat="41.3227609" lon="1.7558974"><ele>249.0</ele><time>2026-04-04T11:24:26.096Z</time></trkpt><trkpt lat="41.3228097" lon="1.7559535"><ele>249.0</ele><time>2026-04-04T11:24:41.108Z</time></trkpt><trkpt lat="41.3227285" lon="1.7560329"><ele>249.0</ele><time>2026-04-04T11:24:53.067Z</time></trkpt><trkpt lat="41.3226318" lon="1.7560436"><ele>249.0</ele><time>2026-04-04T11:24:55.064Z</time></trkpt><trkpt lat="41.3226268" lon="1.7561487"><ele>249.0</ele><time>2026-04-04T11:25:00.083Z</time></trkpt><trkpt lat="41.3226498" lon="1.7562359"><ele>249.0</ele><time>2026-04-04T11:25:02.044Z</time></trkpt><trkpt lat="41.3227037" lon="1.756309"><ele>247.39999999999998</ele><time>2026-04-04T11:25:04.098Z</time></trkpt><trkpt lat="41.3227546" lon="1.7563766"><ele>245.79999999999998</ele><time>2026-04-04T11:25:07.097Z</time></trkpt><trkpt lat="41.3228048" lon="1.7564676"><ele>244.20000000000002</ele><time>2026-04-04T11:25:12.099Z</time></trkpt><trkpt lat="41.3228826" lon="1.7565591"><ele>242.60000000000002</ele><time>2026-04-04T11:25:14.099Z</time></trkpt><trkpt lat="41.3229787" lon="1.7566486"><ele>241.0</ele><time>2026-04-04T11:25:16.097Z</time></trkpt><trkpt lat="41.3230546" lon="1.7567337"><ele>241.83333333333331</ele><time>2026-04-04T11:25:18.088Z</time></trkpt><trkpt lat="41.323116" lon="1.7568055"><ele>242.66666666666666</ele><time>2026-04-04T11:25:20.106Z</time></trkpt><trkpt lat="41.3231766" lon="1.7568923"><ele>243.5</ele><time>2026-04-04T11:25:23.118Z</time></trkpt><trkpt lat="41.3232193" lon="1.7569541"><ele>244.33333333333331</ele><time>2026-04-04T11:25:25.106Z</time></trkpt><trkpt lat="41.3232785" lon="1.7570278"><ele>245.16666666666666</ele><time>2026-04-04T11:25:27.11Z</time></trkpt><trkpt lat="41.3233391" lon="1.7570701"><ele>246.0</ele><time>2026-04-04T11:25:29.093Z</time></trkpt><trkpt lat="41.3233013" lon="1.757159"><ele>246.0</ele><time>2026-04-04T11:25:39.105Z</time></trkpt><trkpt lat="41.3232173" lon="1.757168"><ele>246.0</ele><time>2026-04-04T11:25:41.067Z</time></trkpt><trkpt lat="41.3231038" lon="1.7571744"><ele>246.0</ele><time>2026-04-04T11:25:43.065Z</time></trkpt><trkpt lat="41.3230141" lon="1.7571895"><ele>246.0</ele><time>2026-04-04T11:25:45.076Z</time></trkpt><trkpt lat="41.3229458" lon="1.757199"><ele>246.0</ele><time>2026-04-04T11:25:48.069Z</time></trkpt><trkpt lat="41.3229196" lon="1.7572919"><ele>246.0</ele><time>2026-04-04T11:25:55.069Z</time></trkpt><trkpt lat="41.3229275" lon="1.7574053"><ele>246.20000000000002</ele><time>2026-04-04T11:25:57.076Z</time></trkpt><trkpt lat="41.3229546" lon="1.7575371"><ele>246.40000000000003</ele><time>2026-04-04T11:25:59.079Z</time></trkpt><trkpt lat="41.3229567" lon="1.7576661"><ele>246.6</ele><time>2026-04-04T11:26:02.106Z</time></trkpt><trkpt lat="41.3229775" lon="1.757794"><ele>246.8</ele><time>2026-04-04T11:26:04.065Z</time></trkpt><trkpt lat="41.3229884" lon="1.7579267"><ele>247.0</ele><time>2026-04-04T11:26:06.072Z</time></trkpt><trkpt lat="41.3230167" lon="1.7580282"><ele>249.0</ele><time>2026-04-04T11:26:08.067Z</time></trkpt><trkpt lat="41.3230424" lon="1.7581342"><ele>251.0</ele><time>2026-04-04T11:26:10.068Z</time></trkpt><trkpt lat="41.3230548" lon="1.7582548"><ele>253.0</ele><time>2026-04-04T11:26:12.028Z</time></trkpt><trkpt lat="41.3230893" lon="1.7583969"><ele>255.0</ele><time>2026-04-04T11:26:14.074Z</time></trkpt><trkpt lat="41.3230952" lon="1.7585452"><ele>257.0</ele><time>2026-04-04T11:26:16.078Z</time></trkpt><trkpt lat="41.3230932" lon="1.7586979"><ele>258.1666666666667</ele><time>2026-04-04T11:26:18.079Z</time></trkpt><trkpt lat="41.3230883" lon="1.7588555"><ele>259.33333333333337</ele><time>2026-04-04T11:26:20.075Z</time></trkpt><trkpt lat="41.3230914" lon="1.7589394"><ele>260.5</ele><time>2026-04-04T11:26:21.078Z</time></trkpt><trkpt lat="41.3230969" lon="1.7590308"><ele>261.6666666666667</ele><time>2026-04-04T11:26:22.067Z</time></trkpt><trkpt lat="41.3231068" lon="1.7591264"><ele>262.8333333333333</ele><time>2026-04-04T11:26:23.076Z</time></trkpt><trkpt lat="41.3231164" lon="1.7592224"><ele>264.0</ele><time>2026-04-04T11:26:24.085Z</time></trkpt><trkpt lat="41.3231278" lon="1.7593203"><ele>265.8333333333333</ele><time>2026-04-04T11:26:25.067Z</time></trkpt><trkpt lat="41.3231411" lon="1.7594225"><ele>267.6666666666667</ele><time>2026-04-04T11:26:26.073Z</time></trkpt><trkpt lat="41.3231526" lon="1.759529"><ele>269.5</ele><time>2026-04-04T11:26:27.067Z</time></trkpt><trkpt lat="41.3231609" lon="1.759639"><ele>271.33333333333337</ele><time>2026-04-04T11:26:28.066Z</time></trkpt><trkpt lat="41.3231652" lon="1.7597411"><ele>273.1666666666667</ele><time>2026-04-04T11:26:29.071Z</time></trkpt><trkpt lat="41.3231698" lon="1.7598394"><ele>275.0</ele><time>2026-04-04T11:26:30.074Z</time></trkpt><trkpt lat="41.3231746" lon="1.7599255"><ele>275.0</ele><time>2026-04-04T11:26:31.078Z</time></trkpt><trkpt lat="41.323193" lon="1.7600471"><ele>275.0</ele><time>2026-04-04T11:26:33.072Z</time></trkpt><trkpt lat="41.3232214" lon="1.7601338"><ele>275.0</ele><time>2026-04-04T11:26:35.07Z</time></trkpt><trkpt lat="41.3232781" lon="1.7602296"><ele>275.0</ele><time>2026-04-04T11:26:37.076Z</time></trkpt><trkpt lat="41.3233424" lon="1.7603519"><ele>275.0</ele><time>2026-04-04T11:26:39.064Z</time></trkpt><trkpt lat="41.3234035" lon="1.7604588"><ele>277.0</ele><time>2026-04-04T11:26:41.067Z</time></trkpt><trkpt lat="41.3234565" lon="1.7605487"><ele>279.0</ele><time>2026-04-04T11:26:43.072Z</time></trkpt><trkpt lat="41.3235274" lon="1.7606409"><ele>281.0</ele><time>2026-04-04T11:26:45.066Z</time></trkpt><trkpt lat="41.3236157" lon="1.7607313"><ele>283.0</ele><time>2026-04-04T11:26:47.072Z</time></trkpt><trkpt lat="41.323702" lon="1.7608103"><ele>285.0</ele><time>2026-04-04T11:26:49.072Z</time></trkpt><trkpt lat="41.3237577" lon="1.7608718"><ele>285.0</ele><time>2026-04-04T11:26:51.078Z</time></trkpt><trkpt lat="41.3238202" lon="1.7609497"><ele>285.0</ele><time>2026-04-04T11:26:53.081Z</time></trkpt><trkpt lat="41.3238597" lon="1.761038"><ele>285.0</ele><time>2026-04-04T11:26:55.079Z</time></trkpt><trkpt lat="41.323873" lon="1.7611357"><ele>285.0</ele><time>2026-04-04T11:26:58.077Z</time></trkpt><trkpt lat="41.3238872" lon="1.7612576"><ele>285.0</ele><time>2026-04-04T11:27:37.076Z</time></trkpt><trkpt lat="41.323847" lon="1.7613893"><ele>285.0</ele><time>2026-04-04T11:27:39.067Z</time></trkpt><trkpt lat="41.3237791" lon="1.761526"><ele>285.0</ele><time>2026-04-04T11:27:41.06Z</time></trkpt><trkpt lat="41.3237384" lon="1.7615993"><ele>285.0</ele><time>2026-04-04T11:27:42.058Z</time></trkpt><trkpt lat="41.3236978" lon="1.7616668"><ele>285.0</ele><time>2026-04-04T11:27:43.067Z</time></trkpt><trkpt lat="41.3236015" lon="1.761772"><ele>285.0</ele><time>2026-04-04T11:27:45.067Z</time></trkpt><trkpt lat="41.3235153" lon="1.7618805"><ele>285.0</ele><time>2026-04-04T11:27:47.068Z</time></trkpt><trkpt lat="41.3234998" lon="1.762055"><ele>284.8333333333333</ele><time>2026-04-04T11:27:49.063Z</time></trkpt><trkpt lat="41.3235066" lon="1.7621577"><ele>284.6666666666667</ele><time>2026-04-04T11:27:50.072Z</time></trkpt><trkpt lat="41.3235187" lon="1.7622601"><ele>284.5</ele><time>2026-04-04T11:27:51.07Z</time></trkpt><trkpt lat="41.3235375" lon="1.7623513"><ele>284.33333333333337</ele><time>2026-04-04T11:27:52.065Z</time></trkpt><trkpt lat="41.3235579" lon="1.7624327"><ele>284.1666666666667</ele><time>2026-04-04T11:27:53.073Z</time></trkpt><trkpt lat="41.3235909" lon="1.7625776"><ele>284.0</ele><time>2026-04-04T11:27:55.066Z</time></trkpt><trkpt lat="41.3236168" lon="1.7627017"><ele>283.59999999999997</ele><time>2026-04-04T11:27:57.069Z</time></trkpt><trkpt lat="41.3236413" lon="1.7628228"><ele>283.2</ele><time>2026-04-04T11:27:59.066Z</time></trkpt><trkpt lat="41.323666" lon="1.7629089"><ele>282.79999999999995</ele><time>2026-04-04T11:28:20.11Z</time></trkpt><trkpt lat="41.323681" lon="1.7630379"><ele>282.4</ele><time>2026-04-04T11:28:23.093Z</time></trkpt><trkpt lat="41.3237097" lon="1.7631666"><ele>282.0</ele><time>2026-04-04T11:28:25.102Z</time></trkpt><trkpt lat="41.3237336" lon="1.7632995"><ele>282.0</ele><time>2026-04-04T11:28:27.095Z</time></trkpt><trkpt lat="41.3237424" lon="1.76342"><ele>282.0</ele><time>2026-04-04T11:28:29.085Z</time></trkpt><trkpt lat="41.3237564" lon="1.7635517"><ele>282.0</ele><time>2026-04-04T11:28:31.076Z</time></trkpt><trkpt lat="41.3237831" lon="1.763691"><ele>282.0</ele><time>2026-04-04T11:28:33.074Z</time></trkpt><trkpt lat="41.323829" lon="1.7638134"><ele>282.0</ele><time>2026-04-04T11:28:35.068Z</time></trkpt><trkpt lat="41.3238868" lon="1.7639419"><ele>282.8333333333333</ele><time>2026-04-04T11:28:37.077Z</time></trkpt><trkpt lat="41.3239576" lon="1.7640756"><ele>283.6666666666667</ele><time>2026-04-04T11:28:39.065Z</time></trkpt><trkpt lat="41.3239996" lon="1.7641451"><ele>284.5</ele><time>2026-04-04T11:28:40.07Z</time></trkpt><trkpt lat="41.3240428" lon="1.7642151"><ele>285.33333333333337</ele><time>2026-04-04T11:28:41.068Z</time></trkpt><trkpt lat="41.3240827" lon="1.7642854"><ele>286.1666666666667</ele><time>2026-04-04T11:28:42.07Z</time></trkpt><trkpt lat="41.3241409" lon="1.7644022"><ele>287.0</ele><time>2026-04-04T11:28:44.059Z</time></trkpt><trkpt lat="41.3241101" lon="1.7644826"><ele>287.6</ele><time>2026-04-04T11:28:48.078Z</time></trkpt><trkpt lat="41.3240549" lon="1.76456"><ele>288.2</ele><time>2026-04-04T11:28:50.074Z</time></trkpt><trkpt lat="41.3240156" lon="1.764688"><ele>288.8</ele><time>2026-04-04T11:28:52.072Z</time></trkpt><trkpt lat="41.3239888" lon="1.7648426"><ele>289.4</ele><time>2026-04-04T11:28:54.06Z</time></trkpt><trkpt lat="41.323973" lon="1.7649944"><ele>290.0</ele><time>2026-04-04T11:28:56.062Z</time></trkpt><trkpt lat="41.3239514" lon="1.7651289"><ele>289.2</ele><time>2026-04-04T11:28:58.064Z</time></trkpt><trkpt lat="41.3239102" lon="1.7652414"><ele>288.4</ele><time>2026-04-04T11:29:00.06Z</time></trkpt><trkpt lat="41.3238681" lon="1.7653753"><ele>287.6</ele><time>2026-04-04T11:29:02.071Z</time></trkpt><trkpt lat="41.3238304" lon="1.7655238"><ele>286.8</ele><time>2026-04-04T11:29:04.069Z</time></trkpt><trkpt lat="41.3238063" lon="1.7656547"><ele>286.0</ele><time>2026-04-04T11:29:06.057Z</time></trkpt><trkpt lat="41.3237981" lon="1.7657506"><ele>286.0</ele><time>2026-04-04T11:29:08.065Z</time></trkpt><trkpt lat="41.3238166" lon="1.7658746"><ele>286.0</ele><time>2026-04-04T11:29:11.067Z</time></trkpt><trkpt lat="41.323823" lon="1.7659589"><ele>286.0</ele><time>2026-04-04T11:29:13.07Z</time></trkpt><trkpt lat="41.3238412" lon="1.766071"><ele>286.0</ele><time>2026-04-04T11:29:16.067Z</time></trkpt><trkpt lat="41.3238252" lon="1.7661661"><ele>286.0</ele><time>2026-04-04T11:29:18.074Z</time></trkpt><trkpt lat="41.3238164" lon="1.7662748"><ele>286.0</ele><time>2026-04-04T11:29:20.077Z</time></trkpt><trkpt lat="41.3238099" lon="1.766394"><ele>286.71428571428567</ele><time>2026-04-04T11:29:22.072Z</time></trkpt><trkpt lat="41.3238274" lon="1.7664936"><ele>287.42857142857144</ele><time>2026-04-04T11:29:24.074Z</time></trkpt><trkpt lat="41.3238615" lon="1.7665866"><ele>288.1428571428571</ele><time>2026-04-04T11:29:26.087Z</time></trkpt><trkpt lat="41.3238821" lon="1.7666887"><ele>288.85714285714283</ele><time>2026-04-04T11:29:28.082Z</time></trkpt><trkpt lat="41.3239065" lon="1.7667834"><ele>289.57142857142856</ele><time>2026-04-04T11:29:30.081Z</time></trkpt><trkpt lat="41.3239227" lon="1.766872"><ele>290.2857142857143</ele><time>2026-04-04T11:29:32.079Z</time></trkpt><trkpt lat="41.3239424" lon="1.7669542"><ele>291.0</ele><time>2026-04-04T11:29:34.075Z</time></trkpt><trkpt lat="41.323971" lon="1.7670356"><ele>294.0</ele><time>2026-04-04T11:29:36.076Z</time></trkpt><trkpt lat="41.3239804" lon="1.7671468"><ele>297.0</ele><time>2026-04-04T11:29:38.075Z</time></trkpt><trkpt lat="41.3239895" lon="1.7672441"><ele>300.0</ele><time>2026-04-04T11:29:40.143Z</time></trkpt><trkpt lat="41.324003" lon="1.7673575"><ele>303.0</ele><time>2026-04-04T11:29:42.084Z</time></trkpt><trkpt lat="41.3239779" lon="1.7674363"><ele>306.0</ele><time>2026-04-04T11:29:43.088Z</time></trkpt><trkpt lat="41.3239759" lon="1.7675358"><ele>309.0</ele><time>2026-04-04T11:29:47.083Z</time></trkpt><trkpt lat="41.3240299" lon="1.7676264"><ele>309.0</ele><time>2026-04-04T11:29:50.084Z</time></trkpt><trkpt lat="41.3240916" lon="1.7676674"><ele>309.0</ele><time>2026-04-04T11:29:52.08Z</time></trkpt><trkpt lat="41.324159" lon="1.7677355"><ele>309.0</ele><time>2026-04-04T11:29:54.077Z</time></trkpt><trkpt lat="41.3242236" lon="1.7678367"><ele>309.0</ele><time>2026-04-04T11:29:56.079Z</time></trkpt><trkpt lat="41.3242622" lon="1.7679552"><ele>309.0</ele><time>2026-04-04T11:29:58.077Z</time></trkpt><trkpt lat="41.32432" lon="1.7680684"><ele>309.4</ele><time>2026-04-04T11:30:00.08Z</time></trkpt><trkpt lat="41.3243975" lon="1.7681762"><ele>309.79999999999995</ele><time>2026-04-04T11:30:02.08Z</time></trkpt><trkpt lat="41.3243558" lon="1.7682493"><ele>310.20000000000005</ele><time>2026-04-04T11:30:32.089Z</time></trkpt><trkpt lat="41.3243075" lon="1.7683456"><ele>310.6</ele><time>2026-04-04T11:30:34.089Z</time></trkpt><trkpt lat="41.3242911" lon="1.7684928"><ele>311.0</ele><time>2026-04-04T11:30:36.064Z</time></trkpt><trkpt lat="41.3243083" lon="1.7685884"><ele>311.2</ele><time>2026-04-04T11:30:37.074Z</time></trkpt><trkpt lat="41.3243338" lon="1.7686951"><ele>311.40000000000003</ele><time>2026-04-04T11:30:38.067Z</time></trkpt><trkpt lat="41.3243576" lon="1.7688139"><ele>311.6</ele><time>2026-04-04T11:30:39.071Z</time></trkpt><trkpt lat="41.3243755" lon="1.7689381"><ele>311.8</ele><time>2026-04-04T11:30:40.054Z</time></trkpt><trkpt lat="41.3243974" lon="1.7690752"><ele>312.0</ele><time>2026-04-04T11:30:41.071Z</time></trkpt><trkpt lat="41.3244317" lon="1.769218"><ele>312.4</ele><time>2026-04-04T11:30:42.063Z</time></trkpt><trkpt lat="41.3244726" lon="1.7693608"><ele>312.79999999999995</ele><time>2026-04-04T11:30:43.067Z</time></trkpt><trkpt lat="41.3245141" lon="1.7694977"><ele>313.2</ele><time>2026-04-04T11:30:44.068Z</time></trkpt><trkpt lat="41.324557" lon="1.7696131"><ele>313.59999999999997</ele><time>2026-04-04T11:30:45.074Z</time></trkpt><trkpt lat="41.3245949" lon="1.7697099"><ele>314.0</ele><time>2026-04-04T11:30:46.071Z</time></trkpt><trkpt lat="41.3246348" lon="1.769796"><ele>314.0</ele><time>2026-04-04T11:30:47.076Z</time></trkpt><trkpt lat="41.3246804" lon="1.7698807"><ele>314.0</ele><time>2026-04-04T11:30:48.08Z</time></trkpt><trkpt lat="41.3247241" lon="1.7699672"><ele>314.0</ele><time>2026-04-04T11:30:49.077Z</time></trkpt><trkpt lat="41.3247656" lon="1.7700444"><ele>314.0</ele><time>2026-04-04T11:30:50.081Z</time></trkpt><trkpt lat="41.3248164" lon="1.7701809"><ele>314.0</ele><time>2026-04-04T11:30:52.073Z</time></trkpt><trkpt lat="41.3248743" lon="1.7702648"><ele>314.0</ele><time>2026-04-04T11:30:54.08Z</time></trkpt><trkpt lat="41.3249995" lon="1.7702731"><ele>315.79999999999995</ele><time>2026-04-04T11:30:56.075Z</time></trkpt><trkpt lat="41.325093" lon="1.7702349"><ele>317.59999999999997</ele><time>2026-04-04T11:30:57.069Z</time></trkpt><trkpt lat="41.3251883" lon="1.7701911"><ele>319.4</ele><time>2026-04-04T11:30:58.064Z</time></trkpt><trkpt lat="41.3252749" lon="1.7701519"><ele>321.2</ele><time>2026-04-04T11:30:59.067Z</time></trkpt><trkpt lat="41.3253471" lon="1.7701142"><ele>323.0</ele><time>2026-04-04T11:31:00.061Z</time></trkpt><trkpt lat="41.3254384" lon="1.7700641"><ele>323.0</ele><time>2026-04-04T11:31:02.064Z</time></trkpt><trkpt lat="41.325517" lon="1.7700813"><ele>323.0</ele><time>2026-04-04T11:31:04.07Z</time></trkpt><trkpt lat="41.32563" lon="1.770109"><ele>323.0</ele><time>2026-04-04T11:31:06.02Z</time></trkpt><trkpt lat="41.3257235" lon="1.7701205"><ele>323.0</ele><time>2026-04-04T11:31:08.074Z</time></trkpt><trkpt lat="41.3257956" lon="1.770101"><ele>323.0</ele><time>2026-04-04T11:31:10.074Z</time></trkpt><trkpt lat="41.325864" lon="1.7700837"><ele>323.0</ele><time>2026-04-04T11:31:12.073Z</time></trkpt><trkpt lat="41.3259314" lon="1.7700921"><ele>323.6666666666667</ele><time>2026-04-04T11:31:14.074Z</time></trkpt><trkpt lat="41.3259409" lon="1.7701978"><ele>324.33333333333337</ele><time>2026-04-04T11:31:18.079Z</time></trkpt><trkpt lat="41.3259393" lon="1.7702861"><ele>325.0</ele><time>2026-04-04T11:31:20.077Z</time></trkpt><trkpt lat="41.3259357" lon="1.770392"><ele>325.6666666666667</ele><time>2026-04-04T11:31:22.076Z</time></trkpt><trkpt lat="41.3259669" lon="1.7705234"><ele>326.3333333333333</ele><time>2026-04-04T11:31:24.072Z</time></trkpt><trkpt lat="41.325993" lon="1.7706062"><ele>327.0</ele><time>2026-04-04T11:31:25.064Z</time></trkpt><trkpt lat="41.3260191" lon="1.770695"><ele>327.0</ele><time>2026-04-04T11:31:26.066Z</time></trkpt><trkpt lat="41.3260442" lon="1.770789"><ele>327.0</ele><time>2026-04-04T11:31:27.065Z</time></trkpt><trkpt lat="41.3260665" lon="1.7708845"><ele>327.0</ele><time>2026-04-04T11:31:28.061Z</time></trkpt><trkpt lat="41.3260919" lon="1.7709821"><ele>327.0</ele><time>2026-04-04T11:31:29.045Z</time></trkpt><trkpt lat="41.3261215" lon="1.771084"><ele>327.0</ele><time>2026-04-04T11:31:30.056Z</time></trkpt><trkpt lat="41.3261491" lon="1.7711931"><ele>327.0</ele><time>2026-04-04T11:31:31.06Z</time></trkpt><trkpt lat="41.3261794" lon="1.7713001"><ele>327.8333333333333</ele><time>2026-04-04T11:31:32.07Z</time></trkpt><trkpt lat="41.3262075" lon="1.7714101"><ele>328.6666666666667</ele><time>2026-04-04T11:31:33.064Z</time></trkpt><trkpt lat="41.3262338" lon="1.771522"><ele>329.5</ele><time>2026-04-04T11:31:34.059Z</time></trkpt><trkpt lat="41.3262598" lon="1.7716326"><ele>330.33333333333337</ele><time>2026-04-04T11:31:35.07Z</time></trkpt><trkpt lat="41.3262885" lon="1.7717463"><ele>331.1666666666667</ele><time>2026-04-04T11:31:36.076Z</time></trkpt><trkpt lat="41.3263118" lon="1.7718561"><ele>332.0</ele><time>2026-04-04T11:31:37.082Z</time></trkpt><trkpt lat="41.3263398" lon="1.7719836"><ele>332.0</ele><time>2026-04-04T11:31:38.082Z</time></trkpt><trkpt lat="41.3263655" lon="1.7721138"><ele>332.0</ele><time>2026-04-04T11:31:39.085Z</time></trkpt><trkpt lat="41.3263963" lon="1.7722573"><ele>332.0</ele><time>2026-04-04T11:31:40.075Z</time></trkpt><trkpt lat="41.3264348" lon="1.7724021"><ele>332.0</ele><time>2026-04-04T11:31:41.066Z</time></trkpt><trkpt lat="41.3264872" lon="1.7725383"><ele>332.0</ele><time>2026-04-04T11:31:42.06Z</time></trkpt><trkpt lat="41.3265436" lon="1.7726758"><ele>332.0</ele><time>2026-04-04T11:31:43.075Z</time></trkpt><trkpt lat="41.3265969" lon="1.7728183"><ele>332.0</ele><time>2026-04-04T11:31:44.072Z</time></trkpt><trkpt lat="41.3266455" lon="1.7729713"><ele>332.0</ele><time>2026-04-04T11:31:45.074Z</time></trkpt><trkpt lat="41.3266909" lon="1.7731366"><ele>332.0</ele><time>2026-04-04T11:31:46.069Z</time></trkpt><trkpt lat="41.3267354" lon="1.7733074"><ele>332.0</ele><time>2026-04-04T11:31:47.064Z</time></trkpt><trkpt lat="41.3267731" lon="1.7734691"><ele>332.0</ele><time>2026-04-04T11:31:48.08Z</time></trkpt><trkpt lat="41.326805" lon="1.7736043"><ele>332.0</ele><time>2026-04-04T11:31:49.066Z</time></trkpt><trkpt lat="41.3268157" lon="1.7737061"><ele>332.0</ele><time>2026-04-04T11:31:50.077Z</time></trkpt><trkpt lat="41.3267741" lon="1.7738668"><ele>332.0</ele><time>2026-04-04T11:31:52.068Z</time></trkpt><trkpt lat="41.3268024" lon="1.7740367"><ele>330.6</ele><time>2026-04-04T11:31:54.064Z</time></trkpt><trkpt lat="41.3268386" lon="1.7741332"><ele>329.20000000000005</ele><time>2026-04-04T11:31:55.064Z</time></trkpt><trkpt lat="41.3268845" lon="1.7742425"><ele>327.8</ele><time>2026-04-04T11:31:56.063Z</time></trkpt><trkpt lat="41.3269422" lon="1.774362"><ele>326.4</ele><time>2026-04-04T11:31:57.063Z</time></trkpt><trkpt lat="41.3269936" lon="1.7744839"><ele>325.0</ele><time>2026-04-04T11:31:58.065Z</time></trkpt><trkpt lat="41.3270457" lon="1.7745901"><ele>323.6</ele><time>2026-04-04T11:31:59.062Z</time></trkpt><trkpt lat="41.3271129" lon="1.7746898"><ele>322.2</ele><time>2026-04-04T11:32:00.063Z</time></trkpt><trkpt lat="41.327193" lon="1.7747799"><ele>320.8</ele><time>2026-04-04T11:32:01.065Z</time></trkpt><trkpt lat="41.3272752" lon="1.7748409"><ele>319.4</ele><time>2026-04-04T11:32:02.057Z</time></trkpt><trkpt lat="41.3273565" lon="1.7748955"><ele>318.0</ele><time>2026-04-04T11:32:03.075Z</time></trkpt><trkpt lat="41.3274444" lon="1.7749532"><ele>321.0</ele><time>2026-04-04T11:32:04.071Z</time></trkpt><trkpt lat="41.327535" lon="1.7750155"><ele>324.0</ele><time>2026-04-04T11:32:05.067Z</time></trkpt><trkpt lat="41.3276256" lon="1.7750736"><ele>327.0</ele><time>2026-04-04T11:32:06.068Z</time></trkpt><trkpt lat="41.327706" lon="1.7751312"><ele>330.0</ele><time>2026-04-04T11:32:07.064Z</time></trkpt><trkpt lat="41.3277715" lon="1.7751945"><ele>333.0</ele><time>2026-04-04T11:32:08.068Z</time></trkpt><trkpt lat="41.3278211" lon="1.7752756"><ele>333.0</ele><time>2026-04-04T11:32:09.067Z</time></trkpt><trkpt lat="41.3278554" lon="1.77538"><ele>333.0</ele><time>2026-04-04T11:32:10.067Z</time></trkpt><trkpt lat="41.3278654" lon="1.7755088"><ele>333.0</ele><time>2026-04-04T11:32:11.063Z</time></trkpt><trkpt lat="41.3278755" lon="1.775655"><ele>333.0</ele><time>2026-04-04T11:32:12.066Z</time></trkpt><trkpt lat="41.3278844" lon="1.7758167"><ele>333.0</ele><time>2026-04-04T11:32:13.062Z</time></trkpt><trkpt lat="41.3278925" lon="1.7759715"><ele>330.5</ele><time>2026-04-04T11:32:14.06Z</time></trkpt><trkpt lat="41.3279007" lon="1.7761195"><ele>328.0</ele><time>2026-04-04T11:32:15.054Z</time></trkpt><trkpt lat="41.3279056" lon="1.7762432"><ele>325.5</ele><time>2026-04-04T11:32:16.057Z</time></trkpt><trkpt lat="41.3279092" lon="1.7763493"><ele>323.0</ele><time>2026-04-04T11:32:17.062Z</time></trkpt><trkpt lat="41.3279137" lon="1.7764418"><ele>320.5</ele><time>2026-04-04T11:32:18.073Z</time></trkpt><trkpt lat="41.3279288" lon="1.776524"><ele>318.0</ele><time>2026-04-04T11:32:19.075Z</time></trkpt><trkpt lat="41.3279695" lon="1.7766052"><ele>318.0</ele><time>2026-04-04T11:32:20.076Z</time></trkpt><trkpt lat="41.3280316" lon="1.7766787"><ele>318.0</ele><time>2026-04-04T11:32:21.076Z</time></trkpt><trkpt lat="41.3281201" lon="1.7767538"><ele>318.0</ele><time>2026-04-04T11:32:22.069Z</time></trkpt><trkpt lat="41.3282359" lon="1.7768292"><ele>318.0</ele><time>2026-04-04T11:32:23.073Z</time></trkpt><trkpt lat="41.3283693" lon="1.7769147"><ele>314.6666666666667</ele><time>2026-04-04T11:32:24.064Z</time></trkpt><trkpt lat="41.3285057" lon="1.7770044"><ele>311.33333333333337</ele><time>2026-04-04T11:32:25.066Z</time></trkpt><trkpt lat="41.3286399" lon="1.7770995"><ele>308.0</ele><time>2026-04-04T11:32:26.063Z</time></trkpt><trkpt lat="41.3287669" lon="1.7772072"><ele>308.0</ele><time>2026-04-04T11:32:27.073Z</time></trkpt><trkpt lat="41.3288808" lon="1.7773072"><ele>308.0</ele><time>2026-04-04T11:32:28.06Z</time></trkpt><trkpt lat="41.3289754" lon="1.7773886"><ele>308.0</ele><time>2026-04-04T11:32:29.066Z</time></trkpt><trkpt lat="41.3290383" lon="1.7774568"><ele>308.0</ele><time>2026-04-04T11:32:30.068Z</time></trkpt><trkpt lat="41.329089" lon="1.7775219"><ele>308.0</ele><time>2026-04-04T11:32:31.064Z</time></trkpt><trkpt lat="41.3291384" lon="1.7776085"><ele>307.2</ele><time>2026-04-04T11:32:32.067Z</time></trkpt><trkpt lat="41.3291871" lon="1.7777129"><ele>306.4</ele><time>2026-04-04T11:32:33.067Z</time></trkpt><trkpt lat="41.3292213" lon="1.7778303"><ele>305.59999999999997</ele><time>2026-04-04T11:32:34.071Z</time></trkpt><trkpt lat="41.3292512" lon="1.7779629"><ele>304.8</ele><time>2026-04-04T11:32:35.062Z</time></trkpt><trkpt lat="41.3292846" lon="1.7781"><ele>304.0</ele><time>2026-04-04T11:32:36.059Z</time></trkpt><trkpt lat="41.3293359" lon="1.7782427"><ele>304.0</ele><time>2026-04-04T11:32:37.059Z</time></trkpt><trkpt lat="41.3294129" lon="1.7783769"><ele>304.0</ele><time>2026-04-04T11:32:38.069Z</time></trkpt><trkpt lat="41.3295334" lon="1.7785173"><ele>304.0</ele><time>2026-04-04T11:32:39.065Z</time></trkpt><trkpt lat="41.3296614" lon="1.7786655"><ele>301.75</ele><time>2026-04-04T11:32:40.064Z</time></trkpt><trkpt lat="41.3297779" lon="1.7788042"><ele>299.5</ele><time>2026-04-04T11:32:41.06Z</time></trkpt><trkpt lat="41.3298717" lon="1.778936"><ele>297.25</ele><time>2026-04-04T11:32:42.068Z</time></trkpt><trkpt lat="41.3299334" lon="1.7790351"><ele>295.0</ele><time>2026-04-04T11:32:43.058Z</time></trkpt><trkpt lat="41.3299878" lon="1.7791372"><ele>295.0</ele><time>2026-04-04T11:32:44.066Z</time></trkpt><trkpt lat="41.3300243" lon="1.7792454"><ele>295.0</ele><time>2026-04-04T11:32:45.02Z</time></trkpt><trkpt lat="41.3300397" lon="1.779357"><ele>295.0</ele><time>2026-04-04T11:32:46.065Z</time></trkpt><trkpt lat="41.33006" lon="1.7794852"><ele>295.0</ele><time>2026-04-04T11:32:47.074Z</time></trkpt><trkpt lat="41.3301058" lon="1.7796087"><ele>295.0</ele><time>2026-04-04T11:32:48.074Z</time></trkpt><trkpt lat="41.3301833" lon="1.7797425"><ele>290.3333333333333</ele><time>2026-04-04T11:32:49.065Z</time></trkpt><trkpt lat="41.3302712" lon="1.7798981"><ele>285.6666666666667</ele><time>2026-04-04T11:32:50.07Z</time></trkpt><trkpt lat="41.3303625" lon="1.7800587"><ele>281.0</ele><time>2026-04-04T11:32:51.063Z</time></trkpt><trkpt lat="41.3304694" lon="1.7802117"><ele>284.0</ele><time>2026-04-04T11:32:52.066Z</time></trkpt><trkpt lat="41.3305734" lon="1.7803468"><ele>287.0</ele><time>2026-04-04T11:32:53.066Z</time></trkpt><trkpt lat="41.3306579" lon="1.7804555"><ele>290.0</ele><time>2026-04-04T11:32:54.058Z</time></trkpt><trkpt lat="41.3307156" lon="1.7805657"><ele>293.0</ele><time>2026-04-04T11:32:55.062Z</time></trkpt><trkpt lat="41.3307668" lon="1.7806802"><ele>293.0</ele><time>2026-04-04T11:32:56.071Z</time></trkpt><trkpt lat="41.3308061" lon="1.7807869"><ele>293.0</ele><time>2026-04-04T11:32:57.067Z</time></trkpt><trkpt lat="41.33085" lon="1.7808902"><ele>293.0</ele><time>2026-04-04T11:32:58.074Z</time></trkpt><trkpt lat="41.3308828" lon="1.7809951"><ele>293.0</ele><time>2026-04-04T11:32:59.065Z</time></trkpt><trkpt lat="41.3309175" lon="1.7810905"><ele>293.0</ele><time>2026-04-04T11:33:00.072Z</time></trkpt><trkpt lat="41.3309539" lon="1.781174"><ele>293.0</ele><time>2026-04-04T11:33:01.066Z</time></trkpt><trkpt lat="41.3309867" lon="1.7812555"><ele>292.0</ele><time>2026-04-04T11:33:02.061Z</time></trkpt><trkpt lat="41.3310027" lon="1.781341"><ele>291.0</ele><time>2026-04-04T11:33:03.067Z</time></trkpt><trkpt lat="41.3309961" lon="1.7814336"><ele>290.0</ele><time>2026-04-04T11:33:04.061Z</time></trkpt><trkpt lat="41.3309691" lon="1.7815277"><ele>289.0</ele><time>2026-04-04T11:33:05.079Z</time></trkpt><trkpt lat="41.3309449" lon="1.7816295"><ele>288.0</ele><time>2026-04-04T11:33:06.073Z</time></trkpt><trkpt lat="41.3309515" lon="1.7817456"><ele>287.0</ele><time>2026-04-04T11:33:07.069Z</time></trkpt><trkpt lat="41.3309917" lon="1.7818487"><ele>284.8</ele><time>2026-04-04T11:33:08.082Z</time></trkpt><trkpt lat="41.331056" lon="1.7819342"><ele>282.6</ele><time>2026-04-04T11:33:09.053Z</time></trkpt><trkpt lat="41.3311469" lon="1.7819902"><ele>280.40000000000003</ele><time>2026-04-04T11:33:10.065Z</time></trkpt><trkpt lat="41.3312327" lon="1.7820403"><ele>278.2</ele><time>2026-04-04T11:33:11.065Z</time></trkpt><trkpt lat="41.3313106" lon="1.7821092"><ele>276.0</ele><time>2026-04-04T11:33:12.076Z</time></trkpt><trkpt lat="41.3313814" lon="1.7822189"><ele>278.75</ele><time>2026-04-04T11:33:13.072Z</time></trkpt><trkpt lat="41.3314325" lon="1.782363"><ele>281.5</ele><time>2026-04-04T11:33:14.064Z</time></trkpt><trkpt lat="41.3314686" lon="1.7825131"><ele>284.25</ele><time>2026-04-04T11:33:15.07Z</time></trkpt><trkpt lat="41.3314911" lon="1.7826715"><ele>287.0</ele><time>2026-04-04T11:33:16.064Z</time></trkpt><trkpt lat="41.331509" lon="1.7828368"><ele>287.0</ele><time>2026-04-04T11:33:17.075Z</time></trkpt><trkpt lat="41.3315307" lon="1.7829935"><ele>287.0</ele><time>2026-04-04T11:33:18.074Z</time></trkpt><trkpt lat="41.3315688" lon="1.7831385"><ele>287.0</ele><time>2026-04-04T11:33:19.067Z</time></trkpt><trkpt lat="41.3316296" lon="1.7832852"><ele>287.0</ele><time>2026-04-04T11:33:20.077Z</time></trkpt><trkpt lat="41.3316965" lon="1.7834305"><ele>286.0</ele><time>2026-04-04T11:33:21.075Z</time></trkpt><trkpt lat="41.3317656" lon="1.783561"><ele>285.0</ele><time>2026-04-04T11:33:22.067Z</time></trkpt><trkpt lat="41.3318254" lon="1.7836694"><ele>284.0</ele><time>2026-04-04T11:33:23.074Z</time></trkpt><trkpt lat="41.3318859" lon="1.7837375"><ele>283.0</ele><time>2026-04-04T11:33:24.072Z</time></trkpt><trkpt lat="41.3319708" lon="1.783776"><ele>282.0</ele><time>2026-04-04T11:33:25.066Z</time></trkpt><trkpt lat="41.3320635" lon="1.7837987"><ele>282.0</ele><time>2026-04-04T11:33:26.064Z</time></trkpt><trkpt lat="41.3321458" lon="1.7838344"><ele>282.0</ele><time>2026-04-04T11:33:27.071Z</time></trkpt><trkpt lat="41.3322251" lon="1.7838925"><ele>282.0</ele><time>2026-04-04T11:33:28.071Z</time></trkpt><trkpt lat="41.3322973" lon="1.7839825"><ele>282.0</ele><time>2026-04-04T11:33:29.068Z</time></trkpt><trkpt lat="41.3323714" lon="1.7841036"><ele>282.0</ele><time>2026-04-04T11:33:30.071Z</time></trkpt><trkpt lat="41.3324419" lon="1.784238"><ele>278.5</ele><time>2026-04-04T11:33:31.065Z</time></trkpt><trkpt lat="41.3325104" lon="1.7843806"><ele>275.0</ele><time>2026-04-04T11:33:32.067Z</time></trkpt><trkpt lat="41.3325772" lon="1.7845175"><ele>271.5</ele><time>2026-04-04T11:33:33.063Z</time></trkpt><trkpt lat="41.3326516" lon="1.7846452"><ele>268.0</ele><time>2026-04-04T11:33:34.069Z</time></trkpt><trkpt lat="41.3327461" lon="1.7847625"><ele>268.0</ele><time>2026-04-04T11:33:35.068Z</time></trkpt><trkpt lat="41.3328496" lon="1.7848711"><ele>268.0</ele><time>2026-04-04T11:33:36.076Z</time></trkpt><trkpt lat="41.3329491" lon="1.784952"><ele>268.0</ele><time>2026-04-04T11:33:37.069Z</time></trkpt><trkpt lat="41.333039" lon="1.7850148"><ele>268.0</ele><time>2026-04-04T11:33:38.061Z</time></trkpt><trkpt lat="41.3331178" lon="1.7850781"><ele>268.0</ele><time>2026-04-04T11:33:39.067Z</time></trkpt><trkpt lat="41.3331878" lon="1.7851307"><ele>267.66666666666663</ele><time>2026-04-04T11:33:40.074Z</time></trkpt><trkpt lat="41.3332611" lon="1.7851811"><ele>267.3333333333333</ele><time>2026-04-04T11:33:41.073Z</time></trkpt><trkpt lat="41.3333326" lon="1.7852306"><ele>267.0</ele><time>2026-04-04T11:33:42.07Z</time></trkpt><trkpt lat="41.3334042" lon="1.7852817"><ele>266.6666666666667</ele><time>2026-04-04T11:33:43.072Z</time></trkpt><trkpt lat="41.3334738" lon="1.7853334"><ele>266.33333333333337</ele><time>2026-04-04T11:33:44.068Z</time></trkpt><trkpt lat="41.3335353" lon="1.7853843"><ele>266.0</ele><time>2026-04-04T11:33:45.063Z</time></trkpt><trkpt lat="41.3335905" lon="1.7854356"><ele>266.0</ele><time>2026-04-04T11:33:46.062Z</time></trkpt><trkpt lat="41.333655" lon="1.7855041"><ele>266.0</ele><time>2026-04-04T11:33:48.076Z</time></trkpt><trkpt lat="41.3337202" lon="1.7855971"><ele>266.0</ele><time>2026-04-04T11:33:56.084Z</time></trkpt><trkpt lat="41.3337731" lon="1.7856707"><ele>266.0</ele><time>2026-04-04T11:33:57.076Z</time></trkpt><trkpt lat="41.3338287" lon="1.785758"><ele>266.0</ele><time>2026-04-04T11:33:58.082Z</time></trkpt><trkpt lat="41.3338838" lon="1.7858404"><ele>266.0</ele><time>2026-04-04T11:33:59.075Z</time></trkpt><trkpt lat="41.3339386" lon="1.785915"><ele>266.83333333333337</ele><time>2026-04-04T11:34:00.073Z</time></trkpt><trkpt lat="41.3339856" lon="1.7859861"><ele>267.6666666666667</ele><time>2026-04-04T11:34:01.073Z</time></trkpt><trkpt lat="41.3340298" lon="1.7860617"><ele>268.5</ele><time>2026-04-04T11:34:02.076Z</time></trkpt><trkpt lat="41.3340712" lon="1.7861473"><ele>269.3333333333333</ele><time>2026-04-04T11:34:03.071Z</time></trkpt><trkpt lat="41.3341147" lon="1.7862442"><ele>270.16666666666663</ele><time>2026-04-04T11:34:04.07Z</time></trkpt><trkpt lat="41.3341664" lon="1.7863431"><ele>271.0</ele><time>2026-04-04T11:34:05.073Z</time></trkpt><trkpt lat="41.3342151" lon="1.7864394"><ele>271.3333333333333</ele><time>2026-04-04T11:34:06.076Z</time></trkpt><trkpt lat="41.3342645" lon="1.7865282"><ele>271.66666666666663</ele><time>2026-04-04T11:34:07.072Z</time></trkpt><trkpt lat="41.3343186" lon="1.7866091"><ele>272.0</ele><time>2026-04-04T11:34:08.074Z</time></trkpt><trkpt lat="41.3343814" lon="1.786674"><ele>272.3333333333333</ele><time>2026-04-04T11:34:09.076Z</time></trkpt><trkpt lat="41.3344487" lon="1.7867285"><ele>272.6666666666667</ele><time>2026-04-04T11:34:10.073Z</time></trkpt><trkpt lat="41.3345121" lon="1.7867812"><ele>273.0</ele><time>2026-04-04T11:34:11.078Z</time></trkpt><trkpt lat="41.3345678" lon="1.7868445"><ele>273.0</ele><time>2026-04-04T11:34:12.077Z</time></trkpt><trkpt lat="41.334617" lon="1.7869182"><ele>273.0</ele><time>2026-04-04T11:34:13.081Z</time></trkpt><trkpt lat="41.3346692" lon="1.7870032"><ele>273.0</ele><time>2026-04-04T11:34:14.075Z</time></trkpt><trkpt lat="41.334718" lon="1.7870988"><ele>273.0</ele><time>2026-04-04T11:34:15.081Z</time></trkpt><trkpt lat="41.3347686" lon="1.7871945"><ele>273.0</ele><time>2026-04-04T11:34:16.076Z</time></trkpt><trkpt lat="41.3348258" lon="1.7872923"><ele>273.0</ele><time>2026-04-04T11:34:17.076Z</time></trkpt><trkpt lat="41.334893" lon="1.7874015"><ele>272.5</ele><time>2026-04-04T11:34:18.07Z</time></trkpt><trkpt lat="41.3349694" lon="1.7875212"><ele>272.0</ele><time>2026-04-04T11:34:19.075Z</time></trkpt><trkpt lat="41.3350586" lon="1.7876515"><ele>271.5</ele><time>2026-04-04T11:34:20.079Z</time></trkpt><trkpt lat="41.3351609" lon="1.787781"><ele>271.0</ele><time>2026-04-04T11:34:21.072Z</time></trkpt><trkpt lat="41.3352656" lon="1.7879121"><ele>271.0</ele><time>2026-04-04T11:34:22.066Z</time></trkpt><trkpt lat="41.3353529" lon="1.7880304"><ele>271.0</ele><time>2026-04-04T11:34:23.081Z</time></trkpt><trkpt lat="41.3354175" lon="1.788119"><ele>271.0</ele><time>2026-04-04T11:34:24.069Z</time></trkpt><trkpt lat="41.3354802" lon="1.7881995"><ele>271.0</ele><time>2026-04-04T11:34:25.07Z</time></trkpt><trkpt lat="41.3355386" lon="1.7882545"><ele>271.0</ele><time>2026-04-04T11:34:26.068Z</time></trkpt><trkpt lat="41.335599" lon="1.7882956"><ele>271.0</ele><time>2026-04-04T11:34:27.071Z</time></trkpt><trkpt lat="41.3356627" lon="1.7883626"><ele>269.40000000000003</ele><time>2026-04-04T11:34:28.081Z</time></trkpt><trkpt lat="41.3357084" lon="1.7884624"><ele>267.8</ele><time>2026-04-04T11:34:29.073Z</time></trkpt><trkpt lat="41.3357508" lon="1.7885599"><ele>266.20000000000005</ele><time>2026-04-04T11:34:30.072Z</time></trkpt><trkpt lat="41.3358249" lon="1.7886818"><ele>264.6</ele><time>2026-04-04T11:34:32.071Z</time></trkpt><trkpt lat="41.3358827" lon="1.7887834"><ele>263.0</ele><time>2026-04-04T11:34:34.077Z</time></trkpt><trkpt lat="41.3359022" lon="1.7889362"><ele>263.0</ele><time>2026-04-04T11:34:36.067Z</time></trkpt><trkpt lat="41.3358828" lon="1.7890835"><ele>263.0</ele><time>2026-04-04T11:34:38.088Z</time></trkpt><trkpt lat="41.3358993" lon="1.7891898"><ele>263.0</ele><time>2026-04-04T11:34:40.071Z</time></trkpt><trkpt lat="41.3359919" lon="1.7892998"><ele>263.0</ele><time>2026-04-04T11:34:42.069Z</time></trkpt><trkpt lat="41.3360622" lon="1.7893595"><ele>263.0</ele><time>2026-04-04T11:34:43.061Z</time></trkpt><trkpt lat="41.3361437" lon="1.7894329"><ele>260.75</ele><time>2026-04-04T11:34:44.06Z</time></trkpt><trkpt lat="41.3362369" lon="1.7895118"><ele>258.5</ele><time>2026-04-04T11:34:45.013Z</time></trkpt><trkpt lat="41.3363413" lon="1.7896038"><ele>256.25</ele><time>2026-04-04T11:34:46.057Z</time></trkpt><trkpt lat="41.3364506" lon="1.7897027"><ele>254.0</ele><time>2026-04-04T11:34:47.068Z</time></trkpt><trkpt lat="41.3365489" lon="1.7897959"><ele>253.66666666666669</ele><time>2026-04-04T11:34:48.07Z</time></trkpt><trkpt lat="41.3366204" lon="1.7898863"><ele>253.33333333333334</ele><time>2026-04-04T11:34:49.069Z</time></trkpt><trkpt lat="41.3366742" lon="1.7899773"><ele>253.0</ele><time>2026-04-04T11:34:50.072Z</time></trkpt><trkpt lat="41.3367195" lon="1.7900784"><ele>252.66666666666669</ele><time>2026-04-04T11:34:51.067Z</time></trkpt><trkpt lat="41.3367629" lon="1.7901836"><ele>252.33333333333334</ele><time>2026-04-04T11:34:52.07Z</time></trkpt><trkpt lat="41.3368023" lon="1.7902729"><ele>252.0</ele><time>2026-04-04T11:34:53.063Z</time></trkpt><trkpt lat="41.3368338" lon="1.7903597"><ele>249.66666666666666</ele><time>2026-04-04T11:34:54.067Z</time></trkpt><trkpt lat="41.3368765" lon="1.7904774"><ele>247.33333333333331</ele><time>2026-04-04T11:34:56.068Z</time></trkpt><trkpt lat="41.3369658" lon="1.7905349"><ele>245.0</ele><time>2026-04-04T11:34:58.061Z</time></trkpt><trkpt lat="41.3370312" lon="1.7905581"><ele>242.66666666666666</ele><time>2026-04-04T11:34:59.07Z</time></trkpt><trkpt lat="41.3371021" lon="1.7905822"><ele>240.33333333333331</ele><time>2026-04-04T11:35:00.065Z</time></trkpt><trkpt lat="41.3371713" lon="1.7906169"><ele>238.0</ele><time>2026-04-04T11:35:01.064Z</time></trkpt><trkpt lat="41.337231" lon="1.7906607"><ele>238.0</ele><time>2026-04-04T11:35:02.066Z</time></trkpt><trkpt lat="41.3373175" lon="1.7907685"><ele>238.0</ele><time>2026-04-04T11:35:04.067Z</time></trkpt><trkpt lat="41.3373809" lon="1.7908927"><ele>238.0</ele><time>2026-04-04T11:35:06.059Z</time></trkpt><trkpt lat="41.3374283" lon="1.7910372"><ele>238.0</ele><time>2026-04-04T11:35:08.071Z</time></trkpt><trkpt lat="41.3374642" lon="1.7911745"><ele>235.99999999999997</ele><time>2026-04-04T11:35:10.062Z</time></trkpt><trkpt lat="41.3375051" lon="1.7912624"><ele>234.0</ele><time>2026-04-04T11:35:12.073Z</time></trkpt><trkpt lat="41.3375766" lon="1.7913195"><ele>232.0</ele><time>2026-04-04T11:35:14.08Z</time></trkpt><trkpt lat="41.3376426" lon="1.7914013"><ele>230.0</ele><time>2026-04-04T11:35:16.08Z</time></trkpt><trkpt lat="41.3377091" lon="1.7914899"><ele>227.99999999999997</ele><time>2026-04-04T11:35:18.074Z</time></trkpt><trkpt lat="41.3377836" lon="1.7915676"><ele>226.0</ele><time>2026-04-04T11:35:20.074Z</time></trkpt><trkpt lat="41.3378388" lon="1.7916324"><ele>225.99999999999997</ele><time>2026-04-04T11:35:22.072Z</time></trkpt><trkpt lat="41.3378868" lon="1.7917007"><ele>226.0</ele><time>2026-04-04T11:35:33.066Z</time></trkpt><trkpt lat="41.3379296" lon="1.791795"><ele>226.0</ele><time>2026-04-04T11:35:35.068Z</time></trkpt><trkpt lat="41.337966" lon="1.7918992"><ele>226.0</ele><time>2026-04-04T11:35:37.064Z</time></trkpt><trkpt lat="41.3379989" lon="1.7919755"><ele>225.99999999999997</ele><time>2026-04-04T11:35:39.07Z</time></trkpt><trkpt lat="41.3380667" lon="1.7920197"><ele>226.0</ele><time>2026-04-04T11:35:42.071Z</time></trkpt><trkpt lat="41.3381377" lon="1.7919767"><ele>223.49999999999997</ele><time>2026-04-04T11:35:44.067Z</time></trkpt><trkpt lat="41.3381849" lon="1.7919132"><ele>221.0</ele><time>2026-04-04T11:35:45.061Z</time></trkpt><trkpt lat="41.3382399" lon="1.7918422"><ele>218.5</ele><time>2026-04-04T11:35:46.065Z</time></trkpt><trkpt lat="41.3383138" lon="1.791733"><ele>216.0</ele><time>2026-04-04T11:35:48.062Z</time></trkpt><trkpt lat="41.3383736" lon="1.7916807"><ele>213.49999999999997</ele><time>2026-04-04T11:35:50.075Z</time></trkpt><trkpt lat="41.3384508" lon="1.7917772"><ele>211.0</ele><time>2026-04-04T11:35:53.06Z</time></trkpt><trkpt lat="41.3384753" lon="1.7918594"><ele>210.20000000000002</ele><time>2026-04-04T11:35:54.068Z</time></trkpt><trkpt lat="41.3384995" lon="1.7919664"><ele>209.4</ele><time>2026-04-04T11:35:55.057Z</time></trkpt><trkpt lat="41.3385212" lon="1.7920887"><ele>208.6</ele><time>2026-04-04T11:35:56.049Z</time></trkpt><trkpt lat="41.3385364" lon="1.7922167"><ele>207.8</ele><time>2026-04-04T11:35:57.054Z</time></trkpt><trkpt lat="41.3385334" lon="1.7923464"><ele>207.0</ele><time>2026-04-04T11:35:58.057Z</time></trkpt><trkpt lat="41.3385238" lon="1.7924687"><ele>207.0</ele><time>2026-04-04T11:35:59.056Z</time></trkpt><trkpt lat="41.3385121" lon="1.7925762"><ele>207.0</ele><time>2026-04-04T11:36:00.051Z</time></trkpt><trkpt lat="41.338505" lon="1.7927023"><ele>207.0</ele><time>2026-04-04T11:36:02.061Z</time></trkpt><trkpt lat="41.3385769" lon="1.7928033"><ele>207.0</ele><time>2026-04-04T11:36:05.071Z</time></trkpt><trkpt lat="41.3386136" lon="1.792944"><ele>207.0</ele><time>2026-04-04T11:36:07.063Z</time></trkpt><trkpt lat="41.3385847" lon="1.7931012"><ele>206.83333333333334</ele><time>2026-04-04T11:36:09.063Z</time></trkpt><trkpt lat="41.3385369" lon="1.7931983"><ele>206.66666666666669</ele><time>2026-04-04T11:36:10.081Z</time></trkpt><trkpt lat="41.3384755" lon="1.7932933"><ele>206.5</ele><time>2026-04-04T11:36:11.067Z</time></trkpt><trkpt lat="41.338415" lon="1.7933861"><ele>206.33333333333334</ele><time>2026-04-04T11:36:12.055Z</time></trkpt><trkpt lat="41.3383638" lon="1.7934624"><ele>206.16666666666669</ele><time>2026-04-04T11:36:13.052Z</time></trkpt><trkpt lat="41.3383212" lon="1.7935358"><ele>206.0</ele><time>2026-04-04T11:36:14.061Z</time></trkpt><trkpt lat="41.3382839" lon="1.7936093"><ele>206.00000000000003</ele><time>2026-04-04T11:36:15.043Z</time></trkpt><trkpt lat="41.338234" lon="1.7936622"><ele>206.0</ele><time>2026-04-04T11:36:16.057Z</time></trkpt><trkpt lat="41.3381743" lon="1.7937184"><ele>206.0</ele><time>2026-04-04T11:36:17.052Z</time></trkpt><trkpt lat="41.3381089" lon="1.7937643"><ele>206.0</ele><time>2026-04-04T11:36:18.058Z</time></trkpt><trkpt lat="41.3380527" lon="1.7938153"><ele>206.00000000000003</ele><time>2026-04-04T11:36:19.061Z</time></trkpt><trkpt lat="41.3379767" lon="1.7939414"><ele>206.0</ele><time>2026-04-04T11:36:21.056Z</time></trkpt><trkpt lat="41.3379687" lon="1.7940249"><ele>206.0</ele><time>2026-04-04T11:36:22.046Z</time></trkpt><trkpt lat="41.3379783" lon="1.7941323"><ele>206.0</ele><time>2026-04-04T11:36:23.047Z</time></trkpt><trkpt lat="41.3379989" lon="1.7942588"><ele>206.0</ele><time>2026-04-04T11:36:24.06Z</time></trkpt><trkpt lat="41.3380421" lon="1.7944137"><ele>206.0</ele><time>2026-04-04T11:36:25.045Z</time></trkpt><trkpt lat="41.3380935" lon="1.7945657"><ele>206.0</ele><time>2026-04-04T11:36:26.05Z</time></trkpt><trkpt lat="41.3381223" lon="1.7947034"><ele>205.50000000000003</ele><time>2026-04-04T11:36:27.051Z</time></trkpt><trkpt lat="41.338132" lon="1.7948052"><ele>205.0</ele><time>2026-04-04T11:36:28.05Z</time></trkpt><trkpt lat="41.3381027" lon="1.7948994"><ele>204.5</ele><time>2026-04-04T11:36:29.049Z</time></trkpt><trkpt lat="41.3380613" lon="1.7949955"><ele>204.0</ele><time>2026-04-04T11:36:30.046Z</time></trkpt><trkpt lat="41.3380198" lon="1.7950818"><ele>203.50000000000003</ele><time>2026-04-04T11:36:31.045Z</time></trkpt><trkpt lat="41.3379804" lon="1.7951628"><ele>203.0</ele><time>2026-04-04T11:36:32.041Z</time></trkpt><trkpt lat="41.3379337" lon="1.7952352"><ele>201.8</ele><time>2026-04-04T11:36:33.045Z</time></trkpt><trkpt lat="41.3378606" lon="1.7952887"><ele>200.60000000000002</ele><time>2026-04-04T11:36:34.048Z</time></trkpt><trkpt lat="41.3377611" lon="1.7953077"><ele>199.39999999999998</ele><time>2026-04-04T11:36:35.046Z</time></trkpt><trkpt lat="41.3376801" lon="1.7953032"><ele>198.2</ele><time>2026-04-04T11:36:36.051Z</time></trkpt><trkpt lat="41.3375901" lon="1.7953601"><ele>197.0</ele><time>2026-04-04T11:36:38.051Z</time></trkpt><trkpt lat="41.3376074" lon="1.7955237"><ele>197.0</ele><time>2026-04-04T11:36:40.049Z</time></trkpt><trkpt lat="41.3376209" lon="1.7956083"><ele>197.0</ele><time>2026-04-04T11:36:41.052Z</time></trkpt><trkpt lat="41.3376113" lon="1.7957002"><ele>197.0</ele><time>2026-04-04T11:36:42.044Z</time></trkpt><trkpt lat="41.337571" lon="1.7957947"><ele>197.0</ele><time>2026-04-04T11:36:43.043Z</time></trkpt><trkpt lat="41.3375148" lon="1.7958394"><ele>197.0</ele><time>2026-04-04T11:36:44.05Z</time></trkpt><trkpt lat="41.3374506" lon="1.7958302"><ele>197.0</ele><time>2026-04-04T11:36:45.048Z</time></trkpt><trkpt lat="41.3373824" lon="1.7957979"><ele>197.0</ele><time>2026-04-04T11:36:46.045Z</time></trkpt><trkpt lat="41.3373078" lon="1.7957676"><ele>197.00000000000003</ele><time>2026-04-04T11:36:47.053Z</time></trkpt><trkpt lat="41.3372329" lon="1.7957509"><ele>197.0</ele><time>2026-04-04T11:36:48.055Z</time></trkpt><trkpt lat="41.3371582" lon="1.7957619"><ele>197.0</ele><time>2026-04-04T11:36:49.05Z</time></trkpt><trkpt lat="41.3370962" lon="1.7957924"><ele>197.0</ele><time>2026-04-04T11:36:50.065Z</time></trkpt><trkpt lat="41.3370312" lon="1.7958795"><ele>197.00000000000003</ele><time>2026-04-04T11:36:52.043Z</time></trkpt><trkpt lat="41.3370574" lon="1.796004"><ele>197.0</ele><time>2026-04-04T11:36:54.068Z</time></trkpt><trkpt lat="41.3371234" lon="1.7960721"><ele>198.33333333333334</ele><time>2026-04-04T11:36:55.05Z</time></trkpt><trkpt lat="41.3371854" lon="1.7961565"><ele>199.66666666666669</ele><time>2026-04-04T11:36:56.057Z</time></trkpt><trkpt lat="41.3372358" lon="1.796256"><ele>201.0</ele><time>2026-04-04T11:36:57.054Z</time></trkpt><trkpt lat="41.3372606" lon="1.796368"><ele>202.33333333333331</ele><time>2026-04-04T11:36:58.051Z</time></trkpt><trkpt lat="41.3372669" lon="1.7964821"><ele>203.66666666666666</ele><time>2026-04-04T11:36:59.062Z</time></trkpt><trkpt lat="41.3372554" lon="1.7965899"><ele>205.0</ele><time>2026-04-04T11:37:00.043Z</time></trkpt><trkpt lat="41.3372323" lon="1.7966973"><ele>205.2</ele><time>2026-04-04T11:37:01.048Z</time></trkpt><trkpt lat="41.3371975" lon="1.7968058"><ele>205.4</ele><time>2026-04-04T11:37:02.047Z</time></trkpt><trkpt lat="41.3371598" lon="1.7969195"><ele>205.60000000000002</ele><time>2026-04-04T11:37:03.043Z</time></trkpt><trkpt lat="41.3371164" lon="1.7970433"><ele>205.8</ele><time>2026-04-04T11:37:04.044Z</time></trkpt><trkpt lat="41.3370611" lon="1.7971714"><ele>206.0</ele><time>2026-04-04T11:37:05.042Z</time></trkpt><trkpt lat="41.3369912" lon="1.7973001"><ele>207.0</ele><time>2026-04-04T11:37:06.047Z</time></trkpt><trkpt lat="41.3369095" lon="1.7974248"><ele>208.0</ele><time>2026-04-04T11:37:07.043Z</time></trkpt><trkpt lat="41.3368193" lon="1.7975409"><ele>209.0</ele><time>2026-04-04T11:37:08.03Z</time></trkpt><trkpt lat="41.3367192" lon="1.797653"><ele>210.0</ele><time>2026-04-04T11:37:09.028Z</time></trkpt><trkpt lat="41.3366356" lon="1.7977419"><ele>210.33333333333334</ele><time>2026-04-04T11:37:10.036Z</time></trkpt><trkpt lat="41.3365771" lon="1.797814"><ele>210.66666666666669</ele><time>2026-04-04T11:37:11.037Z</time></trkpt><trkpt lat="41.336558" lon="1.7979056"><ele>211.0</ele><time>2026-04-04T11:37:13.037Z</time></trkpt><trkpt lat="41.3366226" lon="1.7980092"><ele>211.33333333333334</ele><time>2026-04-04T11:37:15.042Z</time></trkpt><trkpt lat="41.3366649" lon="1.7980901"><ele>211.66666666666669</ele><time>2026-04-04T11:37:16.033Z</time></trkpt><trkpt lat="41.3367005" lon="1.7981824"><ele>212.0</ele><time>2026-04-04T11:37:17.041Z</time></trkpt><trkpt lat="41.3367308" lon="1.7982883"><ele>212.00000000000003</ele><time>2026-04-04T11:37:18.041Z</time></trkpt><trkpt lat="41.3367482" lon="1.7984077"><ele>212.0</ele><time>2026-04-04T11:37:19.045Z</time></trkpt><trkpt lat="41.3367334" lon="1.7985311"><ele>212.0</ele><time>2026-04-04T11:37:20.055Z</time></trkpt><trkpt lat="41.3367013" lon="1.7986441"><ele>212.0</ele><time>2026-04-04T11:37:21.051Z</time></trkpt><trkpt lat="41.3366591" lon="1.7987409"><ele>212.00000000000003</ele><time>2026-04-04T11:37:22.047Z</time></trkpt><trkpt lat="41.3366073" lon="1.7988274"><ele>212.0</ele><time>2026-04-04T11:37:23.047Z</time></trkpt><trkpt lat="41.3365509" lon="1.7988998"><ele>212.16666666666669</ele><time>2026-04-04T11:37:24.044Z</time></trkpt><trkpt lat="41.3365191" lon="1.798993"><ele>212.33333333333334</ele><time>2026-04-04T11:37:25.039Z</time></trkpt><trkpt lat="41.3364997" lon="1.7991027"><ele>212.5</ele><time>2026-04-04T11:37:26.042Z</time></trkpt><trkpt lat="41.3364886" lon="1.7992259"><ele>212.66666666666669</ele><time>2026-04-04T11:37:27.043Z</time></trkpt><trkpt lat="41.3364777" lon="1.7993498"><ele>212.83333333333334</ele><time>2026-04-04T11:37:28.04Z</time></trkpt><trkpt lat="41.3364492" lon="1.7994534"><ele>213.0</ele><time>2026-04-04T11:37:29.046Z</time></trkpt><trkpt lat="41.3364062" lon="1.799548"><ele>214.0</ele><time>2026-04-04T11:37:30.044Z</time></trkpt><trkpt lat="41.3363545" lon="1.7996299"><ele>215.0</ele><time>2026-04-04T11:37:31.047Z</time></trkpt><trkpt lat="41.3363049" lon="1.7996987"><ele>216.0</ele><time>2026-04-04T11:37:32.045Z</time></trkpt><trkpt lat="41.3362451" lon="1.7998365"><ele>217.0</ele><time>2026-04-04T11:37:34.045Z</time></trkpt><trkpt lat="41.3362351" lon="1.7999606"><ele>218.0</ele><time>2026-04-04T11:37:35.04Z</time></trkpt><trkpt lat="41.3362222" lon="1.8000951"><ele>218.28571428571428</ele><time>2026-04-04T11:37:36.044Z</time></trkpt><trkpt lat="41.3362033" lon="1.8002093"><ele>218.57142857142858</ele><time>2026-04-04T11:37:37.046Z</time></trkpt><trkpt lat="41.3361887" lon="1.8003166"><ele>218.85714285714283</ele><time>2026-04-04T11:37:38.049Z</time></trkpt><trkpt lat="41.3361925" lon="1.8004075"><ele>219.14285714285714</ele><time>2026-04-04T11:37:39.054Z</time></trkpt><trkpt lat="41.3362137" lon="1.8004873"><ele>219.42857142857142</ele><time>2026-04-04T11:37:40.052Z</time></trkpt><trkpt lat="41.3362591" lon="1.8005512"><ele>219.7142857142857</ele><time>2026-04-04T11:37:41.053Z</time></trkpt><trkpt lat="41.3363119" lon="1.8006272"><ele>220.0</ele><time>2026-04-04T11:37:42.052Z</time></trkpt><trkpt lat="41.3363562" lon="1.8007218"><ele>220.0</ele><time>2026-04-04T11:37:43.063Z</time></trkpt><trkpt lat="41.3363786" lon="1.8008377"><ele>220.0</ele><time>2026-04-04T11:37:44.047Z</time></trkpt><trkpt lat="41.3363931" lon="1.8009657"><ele>220.0</ele><time>2026-04-04T11:37:45.046Z</time></trkpt><trkpt lat="41.3364155" lon="1.8010975"><ele>220.0</ele><time>2026-04-04T11:37:46.05Z</time></trkpt><trkpt lat="41.3364369" lon="1.8012265"><ele>220.0</ele><time>2026-04-04T11:37:47.047Z</time></trkpt><trkpt lat="41.3364669" lon="1.8013456"><ele>220.75</ele><time>2026-04-04T11:37:48.053Z</time></trkpt><trkpt lat="41.336514" lon="1.8014609"><ele>221.5</ele><time>2026-04-04T11:37:49.049Z</time></trkpt><trkpt lat="41.3365746" lon="1.8015793"><ele>222.25</ele><time>2026-04-04T11:37:50.05Z</time></trkpt><trkpt lat="41.3366432" lon="1.8017094"><ele>223.0</ele><time>2026-04-04T11:37:51.051Z</time></trkpt><trkpt lat="41.3367102" lon="1.8018568"><ele>223.4</ele><time>2026-04-04T11:37:52.063Z</time></trkpt><trkpt lat="41.3367614" lon="1.8020111"><ele>223.8</ele><time>2026-04-04T11:37:53.061Z</time></trkpt><trkpt lat="41.3367981" lon="1.8021581"><ele>224.2</ele><time>2026-04-04T11:37:54.054Z</time></trkpt><trkpt lat="41.3368298" lon="1.8022884"><ele>224.6</ele><time>2026-04-04T11:37:55.06Z</time></trkpt><trkpt lat="41.3368621" lon="1.8023904"><ele>225.0</ele><time>2026-04-04T11:37:56.064Z</time></trkpt><trkpt lat="41.3369032" lon="1.8024676"><ele>225.0</ele><time>2026-04-04T11:37:57.064Z</time></trkpt><trkpt lat="41.3369623" lon="1.8025362"><ele>225.0</ele><time>2026-04-04T11:37:58.063Z</time></trkpt><trkpt lat="41.3370397" lon="1.8026022"><ele>225.0</ele><time>2026-04-04T11:37:59.068Z</time></trkpt><trkpt lat="41.3371312" lon="1.8026781"><ele>225.0</ele><time>2026-04-04T11:38:00.063Z</time></trkpt><trkpt lat="41.3372294" lon="1.8027531"><ele>225.0</ele><time>2026-04-04T11:38:01.076Z</time></trkpt><trkpt lat="41.337329" lon="1.8028451"><ele>225.5</ele><time>2026-04-04T11:38:02.066Z</time></trkpt><trkpt lat="41.3374296" lon="1.8029522"><ele>226.0</ele><time>2026-04-04T11:38:03.063Z</time></trkpt><trkpt lat="41.3375295" lon="1.8030713"><ele>226.5</ele><time>2026-04-04T11:38:04.06Z</time></trkpt><trkpt lat="41.3376159" lon="1.8031941"><ele>227.0</ele><time>2026-04-04T11:38:05.068Z</time></trkpt><trkpt lat="41.3376839" lon="1.8033075"><ele>227.0</ele><time>2026-04-04T11:38:06.061Z</time></trkpt><trkpt lat="41.3377406" lon="1.8034301"><ele>227.0</ele><time>2026-04-04T11:38:07.06Z</time></trkpt><trkpt lat="41.3377789" lon="1.8035577"><ele>227.0</ele><time>2026-04-04T11:38:08.051Z</time></trkpt><trkpt lat="41.3378198" lon="1.8036951"><ele>227.0</ele><time>2026-04-04T11:38:09.045Z</time></trkpt><trkpt lat="41.3378555" lon="1.8038273"><ele>227.0</ele><time>2026-04-04T11:38:10.049Z</time></trkpt><trkpt lat="41.3378844" lon="1.8039432"><ele>228.50000000000003</ele><time>2026-04-04T11:38:11.05Z</time></trkpt><trkpt lat="41.3378974" lon="1.8040486"><ele>230.0</ele><time>2026-04-04T11:38:12.049Z</time></trkpt><trkpt lat="41.3378918" lon="1.8041469"><ele>231.5</ele><time>2026-04-04T11:38:13.051Z</time></trkpt><trkpt lat="41.3378596" lon="1.8042533"><ele>233.0</ele><time>2026-04-04T11:38:14.064Z</time></trkpt><trkpt lat="41.337812" lon="1.8043652"><ele>234.50000000000003</ele><time>2026-04-04T11:38:15.05Z</time></trkpt><trkpt lat="41.3377654" lon="1.8044888"><ele>236.0</ele><time>2026-04-04T11:38:16.051Z</time></trkpt><trkpt lat="41.3377197" lon="1.8046125"><ele>236.0</ele><time>2026-04-04T11:38:17.047Z</time></trkpt><trkpt lat="41.3376717" lon="1.8047435"><ele>236.0</ele><time>2026-04-04T11:38:18.05Z</time></trkpt><trkpt lat="41.3376161" lon="1.8048765"><ele>236.0</ele><time>2026-04-04T11:38:19.046Z</time></trkpt><trkpt lat="41.3375521" lon="1.8050116"><ele>236.0</ele><time>2026-04-04T11:38:20.057Z</time></trkpt><trkpt lat="41.3374808" lon="1.8051398"><ele>236.0</ele><time>2026-04-04T11:38:21.045Z</time></trkpt><trkpt lat="41.337409" lon="1.8052558"><ele>236.00000000000003</ele><time>2026-04-04T11:38:22.046Z</time></trkpt><trkpt lat="41.3373445" lon="1.8053664"><ele>236.00000000000003</ele><time>2026-04-04T11:38:23.048Z</time></trkpt><trkpt lat="41.3372925" lon="1.8054835"><ele>236.0</ele><time>2026-04-04T11:38:24.047Z</time></trkpt><trkpt lat="41.3372547" lon="1.8056065"><ele>236.0</ele><time>2026-04-04T11:38:25.048Z</time></trkpt><trkpt lat="41.3372131" lon="1.8057168"><ele>237.16666666666669</ele><time>2026-04-04T11:38:26.049Z</time></trkpt><trkpt lat="41.3371762" lon="1.8058004"><ele>238.33333333333334</ele><time>2026-04-04T11:38:27.045Z</time></trkpt><trkpt lat="41.3370828" lon="1.8058909"><ele>239.5</ele><time>2026-04-04T11:38:29.054Z</time></trkpt><trkpt lat="41.3370197" lon="1.8059286"><ele>240.66666666666669</ele><time>2026-04-04T11:38:30.05Z</time></trkpt><trkpt lat="41.336949" lon="1.8059838"><ele>241.83333333333334</ele><time>2026-04-04T11:38:31.055Z</time></trkpt><trkpt lat="41.3368703" lon="1.8060484"><ele>243.0</ele><time>2026-04-04T11:38:32.051Z</time></trkpt><trkpt lat="41.3367899" lon="1.8061067"><ele>243.0</ele><time>2026-04-04T11:38:33.053Z</time></trkpt><trkpt lat="41.3367087" lon="1.8061576"><ele>243.0</ele><time>2026-04-04T11:38:34.052Z</time></trkpt><trkpt lat="41.3366456" lon="1.8062231"><ele>243.0</ele><time>2026-04-04T11:38:35.055Z</time></trkpt><trkpt lat="41.3365808" lon="1.8063106"><ele>243.0</ele><time>2026-04-04T11:38:36.055Z</time></trkpt><trkpt lat="41.3365259" lon="1.8064352"><ele>243.0</ele><time>2026-04-04T11:38:37.054Z</time></trkpt><trkpt lat="41.3364746" lon="1.8065606"><ele>243.0</ele><time>2026-04-04T11:38:38.052Z</time></trkpt><trkpt lat="41.336429" lon="1.8066731"><ele>243.0</ele><time>2026-04-04T11:38:39.043Z</time></trkpt><trkpt lat="41.3363956" lon="1.8067782"><ele>243.0</ele><time>2026-04-04T11:38:40.049Z</time></trkpt><trkpt lat="41.3363831" lon="1.8068861"><ele>243.0</ele><time>2026-04-04T11:38:41.05Z</time></trkpt><trkpt lat="41.3363858" lon="1.8069961"><ele>243.0</ele><time>2026-04-04T11:38:42.049Z</time></trkpt><trkpt lat="41.3364085" lon="1.8070844"><ele>243.0</ele><time>2026-04-04T11:38:43.054Z</time></trkpt><trkpt lat="41.336456" lon="1.8071581"><ele>244.8</ele><time>2026-04-04T11:38:44.052Z</time></trkpt><trkpt lat="41.3365323" lon="1.807232"><ele>246.60000000000002</ele><time>2026-04-04T11:38:45.06Z</time></trkpt><trkpt lat="41.3366272" lon="1.8073016"><ele>248.39999999999998</ele><time>2026-04-04T11:38:46.048Z</time></trkpt><trkpt lat="41.3367291" lon="1.8073675"><ele>250.2</ele><time>2026-04-04T11:38:47.041Z</time></trkpt><trkpt lat="41.3368293" lon="1.8074299"><ele>252.0</ele><time>2026-04-04T11:38:48.052Z</time></trkpt><trkpt lat="41.3369264" lon="1.8075042"><ele>252.0</ele><time>2026-04-04T11:38:49.046Z</time></trkpt><trkpt lat="41.3370241" lon="1.8075791"><ele>252.0</ele><time>2026-04-04T11:38:50.055Z</time></trkpt><trkpt lat="41.3371073" lon="1.8076492"><ele>252.0</ele><time>2026-04-04T11:38:51.045Z</time></trkpt><trkpt lat="41.3371733" lon="1.8077204"><ele>252.0</ele><time>2026-04-04T11:38:52.051Z</time></trkpt><trkpt lat="41.3372253" lon="1.8077972"><ele>252.0</ele><time>2026-04-04T11:38:53.057Z</time></trkpt><trkpt lat="41.3372665" lon="1.8078947"><ele>254.0</ele><time>2026-04-04T11:38:54.046Z</time></trkpt><trkpt lat="41.3373174" lon="1.8079919"><ele>256.0</ele><time>2026-04-04T11:38:55.05Z</time></trkpt><trkpt lat="41.3373806" lon="1.808065"><ele>258.0</ele><time>2026-04-04T11:38:56.045Z</time></trkpt><trkpt lat="41.3374495" lon="1.8081133"><ele>260.0</ele><time>2026-04-04T11:38:57.046Z</time></trkpt><trkpt lat="41.3375298" lon="1.808155"><ele>262.0</ele><time>2026-04-04T11:38:58.048Z</time></trkpt><trkpt lat="41.3376171" lon="1.8081846"><ele>264.0</ele><time>2026-04-04T11:38:59.044Z</time></trkpt><trkpt lat="41.3377136" lon="1.8081933"><ele>264.0</ele><time>2026-04-04T11:39:00.04Z</time></trkpt><trkpt lat="41.3378116" lon="1.8081744"><ele>264.0</ele><time>2026-04-04T11:39:01.033Z</time></trkpt><trkpt lat="41.3379016" lon="1.8081603"><ele>264.0</ele><time>2026-04-04T11:39:02.044Z</time></trkpt><trkpt lat="41.3379852" lon="1.8081608"><ele>264.0</ele><time>2026-04-04T11:39:03.028Z</time></trkpt><trkpt lat="41.3380737" lon="1.8081921"><ele>264.0</ele><time>2026-04-04T11:39:04.062Z</time></trkpt><trkpt lat="41.3381588" lon="1.8082439"><ele>264.8</ele><time>2026-04-04T11:39:05.05Z</time></trkpt><trkpt lat="41.3382387" lon="1.8083177"><ele>265.59999999999997</ele><time>2026-04-04T11:39:06.064Z</time></trkpt><trkpt lat="41.3383077" lon="1.8084002"><ele>266.4</ele><time>2026-04-04T11:39:07.063Z</time></trkpt><trkpt lat="41.3383612" lon="1.8085016"><ele>267.2</ele><time>2026-04-04T11:39:08.054Z</time></trkpt><trkpt lat="41.3383974" lon="1.8086127"><ele>268.0</ele><time>2026-04-04T11:39:09.055Z</time></trkpt><trkpt lat="41.3384268" lon="1.808713"><ele>268.0</ele><time>2026-04-04T11:39:10.062Z</time></trkpt><trkpt lat="41.3384436" lon="1.8087999"><ele>268.0</ele><time>2026-04-04T11:39:11.062Z</time></trkpt><trkpt lat="41.3384379" lon="1.8088855"><ele>268.0</ele><time>2026-04-04T11:39:12.055Z</time></trkpt><trkpt lat="41.3384127" lon="1.8089784"><ele>268.0</ele><time>2026-04-04T11:39:13.031Z</time></trkpt><trkpt lat="41.3383683" lon="1.8090745"><ele>268.0</ele><time>2026-04-04T11:39:14.056Z</time></trkpt><trkpt lat="41.3383057" lon="1.8091724"><ele>268.0</ele><time>2026-04-04T11:39:15.058Z</time></trkpt><trkpt lat="41.3382394" lon="1.8092677"><ele>268.3333333333333</ele><time>2026-04-04T11:39:16.066Z</time></trkpt><trkpt lat="41.3381919" lon="1.8093741"><ele>268.66666666666663</ele><time>2026-04-04T11:39:17.07Z</time></trkpt><trkpt lat="41.338168" lon="1.8094815"><ele>269.0</ele><time>2026-04-04T11:39:18.064Z</time></trkpt><trkpt lat="41.3381828" lon="1.8095764"><ele>269.3333333333333</ele><time>2026-04-04T11:39:19.055Z</time></trkpt><trkpt lat="41.3382316" lon="1.8096513"><ele>269.6666666666667</ele><time>2026-04-04T11:39:20.072Z</time></trkpt><trkpt lat="41.3383045" lon="1.8097066"><ele>270.0</ele><time>2026-04-04T11:39:21.052Z</time></trkpt><trkpt lat="41.3383694" lon="1.8097479"><ele>270.0</ele><time>2026-04-04T11:39:22.054Z</time></trkpt><trkpt lat="41.3384298" lon="1.8098962"><ele>270.0</ele><time>2026-04-04T11:39:24.063Z</time></trkpt><trkpt lat="41.3384364" lon="1.8099963"><ele>270.0</ele><time>2026-04-04T11:39:25.055Z</time></trkpt><trkpt lat="41.338431" lon="1.8101012"><ele>270.0</ele><time>2026-04-04T11:39:26.054Z</time></trkpt><trkpt lat="41.33841" lon="1.8102189"><ele>270.0</ele><time>2026-04-04T11:39:27.057Z</time></trkpt><trkpt lat="41.3383682" lon="1.8103439"><ele>270.0</ele><time>2026-04-04T11:39:28.062Z</time></trkpt><trkpt lat="41.3383289" lon="1.8104848"><ele>270.0</ele><time>2026-04-04T11:39:29.06Z</time></trkpt><trkpt lat="41.3382982" lon="1.8106388"><ele>270.0</ele><time>2026-04-04T11:39:30.058Z</time></trkpt><trkpt lat="41.3382769" lon="1.8108022"><ele>270.0</ele><time>2026-04-04T11:39:31.072Z</time></trkpt><trkpt lat="41.3382612" lon="1.8109636"><ele>270.2</ele><time>2026-04-04T11:39:32.057Z</time></trkpt><trkpt lat="41.338249" lon="1.8111034"><ele>270.4</ele><time>2026-04-04T11:39:33.063Z</time></trkpt><trkpt lat="41.3382406" lon="1.8112246"><ele>270.6</ele><time>2026-04-04T11:39:34.064Z</time></trkpt><trkpt lat="41.3382386" lon="1.8113208"><ele>270.8</ele><time>2026-04-04T11:39:35.077Z</time></trkpt><trkpt lat="41.338288" lon="1.8114284"><ele>271.0</ele><time>2026-04-04T11:39:37.073Z</time></trkpt><trkpt lat="41.3383581" lon="1.8115051"><ele>271.0</ele><time>2026-04-04T11:39:39.064Z</time></trkpt><trkpt lat="41.3383773" lon="1.8115924"><ele>271.0</ele><time>2026-04-04T11:39:48.074Z</time></trkpt><trkpt lat="41.3383826" lon="1.8115022"><ele>271.0</ele><time>2026-04-04T11:42:27.105Z</time></trkpt><trkpt lat="41.3384486" lon="1.8114704"><ele>271.0</ele><time>2026-04-04T11:42:29.102Z</time></trkpt><trkpt lat="41.3385776" lon="1.8115083"><ele>271.0</ele><time>2026-04-04T11:42:31.078Z</time></trkpt><trkpt lat="41.3386437" lon="1.8115464"><ele>271.0</ele><time>2026-04-04T11:42:32.1Z</time></trkpt><trkpt lat="41.3387142" lon="1.8115837"><ele>271.0</ele><time>2026-04-04T11:42:33.092Z</time></trkpt><trkpt lat="41.3387862" lon="1.8116044"><ele>271.0</ele><time>2026-04-04T11:42:34.085Z</time></trkpt><trkpt lat="41.3388617" lon="1.8116083"><ele>271.0</ele><time>2026-04-04T11:42:35.08Z</time></trkpt><trkpt lat="41.3389365" lon="1.811617"><ele>271.0</ele><time>2026-04-04T11:42:36.072Z</time></trkpt><trkpt lat="41.3390034" lon="1.8116313"><ele>271.0</ele><time>2026-04-04T11:42:37.09Z</time></trkpt><trkpt lat="41.3390991" lon="1.8116626"><ele>271.0</ele><time>2026-04-04T11:42:39.082Z</time></trkpt><trkpt lat="41.3391636" lon="1.8116589"><ele>272.3333333333333</ele><time>2026-04-04T11:43:08.089Z</time></trkpt><trkpt lat="41.3392579" lon="1.8116531"><ele>273.66666666666663</ele><time>2026-04-04T11:43:10.093Z</time></trkpt><trkpt lat="41.3393761" lon="1.8116589"><ele>275.0</ele><time>2026-04-04T11:43:12.106Z</time></trkpt><trkpt lat="41.3394406" lon="1.8116692"><ele>276.3333333333333</ele><time>2026-04-04T11:43:13.114Z</time></trkpt><trkpt lat="41.3395069" lon="1.8116811"><ele>277.6666666666667</ele><time>2026-04-04T11:43:14.105Z</time></trkpt><trkpt lat="41.3395702" lon="1.8116867"><ele>279.0</ele><time>2026-04-04T11:43:15.105Z</time></trkpt><trkpt lat="41.3396353" lon="1.811693"><ele>279.0</ele><time>2026-04-04T11:43:16.1Z</time></trkpt><trkpt lat="41.3396991" lon="1.8116979"><ele>279.0</ele><time>2026-04-04T11:43:17.052Z</time></trkpt><trkpt lat="41.3398186" lon="1.8117057"><ele>279.0</ele><time>2026-04-04T11:43:19.104Z</time></trkpt><trkpt lat="41.3399406" lon="1.8117129"><ele>279.0</ele><time>2026-04-04T11:43:21.1Z</time></trkpt><trkpt lat="41.3400611" lon="1.8117254"><ele>279.0</ele><time>2026-04-04T11:43:23.107Z</time></trkpt><trkpt lat="41.3401242" lon="1.8117304"><ele>278.57142857142856</ele><time>2026-04-04T11:43:24.093Z</time></trkpt><trkpt lat="41.3401879" lon="1.811737"><ele>278.1428571428571</ele><time>2026-04-04T11:43:25.096Z</time></trkpt><trkpt lat="41.3402527" lon="1.8117483"><ele>277.7142857142857</ele><time>2026-04-04T11:43:26.098Z</time></trkpt><trkpt lat="41.3403182" lon="1.8117689"><ele>277.2857142857143</ele><time>2026-04-04T11:43:27.097Z</time></trkpt><trkpt lat="41.340384" lon="1.8117928"><ele>276.8571428571429</ele><time>2026-04-04T11:43:28.095Z</time></trkpt><trkpt lat="41.3404478" lon="1.8118239"><ele>276.42857142857144</ele><time>2026-04-04T11:43:29.075Z</time></trkpt><trkpt lat="41.3405082" lon="1.8118635"><ele>276.0</ele><time>2026-04-04T11:43:30.093Z</time></trkpt><trkpt lat="41.3405695" lon="1.8119157"><ele>278.0</ele><time>2026-04-04T11:43:31.1Z</time></trkpt><trkpt lat="41.3406256" lon="1.8119808"><ele>280.0</ele><time>2026-04-04T11:43:32.096Z</time></trkpt><trkpt lat="41.3406833" lon="1.8120439"><ele>282.0</ele><time>2026-04-04T11:43:33.111Z</time></trkpt><trkpt lat="41.3407453" lon="1.812113"><ele>284.0</ele><time>2026-04-04T11:43:34.102Z</time></trkpt><trkpt lat="41.3408071" lon="1.8121917"><ele>286.0</ele><time>2026-04-04T11:43:35.093Z</time></trkpt><trkpt lat="41.3408667" lon="1.8122731"><ele>288.0</ele><time>2026-04-04T11:43:36.096Z</time></trkpt><trkpt lat="41.3409258" lon="1.8123517"><ele>288.0</ele><time>2026-04-04T11:43:37.091Z</time></trkpt><trkpt lat="41.3409838" lon="1.8124278"><ele>288.0</ele><time>2026-04-04T11:43:38.107Z</time></trkpt><trkpt lat="41.3410453" lon="1.8125023"><ele>288.0</ele><time>2026-04-04T11:43:39.101Z</time></trkpt><trkpt lat="41.3411097" lon="1.8125692"><ele>288.0</ele><time>2026-04-04T11:43:40.098Z</time></trkpt><trkpt lat="41.3411793" lon="1.8126264"><ele>288.0</ele><time>2026-04-04T11:43:41.098Z</time></trkpt><trkpt lat="41.3412491" lon="1.8126638"><ele>288.0</ele><time>2026-04-04T11:43:42.097Z</time></trkpt><trkpt lat="41.3413098" lon="1.8126892"><ele>288.6666666666667</ele><time>2026-04-04T11:43:43.108Z</time></trkpt><trkpt lat="41.3414036" lon="1.8127008"><ele>289.3333333333333</ele><time>2026-04-04T11:43:45.093Z</time></trkpt><trkpt lat="41.3415047" lon="1.8126696"><ele>290.0</ele><time>2026-04-04T11:43:47.086Z</time></trkpt><trkpt lat="41.3415677" lon="1.8126319"><ele>290.66666666666663</ele><time>2026-04-04T11:43:48.088Z</time></trkpt><trkpt lat="41.3416438" lon="1.8125887"><ele>291.3333333333333</ele><time>2026-04-04T11:43:49.08Z</time></trkpt><trkpt lat="41.3417302" lon="1.8125564"><ele>292.0</ele><time>2026-04-04T11:43:50.085Z</time></trkpt><trkpt lat="41.3418295" lon="1.8125402"><ele>292.4</ele><time>2026-04-04T11:43:51.078Z</time></trkpt><trkpt lat="41.3419336" lon="1.8125481"><ele>292.79999999999995</ele><time>2026-04-04T11:43:52.077Z</time></trkpt><trkpt lat="41.3420308" lon="1.8125698"><ele>293.2</ele><time>2026-04-04T11:43:53.084Z</time></trkpt><trkpt lat="41.3421292" lon="1.8126176"><ele>293.59999999999997</ele><time>2026-04-04T11:43:54.091Z</time></trkpt><trkpt lat="41.3422261" lon="1.8126726"><ele>294.0</ele><time>2026-04-04T11:43:55.079Z</time></trkpt><trkpt lat="41.3423204" lon="1.8127367"><ele>292.0</ele><time>2026-04-04T11:43:56.083Z</time></trkpt><trkpt lat="41.3424162" lon="1.8128061"><ele>290.0</ele><time>2026-04-04T11:43:57.075Z</time></trkpt><trkpt lat="41.3425111" lon="1.8128748"><ele>288.0</ele><time>2026-04-04T11:43:58.08Z</time></trkpt><trkpt lat="41.3426028" lon="1.8129426"><ele>286.0</ele><time>2026-04-04T11:43:59.083Z</time></trkpt><trkpt lat="41.3426921" lon="1.8130034"><ele>284.0</ele><time>2026-04-04T11:44:00.079Z</time></trkpt><trkpt lat="41.3427755" lon="1.8130634"><ele>284.0</ele><time>2026-04-04T11:44:01.082Z</time></trkpt><trkpt lat="41.3428523" lon="1.8131188"><ele>284.0</ele><time>2026-04-04T11:44:02.079Z</time></trkpt><trkpt lat="41.3429288" lon="1.8131553"><ele>284.0</ele><time>2026-04-04T11:44:03.078Z</time></trkpt><trkpt lat="41.3430015" lon="1.8131768"><ele>284.0</ele><time>2026-04-04T11:44:04.083Z</time></trkpt><trkpt lat="41.3430771" lon="1.8131751"><ele>284.0</ele><time>2026-04-04T11:44:05.074Z</time></trkpt><trkpt lat="41.3431558" lon="1.8131475"><ele>284.0</ele><time>2026-04-04T11:44:06.081Z</time></trkpt><trkpt lat="41.3432335" lon="1.8130911"><ele>284.0</ele><time>2026-04-04T11:44:07.082Z</time></trkpt><trkpt lat="41.3433131" lon="1.8129987"><ele>284.0</ele><time>2026-04-04T11:44:08.077Z</time></trkpt><trkpt lat="41.3433951" lon="1.8128912"><ele>284.0</ele><time>2026-04-04T11:44:09.076Z</time></trkpt><trkpt lat="41.3434818" lon="1.8127916"><ele>284.0</ele><time>2026-04-04T11:44:10.078Z</time></trkpt><trkpt lat="41.3435706" lon="1.8126891"><ele>283.75</ele><time>2026-04-04T11:44:11.079Z</time></trkpt><trkpt lat="41.34366" lon="1.8125911"><ele>283.5</ele><time>2026-04-04T11:44:12.085Z</time></trkpt><trkpt lat="41.3437489" lon="1.8124929"><ele>283.25</ele><time>2026-04-04T11:44:13.08Z</time></trkpt><trkpt lat="41.3438398" lon="1.812402"><ele>283.0</ele><time>2026-04-04T11:44:14.08Z</time></trkpt><trkpt lat="41.3439299" lon="1.8123238"><ele>283.0</ele><time>2026-04-04T11:44:15.076Z</time></trkpt><trkpt lat="41.3440193" lon="1.8122532"><ele>283.0</ele><time>2026-04-04T11:44:16.079Z</time></trkpt><trkpt lat="41.3441067" lon="1.8121951"><ele>283.0</ele><time>2026-04-04T11:44:17.083Z</time></trkpt><trkpt lat="41.3441901" lon="1.8121485"><ele>283.0</ele><time>2026-04-04T11:44:18.088Z</time></trkpt><trkpt lat="41.3442596" lon="1.8121235"><ele>283.0</ele><time>2026-04-04T11:44:19.08Z</time></trkpt><trkpt lat="41.3443716" lon="1.8121353"><ele>283.0</ele><time>2026-04-04T11:44:21.083Z</time></trkpt><trkpt lat="41.3444431" lon="1.8122078"><ele>283.0</ele><time>2026-04-04T11:44:23.087Z</time></trkpt><trkpt lat="41.3444957" lon="1.8123269"><ele>283.0</ele><time>2026-04-04T11:44:25.092Z</time></trkpt><trkpt lat="41.3445264" lon="1.812405"><ele>283.0</ele><time>2026-04-04T11:44:26.083Z</time></trkpt><trkpt lat="41.344558" lon="1.8124939"><ele>283.0</ele><time>2026-04-04T11:44:27.087Z</time></trkpt><trkpt lat="41.3445865" lon="1.8125913"><ele>283.0</ele><time>2026-04-04T11:44:28.086Z</time></trkpt><trkpt lat="41.344604" lon="1.8126928"><ele>282.3333333333333</ele><time>2026-04-04T11:44:29.085Z</time></trkpt><trkpt lat="41.3446188" lon="1.8127976"><ele>281.66666666666663</ele><time>2026-04-04T11:44:30.085Z</time></trkpt><trkpt lat="41.3446287" lon="1.8129075"><ele>281.0</ele><time>2026-04-04T11:44:31.085Z</time></trkpt><trkpt lat="41.3446324" lon="1.813018"><ele>280.3333333333333</ele><time>2026-04-04T11:44:32.088Z</time></trkpt><trkpt lat="41.344628" lon="1.8131328"><ele>279.6666666666667</ele><time>2026-04-04T11:44:33.088Z</time></trkpt><trkpt lat="41.3446293" lon="1.813254"><ele>279.0</ele><time>2026-04-04T11:44:34.081Z</time></trkpt><trkpt lat="41.3446441" lon="1.813373"><ele>279.2</ele><time>2026-04-04T11:44:35.081Z</time></trkpt><trkpt lat="41.3446671" lon="1.8134914"><ele>279.4</ele><time>2026-04-04T11:44:36.083Z</time></trkpt><trkpt lat="41.3446939" lon="1.8136107"><ele>279.6</ele><time>2026-04-04T11:44:37.084Z</time></trkpt><trkpt lat="41.3447122" lon="1.8137329"><ele>279.8</ele><time>2026-04-04T11:44:38.084Z</time></trkpt><trkpt lat="41.3447149" lon="1.813868"><ele>280.0</ele><time>2026-04-04T11:44:39.084Z</time></trkpt><trkpt lat="41.3446934" lon="1.8140055"><ele>280.0</ele><time>2026-04-04T11:44:40.078Z</time></trkpt><trkpt lat="41.3446402" lon="1.8141357"><ele>280.0</ele><time>2026-04-04T11:44:41.068Z</time></trkpt><trkpt lat="41.344578" lon="1.8142512"><ele>280.0</ele><time>2026-04-04T11:44:42.076Z</time></trkpt><trkpt lat="41.344517" lon="1.8143456"><ele>280.0</ele><time>2026-04-04T11:44:43.072Z</time></trkpt><trkpt lat="41.3444736" lon="1.814438"><ele>280.0</ele><time>2026-04-04T11:44:44.066Z</time></trkpt><trkpt lat="41.344447" lon="1.8145317"><ele>279.5</ele><time>2026-04-04T11:44:45.079Z</time></trkpt><trkpt lat="41.3444579" lon="1.8146153"><ele>279.0</ele><time>2026-04-04T11:44:46.08Z</time></trkpt><trkpt lat="41.3445072" lon="1.8146762"><ele>278.5</ele><time>2026-04-04T11:44:47.076Z</time></trkpt><trkpt lat="41.3445781" lon="1.8147196"><ele>278.0</ele><time>2026-04-04T11:44:48.082Z</time></trkpt><trkpt lat="41.3446739" lon="1.8147376"><ele>277.5</ele><time>2026-04-04T11:44:49.083Z</time></trkpt><trkpt lat="41.344768" lon="1.8147509"><ele>277.0</ele><time>2026-04-04T11:44:50.084Z</time></trkpt><trkpt lat="41.3448624" lon="1.8147766"><ele>278.3333333333333</ele><time>2026-04-04T11:44:51.071Z</time></trkpt><trkpt lat="41.3449523" lon="1.8148028"><ele>279.66666666666663</ele><time>2026-04-04T11:44:52.081Z</time></trkpt><trkpt lat="41.3450353" lon="1.8148258"><ele>281.0</ele><time>2026-04-04T11:44:53.077Z</time></trkpt><trkpt lat="41.3451085" lon="1.8148458"><ele>282.3333333333333</ele><time>2026-04-04T11:44:54.07Z</time></trkpt><trkpt lat="41.3451705" lon="1.8148663"><ele>283.6666666666667</ele><time>2026-04-04T11:44:55.072Z</time></trkpt><trkpt lat="41.3452342" lon="1.8149051"><ele>285.0</ele><time>2026-04-04T11:44:57.087Z</time></trkpt><trkpt lat="41.3452862" lon="1.8149844"><ele>285.0</ele><time>2026-04-04T11:44:59.05Z</time></trkpt><trkpt lat="41.345348" lon="1.8151034"><ele>285.0</ele><time>2026-04-04T11:45:01.046Z</time></trkpt><trkpt lat="41.3454147" lon="1.8152414"><ele>285.0</ele><time>2026-04-04T11:45:03.048Z</time></trkpt><trkpt lat="41.3454891" lon="1.8153774"><ele>285.0</ele><time>2026-04-04T11:45:05.061Z</time></trkpt><trkpt lat="41.3455716" lon="1.8154873"><ele>285.4</ele><time>2026-04-04T11:45:07.058Z</time></trkpt><trkpt lat="41.345656" lon="1.8155849"><ele>285.8</ele><time>2026-04-04T11:45:09.065Z</time></trkpt><trkpt lat="41.3457655" lon="1.8156734"><ele>286.2</ele><time>2026-04-04T11:45:11.059Z</time></trkpt><trkpt lat="41.345829" lon="1.8157255"><ele>286.6</ele><time>2026-04-04T11:45:12.064Z</time></trkpt><trkpt lat="41.3458932" lon="1.8157818"><ele>287.0</ele><time>2026-04-04T11:45:13.057Z</time></trkpt><trkpt lat="41.3459549" lon="1.8158477"><ele>287.0</ele><time>2026-04-04T11:45:14.057Z</time></trkpt><trkpt lat="41.3460151" lon="1.8159235"><ele>287.0</ele><time>2026-04-04T11:45:15.059Z</time></trkpt><trkpt lat="41.3460723" lon="1.8160106"><ele>287.0</ele><time>2026-04-04T11:45:16.058Z</time></trkpt><trkpt lat="41.3461276" lon="1.8161126"><ele>287.0</ele><time>2026-04-04T11:45:17.06Z</time></trkpt><trkpt lat="41.3461731" lon="1.8162107"><ele>287.0</ele><time>2026-04-04T11:45:18.06Z</time></trkpt><trkpt lat="41.3462135" lon="1.8162964"><ele>287.0</ele><time>2026-04-04T11:45:19.053Z</time></trkpt><trkpt lat="41.346259" lon="1.8164249"><ele>286.6</ele><time>2026-04-04T11:45:21.05Z</time></trkpt><trkpt lat="41.3462113" lon="1.8165399"><ele>286.2</ele><time>2026-04-04T11:46:17.073Z</time></trkpt><trkpt lat="41.3461243" lon="1.8166276"><ele>285.8</ele><time>2026-04-04T11:46:19.067Z</time></trkpt><trkpt lat="41.3460257" lon="1.8167235"><ele>285.4</ele><time>2026-04-04T11:46:21.068Z</time></trkpt><trkpt lat="41.3459409" lon="1.8168139"><ele>285.0</ele><time>2026-04-04T11:46:23.073Z</time></trkpt><trkpt lat="41.3458848" lon="1.8168976"><ele>284.4</ele><time>2026-04-04T11:46:25.056Z</time></trkpt><trkpt lat="41.3458457" lon="1.8170197"><ele>283.8</ele><time>2026-04-04T11:46:27.057Z</time></trkpt><trkpt lat="41.3457889" lon="1.8171472"><ele>283.2</ele><time>2026-04-04T11:46:29.068Z</time></trkpt><trkpt lat="41.3457125" lon="1.8172232"><ele>282.6</ele><time>2026-04-04T11:46:31.059Z</time></trkpt><trkpt lat="41.3456485" lon="1.8173149"><ele>282.0</ele><time>2026-04-04T11:46:33.072Z</time></trkpt><trkpt lat="41.3456248" lon="1.8174396"><ele>282.0</ele><time>2026-04-04T11:46:35.058Z</time></trkpt><trkpt lat="41.3456897" lon="1.8175513"><ele>282.0</ele><time>2026-04-04T11:46:37.052Z</time></trkpt><trkpt lat="41.3457475" lon="1.8175868"><ele>282.0</ele><time>2026-04-04T11:46:38.004Z</time></trkpt><trkpt lat="41.3458166" lon="1.8176101"><ele>282.0</ele><time>2026-04-04T11:46:39.055Z</time></trkpt><trkpt lat="41.3458876" lon="1.8176344"><ele>282.0</ele><time>2026-04-04T11:46:40.061Z</time></trkpt><trkpt lat="41.3459548" lon="1.8176592"><ele>282.0</ele><time>2026-04-04T11:46:41.066Z</time></trkpt><trkpt lat="41.3460217" lon="1.8176919"><ele>280.8333333333333</ele><time>2026-04-04T11:46:42.073Z</time></trkpt><trkpt lat="41.3460907" lon="1.8177272"><ele>279.6666666666667</ele><time>2026-04-04T11:46:43.066Z</time></trkpt><trkpt lat="41.3461599" lon="1.8177673"><ele>278.5</ele><time>2026-04-04T11:46:44.066Z</time></trkpt><trkpt lat="41.3462295" lon="1.8178136"><ele>277.33333333333337</ele><time>2026-04-04T11:46:45.075Z</time></trkpt><trkpt lat="41.3463029" lon="1.8178542"><ele>276.1666666666667</ele><time>2026-04-04T11:46:46.085Z</time></trkpt><trkpt lat="41.3463788" lon="1.8178824"><ele>275.0</ele><time>2026-04-04T11:46:47.022Z</time></trkpt><trkpt lat="41.3464532" lon="1.8178876"><ele>275.0</ele><time>2026-04-04T11:46:48.057Z</time></trkpt><trkpt lat="41.3465218" lon="1.8178888"><ele>275.0</ele><time>2026-04-04T11:46:49.038Z</time></trkpt><trkpt lat="41.3465856" lon="1.8178964"><ele>275.0</ele><time>2026-04-04T11:46:50.068Z</time></trkpt><trkpt lat="41.3466947" lon="1.8179661"><ele>275.0</ele><time>2026-04-04T11:46:52.06Z</time></trkpt><trkpt lat="41.3467535" lon="1.818103"><ele>275.0</ele><time>2026-04-04T11:46:54.054Z</time></trkpt><trkpt lat="41.3467575" lon="1.8182072"><ele>275.0</ele><time>2026-04-04T11:46:55.061Z</time></trkpt><trkpt lat="41.3467606" lon="1.8182917"><ele>275.0</ele><time>2026-04-04T11:46:56.06Z</time></trkpt><trkpt lat="41.3467622" lon="1.8184217"><ele>275.0</ele><time>2026-04-04T11:46:58.038Z</time></trkpt><trkpt lat="41.3467101" lon="1.818497"><ele>275.0</ele><time>2026-04-04T11:47:00.079Z</time></trkpt><trkpt lat="41.3466014" lon="1.8184757"><ele>275.0</ele><time>2026-04-04T11:47:02.062Z</time></trkpt><trkpt lat="41.3465332" lon="1.8184354"><ele>275.0</ele><time>2026-04-04T11:47:03.058Z</time></trkpt><trkpt lat="41.3464604" lon="1.8184133"><ele>275.0</ele><time>2026-04-04T11:47:04.051Z</time></trkpt><trkpt lat="41.3463817" lon="1.8184124"><ele>275.0</ele><time>2026-04-04T11:47:05.05Z</time></trkpt><trkpt lat="41.3462984" lon="1.8184279"><ele>275.0</ele><time>2026-04-04T11:47:06.047Z</time></trkpt><trkpt lat="41.3462135" lon="1.8184489"><ele>275.0</ele><time>2026-04-04T11:47:07.051Z</time></trkpt><trkpt lat="41.3461235" lon="1.8184766"><ele>275.0</ele><time>2026-04-04T11:47:08.075Z</time></trkpt><trkpt lat="41.3460316" lon="1.8185001"><ele>275.0</ele><time>2026-04-04T11:47:09.069Z</time></trkpt><trkpt lat="41.3459384" lon="1.8185262"><ele>271.5</ele><time>2026-04-04T11:47:10.07Z</time></trkpt><trkpt lat="41.345861" lon="1.8185459"><ele>268.0</ele><time>2026-04-04T11:47:11.079Z</time></trkpt><trkpt lat="41.3458314" lon="1.8186224"><ele>264.5</ele><time>2026-04-04T11:47:30.084Z</time></trkpt><trkpt lat="41.3458523" lon="1.8187076"><ele>261.0</ele><time>2026-04-04T11:47:32.072Z</time></trkpt><trkpt lat="41.3458692" lon="1.8187933"><ele>257.5</ele><time>2026-04-04T11:47:36.061Z</time></trkpt><trkpt lat="41.3458582" lon="1.8189056"><ele>254.0</ele><time>2026-04-04T11:47:39.062Z</time></trkpt><trkpt lat="41.3457867" lon="1.8190055"><ele>254.00000000000003</ele><time>2026-04-04T11:47:41.067Z</time></trkpt><trkpt lat="41.3456897" lon="1.8191124"><ele>254.0</ele><time>2026-04-04T11:47:43.064Z</time></trkpt><trkpt lat="41.3456373" lon="1.819178"><ele>254.0</ele><time>2026-04-04T11:47:44.067Z</time></trkpt><trkpt lat="41.3455846" lon="1.8192506"><ele>254.0</ele><time>2026-04-04T11:47:45.054Z</time></trkpt><trkpt lat="41.3455282" lon="1.8193199"><ele>254.00000000000003</ele><time>2026-04-04T11:47:46.055Z</time></trkpt><trkpt lat="41.3454675" lon="1.8193877"><ele>254.0</ele><time>2026-04-04T11:47:47.058Z</time></trkpt><trkpt lat="41.3454019" lon="1.8194508"><ele>252.33333333333334</ele><time>2026-04-04T11:47:48.053Z</time></trkpt><trkpt lat="41.3453372" lon="1.8195108"><ele>250.66666666666669</ele><time>2026-04-04T11:47:49.051Z</time></trkpt><trkpt lat="41.3452708" lon="1.8195672"><ele>249.0</ele><time>2026-04-04T11:47:50.057Z</time></trkpt><trkpt lat="41.3452062" lon="1.8196183"><ele>247.33333333333331</ele><time>2026-04-04T11:47:51.06Z</time></trkpt><trkpt lat="41.3451397" lon="1.8196596"><ele>245.66666666666666</ele><time>2026-04-04T11:47:52.059Z</time></trkpt><trkpt lat="41.3450705" lon="1.8196885"><ele>244.0</ele><time>2026-04-04T11:47:53.052Z</time></trkpt><trkpt lat="41.3450014" lon="1.819713"><ele>243.99999999999997</ele><time>2026-04-04T11:47:54.055Z</time></trkpt><trkpt lat="41.3449318" lon="1.8197284"><ele>244.0</ele><time>2026-04-04T11:47:55.054Z</time></trkpt><trkpt lat="41.3448606" lon="1.8197448"><ele>243.99999999999997</ele><time>2026-04-04T11:47:56.059Z</time></trkpt><trkpt lat="41.344784" lon="1.8197632"><ele>243.99999999999997</ele><time>2026-04-04T11:47:57.055Z</time></trkpt><trkpt lat="41.3447081" lon="1.8197844"><ele>244.0</ele><time>2026-04-04T11:47:58.063Z</time></trkpt><trkpt lat="41.3446383" lon="1.8198083"><ele>243.99999999999997</ele><time>2026-04-04T11:47:59.061Z</time></trkpt><trkpt lat="41.3445763" lon="1.8198392"><ele>243.99999999999997</ele><time>2026-04-04T11:48:00.056Z</time></trkpt><trkpt lat="41.3445188" lon="1.8198795"><ele>243.71428571428567</ele><time>2026-04-04T11:48:01.067Z</time></trkpt><trkpt lat="41.3444676" lon="1.8199325"><ele>243.42857142857142</ele><time>2026-04-04T11:48:02.045Z</time></trkpt><trkpt lat="41.3444251" lon="1.8199968"><ele>243.1428571428571</ele><time>2026-04-04T11:48:03.05Z</time></trkpt><trkpt lat="41.3443913" lon="1.8200758"><ele>242.85714285714283</ele><time>2026-04-04T11:48:04.05Z</time></trkpt><trkpt lat="41.3443721" lon="1.8201679"><ele>242.57142857142856</ele><time>2026-04-04T11:48:05.052Z</time></trkpt><trkpt lat="41.3443665" lon="1.8202603"><ele>242.28571428571428</ele><time>2026-04-04T11:48:06.055Z</time></trkpt><trkpt lat="41.3443713" lon="1.8203552"><ele>242.0</ele><time>2026-04-04T11:48:07.058Z</time></trkpt><trkpt lat="41.3443828" lon="1.8204453"><ele>242.0</ele><time>2026-04-04T11:48:08.054Z</time></trkpt><trkpt lat="41.3444122" lon="1.8205333"><ele>241.99999999999997</ele><time>2026-04-04T11:48:09.057Z</time></trkpt><trkpt lat="41.3444552" lon="1.8206079"><ele>242.0</ele><time>2026-04-04T11:48:10.053Z</time></trkpt><trkpt lat="41.3445102" lon="1.8206698"><ele>242.0</ele><time>2026-04-04T11:48:11.058Z</time></trkpt><trkpt lat="41.3445701" lon="1.8207304"><ele>241.99999999999997</ele><time>2026-04-04T11:48:12.055Z</time></trkpt><trkpt lat="41.3446262" lon="1.8207861"><ele>242.0</ele><time>2026-04-04T11:48:13.057Z</time></trkpt><trkpt lat="41.3446704" lon="1.820861"><ele>242.0</ele><time>2026-04-04T11:48:14.058Z</time></trkpt><trkpt lat="41.3446998" lon="1.8209442"><ele>242.50000000000003</ele><time>2026-04-04T11:48:15.05Z</time></trkpt><trkpt lat="41.3447188" lon="1.8210259"><ele>243.0</ele><time>2026-04-04T11:48:16.051Z</time></trkpt><trkpt lat="41.3447398" lon="1.8211669"><ele>243.5</ele><time>2026-04-04T11:48:18.049Z</time></trkpt><trkpt lat="41.3447303" lon="1.8212559"><ele>244.0</ele><time>2026-04-04T11:48:21.065Z</time></trkpt><trkpt lat="41.344735" lon="1.8213672"><ele>244.50000000000003</ele><time>2026-04-04T11:48:24.062Z</time></trkpt><trkpt lat="41.3448183" lon="1.8214407"><ele>245.0</ele><time>2026-04-04T11:51:24.06Z</time></trkpt><trkpt lat="41.3449038" lon="1.8215266"><ele>245.0</ele><time>2026-04-04T11:51:27.065Z</time></trkpt><trkpt lat="41.344973" lon="1.8216322"><ele>245.0</ele><time>2026-04-04T11:51:29.067Z</time></trkpt><trkpt lat="41.3450358" lon="1.821746"><ele>245.0</ele><time>2026-04-04T11:51:31.061Z</time></trkpt><trkpt lat="41.3450932" lon="1.8218423"><ele>245.0</ele><time>2026-04-04T11:51:33.054Z</time></trkpt><trkpt lat="41.3451531" lon="1.8218999"><ele>245.0</ele><time>2026-04-04T11:51:36.064Z</time></trkpt><trkpt lat="41.3452339" lon="1.8219422"><ele>246.2</ele><time>2026-04-04T11:51:45.068Z</time></trkpt><trkpt lat="41.3453065" lon="1.8220084"><ele>247.4</ele><time>2026-04-04T11:51:47.064Z</time></trkpt><trkpt lat="41.3453977" lon="1.8220934"><ele>248.60000000000002</ele><time>2026-04-04T11:51:49.013Z</time></trkpt><trkpt lat="41.345497" lon="1.8221633"><ele>249.8</ele><time>2026-04-04T11:51:51.063Z</time></trkpt><trkpt lat="41.345568" lon="1.8222141"><ele>251.0</ele><time>2026-04-04T11:51:53.08Z</time></trkpt><trkpt lat="41.3456149" lon="1.8223018"><ele>251.0</ele><time>2026-04-04T11:51:55.068Z</time></trkpt><trkpt lat="41.3456522" lon="1.8224139"><ele>251.00000000000003</ele><time>2026-04-04T11:51:57.069Z</time></trkpt><trkpt lat="41.3456918" lon="1.8225426"><ele>251.00000000000003</ele><time>2026-04-04T11:51:59.069Z</time></trkpt><trkpt lat="41.3457303" lon="1.8226636"><ele>251.0</ele><time>2026-04-04T11:52:01.081Z</time></trkpt><trkpt lat="41.3457697" lon="1.8227548"><ele>251.0</ele><time>2026-04-04T11:52:03.081Z</time></trkpt><trkpt lat="41.3458145" lon="1.8228535"><ele>253.8</ele><time>2026-04-04T11:52:05.112Z</time></trkpt><trkpt lat="41.3458971" lon="1.8229591"><ele>256.6</ele><time>2026-04-04T11:52:07.073Z</time></trkpt><trkpt lat="41.345987" lon="1.8230607"><ele>259.4</ele><time>2026-04-04T11:52:09.068Z</time></trkpt><trkpt lat="41.3460391" lon="1.8231086"><ele>262.2</ele><time>2026-04-04T11:52:10.082Z</time></trkpt><trkpt lat="41.3461405" lon="1.8231955"><ele>265.0</ele><time>2026-04-04T11:52:12.073Z</time></trkpt><trkpt lat="41.3462264" lon="1.823275"><ele>265.0</ele><time>2026-04-04T11:52:14.101Z</time></trkpt><trkpt lat="41.3463093" lon="1.8233699"><ele>265.0</ele><time>2026-04-04T11:52:16.069Z</time></trkpt><trkpt lat="41.346366" lon="1.8234569"><ele>265.0</ele><time>2026-04-04T11:52:18.087Z</time></trkpt><trkpt lat="41.346404" lon="1.8235594"><ele>265.0</ele><time>2026-04-04T11:52:21.098Z</time></trkpt><trkpt lat="41.3464074" lon="1.823652"><ele>265.0</ele><time>2026-04-04T11:52:23.102Z</time></trkpt><trkpt lat="41.3464157" lon="1.8237421"><ele>265.0</ele><time>2026-04-04T11:52:25.106Z</time></trkpt><trkpt lat="41.3464646" lon="1.8238126"><ele>266.1428571428571</ele><time>2026-04-04T11:52:27.1Z</time></trkpt><trkpt lat="41.3465341" lon="1.823847"><ele>267.2857142857143</ele><time>2026-04-04T11:52:30.106Z</time></trkpt><trkpt lat="41.3466042" lon="1.8238478"><ele>268.42857142857144</ele><time>2026-04-04T11:53:36.067Z</time></trkpt><trkpt lat="41.3466789" lon="1.8238575"><ele>269.57142857142856</ele><time>2026-04-04T11:53:39.082Z</time></trkpt><trkpt lat="41.3467423" lon="1.8238961"><ele>270.7142857142857</ele><time>2026-04-04T11:53:45.061Z</time></trkpt><trkpt lat="41.3467915" lon="1.8239515"><ele>271.85714285714283</ele><time>2026-04-04T11:53:47.068Z</time></trkpt><trkpt lat="41.3468369" lon="1.8240171"><ele>273.0</ele><time>2026-04-04T11:53:49.056Z</time></trkpt><trkpt lat="41.3469139" lon="1.8240778"><ele>273.0</ele><time>2026-04-04T11:53:52.057Z</time></trkpt><trkpt lat="41.3469766" lon="1.8241347"><ele>273.0</ele><time>2026-04-04T11:53:55.078Z</time></trkpt><trkpt lat="41.3470099" lon="1.8242124"><ele>273.0</ele><time>2026-04-04T11:59:30.092Z</time></trkpt><trkpt lat="41.347049" lon="1.8242804"><ele>273.0</ele><time>2026-04-04T11:59:49.088Z</time></trkpt><trkpt lat="41.3484262" lon="1.8257622"><ele>275.5</ele><time>2026-04-04T12:06:08.084Z</time></trkpt><trkpt lat="41.3484517" lon="1.8258417"><ele>278.0</ele><time>2026-04-04T12:06:22.082Z</time></trkpt><trkpt lat="41.3485034" lon="1.8259638"><ele>280.5</ele><time>2026-04-04T12:06:25.072Z</time></trkpt><trkpt lat="41.348546" lon="1.8260594"><ele>283.0</ele><time>2026-04-04T12:06:27.069Z</time></trkpt><trkpt lat="41.3486076" lon="1.8261816"><ele>285.5</ele><time>2026-04-04T12:06:29.389Z</time></trkpt><trkpt lat="41.3486607" lon="1.8262378"><ele>288.0</ele><time>2026-04-04T12:06:30.874Z</time></trkpt><trkpt lat="41.3487314" lon="1.8262882"><ele>289.0</ele><time>2026-04-04T12:06:33.075Z</time></trkpt><trkpt lat="41.3487764" lon="1.8263741"><ele>290.0</ele><time>2026-04-04T12:06:36.08Z</time></trkpt><trkpt lat="41.3488186" lon="1.8264448"><ele>291.0</ele><time>2026-04-04T12:07:24.074Z</time></trkpt><trkpt lat="41.3488606" lon="1.8265482"><ele>292.0</ele><time>2026-04-04T12:07:26.07Z</time></trkpt><trkpt lat="41.348901" lon="1.8266507"><ele>293.0</ele><time>2026-04-04T12:07:28.09Z</time></trkpt><trkpt lat="41.348941" lon="1.8267175"><ele>294.0</ele><time>2026-04-04T12:07:30.096Z</time></trkpt><trkpt lat="41.3489874" lon="1.8267824"><ele>296.4</ele><time>2026-04-04T12:07:32.084Z</time></trkpt><trkpt lat="41.3490351" lon="1.8268756"><ele>298.79999999999995</ele><time>2026-04-04T12:07:34.118Z</time></trkpt><trkpt lat="41.3490832" lon="1.8269776"><ele>301.20000000000005</ele><time>2026-04-04T12:07:36.126Z</time></trkpt><trkpt lat="41.3491363" lon="1.8270802"><ele>303.6</ele><time>2026-04-04T12:07:38.083Z</time></trkpt><trkpt lat="41.3492085" lon="1.8271722"><ele>306.0</ele><time>2026-04-04T12:07:40.088Z</time></trkpt><trkpt lat="41.3492928" lon="1.8272877"><ele>306.0</ele><time>2026-04-04T12:07:42.073Z</time></trkpt><trkpt lat="41.3493471" lon="1.8273847"><ele>306.0</ele><time>2026-04-04T12:07:44.071Z</time></trkpt><trkpt lat="41.3494019" lon="1.8274558"><ele>306.0</ele><time>2026-04-04T12:07:46.09Z</time></trkpt><trkpt lat="41.3494476" lon="1.8275304"><ele>306.0</ele><time>2026-04-04T12:07:48.083Z</time></trkpt><trkpt lat="41.349491" lon="1.8276279"><ele>306.0</ele><time>2026-04-04T12:07:50.096Z</time></trkpt><trkpt lat="41.3495498" lon="1.827745"><ele>306.0</ele><time>2026-04-04T12:07:52.077Z</time></trkpt><trkpt lat="41.3495535" lon="1.8278568"><ele>306.6666666666667</ele><time>2026-04-04T12:07:54.082Z</time></trkpt><trkpt lat="41.3495059" lon="1.8279522"><ele>307.3333333333333</ele><time>2026-04-04T12:07:56.083Z</time></trkpt><trkpt lat="41.3494595" lon="1.8280393"><ele>308.0</ele><time>2026-04-04T12:07:58.085Z</time></trkpt><trkpt lat="41.3494142" lon="1.8281044"><ele>308.66666666666663</ele><time>2026-04-04T12:08:00.078Z</time></trkpt><trkpt lat="41.3493476" lon="1.8281427"><ele>309.3333333333333</ele><time>2026-04-04T12:08:02.078Z</time></trkpt><trkpt lat="41.3492875" lon="1.8281809"><ele>310.0</ele><time>2026-04-04T12:08:04.081Z</time></trkpt><trkpt lat="41.3492111" lon="1.8282858"><ele>310.0</ele><time>2026-04-04T12:08:06.092Z</time></trkpt><trkpt lat="41.3491647" lon="1.8283607"><ele>310.0</ele><time>2026-04-04T12:08:08.083Z</time></trkpt><trkpt lat="41.3491323" lon="1.8284374"><ele>310.0</ele><time>2026-04-04T12:08:11.094Z</time></trkpt><trkpt lat="41.3491358" lon="1.828526"><ele>310.0</ele><time>2026-04-04T12:08:27.093Z</time></trkpt><trkpt lat="41.3491893" lon="1.8285946"><ele>310.0</ele><time>2026-04-04T12:08:29.097Z</time></trkpt><trkpt lat="41.349238" lon="1.8287046"><ele>310.0</ele><time>2026-04-04T12:08:36.077Z</time></trkpt><trkpt lat="41.3492497" lon="1.8287947"><ele>310.0</ele><time>2026-04-04T12:08:37.086Z</time></trkpt><trkpt lat="41.3492602" lon="1.8289086"><ele>309.6</ele><time>2026-04-04T12:08:38.099Z</time></trkpt><trkpt lat="41.3492687" lon="1.8290352"><ele>309.2</ele><time>2026-04-04T12:08:39.09Z</time></trkpt><trkpt lat="41.3492723" lon="1.8291697"><ele>308.8</ele><time>2026-04-04T12:08:40.089Z</time></trkpt><trkpt lat="41.3492699" lon="1.8293041"><ele>308.4</ele><time>2026-04-04T12:08:41.088Z</time></trkpt><trkpt lat="41.3492575" lon="1.8294261"><ele>308.0</ele><time>2026-04-04T12:08:42.097Z</time></trkpt><trkpt lat="41.3492354" lon="1.8295299"><ele>308.0</ele><time>2026-04-04T12:08:43.095Z</time></trkpt><trkpt lat="41.3492173" lon="1.8296318"><ele>308.0</ele><time>2026-04-04T12:08:44.078Z</time></trkpt><trkpt lat="41.3492185" lon="1.8297872"><ele>308.0</ele><time>2026-04-04T12:08:46.084Z</time></trkpt><trkpt lat="41.3492349" lon="1.8298749"><ele>308.0</ele><time>2026-04-04T12:08:47.08Z</time></trkpt><trkpt lat="41.3492487" lon="1.8300366"><ele>308.0</ele><time>2026-04-04T12:08:49.08Z</time></trkpt><trkpt lat="41.3492749" lon="1.8301927"><ele>308.25</ele><time>2026-04-04T12:08:51.073Z</time></trkpt><trkpt lat="41.3493448" lon="1.8303217"><ele>308.5</ele><time>2026-04-04T12:08:53.073Z</time></trkpt><trkpt lat="41.3494237" lon="1.8304184"><ele>308.75</ele><time>2026-04-04T12:08:55.078Z</time></trkpt><trkpt lat="41.3494829" lon="1.8305517"><ele>309.0</ele><time>2026-04-04T12:08:57.085Z</time></trkpt><trkpt lat="41.3495011" lon="1.8307037"><ele>309.0</ele><time>2026-04-04T12:08:59.077Z</time></trkpt><trkpt lat="41.3495491" lon="1.8307902"><ele>309.0</ele><time>2026-04-04T12:09:01.083Z</time></trkpt><trkpt lat="41.3496196" lon="1.8308339"><ele>309.0</ele><time>2026-04-04T12:09:03.091Z</time></trkpt><trkpt lat="41.3496843" lon="1.8307951"><ele>309.0</ele><time>2026-04-04T12:09:05.083Z</time></trkpt><trkpt lat="41.3497515" lon="1.8306996"><ele>309.0</ele><time>2026-04-04T12:09:07.08Z</time></trkpt><trkpt lat="41.3498387" lon="1.8306187"><ele>309.0</ele><time>2026-04-04T12:09:09.079Z</time></trkpt><trkpt lat="41.3499408" lon="1.8305918"><ele>311.0</ele><time>2026-04-04T12:09:11.094Z</time></trkpt><trkpt lat="41.3500303" lon="1.8306001"><ele>313.0</ele><time>2026-04-04T12:09:13.125Z</time></trkpt><trkpt lat="41.3501105" lon="1.830576"><ele>315.0</ele><time>2026-04-04T12:09:15.129Z</time></trkpt><trkpt lat="41.3502181" lon="1.8305849"><ele>317.0</ele><time>2026-04-04T12:09:17.11Z</time></trkpt><trkpt lat="41.3503321" lon="1.8306625"><ele>319.0</ele><time>2026-04-04T12:09:19.117Z</time></trkpt><trkpt lat="41.3503838" lon="1.8307214"><ele>319.0</ele><time>2026-04-04T12:09:20.115Z</time></trkpt><trkpt lat="41.3504291" lon="1.8308063"><ele>319.0</ele><time>2026-04-04T12:09:21.119Z</time></trkpt><trkpt lat="41.3504719" lon="1.8309071"><ele>319.0</ele><time>2026-04-04T12:09:22.073Z</time></trkpt><trkpt lat="41.3505191" lon="1.8310086"><ele>319.0</ele><time>2026-04-04T12:09:23.066Z</time></trkpt><trkpt lat="41.3505729" lon="1.8310907"><ele>319.0</ele><time>2026-04-04T12:09:24.095Z</time></trkpt><trkpt lat="41.3506426" lon="1.8311602"><ele>319.0</ele><time>2026-04-04T12:09:25.108Z</time></trkpt><trkpt lat="41.35072" lon="1.8312183"><ele>321.2</ele><time>2026-04-04T12:09:26.115Z</time></trkpt><trkpt lat="41.3507872" lon="1.8312717"><ele>323.4</ele><time>2026-04-04T12:09:27.123Z</time></trkpt><trkpt lat="41.3508541" lon="1.8313995"><ele>325.6</ele><time>2026-04-04T12:09:29.106Z</time></trkpt><trkpt lat="41.3508844" lon="1.831547"><ele>327.8</ele><time>2026-04-04T12:09:31.087Z</time></trkpt><trkpt lat="41.3509202" lon="1.8316323"><ele>330.0</ele><time>2026-04-04T12:09:32.068Z</time></trkpt><trkpt lat="41.3509601" lon="1.8317387"><ele>330.0</ele><time>2026-04-04T12:09:33.054Z</time></trkpt><trkpt lat="41.3509958" lon="1.8318577"><ele>327.0</ele><time>2026-04-04T12:09:34.076Z</time></trkpt><trkpt lat="41.3510226" lon="1.8319825"><ele>327.0</ele><time>2026-04-04T12:09:35.07Z</time></trkpt><trkpt lat="41.3510413" lon="1.832082"><ele>327.0</ele><time>2026-04-04T12:09:36.078Z</time></trkpt><trkpt lat="41.3510586" lon="1.8321771"><ele>327.0</ele><time>2026-04-04T12:09:38.086Z</time></trkpt><trkpt lat="41.3510642" lon="1.8322628"><ele>327.0</ele><time>2026-04-04T12:15:53.085Z</time></trkpt></trkseg><trkseg><trkpt lat="41.3511283" lon="1.8323993"><ele>327.0</ele><time>2026-04-04T12:31:09.106Z</time></trkpt><trkpt lat="41.3511838" lon="1.8324635"><ele>327.0</ele><time>2026-04-04T12:31:10.088Z</time></trkpt><trkpt lat="41.3512498" lon="1.8325289"><ele>327.0</ele><time>2026-04-04T12:31:11.084Z</time></trkpt><trkpt lat="41.3513142" lon="1.8326013"><ele>327.0</ele><time>2026-04-04T12:31:12.084Z</time></trkpt><trkpt lat="41.3513686" lon="1.8326705"><ele>327.0</ele><time>2026-04-04T12:31:13.083Z</time></trkpt><trkpt lat="41.351419" lon="1.8327443"><ele>327.0</ele><time>2026-04-04T12:31:14.095Z</time></trkpt><trkpt lat="41.3514807" lon="1.8328531"><ele>327.1666666666667</ele><time>2026-04-04T12:31:16.035Z</time></trkpt><trkpt lat="41.3515531" lon="1.8328734"><ele>327.3333333333333</ele><time>2026-04-04T12:31:18.098Z</time></trkpt><trkpt lat="41.3516548" lon="1.8328898"><ele>327.5</ele><time>2026-04-04T12:31:20.08Z</time></trkpt><trkpt lat="41.3517575" lon="1.8329698"><ele>327.66666666666663</ele><time>2026-04-04T12:31:22.069Z</time></trkpt><trkpt lat="41.3518142" lon="1.8330151"><ele>327.8333333333333</ele><time>2026-04-04T12:31:23.088Z</time></trkpt><trkpt lat="41.3518709" lon="1.8330655"><ele>328.0</ele><time>2026-04-04T12:31:24.106Z</time></trkpt><trkpt lat="41.3519309" lon="1.8331181"><ele>327.99999999999994</ele><time>2026-04-04T12:31:25.115Z</time></trkpt><trkpt lat="41.3519964" lon="1.8331716"><ele>328.0</ele><time>2026-04-04T12:31:26.108Z</time></trkpt><trkpt lat="41.3520607" lon="1.8332245"><ele>328.0</ele><time>2026-04-04T12:31:27.097Z</time></trkpt><trkpt lat="41.3521249" lon="1.8332643"><ele>328.0</ele><time>2026-04-04T12:31:28.047Z</time></trkpt><trkpt lat="41.3521956" lon="1.8333037"><ele>328.0</ele><time>2026-04-04T12:31:29.077Z</time></trkpt><trkpt lat="41.3522582" lon="1.833349"><ele>327.99999999999994</ele><time>2026-04-04T12:31:30.11Z</time></trkpt><trkpt lat="41.3523131" lon="1.8334118"><ele>328.0</ele><time>2026-04-04T12:31:31.104Z</time></trkpt><trkpt lat="41.3523685" lon="1.8334823"><ele>329.2</ele><time>2026-04-04T12:31:32.085Z</time></trkpt><trkpt lat="41.3524396" lon="1.8335661"><ele>330.4</ele><time>2026-04-04T12:31:33.082Z</time></trkpt><trkpt lat="41.3525241" lon="1.833652"><ele>331.59999999999997</ele><time>2026-04-04T12:31:34.087Z</time></trkpt><trkpt lat="41.3526005" lon="1.8337395"><ele>332.79999999999995</ele><time>2026-04-04T12:31:35.089Z</time></trkpt><trkpt lat="41.3526762" lon="1.8338242"><ele>334.0</ele><time>2026-04-04T12:31:36.094Z</time></trkpt><trkpt lat="41.3527541" lon="1.8338976"><ele>334.0</ele><time>2026-04-04T12:31:37.079Z</time></trkpt><trkpt lat="41.3528275" lon="1.8339713"><ele>334.0</ele><time>2026-04-04T12:31:38.091Z</time></trkpt><trkpt lat="41.352895" lon="1.8340501"><ele>334.0</ele><time>2026-04-04T12:31:39.098Z</time></trkpt><trkpt lat="41.3529645" lon="1.8341343"><ele>334.0</ele><time>2026-04-04T12:31:40.101Z</time></trkpt><trkpt lat="41.3530398" lon="1.8342101"><ele>334.0</ele><time>2026-04-04T12:31:41.099Z</time></trkpt><trkpt lat="41.353112" lon="1.8342745"><ele>334.42857142857144</ele><time>2026-04-04T12:31:42.106Z</time></trkpt><trkpt lat="41.3531809" lon="1.8343406"><ele>334.8571428571429</ele><time>2026-04-04T12:31:43.108Z</time></trkpt><trkpt lat="41.3532376" lon="1.8344094"><ele>335.28571428571433</ele><time>2026-04-04T12:31:44.095Z</time></trkpt><trkpt lat="41.3532792" lon="1.8344836"><ele>335.7142857142857</ele><time>2026-04-04T12:31:45.102Z</time></trkpt><trkpt lat="41.3533205" lon="1.8345542"><ele>336.14285714285717</ele><time>2026-04-04T12:31:46.104Z</time></trkpt><trkpt lat="41.3533613" lon="1.8346255"><ele>336.5714285714286</ele><time>2026-04-04T12:31:47.081Z</time></trkpt><trkpt lat="41.3534029" lon="1.8346919"><ele>337.0</ele><time>2026-04-04T12:31:48.094Z</time></trkpt><trkpt lat="41.3534471" lon="1.8347535"><ele>337.0</ele><time>2026-04-04T12:31:49.112Z</time></trkpt><trkpt lat="41.3535034" lon="1.8347982"><ele>337.0</ele><time>2026-04-04T12:31:51.099Z</time></trkpt><trkpt lat="41.3535681" lon="1.8348072"><ele>337.0</ele><time>2026-04-04T12:31:53.099Z</time></trkpt><trkpt lat="41.3536495" lon="1.8348047"><ele>337.0</ele><time>2026-04-04T12:31:55.109Z</time></trkpt><trkpt lat="41.3537635" lon="1.8348185"><ele>337.0</ele><time>2026-04-04T12:31:57.099Z</time></trkpt><trkpt lat="41.3538607" lon="1.8348594"><ele>337.0</ele><time>2026-04-04T12:31:59.097Z</time></trkpt><trkpt lat="41.3539164" lon="1.8349483"><ele>338.0</ele><time>2026-04-04T12:32:01.084Z</time></trkpt><trkpt lat="41.3539769" lon="1.835082"><ele>339.0</ele><time>2026-04-04T12:32:03.098Z</time></trkpt><trkpt lat="41.354034" lon="1.8351684"><ele>340.0</ele><time>2026-04-04T12:32:05.083Z</time></trkpt><trkpt lat="41.3541081" lon="1.8352445"><ele>341.0</ele><time>2026-04-04T12:32:07.101Z</time></trkpt><trkpt lat="41.354152" lon="1.8353489"><ele>342.0</ele><time>2026-04-04T12:32:09.117Z</time></trkpt><trkpt lat="41.3541912" lon="1.8354468"><ele>342.6666666666667</ele><time>2026-04-04T12:32:12.106Z</time></trkpt><trkpt lat="41.3541822" lon="1.8355443"><ele>343.3333333333333</ele><time>2026-04-04T12:32:15.088Z</time></trkpt><trkpt lat="41.3541718" lon="1.8356452"><ele>344.0</ele><time>2026-04-04T12:32:17.087Z</time></trkpt><trkpt lat="41.3541319" lon="1.8357902"><ele>344.66666666666663</ele><time>2026-04-04T12:32:19.102Z</time></trkpt><trkpt lat="41.3541101" lon="1.8358775"><ele>345.3333333333333</ele><time>2026-04-04T12:32:20.093Z</time></trkpt><trkpt lat="41.3540873" lon="1.8359611"><ele>346.0</ele><time>2026-04-04T12:32:21.091Z</time></trkpt><trkpt lat="41.354049" lon="1.8361169"><ele>347.0</ele><time>2026-04-04T12:32:23.096Z</time></trkpt><trkpt lat="41.3540311" lon="1.8362028"><ele>348.0</ele><time>2026-04-04T12:32:24.082Z</time></trkpt><trkpt lat="41.3540125" lon="1.8363034"><ele>349.0</ele><time>2026-04-04T12:32:25.089Z</time></trkpt><trkpt lat="41.3539852" lon="1.8364058"><ele>350.0</ele><time>2026-04-04T12:32:26.087Z</time></trkpt><trkpt lat="41.3539622" lon="1.8365118"><ele>351.0</ele><time>2026-04-04T12:32:27.087Z</time></trkpt><trkpt lat="41.3539435" lon="1.8366128"><ele>352.0</ele><time>2026-04-04T12:32:28.094Z</time></trkpt><trkpt lat="41.3539222" lon="1.8367029"><ele>352.0</ele><time>2026-04-04T12:32:29.087Z</time></trkpt><trkpt lat="41.3538999" lon="1.8367864"><ele>352.0</ele><time>2026-04-04T12:32:30.084Z</time></trkpt><trkpt lat="41.3538734" lon="1.836921"><ele>352.0</ele><time>2026-04-04T12:32:32.082Z</time></trkpt><trkpt lat="41.3538703" lon="1.8370101"><ele>352.0</ele><time>2026-04-04T12:32:34.095Z</time></trkpt><trkpt lat="41.3539278" lon="1.8370837"><ele>352.0</ele><time>2026-04-04T12:33:16.048Z</time></trkpt><trkpt lat="41.3539911" lon="1.8370873"><ele>352.0</ele><time>2026-04-04T12:33:23.115Z</time></trkpt><trkpt lat="41.3540727" lon="1.8371193"><ele>351.66666666666663</ele><time>2026-04-04T12:33:27.102Z</time></trkpt><trkpt lat="41.3541376" lon="1.8371581"><ele>351.3333333333333</ele><time>2026-04-04T12:33:42.103Z</time></trkpt><trkpt lat="41.3540926" lon="1.837099"><ele>351.0</ele><time>2026-04-04T12:34:10.09Z</time></trkpt><trkpt lat="41.3540064" lon="1.8370899"><ele>350.6666666666667</ele><time>2026-04-04T12:34:13.086Z</time></trkpt><trkpt lat="41.3539258" lon="1.8370589"><ele>350.33333333333337</ele><time>2026-04-04T12:34:17.1Z</time></trkpt><trkpt lat="41.3538764" lon="1.8371129"><ele>350.0</ele><time>2026-04-04T12:34:25.095Z</time></trkpt><trkpt lat="41.3538938" lon="1.8372359"><ele>350.0</ele><time>2026-04-04T12:34:28.099Z</time></trkpt><trkpt lat="41.3539183" lon="1.8373194"><ele>350.0</ele><time>2026-04-04T12:34:30.087Z</time></trkpt><trkpt lat="41.3539645" lon="1.8374305"><ele>350.0</ele><time>2026-04-04T12:34:32.085Z</time></trkpt><trkpt lat="41.3540245" lon="1.8375684"><ele>350.0</ele><time>2026-04-04T12:34:34.091Z</time></trkpt><trkpt lat="41.3540669" lon="1.8376417"><ele>350.0</ele><time>2026-04-04T12:34:36.095Z</time></trkpt><trkpt lat="41.3541171" lon="1.8376947"><ele>350.0</ele><time>2026-04-04T12:34:38.109Z</time></trkpt><trkpt lat="41.3541823" lon="1.8377769"><ele>348.42857142857144</ele><time>2026-04-04T12:34:41.111Z</time></trkpt><trkpt lat="41.3542225" lon="1.837844"><ele>346.8571428571429</ele><time>2026-04-04T12:34:44.121Z</time></trkpt><trkpt lat="41.3542572" lon="1.8379311"><ele>345.2857142857143</ele><time>2026-04-04T12:34:47.119Z</time></trkpt><trkpt lat="41.3542883" lon="1.8380053"><ele>343.7142857142857</ele><time>2026-04-04T12:34:50.105Z</time></trkpt><trkpt lat="41.3543212" lon="1.8380801"><ele>342.14285714285717</ele><time>2026-04-04T12:34:53.102Z</time></trkpt><trkpt lat="41.3543746" lon="1.8381521"><ele>340.57142857142856</ele><time>2026-04-04T12:34:55.11Z</time></trkpt><trkpt lat="41.3544399" lon="1.8382219"><ele>339.0</ele><time>2026-04-04T12:34:57.089Z</time></trkpt><trkpt lat="41.3544756" lon="1.8383256"><ele>339.0</ele><time>2026-04-04T12:34:59.102Z</time></trkpt><trkpt lat="41.3545046" lon="1.8384548"><ele>339.0</ele><time>2026-04-04T12:35:01.089Z</time></trkpt><trkpt lat="41.354521" lon="1.838579"><ele>339.0</ele><time>2026-04-04T12:35:03.084Z</time></trkpt><trkpt lat="41.3545506" lon="1.8387113"><ele>339.0</ele><time>2026-04-04T12:35:05.045Z</time></trkpt><trkpt lat="41.3545979" lon="1.8388443"><ele>339.0</ele><time>2026-04-04T12:35:07.079Z</time></trkpt><trkpt lat="41.3546333" lon="1.8389637"><ele>338.79999999999995</ele><time>2026-04-04T12:35:09.087Z</time></trkpt><trkpt lat="41.3546498" lon="1.8390829"><ele>338.59999999999997</ele><time>2026-04-04T12:35:11.1Z</time></trkpt><trkpt lat="41.3546712" lon="1.8392"><ele>338.4</ele><time>2026-04-04T12:35:13.098Z</time></trkpt><trkpt lat="41.3546937" lon="1.8393081"><ele>338.2</ele><time>2026-04-04T12:35:15.09Z</time></trkpt><trkpt lat="41.3547244" lon="1.8394369"><ele>338.0</ele><time>2026-04-04T12:35:17.096Z</time></trkpt><trkpt lat="41.354736" lon="1.8395616"><ele>338.0</ele><time>2026-04-04T12:35:19.097Z</time></trkpt><trkpt lat="41.3547549" lon="1.8396835"><ele>338.0</ele><time>2026-04-04T12:35:21.108Z</time></trkpt><trkpt lat="41.3547787" lon="1.8398072"><ele>338.0</ele><time>2026-04-04T12:35:23.095Z</time></trkpt><trkpt lat="41.3547858" lon="1.8399377"><ele>338.0</ele><time>2026-04-04T12:35:25.088Z</time></trkpt><trkpt lat="41.3547841" lon="1.8400624"><ele>338.0</ele><time>2026-04-04T12:35:27.091Z</time></trkpt><trkpt lat="41.3548057" lon="1.8401699"><ele>338.0</ele><time>2026-04-04T12:35:29.101Z</time></trkpt><trkpt lat="41.3548762" lon="1.8401775"><ele>338.0</ele><time>2026-04-04T12:35:32.088Z</time></trkpt><trkpt lat="41.3549315" lon="1.8400381"><ele>338.0</ele><time>2026-04-04T12:35:34.1Z</time></trkpt><trkpt lat="41.3550092" lon="1.8399162"><ele>338.0</ele><time>2026-04-04T12:35:36.107Z</time></trkpt><trkpt lat="41.3550599" lon="1.8398653"><ele>338.0</ele><time>2026-04-04T12:35:37.091Z</time></trkpt><trkpt lat="41.355113" lon="1.8398154"><ele>338.0</ele><time>2026-04-04T12:35:38.103Z</time></trkpt><trkpt lat="41.3551682" lon="1.8397621"><ele>338.0</ele><time>2026-04-04T12:35:39.09Z</time></trkpt><trkpt lat="41.3552265" lon="1.8397131"><ele>338.0</ele><time>2026-04-04T12:35:40.091Z</time></trkpt><trkpt lat="41.3552971" lon="1.8396667"><ele>338.0</ele><time>2026-04-04T12:35:41.102Z</time></trkpt><trkpt lat="41.3553735" lon="1.8396135"><ele>338.0</ele><time>2026-04-04T12:35:42.091Z</time></trkpt><trkpt lat="41.35545" lon="1.8395455"><ele>338.0</ele><time>2026-04-04T12:35:43.095Z</time></trkpt><trkpt lat="41.3555284" lon="1.8394682"><ele>338.0</ele><time>2026-04-04T12:35:44.101Z</time></trkpt><trkpt lat="41.3556072" lon="1.8393701"><ele>339.75</ele><time>2026-04-04T12:35:45.102Z</time></trkpt><trkpt lat="41.3556882" lon="1.8392613"><ele>341.5</ele><time>2026-04-04T12:35:46.11Z</time></trkpt><trkpt lat="41.355773" lon="1.8391463"><ele>343.25</ele><time>2026-04-04T12:35:47.099Z</time></trkpt><trkpt lat="41.35586" lon="1.8390417"><ele>345.0</ele><time>2026-04-04T12:35:48.095Z</time></trkpt><trkpt lat="41.3559474" lon="1.8389499"><ele>345.0</ele><time>2026-04-04T12:35:49.094Z</time></trkpt><trkpt lat="41.3560242" lon="1.8388467"><ele>345.0</ele><time>2026-04-04T12:35:50.087Z</time></trkpt><trkpt lat="41.3560857" lon="1.8387366"><ele>345.0</ele><time>2026-04-04T12:35:51.119Z</time></trkpt><trkpt lat="41.3561299" lon="1.8386256"><ele>345.0</ele><time>2026-04-04T12:35:52.099Z</time></trkpt><trkpt lat="41.3561666" lon="1.8385247"><ele>345.0</ele><time>2026-04-04T12:35:53.097Z</time></trkpt><trkpt lat="41.3561822" lon="1.8384184"><ele>345.8</ele><time>2026-04-04T12:35:54.072Z</time></trkpt><trkpt lat="41.3561686" lon="1.838295"><ele>346.6</ele><time>2026-04-04T12:35:55.095Z</time></trkpt><trkpt lat="41.3561413" lon="1.8381664"><ele>347.4</ele><time>2026-04-04T12:35:56.089Z</time></trkpt><trkpt lat="41.3561223" lon="1.8380255"><ele>348.2</ele><time>2026-04-04T12:35:57.097Z</time></trkpt><trkpt lat="41.3561256" lon="1.8378907"><ele>349.0</ele><time>2026-04-04T12:35:58.09Z</time></trkpt><trkpt lat="41.3561522" lon="1.8377616"><ele>349.2</ele><time>2026-04-04T12:35:59.095Z</time></trkpt><trkpt lat="41.3562004" lon="1.8376332"><ele>349.4</ele><time>2026-04-04T12:36:00.093Z</time></trkpt><trkpt lat="41.3562613" lon="1.8375052"><ele>349.6</ele><time>2026-04-04T12:36:01.058Z</time></trkpt><trkpt lat="41.3563432" lon="1.8373986"><ele>349.8</ele><time>2026-04-04T12:36:02.09Z</time></trkpt><trkpt lat="41.3564298" lon="1.8373191"><ele>350.0</ele><time>2026-04-04T12:36:03.081Z</time></trkpt><trkpt lat="41.3565031" lon="1.8372607"><ele>350.0</ele><time>2026-04-04T12:36:04.083Z</time></trkpt><trkpt lat="41.3565695" lon="1.8372056"><ele>350.0</ele><time>2026-04-04T12:36:05.099Z</time></trkpt><trkpt lat="41.3566354" lon="1.837178"><ele>350.0</ele><time>2026-04-04T12:36:06.1Z</time></trkpt><trkpt lat="41.3567047" lon="1.8371681"><ele>350.0</ele><time>2026-04-04T12:36:07.111Z</time></trkpt><trkpt lat="41.3567756" lon="1.8371693"><ele>350.0</ele><time>2026-04-04T12:36:08.045Z</time></trkpt><trkpt lat="41.3568574" lon="1.837158"><ele>350.0</ele><time>2026-04-04T12:36:09.049Z</time></trkpt><trkpt lat="41.3569441" lon="1.8371151"><ele>350.0</ele><time>2026-04-04T12:36:10.078Z</time></trkpt><trkpt lat="41.3570278" lon="1.83704"><ele>350.0</ele><time>2026-04-04T12:36:11.093Z</time></trkpt><trkpt lat="41.3571144" lon="1.8369411"><ele>350.0</ele><time>2026-04-04T12:36:12.087Z</time></trkpt><trkpt lat="41.3572089" lon="1.8368177"><ele>350.0</ele><time>2026-04-04T12:36:13.057Z</time></trkpt><trkpt lat="41.3573131" lon="1.8366932"><ele>349.75</ele><time>2026-04-04T12:36:14.082Z</time></trkpt><trkpt lat="41.3574233" lon="1.8365783"><ele>349.5</ele><time>2026-04-04T12:36:15.087Z</time></trkpt><trkpt lat="41.3575372" lon="1.8364724"><ele>349.25</ele><time>2026-04-04T12:36:16.078Z</time></trkpt><trkpt lat="41.3576425" lon="1.8363846"><ele>349.0</ele><time>2026-04-04T12:36:17.074Z</time></trkpt><trkpt lat="41.3577364" lon="1.8363095"><ele>349.0</ele><time>2026-04-04T12:36:18.09Z</time></trkpt><trkpt lat="41.357821" lon="1.8362587"><ele>349.0</ele><time>2026-04-04T12:36:19.092Z</time></trkpt><trkpt lat="41.3579023" lon="1.8362301"><ele>349.0</ele><time>2026-04-04T12:36:20.089Z</time></trkpt><trkpt lat="41.357979" lon="1.8362297"><ele>349.0</ele><time>2026-04-04T12:36:21.082Z</time></trkpt><trkpt lat="41.358065" lon="1.8362477"><ele>349.0</ele><time>2026-04-04T12:36:22.082Z</time></trkpt><trkpt lat="41.3581661" lon="1.8362715"><ele>349.0</ele><time>2026-04-04T12:36:23.092Z</time></trkpt><trkpt lat="41.3582814" lon="1.8362962"><ele>350.0</ele><time>2026-04-04T12:36:24.09Z</time></trkpt><trkpt lat="41.3584031" lon="1.8363202"><ele>351.0</ele><time>2026-04-04T12:36:25.088Z</time></trkpt><trkpt lat="41.3585254" lon="1.8363543"><ele>352.0</ele><time>2026-04-04T12:36:26.098Z</time></trkpt><trkpt lat="41.3586502" lon="1.8363968"><ele>353.0</ele><time>2026-04-04T12:36:27.096Z</time></trkpt><trkpt lat="41.3587726" lon="1.8364509"><ele>353.5</ele><time>2026-04-04T12:36:28.099Z</time></trkpt><trkpt lat="41.3588955" lon="1.8365233"><ele>354.0</ele><time>2026-04-04T12:36:29.09Z</time></trkpt><trkpt lat="41.3590129" lon="1.8365906"><ele>354.5</ele><time>2026-04-04T12:36:30.091Z</time></trkpt><trkpt lat="41.359138" lon="1.8366416"><ele>355.0</ele><time>2026-04-04T12:36:31.091Z</time></trkpt><trkpt lat="41.3592706" lon="1.8366647"><ele>355.0</ele><time>2026-04-04T12:36:32.085Z</time></trkpt><trkpt lat="41.3594057" lon="1.8366664"><ele>355.0</ele><time>2026-04-04T12:36:33.076Z</time></trkpt><trkpt lat="41.3595413" lon="1.8366493"><ele>355.0</ele><time>2026-04-04T12:36:34.075Z</time></trkpt><trkpt lat="41.3596734" lon="1.8366229"><ele>355.0</ele><time>2026-04-04T12:36:35.077Z</time></trkpt><trkpt lat="41.3598014" lon="1.8365893"><ele>356.5</ele><time>2026-04-04T12:36:36.069Z</time></trkpt><trkpt lat="41.3599285" lon="1.8365546"><ele>358.0</ele><time>2026-04-04T12:36:37.072Z</time></trkpt><trkpt lat="41.3600498" lon="1.8365116"><ele>359.5</ele><time>2026-04-04T12:36:38.075Z</time></trkpt><trkpt lat="41.3601727" lon="1.8364735"><ele>361.0</ele><time>2026-04-04T12:36:39.071Z</time></trkpt><trkpt lat="41.3602886" lon="1.8364397"><ele>361.0</ele><time>2026-04-04T12:36:40.08Z</time></trkpt><trkpt lat="41.3604025" lon="1.8364135"><ele>361.0</ele><time>2026-04-04T12:36:41.082Z</time></trkpt><trkpt lat="41.3605111" lon="1.8363809"><ele>361.0</ele><time>2026-04-04T12:36:42.075Z</time></trkpt><trkpt lat="41.3606146" lon="1.8363394"><ele>361.0</ele><time>2026-04-04T12:36:43.074Z</time></trkpt><trkpt lat="41.360715" lon="1.836281"><ele>361.0</ele><time>2026-04-04T12:36:44.081Z</time></trkpt><trkpt lat="41.3608127" lon="1.8362239"><ele>361.6</ele><time>2026-04-04T12:36:45.084Z</time></trkpt><trkpt lat="41.3609063" lon="1.8361675"><ele>362.20000000000005</ele><time>2026-04-04T12:36:46.098Z</time></trkpt><trkpt lat="41.3609954" lon="1.8361057"><ele>362.79999999999995</ele><time>2026-04-04T12:36:47.092Z</time></trkpt><trkpt lat="41.3610875" lon="1.8360185"><ele>363.4</ele><time>2026-04-04T12:36:48.091Z</time></trkpt><trkpt lat="41.3611804" lon="1.8359152"><ele>364.0</ele><time>2026-04-04T12:36:49.087Z</time></trkpt><trkpt lat="41.3612696" lon="1.8358045"><ele>364.0</ele><time>2026-04-04T12:36:50.078Z</time></trkpt><trkpt lat="41.3613512" lon="1.8356952"><ele>364.0</ele><time>2026-04-04T12:36:51.073Z</time></trkpt><trkpt lat="41.3614224" lon="1.8355766"><ele>364.0</ele><time>2026-04-04T12:36:52.086Z</time></trkpt><trkpt lat="41.3614834" lon="1.8354413"><ele>364.0</ele><time>2026-04-04T12:36:53.082Z</time></trkpt><trkpt lat="41.3615446" lon="1.8353049"><ele>365.3333333333333</ele><time>2026-04-04T12:36:54.088Z</time></trkpt><trkpt lat="41.3616072" lon="1.8351974"><ele>366.66666666666663</ele><time>2026-04-04T12:36:55.083Z</time></trkpt><trkpt lat="41.3616682" lon="1.8351151"><ele>368.0</ele><time>2026-04-04T12:36:56.088Z</time></trkpt><trkpt lat="41.3617288" lon="1.8350695"><ele>369.3333333333333</ele><time>2026-04-04T12:36:57.081Z</time></trkpt><trkpt lat="41.3617947" lon="1.8350426"><ele>370.6666666666667</ele><time>2026-04-04T12:36:58.08Z</time></trkpt><trkpt lat="41.3619075" lon="1.8349951"><ele>372.0</ele><time>2026-04-04T12:37:00.086Z</time></trkpt><trkpt lat="41.3620158" lon="1.8349104"><ele>372.14285714285717</ele><time>2026-04-04T12:37:02.023Z</time></trkpt><trkpt lat="41.3620686" lon="1.834846"><ele>372.2857142857143</ele><time>2026-04-04T12:37:03.071Z</time></trkpt><trkpt lat="41.3621108" lon="1.8347708"><ele>372.42857142857144</ele><time>2026-04-04T12:37:04.078Z</time></trkpt><trkpt lat="41.3621401" lon="1.8346879"><ele>372.57142857142856</ele><time>2026-04-04T12:37:05.076Z</time></trkpt><trkpt lat="41.3621601" lon="1.8345983"><ele>372.7142857142857</ele><time>2026-04-04T12:37:06.073Z</time></trkpt><trkpt lat="41.3621773" lon="1.8345062"><ele>372.8571428571429</ele><time>2026-04-04T12:37:07.044Z</time></trkpt><trkpt lat="41.3621994" lon="1.834412"><ele>373.0</ele><time>2026-04-04T12:37:08.088Z</time></trkpt><trkpt lat="41.3622323" lon="1.8343262"><ele>376.66666666666663</ele><time>2026-04-04T12:37:09.087Z</time></trkpt><trkpt lat="41.3622778" lon="1.8342576"><ele>380.3333333333333</ele><time>2026-04-04T12:37:10.083Z</time></trkpt><trkpt lat="41.3623266" lon="1.8342044"><ele>384.0</ele><time>2026-04-04T12:37:11.074Z</time></trkpt><trkpt lat="41.3624334" lon="1.8341539"><ele>387.66666666666663</ele><time>2026-04-04T12:37:13.089Z</time></trkpt><trkpt lat="41.3624988" lon="1.8341446"><ele>391.3333333333333</ele><time>2026-04-04T12:37:14.092Z</time></trkpt><trkpt lat="41.3626102" lon="1.8341412"><ele>395.0</ele><time>2026-04-04T12:37:16.091Z</time></trkpt><trkpt lat="41.3627087" lon="1.8341187"><ele>394.99999999999994</ele><time>2026-04-04T12:37:18.1Z</time></trkpt><trkpt lat="41.3628118" lon="1.8340934"><ele>395.0</ele><time>2026-04-04T12:37:20.097Z</time></trkpt><trkpt lat="41.3628779" lon="1.8340634"><ele>395.0</ele><time>2026-04-04T12:37:21.1Z</time></trkpt><trkpt lat="41.3629536" lon="1.8340383"><ele>395.0</ele><time>2026-04-04T12:37:22.094Z</time></trkpt><trkpt lat="41.3630367" lon="1.8340066"><ele>394.99999999999994</ele><time>2026-04-04T12:37:23.092Z</time></trkpt><trkpt lat="41.3631277" lon="1.8339707"><ele>395.0</ele><time>2026-04-04T12:37:24.091Z</time></trkpt><trkpt lat="41.3632194" lon="1.8339325"><ele>397.2</ele><time>2026-04-04T12:37:25.096Z</time></trkpt><trkpt lat="41.3633182" lon="1.8339002"><ele>399.4</ele><time>2026-04-04T12:37:26.042Z</time></trkpt><trkpt lat="41.3634261" lon="1.8338784"><ele>401.6</ele><time>2026-04-04T12:37:27.094Z</time></trkpt><trkpt lat="41.3635359" lon="1.8338679"><ele>403.8</ele><time>2026-04-04T12:37:28.087Z</time></trkpt><trkpt lat="41.3636383" lon="1.8338779"><ele>406.0</ele><time>2026-04-04T12:37:29.085Z</time></trkpt><trkpt lat="41.3637293" lon="1.8339059"><ele>406.0</ele><time>2026-04-04T12:37:30.084Z</time></trkpt><trkpt lat="41.3638182" lon="1.8339273"><ele>406.0</ele><time>2026-04-04T12:37:31.089Z</time></trkpt><trkpt lat="41.3639103" lon="1.8339324"><ele>406.0</ele><time>2026-04-04T12:37:32.087Z</time></trkpt><trkpt lat="41.3639994" lon="1.8339077"><ele>406.0</ele><time>2026-04-04T12:37:33.093Z</time></trkpt><trkpt lat="41.3640808" lon="1.8338677"><ele>406.0</ele><time>2026-04-04T12:37:34.091Z</time></trkpt><trkpt lat="41.3641627" lon="1.8338144"><ele>406.75</ele><time>2026-04-04T12:37:35.083Z</time></trkpt><trkpt lat="41.3642596" lon="1.8337426"><ele>407.5</ele><time>2026-04-04T12:37:36.084Z</time></trkpt><trkpt lat="41.3643662" lon="1.8336603"><ele>408.25</ele><time>2026-04-04T12:37:37.069Z</time></trkpt><trkpt lat="41.3644822" lon="1.8335817"><ele>409.0</ele><time>2026-04-04T12:37:38.076Z</time></trkpt><trkpt lat="41.3646102" lon="1.8335086"><ele>413.75</ele><time>2026-04-04T12:37:39.083Z</time></trkpt><trkpt lat="41.3647524" lon="1.8334367"><ele>418.5</ele><time>2026-04-04T12:37:40.089Z</time></trkpt><trkpt lat="41.3648892" lon="1.8333826"><ele>423.25</ele><time>2026-04-04T12:37:41.083Z</time></trkpt><trkpt lat="41.3649949" lon="1.8333832"><ele>428.0</ele><time>2026-04-04T12:37:42.085Z</time></trkpt><trkpt lat="41.365083" lon="1.8333977"><ele>427.99999999999994</ele><time>2026-04-04T12:37:43.07Z</time></trkpt><trkpt lat="41.3651568" lon="1.8334149"><ele>428.0</ele><time>2026-04-04T12:37:44.072Z</time></trkpt><trkpt lat="41.3652441" lon="1.833419"><ele>428.0</ele><time>2026-04-04T12:37:45.078Z</time></trkpt><trkpt lat="41.3653365" lon="1.8333821"><ele>428.0</ele><time>2026-04-04T12:37:46.082Z</time></trkpt><trkpt lat="41.3654225" lon="1.8333576"><ele>427.99999999999994</ele><time>2026-04-04T12:37:47.085Z</time></trkpt><trkpt lat="41.3654977" lon="1.8333517"><ele>428.0</ele><time>2026-04-04T12:37:48.084Z</time></trkpt><trkpt lat="41.365574" lon="1.8333531"><ele>428.3333333333333</ele><time>2026-04-04T12:37:49.072Z</time></trkpt><trkpt lat="41.3656378" lon="1.833339"><ele>428.66666666666663</ele><time>2026-04-04T12:37:50.071Z</time></trkpt><trkpt lat="41.36571" lon="1.8332989"><ele>429.0</ele><time>2026-04-04T12:37:51.069Z</time></trkpt><trkpt lat="41.3657741" lon="1.8332266"><ele>429.33333333333337</ele><time>2026-04-04T12:37:52.057Z</time></trkpt><trkpt lat="41.3658342" lon="1.8331383"><ele>429.6666666666667</ele><time>2026-04-04T12:37:53.072Z</time></trkpt><trkpt lat="41.3658894" lon="1.8330424"><ele>430.0</ele><time>2026-04-04T12:37:54.077Z</time></trkpt><trkpt lat="41.3659475" lon="1.832946"><ele>430.0</ele><time>2026-04-04T12:37:55.072Z</time></trkpt><trkpt lat="41.3660111" lon="1.8328711"><ele>430.0</ele><time>2026-04-04T12:37:56.075Z</time></trkpt><trkpt lat="41.3660893" lon="1.8328112"><ele>430.0</ele><time>2026-04-04T12:37:57.08Z</time></trkpt><trkpt lat="41.3661835" lon="1.8327625"><ele>430.0</ele><time>2026-04-04T12:37:58.074Z</time></trkpt><trkpt lat="41.3662803" lon="1.8327295"><ele>430.0</ele><time>2026-04-04T12:37:59.072Z</time></trkpt><trkpt lat="41.3663851" lon="1.8326988"><ele>434.2</ele><time>2026-04-04T12:38:00.075Z</time></trkpt><trkpt lat="41.3664921" lon="1.832658"><ele>438.4</ele><time>2026-04-04T12:38:01.08Z</time></trkpt><trkpt lat="41.3666046" lon="1.8326253"><ele>442.6</ele><time>2026-04-04T12:38:02.07Z</time></trkpt><trkpt lat="41.366714" lon="1.8325957"><ele>446.8</ele><time>2026-04-04T12:38:03.057Z</time></trkpt><trkpt lat="41.3668156" lon="1.8325689"><ele>451.0</ele><time>2026-04-04T12:38:04.065Z</time></trkpt><trkpt lat="41.366914" lon="1.8325302"><ele>451.0</ele><time>2026-04-04T12:38:05.026Z</time></trkpt><trkpt lat="41.3670009" lon="1.8324786"><ele>451.0</ele><time>2026-04-04T12:38:06.06Z</time></trkpt><trkpt lat="41.367081" lon="1.8324297"><ele>451.0</ele><time>2026-04-04T12:38:07.055Z</time></trkpt><trkpt lat="41.367167" lon="1.8323849"><ele>451.0</ele><time>2026-04-04T12:38:08.054Z</time></trkpt><trkpt lat="41.3672543" lon="1.8323563"><ele>451.0</ele><time>2026-04-04T12:38:09.063Z</time></trkpt><trkpt lat="41.3673531" lon="1.8323351"><ele>454.20000000000005</ele><time>2026-04-04T12:38:10.053Z</time></trkpt><trkpt lat="41.367447" lon="1.8323315"><ele>457.40000000000003</ele><time>2026-04-04T12:38:11.06Z</time></trkpt><trkpt lat="41.36754" lon="1.8323387"><ele>460.6</ele><time>2026-04-04T12:38:12.059Z</time></trkpt><trkpt lat="41.3676263" lon="1.832365"><ele>463.8</ele><time>2026-04-04T12:38:13.051Z</time></trkpt><trkpt lat="41.3677126" lon="1.8324046"><ele>467.0</ele><time>2026-04-04T12:38:14.054Z</time></trkpt><trkpt lat="41.3678003" lon="1.8324506"><ele>466.99999999999994</ele><time>2026-04-04T12:38:15.068Z</time></trkpt><trkpt lat="41.3678797" lon="1.8324654"><ele>467.0</ele><time>2026-04-04T12:38:16.008Z</time></trkpt><trkpt lat="41.3679657" lon="1.8324668"><ele>467.0</ele><time>2026-04-04T12:38:17.054Z</time></trkpt><trkpt lat="41.3680414" lon="1.8324456"><ele>467.0</ele><time>2026-04-04T12:38:18.066Z</time></trkpt><trkpt lat="41.3681251" lon="1.8324157"><ele>466.99999999999994</ele><time>2026-04-04T12:38:20.073Z</time></trkpt><trkpt lat="41.3681555" lon="1.8325253"><ele>467.0</ele><time>2026-04-04T12:38:23.073Z</time></trkpt><trkpt lat="41.3680986" lon="1.832653"><ele>468.8333333333333</ele><time>2026-04-04T12:38:25.075Z</time></trkpt><trkpt lat="41.3680486" lon="1.8327371"><ele>470.66666666666663</ele><time>2026-04-04T12:38:26.064Z</time></trkpt><trkpt lat="41.3679911" lon="1.8328221"><ele>472.5</ele><time>2026-04-04T12:38:27.071Z</time></trkpt><trkpt lat="41.3679333" lon="1.8329051"><ele>474.33333333333337</ele><time>2026-04-04T12:38:28.071Z</time></trkpt><trkpt lat="41.3678741" lon="1.832984"><ele>476.1666666666667</ele><time>2026-04-04T12:38:29.075Z</time></trkpt><trkpt lat="41.3678125" lon="1.8330642"><ele>478.0</ele><time>2026-04-04T12:38:30.073Z</time></trkpt><trkpt lat="41.3677456" lon="1.8331468"><ele>478.00000000000006</ele><time>2026-04-04T12:38:31.077Z</time></trkpt><trkpt lat="41.3676818" lon="1.8332308"><ele>478.0</ele><time>2026-04-04T12:38:32.08Z</time></trkpt><trkpt lat="41.3676292" lon="1.8333193"><ele>478.0</ele><time>2026-04-04T12:38:33.078Z</time></trkpt><trkpt lat="41.3675882" lon="1.8334159"><ele>478.0</ele><time>2026-04-04T12:38:34.085Z</time></trkpt><trkpt lat="41.367546" lon="1.8335201"><ele>478.00000000000006</ele><time>2026-04-04T12:38:35.094Z</time></trkpt><trkpt lat="41.3674957" lon="1.8336184"><ele>478.0</ele><time>2026-04-04T12:38:36.091Z</time></trkpt><trkpt lat="41.3674414" lon="1.8337199"><ele>479.6666666666667</ele><time>2026-04-04T12:38:37.094Z</time></trkpt><trkpt lat="41.3673926" lon="1.8338097"><ele>481.33333333333337</ele><time>2026-04-04T12:38:38.079Z</time></trkpt><trkpt lat="41.3673521" lon="1.8338845"><ele>483.0</ele><time>2026-04-04T12:38:39.081Z</time></trkpt><trkpt lat="41.3673171" lon="1.8339905"><ele>484.66666666666663</ele><time>2026-04-04T12:38:41.08Z</time></trkpt><trkpt lat="41.3674064" lon="1.8339364"><ele>486.3333333333333</ele><time>2026-04-04T12:38:44.094Z</time></trkpt><trkpt lat="41.3674681" lon="1.8338515"><ele>488.0</ele><time>2026-04-04T12:38:45.047Z</time></trkpt><trkpt lat="41.3675453" lon="1.8337584"><ele>488.0</ele><time>2026-04-04T12:38:46.097Z</time></trkpt><trkpt lat="41.3676372" lon="1.8336756"><ele>488.0</ele><time>2026-04-04T12:38:47.08Z</time></trkpt><trkpt lat="41.3677491" lon="1.8335964"><ele>488.0</ele><time>2026-04-04T12:38:48.078Z</time></trkpt><trkpt lat="41.3678751" lon="1.8335283"><ele>488.0</ele><time>2026-04-04T12:38:49.086Z</time></trkpt><trkpt lat="41.368009" lon="1.8334639"><ele>488.0</ele><time>2026-04-04T12:38:50.079Z</time></trkpt><trkpt lat="41.3681472" lon="1.8334116"><ele>488.0</ele><time>2026-04-04T12:38:51.085Z</time></trkpt><trkpt lat="41.3682902" lon="1.8333501"><ele>488.0</ele><time>2026-04-04T12:38:52.091Z</time></trkpt><trkpt lat="41.3684232" lon="1.8332772"><ele>488.0</ele><time>2026-04-04T12:38:53.093Z</time></trkpt><trkpt lat="41.3685553" lon="1.8331995"><ele>488.0</ele><time>2026-04-04T12:38:54.093Z</time></trkpt><trkpt lat="41.3686846" lon="1.8331198"><ele>488.0</ele><time>2026-04-04T12:38:55.096Z</time></trkpt><trkpt lat="41.3688007" lon="1.8330411"><ele>488.0</ele><time>2026-04-04T12:38:56.09Z</time></trkpt><trkpt lat="41.3689074" lon="1.8329445"><ele>488.0</ele><time>2026-04-04T12:38:57.065Z</time></trkpt><trkpt lat="41.3689995" lon="1.8328305"><ele>486.75</ele><time>2026-04-04T12:38:58.112Z</time></trkpt><trkpt lat="41.3690716" lon="1.8326939"><ele>485.5</ele><time>2026-04-04T12:38:59.063Z</time></trkpt><trkpt lat="41.3691292" lon="1.8325506"><ele>484.25</ele><time>2026-04-04T12:39:00.049Z</time></trkpt><trkpt lat="41.3691688" lon="1.8323996"><ele>483.0</ele><time>2026-04-04T12:39:01.092Z</time></trkpt><trkpt lat="41.3691941" lon="1.8322464"><ele>487.75</ele><time>2026-04-04T12:39:02.079Z</time></trkpt><trkpt lat="41.3692" lon="1.8320834"><ele>492.5</ele><time>2026-04-04T12:39:03.101Z</time></trkpt><trkpt lat="41.3691918" lon="1.8319133"><ele>497.25</ele><time>2026-04-04T12:39:04.098Z</time></trkpt><trkpt lat="41.3691745" lon="1.8317427"><ele>502.0</ele><time>2026-04-04T12:39:05.043Z</time></trkpt><trkpt lat="41.3691518" lon="1.8316052"><ele>503.40000000000003</ele><time>2026-04-04T12:39:06.085Z</time></trkpt><trkpt lat="41.3691143" lon="1.8315035"><ele>504.80000000000007</ele><time>2026-04-04T12:39:08.072Z</time></trkpt><trkpt lat="41.369184" lon="1.8315516"><ele>506.2</ele><time>2026-04-04T12:39:15.111Z</time></trkpt><trkpt lat="41.3692762" lon="1.8316804"><ele>507.6</ele><time>2026-04-04T12:39:17.097Z</time></trkpt><trkpt lat="41.3693369" lon="1.8317372"><ele>509.0</ele><time>2026-04-04T12:39:18.102Z</time></trkpt><trkpt lat="41.3694207" lon="1.8317619"><ele>509.0</ele><time>2026-04-04T12:39:19.113Z</time></trkpt><trkpt lat="41.3695176" lon="1.8317574"><ele>509.0</ele><time>2026-04-04T12:39:20.093Z</time></trkpt><trkpt lat="41.3696181" lon="1.8317482"><ele>509.0</ele><time>2026-04-04T12:39:21.098Z</time></trkpt><trkpt lat="41.369723" lon="1.831748"><ele>509.0</ele><time>2026-04-04T12:39:22.099Z</time></trkpt><trkpt lat="41.3698285" lon="1.8317641"><ele>509.0</ele><time>2026-04-04T12:39:23.094Z</time></trkpt><trkpt lat="41.3699354" lon="1.8317791"><ele>506.99999999999994</ele><time>2026-04-04T12:39:24.086Z</time></trkpt><trkpt lat="41.3700392" lon="1.8318172"><ele>505.0</ele><time>2026-04-04T12:39:25.099Z</time></trkpt><trkpt lat="41.3701333" lon="1.8318641"><ele>503.0</ele><time>2026-04-04T12:39:26.091Z</time></trkpt><trkpt lat="41.3702118" lon="1.8319069"><ele>501.0</ele><time>2026-04-04T12:39:27.094Z</time></trkpt><trkpt lat="41.3702815" lon="1.8319524"><ele>498.99999999999994</ele><time>2026-04-04T12:39:28.07Z</time></trkpt><trkpt lat="41.3703449" lon="1.8319978"><ele>497.0</ele><time>2026-04-04T12:39:29.092Z</time></trkpt><trkpt lat="41.3704149" lon="1.8320326"><ele>496.99999999999994</ele><time>2026-04-04T12:39:30.083Z</time></trkpt><trkpt lat="41.3704912" lon="1.832046"><ele>497.0</ele><time>2026-04-04T12:39:31.088Z</time></trkpt><trkpt lat="41.3705781" lon="1.8320505"><ele>497.0</ele><time>2026-04-04T12:39:32.084Z</time></trkpt><trkpt lat="41.3706693" lon="1.8320518"><ele>497.0</ele><time>2026-04-04T12:39:33.083Z</time></trkpt><trkpt lat="41.3707605" lon="1.8320569"><ele>496.99999999999994</ele><time>2026-04-04T12:39:34.088Z</time></trkpt><trkpt lat="41.3708499" lon="1.832077"><ele>497.0</ele><time>2026-04-04T12:39:35.077Z</time></trkpt><trkpt lat="41.3709378" lon="1.832107"><ele>496.0</ele><time>2026-04-04T12:39:36.084Z</time></trkpt><trkpt lat="41.3710224" lon="1.832158"><ele>495.00000000000006</ele><time>2026-04-04T12:39:37.078Z</time></trkpt><trkpt lat="41.3711141" lon="1.8322168"><ele>494.00000000000006</ele><time>2026-04-04T12:39:38.084Z</time></trkpt><trkpt lat="41.3712017" lon="1.8322627"><ele>493.0</ele><time>2026-04-04T12:39:39.039Z</time></trkpt><trkpt lat="41.371292" lon="1.8322883"><ele>492.0</ele><time>2026-04-04T12:39:40.091Z</time></trkpt><trkpt lat="41.3713832" lon="1.832321"><ele>490.8</ele><time>2026-04-04T12:39:41.084Z</time></trkpt><trkpt lat="41.3714764" lon="1.8323589"><ele>489.6</ele><time>2026-04-04T12:39:42.083Z</time></trkpt><trkpt lat="41.3715622" lon="1.8324161"><ele>488.40000000000003</ele><time>2026-04-04T12:39:43.084Z</time></trkpt><trkpt lat="41.3716423" lon="1.8324952"><ele>487.20000000000005</ele><time>2026-04-04T12:39:44.088Z</time></trkpt><trkpt lat="41.3717271" lon="1.8325645"><ele>486.0</ele><time>2026-04-04T12:39:45.096Z</time></trkpt><trkpt lat="41.3718161" lon="1.8326123"><ele>486.0</ele><time>2026-04-04T12:39:46.082Z</time></trkpt><trkpt lat="41.3719123" lon="1.8326442"><ele>486.0</ele><time>2026-04-04T12:39:47.082Z</time></trkpt><trkpt lat="41.372011" lon="1.8326547"><ele>486.0</ele><time>2026-04-04T12:39:48.092Z</time></trkpt><trkpt lat="41.3721241" lon="1.8326369"><ele>486.0</ele><time>2026-04-04T12:39:49.088Z</time></trkpt><trkpt lat="41.3722402" lon="1.8325963"><ele>486.0</ele><time>2026-04-04T12:39:50.09Z</time></trkpt><trkpt lat="41.3723525" lon="1.8325496"><ele>485.8</ele><time>2026-04-04T12:39:51.092Z</time></trkpt><trkpt lat="41.3724688" lon="1.8324998"><ele>485.6</ele><time>2026-04-04T12:39:52.04Z</time></trkpt><trkpt lat="41.372587" lon="1.8324523"><ele>485.4</ele><time>2026-04-04T12:39:53.086Z</time></trkpt><trkpt lat="41.3726949" lon="1.8324177"><ele>485.2</ele><time>2026-04-04T12:39:54.086Z</time></trkpt><trkpt lat="41.3727822" lon="1.8323982"><ele>485.0</ele><time>2026-04-04T12:39:55.091Z</time></trkpt><trkpt lat="41.372855" lon="1.832412"><ele>484.99999999999994</ele><time>2026-04-04T12:39:56.086Z</time></trkpt><trkpt lat="41.372919" lon="1.8324522"><ele>485.0</ele><time>2026-04-04T12:39:57.089Z</time></trkpt><trkpt lat="41.3729898" lon="1.8325114"><ele>485.0</ele><time>2026-04-04T12:39:58.086Z</time></trkpt><trkpt lat="41.3730628" lon="1.832581"><ele>485.0</ele><time>2026-04-04T12:39:59.089Z</time></trkpt><trkpt lat="41.3731397" lon="1.8326575"><ele>484.99999999999994</ele><time>2026-04-04T12:40:00.087Z</time></trkpt><trkpt lat="41.3732217" lon="1.8327466"><ele>485.0</ele><time>2026-04-04T12:40:01.084Z</time></trkpt><trkpt lat="41.3733085" lon="1.8328433"><ele>488.5</ele><time>2026-04-04T12:40:02.099Z</time></trkpt><trkpt lat="41.3733935" lon="1.8329558"><ele>492.0</ele><time>2026-04-04T12:40:03.094Z</time></trkpt><trkpt lat="41.3734835" lon="1.8330671"><ele>495.5</ele><time>2026-04-04T12:40:04.084Z</time></trkpt><trkpt lat="41.3735855" lon="1.8331673"><ele>499.0</ele><time>2026-04-04T12:40:05.078Z</time></trkpt><trkpt lat="41.3736869" lon="1.83325"><ele>499.0</ele><time>2026-04-04T12:40:06.076Z</time></trkpt><trkpt lat="41.3737923" lon="1.833318"><ele>499.0</ele><time>2026-04-04T12:40:07.081Z</time></trkpt><trkpt lat="41.3738984" lon="1.8333788"><ele>499.0</ele><time>2026-04-04T12:40:08.083Z</time></trkpt><trkpt lat="41.3739943" lon="1.8334338"><ele>499.0</ele><time>2026-04-04T12:40:09.085Z</time></trkpt><trkpt lat="41.3740881" lon="1.8334777"><ele>499.0</ele><time>2026-04-04T12:40:10.075Z</time></trkpt><trkpt lat="41.3741711" lon="1.8335132"><ele>502.1666666666667</ele><time>2026-04-04T12:40:11.089Z</time></trkpt><trkpt lat="41.3742473" lon="1.8335494"><ele>505.33333333333337</ele><time>2026-04-04T12:40:12.075Z</time></trkpt><trkpt lat="41.3743143" lon="1.8336042"><ele>508.5</ele><time>2026-04-04T12:40:13.083Z</time></trkpt><trkpt lat="41.3743693" lon="1.8336848"><ele>511.66666666666663</ele><time>2026-04-04T12:40:14.079Z</time></trkpt><trkpt lat="41.3744142" lon="1.8337846"><ele>514.8333333333333</ele><time>2026-04-04T12:40:15.081Z</time></trkpt><trkpt lat="41.3744526" lon="1.8338804"><ele>518.0</ele><time>2026-04-04T12:40:16.079Z</time></trkpt><trkpt lat="41.3744859" lon="1.8339804"><ele>518.0</ele><time>2026-04-04T12:40:17.087Z</time></trkpt><trkpt lat="41.3745215" lon="1.8340746"><ele>518.0</ele><time>2026-04-04T12:40:18.084Z</time></trkpt><trkpt lat="41.374569" lon="1.8341563"><ele>518.0</ele><time>2026-04-04T12:40:19.079Z</time></trkpt><trkpt lat="41.374623" lon="1.8342335"><ele>518.0</ele><time>2026-04-04T12:40:20.091Z</time></trkpt><trkpt lat="41.3746723" lon="1.8343113"><ele>518.0</ele><time>2026-04-04T12:40:21.087Z</time></trkpt><trkpt lat="41.3747152" lon="1.8343975"><ele>518.0</ele><time>2026-04-04T12:40:22.083Z</time></trkpt><trkpt lat="41.374748" lon="1.8344744"><ele>520.1999999999999</ele><time>2026-04-04T12:40:23.082Z</time></trkpt><trkpt lat="41.3748185" lon="1.8345999"><ele>522.4</ele><time>2026-04-04T12:40:25.093Z</time></trkpt><trkpt lat="41.3749086" lon="1.8346976"><ele>524.5999999999999</ele><time>2026-04-04T12:40:27.114Z</time></trkpt><trkpt lat="41.374949" lon="1.8347649"><ele>526.8</ele><time>2026-04-04T12:40:28.101Z</time></trkpt><trkpt lat="41.3749796" lon="1.8348612"><ele>529.0</ele><time>2026-04-04T12:40:29.101Z</time></trkpt><trkpt lat="41.3749965" lon="1.8349775"><ele>529.0</ele><time>2026-04-04T12:40:30.093Z</time></trkpt><trkpt lat="41.3749964" lon="1.8351002"><ele>529.0</ele><time>2026-04-04T12:40:31.093Z</time></trkpt><trkpt lat="41.3749766" lon="1.8352356"><ele>529.0</ele><time>2026-04-04T12:40:32.097Z</time></trkpt><trkpt lat="41.3749459" lon="1.8353743"><ele>529.0</ele><time>2026-04-04T12:40:33.112Z</time></trkpt><trkpt lat="41.3749127" lon="1.8354914"><ele>529.0</ele><time>2026-04-04T12:40:34.099Z</time></trkpt><trkpt lat="41.3748993" lon="1.8355953"><ele>529.2</ele><time>2026-04-04T12:40:35.109Z</time></trkpt><trkpt lat="41.3749201" lon="1.835697"><ele>529.4</ele><time>2026-04-04T12:40:36.105Z</time></trkpt><trkpt lat="41.3749747" lon="1.8358108"><ele>529.6</ele><time>2026-04-04T12:40:37.104Z</time></trkpt><trkpt lat="41.3750458" lon="1.835929"><ele>529.8</ele><time>2026-04-04T12:40:38.088Z</time></trkpt><trkpt lat="41.3751205" lon="1.8360497"><ele>530.0</ele><time>2026-04-04T12:40:39.101Z</time></trkpt><trkpt lat="41.3752072" lon="1.8361648"><ele>529.6</ele><time>2026-04-04T12:40:40.095Z</time></trkpt><trkpt lat="41.3752891" lon="1.8362795"><ele>529.2</ele><time>2026-04-04T12:40:41.095Z</time></trkpt><trkpt lat="41.375365" lon="1.836391"><ele>528.8</ele><time>2026-04-04T12:40:42.093Z</time></trkpt><trkpt lat="41.3754389" lon="1.8364913"><ele>528.4</ele><time>2026-04-04T12:40:43.107Z</time></trkpt><trkpt lat="41.3755121" lon="1.8365876"><ele>528.0</ele><time>2026-04-04T12:40:44.107Z</time></trkpt><trkpt lat="41.3755805" lon="1.8366772"><ele>527.4</ele><time>2026-04-04T12:40:45.105Z</time></trkpt><trkpt lat="41.3756453" lon="1.8367748"><ele>526.8</ele><time>2026-04-04T12:40:46.098Z</time></trkpt><trkpt lat="41.3757033" lon="1.8368887"><ele>526.2</ele><time>2026-04-04T12:40:47.093Z</time></trkpt><trkpt lat="41.375747" lon="1.8370088"><ele>525.6</ele><time>2026-04-04T12:40:48.093Z</time></trkpt><trkpt lat="41.3757792" lon="1.8371228"><ele>525.0</ele><time>2026-04-04T12:40:49.094Z</time></trkpt><trkpt lat="41.3758217" lon="1.8372153"><ele>524.8</ele><time>2026-04-04T12:40:50.094Z</time></trkpt><trkpt lat="41.3758807" lon="1.8373072"><ele>524.6</ele><time>2026-04-04T12:40:51.099Z</time></trkpt><trkpt lat="41.3759638" lon="1.8373896"><ele>524.4</ele><time>2026-04-04T12:40:52.092Z</time></trkpt><trkpt lat="41.3760629" lon="1.8374716"><ele>524.2</ele><time>2026-04-04T12:40:53.096Z</time></trkpt><trkpt lat="41.3761724" lon="1.8375656"><ele>524.0</ele><time>2026-04-04T12:40:54.099Z</time></trkpt><trkpt lat="41.3762757" lon="1.8376692"><ele>523.4</ele><time>2026-04-04T12:40:55.1Z</time></trkpt><trkpt lat="41.3763672" lon="1.837772"><ele>522.8</ele><time>2026-04-04T12:40:56.107Z</time></trkpt><trkpt lat="41.3764389" lon="1.8378688"><ele>522.2</ele><time>2026-04-04T12:40:57.102Z</time></trkpt><trkpt lat="41.3764982" lon="1.8379722"><ele>521.6</ele><time>2026-04-04T12:40:58.106Z</time></trkpt><trkpt lat="41.3765503" lon="1.8380874"><ele>521.0</ele><time>2026-04-04T12:40:59.086Z</time></trkpt><trkpt lat="41.3765907" lon="1.8382155"><ele>521.0</ele><time>2026-04-04T12:41:00.085Z</time></trkpt><trkpt lat="41.3766365" lon="1.8383464"><ele>521.0</ele><time>2026-04-04T12:41:01.087Z</time></trkpt><trkpt lat="41.3766877" lon="1.8384743"><ele>521.0</ele><time>2026-04-04T12:41:02.08Z</time></trkpt><trkpt lat="41.3767439" lon="1.838588"><ele>521.0</ele><time>2026-04-04T12:41:03.082Z</time></trkpt><trkpt lat="41.376807" lon="1.8386681"><ele>521.0</ele><time>2026-04-04T12:41:04.087Z</time></trkpt><trkpt lat="41.3768598" lon="1.8387329"><ele>518.5</ele><time>2026-04-04T12:41:05.084Z</time></trkpt><trkpt lat="41.3769038" lon="1.8387969"><ele>516.0</ele><time>2026-04-04T12:41:06.088Z</time></trkpt><trkpt lat="41.3769526" lon="1.838956"><ele>513.5</ele><time>2026-04-04T12:41:08.094Z</time></trkpt><trkpt lat="41.3769564" lon="1.8390485"><ele>511.0</ele><time>2026-04-04T12:41:09.101Z</time></trkpt><trkpt lat="41.3769498" lon="1.8391439"><ele>508.49999999999994</ele><time>2026-04-04T12:41:10.087Z</time></trkpt><trkpt lat="41.3769222" lon="1.8392476"><ele>506.0</ele><time>2026-04-04T12:41:11.086Z</time></trkpt><trkpt lat="41.3768778" lon="1.8393526"><ele>504.8</ele><time>2026-04-04T12:41:12.09Z</time></trkpt><trkpt lat="41.3768483" lon="1.8394615"><ele>503.6</ele><time>2026-04-04T12:41:13.104Z</time></trkpt><trkpt lat="41.3768329" lon="1.8395787"><ele>502.4</ele><time>2026-04-04T12:41:14.11Z</time></trkpt><trkpt lat="41.3768413" lon="1.8397143"><ele>501.2</ele><time>2026-04-04T12:41:15.102Z</time></trkpt><trkpt lat="41.3768573" lon="1.8398577"><ele>500.0</ele><time>2026-04-04T12:41:16.097Z</time></trkpt><trkpt lat="41.3768578" lon="1.8399989"><ele>499.99999999999994</ele><time>2026-04-04T12:41:17.099Z</time></trkpt><trkpt lat="41.3768456" lon="1.8401257"><ele>500.0</ele><time>2026-04-04T12:41:18.093Z</time></trkpt><trkpt lat="41.3768344" lon="1.8402316"><ele>500.0</ele><time>2026-04-04T12:41:19.101Z</time></trkpt><trkpt lat="41.3768361" lon="1.8403263"><ele>500.0</ele><time>2026-04-04T12:41:20.092Z</time></trkpt><trkpt lat="41.3768645" lon="1.8404064"><ele>499.99999999999994</ele><time>2026-04-04T12:41:21.087Z</time></trkpt><trkpt lat="41.3769124" lon="1.8404787"><ele>500.0</ele><time>2026-04-04T12:41:22.082Z</time></trkpt><trkpt lat="41.376968" lon="1.8405342"><ele>500.2857142857143</ele><time>2026-04-04T12:41:23.084Z</time></trkpt><trkpt lat="41.3770303" lon="1.8405715"><ele>500.57142857142856</ele><time>2026-04-04T12:41:24.088Z</time></trkpt><trkpt lat="41.3770956" lon="1.8406068"><ele>500.85714285714283</ele><time>2026-04-04T12:41:25.094Z</time></trkpt><trkpt lat="41.3771651" lon="1.8406453"><ele>501.1428571428571</ele><time>2026-04-04T12:41:26.105Z</time></trkpt><trkpt lat="41.3772304" lon="1.840699"><ele>501.42857142857144</ele><time>2026-04-04T12:41:27.098Z</time></trkpt><trkpt lat="41.3772843" lon="1.8407685"><ele>501.71428571428567</ele><time>2026-04-04T12:41:28.094Z</time></trkpt><trkpt lat="41.3773262" lon="1.8408601"><ele>501.99999999999994</ele><time>2026-04-04T12:41:29.099Z</time></trkpt><trkpt lat="41.377356" lon="1.840967"><ele>504.20000000000005</ele><time>2026-04-04T12:41:30.055Z</time></trkpt><trkpt lat="41.3773871" lon="1.8410734"><ele>506.40000000000003</ele><time>2026-04-04T12:41:31.104Z</time></trkpt><trkpt lat="41.3774318" lon="1.8411692"><ele>508.59999999999997</ele><time>2026-04-04T12:41:32.089Z</time></trkpt><trkpt lat="41.3774957" lon="1.8412434"><ele>510.79999999999995</ele><time>2026-04-04T12:41:33.093Z</time></trkpt><trkpt lat="41.3775855" lon="1.8413033"><ele>513.0</ele><time>2026-04-04T12:41:34.103Z</time></trkpt><trkpt lat="41.3776914" lon="1.8413651"><ele>513.0</ele><time>2026-04-04T12:41:35.075Z</time></trkpt><trkpt lat="41.377784" lon="1.8414529"><ele>513.0</ele><time>2026-04-04T12:41:36.075Z</time></trkpt><trkpt lat="41.3778686" lon="1.841558"><ele>513.0</ele><time>2026-04-04T12:41:37.088Z</time></trkpt><trkpt lat="41.3779574" lon="1.8416509"><ele>513.0</ele><time>2026-04-04T12:41:38.079Z</time></trkpt><trkpt lat="41.3780584" lon="1.841733"><ele>515.0</ele><time>2026-04-04T12:41:39.069Z</time></trkpt><trkpt lat="41.3781654" lon="1.8417986"><ele>517.0</ele><time>2026-04-04T12:41:40.086Z</time></trkpt><trkpt lat="41.378254" lon="1.8418754"><ele>519.0</ele><time>2026-04-04T12:41:41.091Z</time></trkpt><trkpt lat="41.3783186" lon="1.8419709"><ele>521.0</ele><time>2026-04-04T12:41:42.091Z</time></trkpt><trkpt lat="41.3783667" lon="1.8421035"><ele>523.0</ele><time>2026-04-04T12:41:43.088Z</time></trkpt><trkpt lat="41.3784187" lon="1.8422534"><ele>523.0</ele><time>2026-04-04T12:41:44.087Z</time></trkpt><trkpt lat="41.3784752" lon="1.8424011"><ele>523.0</ele><time>2026-04-04T12:41:45.092Z</time></trkpt><trkpt lat="41.3785247" lon="1.8425534"><ele>523.0</ele><time>2026-04-04T12:41:46.089Z</time></trkpt><trkpt lat="41.3785486" lon="1.8427196"><ele>523.0</ele><time>2026-04-04T12:41:47.081Z</time></trkpt><trkpt lat="41.3785396" lon="1.8429065"><ele>524.3333333333334</ele><time>2026-04-04T12:41:48.084Z</time></trkpt><trkpt lat="41.3785115" lon="1.843103"><ele>525.6666666666666</ele><time>2026-04-04T12:41:49.09Z</time></trkpt><trkpt lat="41.3784683" lon="1.8433113"><ele>527.0</ele><time>2026-04-04T12:41:50.088Z</time></trkpt><trkpt lat="41.3784328" lon="1.8435196"><ele>527.0</ele><time>2026-04-04T12:41:51.09Z</time></trkpt><trkpt lat="41.3784118" lon="1.8437301"><ele>527.0</ele><time>2026-04-04T12:41:52.078Z</time></trkpt><trkpt lat="41.3784022" lon="1.8439347"><ele>527.0</ele><time>2026-04-04T12:41:53.079Z</time></trkpt><trkpt lat="41.378405" lon="1.8441415"><ele>527.0</ele><time>2026-04-04T12:41:54.077Z</time></trkpt><trkpt lat="41.3784158" lon="1.8443744"><ele>527.0</ele><time>2026-04-04T12:41:55.071Z</time></trkpt><trkpt lat="41.3784231" lon="1.8445936"><ele>527.0</ele><time>2026-04-04T12:41:56.09Z</time></trkpt><trkpt lat="41.3784448" lon="1.8447933"><ele>527.0</ele><time>2026-04-04T12:41:57.097Z</time></trkpt><trkpt lat="41.3784686" lon="1.8449533"><ele>527.0</ele><time>2026-04-04T12:41:58.09Z</time></trkpt><trkpt lat="41.3784935" lon="1.8450988"><ele>527.0</ele><time>2026-04-04T12:41:59.099Z</time></trkpt><trkpt lat="41.3784971" lon="1.8452305"><ele>527.0</ele><time>2026-04-04T12:42:00.093Z</time></trkpt><trkpt lat="41.3784975" lon="1.8453341"><ele>527.0</ele><time>2026-04-04T12:42:01.089Z</time></trkpt><trkpt lat="41.3785347" lon="1.8454185"><ele>527.1666666666666</ele><time>2026-04-04T12:42:02.08Z</time></trkpt><trkpt lat="41.3785979" lon="1.8455051"><ele>527.3333333333333</ele><time>2026-04-04T12:42:03.08Z</time></trkpt><trkpt lat="41.3786635" lon="1.8455899"><ele>527.5</ele><time>2026-04-04T12:42:04.077Z</time></trkpt><trkpt lat="41.3787127" lon="1.8456686"><ele>527.6666666666666</ele><time>2026-04-04T12:42:05.086Z</time></trkpt><trkpt lat="41.3787487" lon="1.8457425"><ele>527.8333333333334</ele><time>2026-04-04T12:42:06.078Z</time></trkpt><trkpt lat="41.3787795" lon="1.845833"><ele>528.0</ele><time>2026-04-04T12:42:07.086Z</time></trkpt><trkpt lat="41.3788191" lon="1.8459222"><ele>529.0</ele><time>2026-04-04T12:42:08.078Z</time></trkpt><trkpt lat="41.3788755" lon="1.8460164"><ele>530.0</ele><time>2026-04-04T12:42:09.086Z</time></trkpt><trkpt lat="41.378956" lon="1.8461077"><ele>531.0</ele><time>2026-04-04T12:42:10.077Z</time></trkpt><trkpt lat="41.3790448" lon="1.8461985"><ele>532.0</ele><time>2026-04-04T12:42:11.081Z</time></trkpt><trkpt lat="41.3791473" lon="1.8462882"><ele>533.0</ele><time>2026-04-04T12:42:12.076Z</time></trkpt><trkpt lat="41.3792577" lon="1.8463711"><ele>533.0</ele><time>2026-04-04T12:42:13.094Z</time></trkpt><trkpt lat="41.3793735" lon="1.8464722"><ele>533.0</ele><time>2026-04-04T12:42:14.09Z</time></trkpt><trkpt lat="41.3794913" lon="1.8465742"><ele>533.0</ele><time>2026-04-04T12:42:15.097Z</time></trkpt><trkpt lat="41.3796008" lon="1.8466822"><ele>533.0</ele><time>2026-04-04T12:42:16.092Z</time></trkpt><trkpt lat="41.3796932" lon="1.8467943"><ele>532.0</ele><time>2026-04-04T12:42:17.085Z</time></trkpt><trkpt lat="41.3797732" lon="1.8469228"><ele>531.0</ele><time>2026-04-04T12:42:18.094Z</time></trkpt><trkpt lat="41.3798425" lon="1.8470777"><ele>530.0</ele><time>2026-04-04T12:42:19.092Z</time></trkpt><trkpt lat="41.3799004" lon="1.847247"><ele>529.0</ele><time>2026-04-04T12:42:20.094Z</time></trkpt><trkpt lat="41.3799493" lon="1.8474237"><ele>529.0</ele><time>2026-04-04T12:42:21.092Z</time></trkpt><trkpt lat="41.3799979" lon="1.8476051"><ele>529.0</ele><time>2026-04-04T12:42:22.103Z</time></trkpt><trkpt lat="41.3800371" lon="1.847792"><ele>529.0</ele><time>2026-04-04T12:42:23.099Z</time></trkpt><trkpt lat="41.3800798" lon="1.8479614"><ele>529.0</ele><time>2026-04-04T12:42:24.086Z</time></trkpt><trkpt lat="41.3801215" lon="1.8480964"><ele>530.0</ele><time>2026-04-04T12:42:25.092Z</time></trkpt><trkpt lat="41.3801568" lon="1.8482072"><ele>531.0</ele><time>2026-04-04T12:42:26.08Z</time></trkpt><trkpt lat="41.3801827" lon="1.8482898"><ele>532.0</ele><time>2026-04-04T12:42:27.092Z</time></trkpt><trkpt lat="41.3801717" lon="1.8484665"><ele>533.0</ele><time>2026-04-04T12:42:29.097Z</time></trkpt><trkpt lat="41.380144" lon="1.8485846"><ele>534.0</ele><time>2026-04-04T12:42:30.093Z</time></trkpt><trkpt lat="41.3801267" lon="1.8487072"><ele>534.25</ele><time>2026-04-04T12:42:31.1Z</time></trkpt><trkpt lat="41.3801066" lon="1.8488439"><ele>534.5</ele><time>2026-04-04T12:42:32.103Z</time></trkpt><trkpt lat="41.3800919" lon="1.8489976"><ele>534.75</ele><time>2026-04-04T12:42:33.095Z</time></trkpt><trkpt lat="41.3800717" lon="1.8491549"><ele>535.0</ele><time>2026-04-04T12:42:34.11Z</time></trkpt><trkpt lat="41.3800538" lon="1.8493007"><ele>534.5</ele><time>2026-04-04T12:42:35.104Z</time></trkpt><trkpt lat="41.3800446" lon="1.8494443"><ele>534.0</ele><time>2026-04-04T12:42:36.108Z</time></trkpt><trkpt lat="41.3800655" lon="1.8495907"><ele>533.5</ele><time>2026-04-04T12:42:37.104Z</time></trkpt><trkpt lat="41.3801175" lon="1.8497366"><ele>533.0</ele><time>2026-04-04T12:42:38.097Z</time></trkpt><trkpt lat="41.3801955" lon="1.8498846"><ele>533.0</ele><time>2026-04-04T12:42:39.095Z</time></trkpt><trkpt lat="41.3802798" lon="1.8500435"><ele>533.0</ele><time>2026-04-04T12:42:40.037Z</time></trkpt><trkpt lat="41.3803498" lon="1.850219"><ele>533.0</ele><time>2026-04-04T12:42:41.067Z</time></trkpt><trkpt lat="41.3803942" lon="1.8504061"><ele>533.0</ele><time>2026-04-04T12:42:42.085Z</time></trkpt><trkpt lat="41.3804315" lon="1.8505987"><ele>533.6666666666666</ele><time>2026-04-04T12:42:43.09Z</time></trkpt><trkpt lat="41.3804599" lon="1.8508055"><ele>534.3333333333334</ele><time>2026-04-04T12:42:44.09Z</time></trkpt><trkpt lat="41.3804859" lon="1.8510097"><ele>535.0</ele><time>2026-04-04T12:42:45.089Z</time></trkpt><trkpt lat="41.3804979" lon="1.8512168"><ele>536.6666666666667</ele><time>2026-04-04T12:42:46.079Z</time></trkpt><trkpt lat="41.3805065" lon="1.8514326"><ele>538.3333333333334</ele><time>2026-04-04T12:42:47.085Z</time></trkpt><trkpt lat="41.380535" lon="1.8516455"><ele>540.0</ele><time>2026-04-04T12:42:48.088Z</time></trkpt><trkpt lat="41.3805685" lon="1.85186"><ele>542.6666666666666</ele><time>2026-04-04T12:42:49.082Z</time></trkpt><trkpt lat="41.380589" lon="1.8520754"><ele>545.3333333333333</ele><time>2026-04-04T12:42:50.075Z</time></trkpt><trkpt lat="41.3805997" lon="1.8522871"><ele>548.0</ele><time>2026-04-04T12:42:51.081Z</time></trkpt><trkpt lat="41.3806055" lon="1.8524935"><ele>549.75</ele><time>2026-04-04T12:42:52.086Z</time></trkpt><trkpt lat="41.3806149" lon="1.8526907"><ele>551.5</ele><time>2026-04-04T12:42:53.081Z</time></trkpt><trkpt lat="41.3806327" lon="1.8528847"><ele>553.25</ele><time>2026-04-04T12:42:54.089Z</time></trkpt><trkpt lat="41.3806643" lon="1.8530716"><ele>555.0</ele><time>2026-04-04T12:42:55.082Z</time></trkpt><trkpt lat="41.380683" lon="1.8532605"><ele>555.0</ele><time>2026-04-04T12:42:56.087Z</time></trkpt><trkpt lat="41.3807055" lon="1.8534377"><ele>555.0</ele><time>2026-04-04T12:42:57.101Z</time></trkpt><trkpt lat="41.380724" lon="1.8536219"><ele>555.0</ele><time>2026-04-04T12:42:58.086Z</time></trkpt><trkpt lat="41.3807436" lon="1.8537959"><ele>555.0</ele><time>2026-04-04T12:42:59.074Z</time></trkpt><trkpt lat="41.3807646" lon="1.8539488"><ele>556.6</ele><time>2026-04-04T12:43:00.085Z</time></trkpt><trkpt lat="41.3807773" lon="1.8540539"><ele>558.2</ele><time>2026-04-04T12:43:01.089Z</time></trkpt><trkpt lat="41.3808199" lon="1.8541698"><ele>559.8</ele><time>2026-04-04T12:43:03.08Z</time></trkpt><trkpt lat="41.3809355" lon="1.8542592"><ele>561.4</ele><time>2026-04-04T12:43:05.079Z</time></trkpt><trkpt lat="41.3810141" lon="1.8543085"><ele>563.0</ele><time>2026-04-04T12:43:06.081Z</time></trkpt><trkpt lat="41.3810994" lon="1.8543672"><ele>564.1999999999999</ele><time>2026-04-04T12:43:07.1Z</time></trkpt><trkpt lat="41.381192" lon="1.8544347"><ele>565.4</ele><time>2026-04-04T12:43:08.098Z</time></trkpt><trkpt lat="41.3812867" lon="1.8545111"><ele>566.5999999999999</ele><time>2026-04-04T12:43:09.109Z</time></trkpt><trkpt lat="41.3813801" lon="1.8545933"><ele>567.8</ele><time>2026-04-04T12:43:10.098Z</time></trkpt><trkpt lat="41.3814667" lon="1.8546718"><ele>569.0</ele><time>2026-04-04T12:43:11.093Z</time></trkpt><trkpt lat="41.3815448" lon="1.8547447"><ele>569.0</ele><time>2026-04-04T12:43:12.086Z</time></trkpt><trkpt lat="41.381622" lon="1.8548178"><ele>569.0</ele><time>2026-04-04T12:43:13.099Z</time></trkpt><trkpt lat="41.3816964" lon="1.8548816"><ele>569.0</ele><time>2026-04-04T12:43:14.082Z</time></trkpt><trkpt lat="41.3817599" lon="1.8549421"><ele>569.0</ele><time>2026-04-04T12:43:15.086Z</time></trkpt><trkpt lat="41.3818167" lon="1.8549846"><ele>569.0</ele><time>2026-04-04T12:43:16.096Z</time></trkpt><trkpt lat="41.3819279" lon="1.8549711"><ele>569.0</ele><time>2026-04-04T12:43:18.101Z</time></trkpt><trkpt lat="41.3819936" lon="1.8548372"><ele>569.0</ele><time>2026-04-04T12:43:20.087Z</time></trkpt><trkpt lat="41.3820144" lon="1.8546804"><ele>569.0</ele><time>2026-04-04T12:43:22.09Z</time></trkpt><trkpt lat="41.3820583" lon="1.8545444"><ele>569.0</ele><time>2026-04-04T12:43:24.093Z</time></trkpt><trkpt lat="41.3821434" lon="1.8544633"><ele>569.0</ele><time>2026-04-04T12:43:26.039Z</time></trkpt><trkpt lat="41.3822423" lon="1.854418"><ele>569.0</ele><time>2026-04-04T12:43:28.096Z</time></trkpt><trkpt lat="41.3823501" lon="1.8543669"><ele>567.5</ele><time>2026-04-04T12:43:30.087Z</time></trkpt><trkpt lat="41.3824725" lon="1.8543306"><ele>566.0</ele><time>2026-04-04T12:43:32.086Z</time></trkpt><trkpt lat="41.3825418" lon="1.8543294"><ele>564.5</ele><time>2026-04-04T12:43:33.087Z</time></trkpt><trkpt lat="41.3826029" lon="1.8543618"><ele>563.0</ele><time>2026-04-04T12:43:34.096Z</time></trkpt><trkpt lat="41.382658" lon="1.8544239"><ele>561.5</ele><time>2026-04-04T12:43:35.091Z</time></trkpt><trkpt lat="41.3827093" lon="1.8545109"><ele>560.0</ele><time>2026-04-04T12:43:36.088Z</time></trkpt><trkpt lat="41.382755" lon="1.8546165"><ele>560.0</ele><time>2026-04-04T12:43:37.081Z</time></trkpt><trkpt lat="41.3827887" lon="1.8547294"><ele>560.0</ele><time>2026-04-04T12:43:38.082Z</time></trkpt><trkpt lat="41.3828068" lon="1.8548516"><ele>560.0</ele><time>2026-04-04T12:43:39.084Z</time></trkpt><trkpt lat="41.3828084" lon="1.8549922"><ele>560.0</ele><time>2026-04-04T12:43:40.093Z</time></trkpt><trkpt lat="41.3827871" lon="1.8551598"><ele>560.0</ele><time>2026-04-04T12:43:41.081Z</time></trkpt><trkpt lat="41.3827578" lon="1.8553335"><ele>559.8</ele><time>2026-04-04T12:43:42.095Z</time></trkpt><trkpt lat="41.3827098" lon="1.8554951"><ele>559.6</ele><time>2026-04-04T12:43:43.09Z</time></trkpt><trkpt lat="41.3826414" lon="1.8556359"><ele>559.4</ele><time>2026-04-04T12:43:44.094Z</time></trkpt><trkpt lat="41.3825767" lon="1.8557473"><ele>559.2</ele><time>2026-04-04T12:43:45.094Z</time></trkpt><trkpt lat="41.3825356" lon="1.8558477"><ele>559.0</ele><time>2026-04-04T12:43:46.089Z</time></trkpt><trkpt lat="41.3825133" lon="1.8559561"><ele>558.5</ele><time>2026-04-04T12:43:47.097Z</time></trkpt><trkpt lat="41.3825018" lon="1.8560904"><ele>558.0</ele><time>2026-04-04T12:43:48.1Z</time></trkpt><trkpt lat="41.3824947" lon="1.8562321"><ele>557.5</ele><time>2026-04-04T12:43:49.094Z</time></trkpt><trkpt lat="41.3824862" lon="1.8563876"><ele>557.0</ele><time>2026-04-04T12:43:50.095Z</time></trkpt><trkpt lat="41.3824757" lon="1.8565561"><ele>557.0</ele><time>2026-04-04T12:43:51.092Z</time></trkpt><trkpt lat="41.3824669" lon="1.8567352"><ele>557.0</ele><time>2026-04-04T12:43:52.092Z</time></trkpt><trkpt lat="41.3824656" lon="1.8569165"><ele>557.0</ele><time>2026-04-04T12:43:53.087Z</time></trkpt><trkpt lat="41.3824597" lon="1.8570697"><ele>557.0</ele><time>2026-04-04T12:43:54.094Z</time></trkpt><trkpt lat="41.3824601" lon="1.857206"><ele>556.8000000000001</ele><time>2026-04-04T12:43:55.088Z</time></trkpt><trkpt lat="41.3824734" lon="1.8573306"><ele>556.6</ele><time>2026-04-04T12:43:56.097Z</time></trkpt><trkpt lat="41.3825181" lon="1.8574416"><ele>556.4000000000001</ele><time>2026-04-04T12:43:57.098Z</time></trkpt><trkpt lat="41.3826084" lon="1.8575387"><ele>556.2</ele><time>2026-04-04T12:43:58.081Z</time></trkpt><trkpt lat="41.3827085" lon="1.8576416"><ele>556.0</ele><time>2026-04-04T12:43:59.095Z</time></trkpt><trkpt lat="41.3828103" lon="1.8577569"><ele>555.75</ele><time>2026-04-04T12:44:00.085Z</time></trkpt><trkpt lat="41.3829002" lon="1.8578728"><ele>555.5</ele><time>2026-04-04T12:44:01.083Z</time></trkpt><trkpt lat="41.3829863" lon="1.8579792"><ele>555.25</ele><time>2026-04-04T12:44:02.088Z</time></trkpt><trkpt lat="41.3830811" lon="1.8580656"><ele>555.0</ele><time>2026-04-04T12:44:03.09Z</time></trkpt><trkpt lat="41.3831914" lon="1.8581393"><ele>555.0</ele><time>2026-04-04T12:44:04.092Z</time></trkpt><trkpt lat="41.3833242" lon="1.8582028"><ele>555.0</ele><time>2026-04-04T12:44:05.08Z</time></trkpt><trkpt lat="41.3834651" lon="1.8582626"><ele>555.0</ele><time>2026-04-04T12:44:06.088Z</time></trkpt><trkpt lat="41.3836183" lon="1.8582944"><ele>555.0</ele><time>2026-04-04T12:44:07.094Z</time></trkpt><trkpt lat="41.3837594" lon="1.858295"><ele>554.75</ele><time>2026-04-04T12:44:08.092Z</time></trkpt><trkpt lat="41.3838957" lon="1.8583054"><ele>554.5</ele><time>2026-04-04T12:44:09.084Z</time></trkpt><trkpt lat="41.3840227" lon="1.8583571"><ele>554.25</ele><time>2026-04-04T12:44:10.081Z</time></trkpt><trkpt lat="41.3841382" lon="1.858412"><ele>554.0</ele><time>2026-04-04T12:44:11.085Z</time></trkpt><trkpt lat="41.3842573" lon="1.8584363"><ele>554.0</ele><time>2026-04-04T12:44:12.078Z</time></trkpt><trkpt lat="41.3843717" lon="1.8584183"><ele>554.0</ele><time>2026-04-04T12:44:13.088Z</time></trkpt><trkpt lat="41.3844809" lon="1.8583493"><ele>554.0</ele><time>2026-04-04T12:44:14.072Z</time></trkpt><trkpt lat="41.3845922" lon="1.8582685"><ele>554.0</ele><time>2026-04-04T12:44:15.077Z</time></trkpt><trkpt lat="41.3847077" lon="1.8582052"><ele>554.2</ele><time>2026-04-04T12:44:16.08Z</time></trkpt><trkpt lat="41.3848138" lon="1.8581614"><ele>554.4</ele><time>2026-04-04T12:44:17.075Z</time></trkpt><trkpt lat="41.3849057" lon="1.85814"><ele>554.6</ele><time>2026-04-04T12:44:18.073Z</time></trkpt><trkpt lat="41.3849931" lon="1.8581398"><ele>554.8</ele><time>2026-04-04T12:44:19.081Z</time></trkpt><trkpt lat="41.3850853" lon="1.8581532"><ele>555.0</ele><time>2026-04-04T12:44:20.083Z</time></trkpt><trkpt lat="41.3851903" lon="1.858196"><ele>555.0</ele><time>2026-04-04T12:44:21.042Z</time></trkpt><trkpt lat="41.3852943" lon="1.858268"><ele>555.0</ele><time>2026-04-04T12:44:22.086Z</time></trkpt><trkpt lat="41.3853813" lon="1.8583538"><ele>555.0</ele><time>2026-04-04T12:44:23.077Z</time></trkpt><trkpt lat="41.3854476" lon="1.8584336"><ele>555.0</ele><time>2026-04-04T12:44:24.084Z</time></trkpt><trkpt lat="41.385493" lon="1.8585295"><ele>555.0</ele><time>2026-04-04T12:44:25.089Z</time></trkpt><trkpt lat="41.3855203" lon="1.8586474"><ele>555.0</ele><time>2026-04-04T12:44:26.08Z</time></trkpt><trkpt lat="41.3855372" lon="1.8587803"><ele>555.0</ele><time>2026-04-04T12:44:27.086Z</time></trkpt><trkpt lat="41.3855476" lon="1.8589286"><ele>555.0</ele><time>2026-04-04T12:44:28.081Z</time></trkpt><trkpt lat="41.3855657" lon="1.859066"><ele>555.0</ele><time>2026-04-04T12:44:29.092Z</time></trkpt><trkpt lat="41.3856097" lon="1.8592002"><ele>555.0</ele><time>2026-04-04T12:44:30.088Z</time></trkpt><trkpt lat="41.3856834" lon="1.859333"><ele>555.0</ele><time>2026-04-04T12:44:31.087Z</time></trkpt><trkpt lat="41.3857788" lon="1.8594471"><ele>555.0</ele><time>2026-04-04T12:44:32.097Z</time></trkpt><trkpt lat="41.3858986" lon="1.859522"><ele>555.0</ele><time>2026-04-04T12:44:33.088Z</time></trkpt><trkpt lat="41.3860195" lon="1.859577"><ele>555.0</ele><time>2026-04-04T12:44:34.081Z</time></trkpt><trkpt lat="41.3861166" lon="1.8596382"><ele>555.0</ele><time>2026-04-04T12:44:35.086Z</time></trkpt><trkpt lat="41.3862058" lon="1.8597013"><ele>555.0</ele><time>2026-04-04T12:44:36.08Z</time></trkpt><trkpt lat="41.3862989" lon="1.8597528"><ele>555.0</ele><time>2026-04-04T12:44:37.094Z</time></trkpt><trkpt lat="41.3864057" lon="1.8597821"><ele>555.0</ele><time>2026-04-04T12:44:38.087Z</time></trkpt><trkpt lat="41.3865308" lon="1.8597817"><ele>555.0</ele><time>2026-04-04T12:44:39.091Z</time></trkpt><trkpt lat="41.3866573" lon="1.859763"><ele>553.0</ele><time>2026-04-04T12:44:40.089Z</time></trkpt><trkpt lat="41.3867719" lon="1.8597466"><ele>551.0</ele><time>2026-04-04T12:44:41.078Z</time></trkpt><trkpt lat="41.3868723" lon="1.8597299"><ele>549.0</ele><time>2026-04-04T12:44:42.093Z</time></trkpt><trkpt lat="41.3869476" lon="1.8597201"><ele>547.0</ele><time>2026-04-04T12:44:43.099Z</time></trkpt><trkpt lat="41.387041" lon="1.8597584"><ele>545.0</ele><time>2026-04-04T12:44:45.092Z</time></trkpt><trkpt lat="41.3871368" lon="1.8598692"><ele>544.6</ele><time>2026-04-04T12:44:47.087Z</time></trkpt><trkpt lat="41.3872096" lon="1.8599232"><ele>544.2</ele><time>2026-04-04T12:44:48.083Z</time></trkpt><trkpt lat="41.3873035" lon="1.8599649"><ele>543.8</ele><time>2026-04-04T12:44:49.09Z</time></trkpt><trkpt lat="41.3874119" lon="1.8600093"><ele>543.4</ele><time>2026-04-04T12:44:50.089Z</time></trkpt><trkpt lat="41.3875212" lon="1.8600692"><ele>543.0</ele><time>2026-04-04T12:44:51.094Z</time></trkpt><trkpt lat="41.3876227" lon="1.8601621"><ele>541.75</ele><time>2026-04-04T12:44:52.089Z</time></trkpt><trkpt lat="41.3877185" lon="1.8602818"><ele>540.5</ele><time>2026-04-04T12:44:53.094Z</time></trkpt><trkpt lat="41.3878179" lon="1.8604174"><ele>539.25</ele><time>2026-04-04T12:44:54.09Z</time></trkpt><trkpt lat="41.3879135" lon="1.8605697"><ele>538.0</ele><time>2026-04-04T12:44:55.097Z</time></trkpt><trkpt lat="41.3879994" lon="1.8607597"><ele>539.3333333333334</ele><time>2026-04-04T12:44:56.094Z</time></trkpt><trkpt lat="41.3880728" lon="1.8609604"><ele>540.6666666666666</ele><time>2026-04-04T12:44:57.098Z</time></trkpt><trkpt lat="41.3881301" lon="1.8611605"><ele>542.0</ele><time>2026-04-04T12:44:58.018Z</time></trkpt><trkpt lat="41.3881742" lon="1.8613292"><ele>542.0</ele><time>2026-04-04T12:44:59.045Z</time></trkpt><trkpt lat="41.3881979" lon="1.8614969"><ele>542.0</ele><time>2026-04-04T12:45:00.065Z</time></trkpt><trkpt lat="41.3881828" lon="1.861649"><ele>542.0</ele><time>2026-04-04T12:45:01.064Z</time></trkpt><trkpt lat="41.3881439" lon="1.8618025"><ele>542.0</ele><time>2026-04-04T12:45:02.058Z</time></trkpt><trkpt lat="41.3880929" lon="1.8619464"><ele>540.75</ele><time>2026-04-04T12:45:03.056Z</time></trkpt><trkpt lat="41.3880289" lon="1.8620818"><ele>539.5</ele><time>2026-04-04T12:45:04.063Z</time></trkpt><trkpt lat="41.3879658" lon="1.862205"><ele>538.25</ele><time>2026-04-04T12:45:05.067Z</time></trkpt><trkpt lat="41.3879191" lon="1.8623674"><ele>537.0</ele><time>2026-04-04T12:45:06.056Z</time></trkpt><trkpt lat="41.3878786" lon="1.8625248"><ele>537.25</ele><time>2026-04-04T12:45:07.07Z</time></trkpt><trkpt lat="41.3878313" lon="1.8626643"><ele>537.5</ele><time>2026-04-04T12:45:08.061Z</time></trkpt><trkpt lat="41.387781" lon="1.8628047"><ele>537.75</ele><time>2026-04-04T12:45:09.065Z</time></trkpt><trkpt lat="41.3877391" lon="1.8629575"><ele>538.0</ele><time>2026-04-04T12:45:10.067Z</time></trkpt><trkpt lat="41.3877162" lon="1.8631244"><ele>537.0</ele><time>2026-04-04T12:45:11.295Z</time></trkpt><trkpt lat="41.3877255" lon="1.8634562"><ele>536.0</ele><time>2026-04-04T12:45:13.062Z</time></trkpt><trkpt lat="41.3877326" lon="1.8636269"><ele>535.0</ele><time>2026-04-04T12:45:14.06Z</time></trkpt><trkpt lat="41.387725" lon="1.8637942"><ele>535.0</ele><time>2026-04-04T12:45:15.058Z</time></trkpt><trkpt lat="41.3877027" lon="1.8639439"><ele>535.0</ele><time>2026-04-04T12:45:16.073Z</time></trkpt><trkpt lat="41.3876817" lon="1.8640758"><ele>535.0</ele><time>2026-04-04T12:45:17.065Z</time></trkpt><trkpt lat="41.3876603" lon="1.8642036"><ele>535.0</ele><time>2026-04-04T12:45:18.064Z</time></trkpt><trkpt lat="41.3876467" lon="1.8643265"><ele>535.0</ele><time>2026-04-04T12:45:19.061Z</time></trkpt><trkpt lat="41.387639" lon="1.8644392"><ele>534.1666666666667</ele><time>2026-04-04T12:45:20.055Z</time></trkpt><trkpt lat="41.387647" lon="1.8645353"><ele>533.3333333333334</ele><time>2026-04-04T12:45:21.066Z</time></trkpt><trkpt lat="41.3876787" lon="1.8646242"><ele>532.5</ele><time>2026-04-04T12:45:22.063Z</time></trkpt><trkpt lat="41.3877239" lon="1.8647091"><ele>531.6666666666666</ele><time>2026-04-04T12:45:23.06Z</time></trkpt><trkpt lat="41.3877706" lon="1.864791"><ele>530.8333333333333</ele><time>2026-04-04T12:45:24.055Z</time></trkpt><trkpt lat="41.3878087" lon="1.8648668"><ele>530.0</ele><time>2026-04-04T12:45:25.055Z</time></trkpt><trkpt lat="41.3878284" lon="1.8650119"><ele>529.2</ele><time>2026-04-04T12:45:27.058Z</time></trkpt><trkpt lat="41.3877834" lon="1.8651558"><ele>528.4</ele><time>2026-04-04T12:45:29.061Z</time></trkpt><trkpt lat="41.3877397" lon="1.8652231"><ele>527.6</ele><time>2026-04-04T12:45:30.061Z</time></trkpt><trkpt lat="41.3876739" lon="1.8652933"><ele>526.8</ele><time>2026-04-04T12:45:31.064Z</time></trkpt><trkpt lat="41.3875967" lon="1.8653747"><ele>526.0</ele><time>2026-04-04T12:45:32.064Z</time></trkpt><trkpt lat="41.3875289" lon="1.8654664"><ele>526.0</ele><time>2026-04-04T12:45:33.062Z</time></trkpt><trkpt lat="41.3874777" lon="1.8655684"><ele>526.0</ele><time>2026-04-04T12:45:34.008Z</time></trkpt><trkpt lat="41.3874349" lon="1.8656823"><ele>526.0</ele><time>2026-04-04T12:45:35.068Z</time></trkpt><trkpt lat="41.3873963" lon="1.8657969"><ele>526.0</ele><time>2026-04-04T12:45:36.056Z</time></trkpt><trkpt lat="41.3873545" lon="1.8659128"><ele>526.0</ele><time>2026-04-04T12:45:37.064Z</time></trkpt><trkpt lat="41.3873113" lon="1.8660244"><ele>523.0</ele><time>2026-04-04T12:45:38.058Z</time></trkpt><trkpt lat="41.3872755" lon="1.8661443"><ele>520.0</ele><time>2026-04-04T12:45:39.063Z</time></trkpt><trkpt lat="41.3872412" lon="1.8662629"><ele>517.0</ele><time>2026-04-04T12:45:40.047Z</time></trkpt><trkpt lat="41.3872118" lon="1.8663914"><ele>514.0</ele><time>2026-04-04T12:45:41.064Z</time></trkpt><trkpt lat="41.3871882" lon="1.8665339"><ele>511.0</ele><time>2026-04-04T12:45:42.057Z</time></trkpt><trkpt lat="41.3871764" lon="1.8666946"><ele>507.25</ele><time>2026-04-04T12:45:43.055Z</time></trkpt><trkpt lat="41.3871684" lon="1.8668611"><ele>503.5</ele><time>2026-04-04T12:45:44.02Z</time></trkpt><trkpt lat="41.3871521" lon="1.8670416"><ele>499.75</ele><time>2026-04-04T12:45:45.061Z</time></trkpt><trkpt lat="41.3871341" lon="1.8672286"><ele>496.0</ele><time>2026-04-04T12:45:46.064Z</time></trkpt><trkpt lat="41.3871283" lon="1.8674045"><ele>496.0</ele><time>2026-04-04T12:45:47.068Z</time></trkpt><trkpt lat="41.3871267" lon="1.8675555"><ele>496.0</ele><time>2026-04-04T12:45:48.067Z</time></trkpt><trkpt lat="41.3871349" lon="1.8676811"><ele>496.0</ele><time>2026-04-04T12:45:49.063Z</time></trkpt><trkpt lat="41.3871566" lon="1.8678029"><ele>496.0</ele><time>2026-04-04T12:45:50.062Z</time></trkpt><trkpt lat="41.3871939" lon="1.8679325"><ele>496.0</ele><time>2026-04-04T12:45:51.051Z</time></trkpt><trkpt lat="41.3872276" lon="1.8680815"><ele>497.25</ele><time>2026-04-04T12:45:52.066Z</time></trkpt><trkpt lat="41.3872473" lon="1.8682465"><ele>498.5</ele><time>2026-04-04T12:45:53.062Z</time></trkpt><trkpt lat="41.3872602" lon="1.8684249"><ele>499.75</ele><time>2026-04-04T12:45:54.073Z</time></trkpt><trkpt lat="41.3872816" lon="1.8686122"><ele>501.0</ele><time>2026-04-04T12:45:55.06Z</time></trkpt><trkpt lat="41.3873091" lon="1.8687985"><ele>501.25</ele><time>2026-04-04T12:45:56.062Z</time></trkpt><trkpt lat="41.3873407" lon="1.8689795"><ele>501.5</ele><time>2026-04-04T12:45:57.066Z</time></trkpt><trkpt lat="41.3873726" lon="1.8691359"><ele>501.75</ele><time>2026-04-04T12:45:58.062Z</time></trkpt><trkpt lat="41.3873979" lon="1.8692695"><ele>502.0</ele><time>2026-04-04T12:45:59.067Z</time></trkpt><trkpt lat="41.387416" lon="1.8693861"><ele>502.0</ele><time>2026-04-04T12:46:00.06Z</time></trkpt><trkpt lat="41.3874393" lon="1.8694967"><ele>502.00000000000006</ele><time>2026-04-04T12:46:01.063Z</time></trkpt><trkpt lat="41.3874675" lon="1.8696158"><ele>502.00000000000006</ele><time>2026-04-04T12:46:02.068Z</time></trkpt><trkpt lat="41.3874961" lon="1.8697458"><ele>502.0</ele><time>2026-04-04T12:46:03.063Z</time></trkpt><trkpt lat="41.3875208" lon="1.8698923"><ele>502.0</ele><time>2026-04-04T12:46:04.058Z</time></trkpt><trkpt lat="41.3875421" lon="1.8700557"><ele>500.75</ele><time>2026-04-04T12:46:05.057Z</time></trkpt><trkpt lat="41.3875656" lon="1.8702305"><ele>499.5</ele><time>2026-04-04T12:46:06.064Z</time></trkpt><trkpt lat="41.3875897" lon="1.8704147"><ele>498.25</ele><time>2026-04-04T12:46:07.057Z</time></trkpt><trkpt lat="41.3876182" lon="1.8706123"><ele>497.0</ele><time>2026-04-04T12:46:08.061Z</time></trkpt><trkpt lat="41.3876275" lon="1.8708252"><ele>496.3333333333333</ele><time>2026-04-04T12:46:09.062Z</time></trkpt><trkpt lat="41.3876615" lon="1.8710315"><ele>495.66666666666663</ele><time>2026-04-04T12:46:10.061Z</time></trkpt><trkpt lat="41.3877081" lon="1.8712289"><ele>495.0</ele><time>2026-04-04T12:46:11.055Z</time></trkpt><trkpt lat="41.3877578" lon="1.8713992"><ele>495.0</ele><time>2026-04-04T12:46:12.07Z</time></trkpt><trkpt lat="41.387802" lon="1.8715255"><ele>495.0</ele><time>2026-04-04T12:46:13.051Z</time></trkpt><trkpt lat="41.3878722" lon="1.8716208"><ele>495.0</ele><time>2026-04-04T12:46:14.059Z</time></trkpt><trkpt lat="41.3879581" lon="1.8717136"><ele>495.0</ele><time>2026-04-04T12:46:15.065Z</time></trkpt><trkpt lat="41.3880295" lon="1.8718108"><ele>495.0</ele><time>2026-04-04T12:46:16.057Z</time></trkpt><trkpt lat="41.3880737" lon="1.871916"><ele>496.6</ele><time>2026-04-04T12:46:17.007Z</time></trkpt><trkpt lat="41.3880794" lon="1.8720427"><ele>498.2</ele><time>2026-04-04T12:46:18.063Z</time></trkpt><trkpt lat="41.388084" lon="1.8721922"><ele>499.79999999999995</ele><time>2026-04-04T12:46:19.065Z</time></trkpt><trkpt lat="41.388094" lon="1.872349"><ele>501.4</ele><time>2026-04-04T12:46:20.058Z</time></trkpt><trkpt lat="41.3880978" lon="1.872511"><ele>503.0</ele><time>2026-04-04T12:46:21.063Z</time></trkpt><trkpt lat="41.388098" lon="1.8726791"><ele>503.0</ele><time>2026-04-04T12:46:22.059Z</time></trkpt><trkpt lat="41.3881074" lon="1.8728414"><ele>503.0</ele><time>2026-04-04T12:46:23.063Z</time></trkpt><trkpt lat="41.3881364" lon="1.8729927"><ele>503.0</ele><time>2026-04-04T12:46:24.065Z</time></trkpt><trkpt lat="41.3881949" lon="1.8731456"><ele>503.0</ele><time>2026-04-04T12:46:25.067Z</time></trkpt><trkpt lat="41.3882764" lon="1.8733058"><ele>503.0</ele><time>2026-04-04T12:46:26.067Z</time></trkpt><trkpt lat="41.3883721" lon="1.8734582"><ele>503.0</ele><time>2026-04-04T12:46:27.068Z</time></trkpt><trkpt lat="41.3884775" lon="1.8736102"><ele>503.0</ele><time>2026-04-04T12:46:28.073Z</time></trkpt><trkpt lat="41.3885852" lon="1.8737585"><ele>503.0</ele><time>2026-04-04T12:46:29.069Z</time></trkpt><trkpt lat="41.3886612" lon="1.8739017"><ele>503.0</ele><time>2026-04-04T12:46:30.068Z</time></trkpt><trkpt lat="41.3887337" lon="1.874038"><ele>503.0</ele><time>2026-04-04T12:46:31.056Z</time></trkpt><trkpt lat="41.3888046" lon="1.8741589"><ele>503.0</ele><time>2026-04-04T12:46:32.069Z</time></trkpt><trkpt lat="41.3888724" lon="1.8742375"><ele>501.8333333333333</ele><time>2026-04-04T12:46:33.063Z</time></trkpt><trkpt lat="41.3889287" lon="1.8743027"><ele>500.66666666666663</ele><time>2026-04-04T12:46:34.068Z</time></trkpt><trkpt lat="41.3889787" lon="1.8743929"><ele>499.5</ele><time>2026-04-04T12:46:36.045Z</time></trkpt><trkpt lat="41.3889841" lon="1.8744855"><ele>498.33333333333337</ele><time>2026-04-04T12:46:38.071Z</time></trkpt><trkpt lat="41.3889556" lon="1.8745858"><ele>497.1666666666667</ele><time>2026-04-04T12:47:09.075Z</time></trkpt><trkpt lat="41.3889423" lon="1.8746764"><ele>496.0</ele><time>2026-04-04T12:47:12.075Z</time></trkpt><trkpt lat="41.3889597" lon="1.8744545"><ele>496.0</ele><time>2026-04-04T12:47:29.098Z</time></trkpt><trkpt lat="41.3889543" lon="1.8743616"><ele>496.0</ele><time>2026-04-04T12:47:30.1Z</time></trkpt><trkpt lat="41.3888217" lon="1.8741039"><ele>496.0</ele><time>2026-04-04T12:47:33.087Z</time></trkpt><trkpt lat="41.388554" lon="1.8736812"><ele>497.4</ele><time>2026-04-04T12:47:37.094Z</time></trkpt><trkpt lat="41.3884866" lon="1.8735604"><ele>498.8</ele><time>2026-04-04T12:47:38.091Z</time></trkpt><trkpt lat="41.388419" lon="1.8734507"><ele>500.19999999999993</ele><time>2026-04-04T12:47:39.098Z</time></trkpt><trkpt lat="41.3883633" lon="1.8733479"><ele>501.59999999999997</ele><time>2026-04-04T12:47:40.095Z</time></trkpt><trkpt lat="41.3883117" lon="1.8732468"><ele>503.0</ele><time>2026-04-04T12:47:41.099Z</time></trkpt><trkpt lat="41.3882517" lon="1.8731474"><ele>503.0</ele><time>2026-04-04T12:47:42.091Z</time></trkpt><trkpt lat="41.3881839" lon="1.8730394"><ele>503.0</ele><time>2026-04-04T12:47:43.097Z</time></trkpt><trkpt lat="41.3881188" lon="1.8729093"><ele>503.0</ele><time>2026-04-04T12:47:44.108Z</time></trkpt><trkpt lat="41.3880715" lon="1.87277"><ele>503.0</ele><time>2026-04-04T12:47:45.105Z</time></trkpt><trkpt lat="41.3880412" lon="1.8726118"><ele>503.2</ele><time>2026-04-04T12:47:46.095Z</time></trkpt><trkpt lat="41.3880331" lon="1.872457"><ele>503.4</ele><time>2026-04-04T12:47:47.107Z</time></trkpt><trkpt lat="41.3880364" lon="1.8723143"><ele>503.59999999999997</ele><time>2026-04-04T12:47:48.098Z</time></trkpt><trkpt lat="41.3880405" lon="1.8721815"><ele>503.79999999999995</ele><time>2026-04-04T12:47:49.117Z</time></trkpt><trkpt lat="41.3880394" lon="1.8720656"><ele>504.0</ele><time>2026-04-04T12:47:50.099Z</time></trkpt><trkpt lat="41.3880331" lon="1.8719566"><ele>504.0</ele><time>2026-04-04T12:47:51.107Z</time></trkpt><trkpt lat="41.3880271" lon="1.8718583"><ele>504.0</ele><time>2026-04-04T12:47:52.11Z</time></trkpt><trkpt lat="41.388014" lon="1.8717684"><ele>504.0</ele><time>2026-04-04T12:47:53.104Z</time></trkpt><trkpt lat="41.3879499" lon="1.8716342"><ele>504.0</ele><time>2026-04-04T12:47:55.084Z</time></trkpt><trkpt lat="41.3878584" lon="1.8715329"><ele>504.0</ele><time>2026-04-04T12:47:57.097Z</time></trkpt><trkpt lat="41.38777" lon="1.8714387"><ele>502.5</ele><time>2026-04-04T12:47:59.102Z</time></trkpt><trkpt lat="41.3877097" lon="1.8713338"><ele>501.0</ele><time>2026-04-04T12:48:01.116Z</time></trkpt><trkpt lat="41.3876949" lon="1.8712464"><ele>499.5</ele><time>2026-04-04T12:48:03.07Z</time></trkpt><trkpt lat="41.3877707" lon="1.871182"><ele>498.0</ele><time>2026-04-04T12:48:05.073Z</time></trkpt><trkpt lat="41.3878856" lon="1.8711264"><ele>496.5</ele><time>2026-04-04T12:48:07.063Z</time></trkpt><trkpt lat="41.3879476" lon="1.8710928"><ele>495.0</ele><time>2026-04-04T12:48:08.066Z</time></trkpt><trkpt lat="41.3880063" lon="1.8710476"><ele>495.4</ele><time>2026-04-04T12:48:09.061Z</time></trkpt><trkpt lat="41.3880879" lon="1.8709391"><ele>495.8</ele><time>2026-04-04T12:48:11.068Z</time></trkpt><trkpt lat="41.3881581" lon="1.8708597"><ele>496.20000000000005</ele><time>2026-04-04T12:48:13.072Z</time></trkpt><trkpt lat="41.3882691" lon="1.8707908"><ele>496.6</ele><time>2026-04-04T12:48:15.067Z</time></trkpt><trkpt lat="41.3883803" lon="1.8707515"><ele>497.0</ele><time>2026-04-04T12:48:17.032Z</time></trkpt><trkpt lat="41.3884711" lon="1.8706852"><ele>496.99999999999994</ele><time>2026-04-04T12:48:19.072Z</time></trkpt><trkpt lat="41.3885394" lon="1.8706116"><ele>497.0</ele><time>2026-04-04T12:48:21.085Z</time></trkpt><trkpt lat="41.3886123" lon="1.8705351"><ele>497.0</ele><time>2026-04-04T12:48:23.067Z</time></trkpt><trkpt lat="41.3886974" lon="1.8704784"><ele>497.0</ele><time>2026-04-04T12:48:25.067Z</time></trkpt><trkpt lat="41.3887535" lon="1.8704053"><ele>496.99999999999994</ele><time>2026-04-04T12:48:27.077Z</time></trkpt><trkpt lat="41.3887857" lon="1.8703302"><ele>497.0</ele><time>2026-04-04T12:48:29.073Z</time></trkpt><trkpt lat="41.3888235" lon="1.8702601"><ele>496.42857142857144</ele><time>2026-04-04T12:48:31.068Z</time></trkpt><trkpt lat="41.3888797" lon="1.8701924"><ele>495.8571428571429</ele><time>2026-04-04T12:48:33.073Z</time></trkpt><trkpt lat="41.3889396" lon="1.8701339"><ele>495.2857142857143</ele><time>2026-04-04T12:48:35.07Z</time></trkpt><trkpt lat="41.3889938" lon="1.8700781"><ele>494.7142857142857</ele><time>2026-04-04T12:48:37.083Z</time></trkpt><trkpt lat="41.3890587" lon="1.8700246"><ele>494.14285714285717</ele><time>2026-04-04T12:48:39.082Z</time></trkpt><trkpt lat="41.3891171" lon="1.8699857"><ele>493.57142857142856</ele><time>2026-04-04T12:48:41.042Z</time></trkpt><trkpt lat="41.3891972" lon="1.869937"><ele>493.0</ele><time>2026-04-04T12:48:44.079Z</time></trkpt><trkpt lat="41.3892696" lon="1.8698912"><ele>491.00000000000006</ele><time>2026-04-04T12:48:46.09Z</time></trkpt><trkpt lat="41.3893721" lon="1.8698511"><ele>489.0</ele><time>2026-04-04T12:48:48.067Z</time></trkpt><trkpt lat="41.3894578" lon="1.8698037"><ele>487.0</ele><time>2026-04-04T12:48:50.08Z</time></trkpt><trkpt lat="41.3895368" lon="1.869748"><ele>485.0</ele><time>2026-04-04T12:48:52.093Z</time></trkpt><trkpt lat="41.3895938" lon="1.8696984"><ele>483.00000000000006</ele><time>2026-04-04T12:48:54.081Z</time></trkpt><trkpt lat="41.3896523" lon="1.8696592"><ele>481.0</ele><time>2026-04-04T12:48:56.108Z</time></trkpt><trkpt lat="41.3897237" lon="1.8696822"><ele>478.8</ele><time>2026-04-04T12:48:59.075Z</time></trkpt><trkpt lat="41.3897768" lon="1.8697329"><ele>476.6</ele><time>2026-04-04T12:49:01.08Z</time></trkpt><trkpt lat="41.3898432" lon="1.8698077"><ele>474.4</ele><time>2026-04-04T12:49:03.044Z</time></trkpt><trkpt lat="41.3899217" lon="1.8698953"><ele>472.2</ele><time>2026-04-04T12:49:05.084Z</time></trkpt><trkpt lat="41.3900044" lon="1.8699617"><ele>470.0</ele><time>2026-04-04T12:49:07.085Z</time></trkpt><trkpt lat="41.3900841" lon="1.8700464"><ele>470.8</ele><time>2026-04-04T12:49:09.073Z</time></trkpt><trkpt lat="41.3901392" lon="1.8701619"><ele>471.6</ele><time>2026-04-04T12:49:11.075Z</time></trkpt><trkpt lat="41.3901504" lon="1.8702999"><ele>472.4</ele><time>2026-04-04T12:49:13.078Z</time></trkpt><trkpt lat="41.3901516" lon="1.8704393"><ele>473.2</ele><time>2026-04-04T12:49:15.086Z</time></trkpt><trkpt lat="41.3902223" lon="1.8705077"><ele>474.0</ele><time>2026-04-04T12:49:18.084Z</time></trkpt><trkpt lat="41.3903182" lon="1.8704546"><ele>474.0</ele><time>2026-04-04T12:49:20.091Z</time></trkpt><trkpt lat="41.3904021" lon="1.8704177"><ele>474.0</ele><time>2026-04-04T12:49:22.085Z</time></trkpt><trkpt lat="41.3904715" lon="1.8704387"><ele>474.0</ele><time>2026-04-04T12:49:24.087Z</time></trkpt><trkpt lat="41.3905507" lon="1.8704746"><ele>474.0</ele><time>2026-04-04T12:49:26.076Z</time></trkpt><trkpt lat="41.3906372" lon="1.8704934"><ele>474.0</ele><time>2026-04-04T12:49:28.09Z</time></trkpt><trkpt lat="41.3907148" lon="1.8704991"><ele>474.0</ele><time>2026-04-04T12:49:30.077Z</time></trkpt><trkpt lat="41.3907772" lon="1.8705136"><ele>473.1666666666667</ele><time>2026-04-04T12:49:32.073Z</time></trkpt><trkpt lat="41.3908527" lon="1.870514"><ele>472.33333333333337</ele><time>2026-04-04T12:49:35.077Z</time></trkpt><trkpt lat="41.3909146" lon="1.8705527"><ele>471.5</ele><time>2026-04-04T12:49:38.094Z</time></trkpt><trkpt lat="41.3909825" lon="1.8706085"><ele>470.6666666666667</ele><time>2026-04-04T12:49:41.08Z</time></trkpt><trkpt lat="41.3910684" lon="1.8706244"><ele>469.83333333333337</ele><time>2026-04-04T12:52:51.07Z</time></trkpt><trkpt lat="41.3911605" lon="1.8706518"><ele>469.0</ele><time>2026-04-04T12:52:53.08Z</time></trkpt><trkpt lat="41.3912443" lon="1.8706992"><ele>469.0</ele><time>2026-04-04T12:52:55.072Z</time></trkpt><trkpt lat="41.3913163" lon="1.8707364"><ele>469.0</ele><time>2026-04-04T12:52:59.096Z</time></trkpt><trkpt lat="41.3913896" lon="1.8707686"><ele>469.0</ele><time>2026-04-04T12:53:02.085Z</time></trkpt><trkpt lat="41.3914657" lon="1.8707777"><ele>469.0</ele><time>2026-04-04T12:53:05.092Z</time></trkpt><trkpt lat="41.3915265" lon="1.8708224"><ele>469.0</ele><time>2026-04-04T12:53:09.107Z</time></trkpt><trkpt lat="41.3915835" lon="1.8708926"><ele>469.0</ele><time>2026-04-04T12:53:14.102Z</time></trkpt><trkpt lat="41.3916329" lon="1.8709572"><ele>469.0</ele><time>2026-04-04T12:53:19.097Z</time></trkpt><trkpt lat="41.3917025" lon="1.8710319"><ele>469.83333333333337</ele><time>2026-04-04T12:53:24.032Z</time></trkpt><trkpt lat="41.391751" lon="1.8710891"><ele>470.6666666666667</ele><time>2026-04-04T12:53:26.077Z</time></trkpt><trkpt lat="41.3918134" lon="1.8711781"><ele>471.5</ele><time>2026-04-04T12:53:29.079Z</time></trkpt><trkpt lat="41.3918612" lon="1.871261"><ele>472.33333333333337</ele><time>2026-04-04T12:53:31.082Z</time></trkpt><trkpt lat="41.391914" lon="1.8713657"><ele>473.1666666666667</ele><time>2026-04-04T12:53:33.082Z</time></trkpt><trkpt lat="41.3919827" lon="1.8714756"><ele>474.0</ele><time>2026-04-04T12:53:35.071Z</time></trkpt><trkpt lat="41.3920616" lon="1.8715757"><ele>474.0</ele><time>2026-04-04T12:53:37.076Z</time></trkpt><trkpt lat="41.3921457" lon="1.871655"><ele>474.0</ele><time>2026-04-04T12:53:39.077Z</time></trkpt><trkpt lat="41.39224" lon="1.8717278"><ele>474.0</ele><time>2026-04-04T12:53:41.074Z</time></trkpt><trkpt lat="41.3923332" lon="1.8717896"><ele>474.0</ele><time>2026-04-04T12:53:43.075Z</time></trkpt><trkpt lat="41.3924146" lon="1.8718752"><ele>474.0</ele><time>2026-04-04T12:53:45.094Z</time></trkpt><trkpt lat="41.392507" lon="1.871969"><ele>476.3333333333333</ele><time>2026-04-04T12:53:47.078Z</time></trkpt><trkpt lat="41.3925652" lon="1.8720029"><ele>478.66666666666663</ele><time>2026-04-04T12:53:48.069Z</time></trkpt><trkpt lat="41.3926274" lon="1.8720198"><ele>481.0</ele><time>2026-04-04T12:53:49.078Z</time></trkpt><trkpt lat="41.3927222" lon="1.8720258"><ele>483.3333333333333</ele><time>2026-04-04T12:53:51.066Z</time></trkpt><trkpt lat="41.3927723" lon="1.8719608"><ele>485.66666666666663</ele><time>2026-04-04T12:53:57.084Z</time></trkpt><trkpt lat="41.3928162" lon="1.8718804"><ele>488.0</ele><time>2026-04-04T12:54:00.083Z</time></trkpt><trkpt lat="41.3928965" lon="1.8718513"><ele>489.2</ele><time>2026-04-04T12:54:02.075Z</time></trkpt><trkpt lat="41.3930081" lon="1.8718293"><ele>490.4</ele><time>2026-04-04T12:54:04.075Z</time></trkpt><trkpt lat="41.3931319" lon="1.8718104"><ele>491.59999999999997</ele><time>2026-04-04T12:54:06.066Z</time></trkpt><trkpt lat="41.3931978" lon="1.8718007"><ele>492.79999999999995</ele><time>2026-04-04T12:54:07.065Z</time></trkpt><trkpt lat="41.3932618" lon="1.8717945"><ele>494.0</ele><time>2026-04-04T12:54:08.075Z</time></trkpt><trkpt lat="41.3933693" lon="1.8718024"><ele>493.99999999999994</ele><time>2026-04-04T12:54:10.088Z</time></trkpt><trkpt lat="41.3934702" lon="1.8718475"><ele>494.0</ele><time>2026-04-04T12:54:12.072Z</time></trkpt><trkpt lat="41.3935661" lon="1.8719012"><ele>494.0</ele><time>2026-04-04T12:54:14.066Z</time></trkpt><trkpt lat="41.3936261" lon="1.8719401"><ele>494.0</ele><time>2026-04-04T12:54:18.07Z</time></trkpt><trkpt lat="41.3936996" lon="1.8719371"><ele>493.99999999999994</ele><time>2026-04-04T12:54:21.068Z</time></trkpt><trkpt lat="41.3937698" lon="1.8719439"><ele>494.0</ele><time>2026-04-04T12:54:23.073Z</time></trkpt><trkpt lat="41.3938347" lon="1.8719296"><ele>495.3333333333333</ele><time>2026-04-04T12:54:25.083Z</time></trkpt><trkpt lat="41.393904" lon="1.8719147"><ele>496.66666666666663</ele><time>2026-04-04T12:54:28.073Z</time></trkpt><trkpt lat="41.3939686" lon="1.8718875"><ele>498.0</ele><time>2026-04-04T12:54:41.097Z</time></trkpt><trkpt lat="41.3940322" lon="1.8718971"><ele>499.33333333333337</ele><time>2026-04-04T12:55:06.084Z</time></trkpt><trkpt lat="41.3941033" lon="1.8719113"><ele>500.6666666666667</ele><time>2026-04-04T12:55:11.095Z</time></trkpt><trkpt lat="41.3942006" lon="1.8719666"><ele>502.0</ele><time>2026-04-04T12:56:02.08Z</time></trkpt><trkpt lat="41.3942812" lon="1.8719954"><ele>502.0</ele><time>2026-04-04T12:56:05.073Z</time></trkpt><trkpt lat="41.3943605" lon="1.8720201"><ele>502.0</ele><time>2026-04-04T12:56:07.092Z</time></trkpt></trkseg><trkseg><trkpt lat="41.3950002" lon="1.8719551"><ele>503.0</ele><time>2026-04-04T13:33:02.079Z</time></trkpt><trkpt lat="41.3950641" lon="1.8720048"><ele>503.00000000000006</ele><time>2026-04-04T13:33:04.085Z</time></trkpt><trkpt lat="41.3951373" lon="1.8720047"><ele>503.0</ele><time>2026-04-04T13:33:44.078Z</time></trkpt><trkpt lat="41.3952105" lon="1.8720294"><ele>503.0</ele><time>2026-04-04T13:38:40.075Z</time></trkpt><trkpt lat="41.3952727" lon="1.8720612"><ele>503.00000000000006</ele><time>2026-04-04T13:38:49.077Z</time></trkpt><trkpt lat="41.3953343" lon="1.8720849"><ele>503.0</ele><time>2026-04-04T13:38:51.066Z</time></trkpt><trkpt lat="41.395404" lon="1.8721074"><ele>503.0</ele><time>2026-04-04T13:38:53.067Z</time></trkpt><trkpt lat="41.3954797" lon="1.8721327"><ele>503.7142857142857</ele><time>2026-04-04T13:38:55.07Z</time></trkpt><trkpt lat="41.3955438" lon="1.8721486"><ele>504.42857142857144</ele><time>2026-04-04T13:38:57.07Z</time></trkpt><trkpt lat="41.3956002" lon="1.8721891"><ele>505.14285714285717</ele><time>2026-04-04T13:38:59.089Z</time></trkpt><trkpt lat="41.3956754" lon="1.8722613"><ele>505.8571428571429</ele><time>2026-04-04T13:39:02.077Z</time></trkpt><trkpt lat="41.3957259" lon="1.8723156"><ele>506.57142857142856</ele><time>2026-04-04T13:39:04.095Z</time></trkpt><trkpt lat="41.3957915" lon="1.8723916"><ele>507.28571428571433</ele><time>2026-04-04T13:39:07.073Z</time></trkpt><trkpt lat="41.3958432" lon="1.8724448"><ele>508.0</ele><time>2026-04-04T13:39:09.091Z</time></trkpt><trkpt lat="41.3958851" lon="1.8725402"><ele>508.0</ele><time>2026-04-04T13:39:36.068Z</time></trkpt><trkpt lat="41.3958357" lon="1.8724854"><ele>508.0</ele><time>2026-04-04T13:43:12.113Z</time></trkpt><trkpt lat="41.3957797" lon="1.8724069"><ele>508.0</ele><time>2026-04-04T13:43:15.112Z</time></trkpt><trkpt lat="41.3957188" lon="1.8723294"><ele>508.0</ele><time>2026-04-04T13:43:19.108Z</time></trkpt><trkpt lat="41.3956685" lon="1.8722714"><ele>508.0</ele><time>2026-04-04T13:43:22.107Z</time></trkpt><trkpt lat="41.3956138" lon="1.8722296"><ele>508.0</ele><time>2026-04-04T13:43:24.105Z</time></trkpt><trkpt lat="41.3955406" lon="1.8721862"><ele>508.0</ele><time>2026-04-04T13:43:26.101Z</time></trkpt><trkpt lat="41.3954614" lon="1.8721553"><ele>507.1666666666667</ele><time>2026-04-04T13:43:28.126Z</time></trkpt><trkpt lat="41.395377" lon="1.8721178"><ele>506.33333333333337</ele><time>2026-04-04T13:43:30.109Z</time></trkpt><trkpt lat="41.395285" lon="1.8720804"><ele>505.5</ele><time>2026-04-04T13:43:32.124Z</time></trkpt><trkpt lat="41.3952107" lon="1.8720671"><ele>504.66666666666663</ele><time>2026-04-04T13:43:37.107Z</time></trkpt><trkpt lat="41.3951417" lon="1.8720473"><ele>503.8333333333333</ele><time>2026-04-04T13:44:35.112Z</time></trkpt><trkpt lat="41.3950702" lon="1.8720359"><ele>503.0</ele><time>2026-04-04T13:45:23.065Z</time></trkpt><trkpt lat="41.3949877" lon="1.8720091"><ele>502.99999999999994</ele><time>2026-04-04T13:45:25.06Z</time></trkpt><trkpt lat="41.3948989" lon="1.8719564"><ele>503.0</ele><time>2026-04-04T13:45:27.056Z</time></trkpt><trkpt lat="41.3948363" lon="1.8719371"><ele>503.0</ele><time>2026-04-04T13:45:29.057Z</time></trkpt><trkpt lat="41.3947525" lon="1.8719347"><ele>503.0</ele><time>2026-04-04T13:45:32.053Z</time></trkpt><trkpt lat="41.394687" lon="1.871948"><ele>502.99999999999994</ele><time>2026-04-04T13:45:36.062Z</time></trkpt><trkpt lat="41.394616" lon="1.8719826"><ele>503.0</ele><time>2026-04-04T13:45:39.059Z</time></trkpt><trkpt lat="41.3945602" lon="1.8720455"><ele>502.8571428571429</ele><time>2026-04-04T13:45:42.056Z</time></trkpt><trkpt lat="41.3945004" lon="1.8720835"><ele>502.7142857142858</ele><time>2026-04-04T13:45:46.069Z</time></trkpt><trkpt lat="41.3944401" lon="1.8721207"><ele>502.57142857142856</ele><time>2026-04-04T13:45:54.068Z</time></trkpt><trkpt lat="41.3943879" lon="1.8720683"><ele>502.42857142857144</ele><time>2026-04-04T14:01:34.094Z</time></trkpt><trkpt lat="41.394311" lon="1.8720297"><ele>502.2857142857143</ele><time>2026-04-04T14:01:37.081Z</time></trkpt><trkpt lat="41.3942431" lon="1.8719878"><ele>502.1428571428571</ele><time>2026-04-04T14:01:56.085Z</time></trkpt><trkpt lat="41.3941732" lon="1.8719647"><ele>501.99999999999994</ele><time>2026-04-04T14:02:01.088Z</time></trkpt><trkpt lat="41.3941047" lon="1.871928"><ele>502.00000000000006</ele><time>2026-04-04T14:02:11.08Z</time></trkpt><trkpt lat="41.3940316" lon="1.8719046"><ele>502.0</ele><time>2026-04-04T14:02:14.078Z</time></trkpt><trkpt lat="41.3939674" lon="1.871919"><ele>502.0</ele><time>2026-04-04T14:02:16.081Z</time></trkpt><trkpt lat="41.3938872" lon="1.8719533"><ele>502.0</ele><time>2026-04-04T14:03:42.084Z</time></trkpt><trkpt lat="41.3938109" lon="1.8719592"><ele>502.00000000000006</ele><time>2026-04-04T14:03:45.09Z</time></trkpt><trkpt lat="41.3937146" lon="1.8719676"><ele>502.0</ele><time>2026-04-04T14:03:48.089Z</time></trkpt><trkpt lat="41.3936432" lon="1.8719563"><ele>500.40000000000003</ele><time>2026-04-04T14:03:50.076Z</time></trkpt><trkpt lat="41.3935653" lon="1.8719356"><ele>498.80000000000007</ele><time>2026-04-04T14:03:52.082Z</time></trkpt><trkpt lat="41.3934743" lon="1.871898"><ele>497.2</ele><time>2026-04-04T14:03:54.087Z</time></trkpt><trkpt lat="41.393388" lon="1.8718464"><ele>495.6</ele><time>2026-04-04T14:03:56.085Z</time></trkpt><trkpt lat="41.3932912" lon="1.8718252"><ele>494.0</ele><time>2026-04-04T14:03:58.078Z</time></trkpt><trkpt lat="41.3931939" lon="1.8718096"><ele>493.99999999999994</ele><time>2026-04-04T14:04:00.08Z</time></trkpt><trkpt lat="41.3930906" lon="1.8718311"><ele>494.0</ele><time>2026-04-04T14:04:02.073Z</time></trkpt><trkpt lat="41.3930228" lon="1.8718506"><ele>494.0</ele><time>2026-04-04T14:04:03.067Z</time></trkpt><trkpt lat="41.3929533" lon="1.8718693"><ele>494.0</ele><time>2026-04-04T14:04:04.082Z</time></trkpt><trkpt lat="41.3928894" lon="1.8718881"><ele>493.99999999999994</ele><time>2026-04-04T14:04:05.068Z</time></trkpt><trkpt lat="41.3927904" lon="1.8719015"><ele>494.0</ele><time>2026-04-04T14:04:07.058Z</time></trkpt><trkpt lat="41.3927284" lon="1.8719679"><ele>492.79999999999995</ele><time>2026-04-04T14:04:10.077Z</time></trkpt><trkpt lat="41.3926637" lon="1.8720283"><ele>491.59999999999997</ele><time>2026-04-04T14:04:15.082Z</time></trkpt><trkpt lat="41.3925622" lon="1.8720115"><ele>490.4</ele><time>2026-04-04T14:04:17.093Z</time></trkpt><trkpt lat="41.3924538" lon="1.8719497"><ele>489.2</ele><time>2026-04-04T14:04:19.081Z</time></trkpt><trkpt lat="41.3923721" lon="1.8718431"><ele>488.0</ele><time>2026-04-04T14:04:21.101Z</time></trkpt><trkpt lat="41.3923189" lon="1.8717886"><ele>486.49999999999994</ele><time>2026-04-04T14:04:22.089Z</time></trkpt><trkpt lat="41.392246" lon="1.8717359"><ele>485.0</ele><time>2026-04-04T14:04:23.078Z</time></trkpt><trkpt lat="41.3921766" lon="1.8716817"><ele>483.5</ele><time>2026-04-04T14:04:24.074Z</time></trkpt><trkpt lat="41.3921112" lon="1.8716164"><ele>482.0</ele><time>2026-04-04T14:04:25.076Z</time></trkpt><trkpt lat="41.3920369" lon="1.8715525"><ele>480.49999999999994</ele><time>2026-04-04T14:04:26.077Z</time></trkpt><trkpt lat="41.3919736" lon="1.8714931"><ele>479.0</ele><time>2026-04-04T14:04:27.079Z</time></trkpt><trkpt lat="41.3919092" lon="1.8714187"><ele>478.16666666666663</ele><time>2026-04-04T14:04:28.081Z</time></trkpt><trkpt lat="41.3918506" lon="1.8713373"><ele>477.3333333333333</ele><time>2026-04-04T14:04:29.078Z</time></trkpt><trkpt lat="41.3917876" lon="1.8712398"><ele>476.5</ele><time>2026-04-04T14:04:30.078Z</time></trkpt><trkpt lat="41.39173" lon="1.8711359"><ele>475.66666666666663</ele><time>2026-04-04T14:04:31.074Z</time></trkpt><trkpt lat="41.3916794" lon="1.8710461"><ele>474.8333333333333</ele><time>2026-04-04T14:04:32.073Z</time></trkpt><trkpt lat="41.3916416" lon="1.8709749"><ele>474.0</ele><time>2026-04-04T14:04:33.072Z</time></trkpt><trkpt lat="41.3915688" lon="1.8708864"><ele>473.25</ele><time>2026-04-04T14:04:35.083Z</time></trkpt><trkpt lat="41.3914812" lon="1.8708227"><ele>472.5</ele><time>2026-04-04T14:04:37.099Z</time></trkpt><trkpt lat="41.3914181" lon="1.8707719"><ele>471.75</ele><time>2026-04-04T14:04:39.077Z</time></trkpt><trkpt lat="41.3913184" lon="1.8707797"><ele>471.0</ele><time>2026-04-04T14:06:24.079Z</time></trkpt><trkpt lat="41.3911513" lon="1.8706868"><ele>470.6</ele><time>2026-04-04T14:06:28.087Z</time></trkpt><trkpt lat="41.3910772" lon="1.8706404"><ele>470.20000000000005</ele><time>2026-04-04T14:06:30.078Z</time></trkpt><trkpt lat="41.3909997" lon="1.8706011"><ele>469.79999999999995</ele><time>2026-04-04T14:06:32.074Z</time></trkpt><trkpt lat="41.3909152" lon="1.8705639"><ele>469.4</ele><time>2026-04-04T14:06:34.079Z</time></trkpt><trkpt lat="41.390792" lon="1.8705095"><ele>469.0</ele><time>2026-04-04T14:06:36.064Z</time></trkpt><trkpt lat="41.3907209" lon="1.8704932"><ele>469.00000000000006</ele><time>2026-04-04T14:06:37.07Z</time></trkpt><trkpt lat="41.3906427" lon="1.870484"><ele>469.0</ele><time>2026-04-04T14:06:38.066Z</time></trkpt><trkpt lat="41.3905637" lon="1.8704749"><ele>469.0</ele><time>2026-04-04T14:06:39.082Z</time></trkpt><trkpt lat="41.390491" lon="1.8704637"><ele>469.0</ele><time>2026-04-04T14:06:40.084Z</time></trkpt><trkpt lat="41.390382" lon="1.8704499"><ele>469.00000000000006</ele><time>2026-04-04T14:06:42.077Z</time></trkpt><trkpt lat="41.3903563" lon="1.870355"><ele>469.0</ele><time>2026-04-04T14:07:17.075Z</time></trkpt><trkpt lat="41.3903738" lon="1.8701857"><ele>469.2</ele><time>2026-04-04T14:07:19.084Z</time></trkpt><trkpt lat="41.3903754" lon="1.8700682"><ele>469.4</ele><time>2026-04-04T14:07:20.09Z</time></trkpt><trkpt lat="41.3903674" lon="1.8699284"><ele>469.6</ele><time>2026-04-04T14:07:21.089Z</time></trkpt><trkpt lat="41.3903722" lon="1.869788"><ele>469.8</ele><time>2026-04-04T14:07:22.089Z</time></trkpt><trkpt lat="41.3903881" lon="1.8696611"><ele>470.0</ele><time>2026-04-04T14:07:23.087Z</time></trkpt><trkpt lat="41.3904074" lon="1.8695426"><ele>470.0</ele><time>2026-04-04T14:07:24.08Z</time></trkpt><trkpt lat="41.3904352" lon="1.8694467"><ele>470.0</ele><time>2026-04-04T14:07:25.092Z</time></trkpt><trkpt lat="41.3904993" lon="1.8693484"><ele>470.0</ele><time>2026-04-04T14:07:27.112Z</time></trkpt><trkpt lat="41.3905706" lon="1.8692643"><ele>470.0</ele><time>2026-04-04T14:07:31.108Z</time></trkpt><trkpt lat="41.3906168" lon="1.8691279"><ele>470.0</ele><time>2026-04-04T14:07:33.094Z</time></trkpt><trkpt lat="41.3906463" lon="1.8690324"><ele>468.49999999999994</ele><time>2026-04-04T14:07:34.102Z</time></trkpt><trkpt lat="41.3906824" lon="1.8689282"><ele>467.0</ele><time>2026-04-04T14:07:35.118Z</time></trkpt><trkpt lat="41.3907109" lon="1.8688292"><ele>465.5</ele><time>2026-04-04T14:07:36.104Z</time></trkpt><trkpt lat="41.3907447" lon="1.8687245"><ele>464.0</ele><time>2026-04-04T14:07:37.123Z</time></trkpt><trkpt lat="41.3907644" lon="1.8686255"><ele>462.49999999999994</ele><time>2026-04-04T14:07:38.105Z</time></trkpt><trkpt lat="41.3907866" lon="1.8685412"><ele>461.0</ele><time>2026-04-04T14:07:39.109Z</time></trkpt><trkpt lat="41.3908178" lon="1.868405"><ele>460.8</ele><time>2026-04-04T14:07:41.135Z</time></trkpt><trkpt lat="41.3908725" lon="1.8682902"><ele>460.6</ele><time>2026-04-04T14:07:43.112Z</time></trkpt><trkpt lat="41.390964" lon="1.8681805"><ele>460.4</ele><time>2026-04-04T14:07:45.126Z</time></trkpt><trkpt lat="41.3910782" lon="1.8681191"><ele>460.2</ele><time>2026-04-04T14:07:47.113Z</time></trkpt><trkpt lat="41.3911442" lon="1.8680804"><ele>460.0</ele><time>2026-04-04T14:07:48.11Z</time></trkpt><trkpt lat="41.3912098" lon="1.8680288"><ele>460.00000000000006</ele><time>2026-04-04T14:07:49.109Z</time></trkpt><trkpt lat="41.3912668" lon="1.8679916"><ele>460.0</ele><time>2026-04-04T14:07:50.118Z</time></trkpt><trkpt lat="41.3913369" lon="1.8679882"><ele>460.0</ele><time>2026-04-04T14:07:52.114Z</time></trkpt><trkpt lat="41.3914184" lon="1.8679941"><ele>460.0</ele><time>2026-04-04T14:07:54.113Z</time></trkpt><trkpt lat="41.3914854" lon="1.8679415"><ele>460.00000000000006</ele><time>2026-04-04T14:07:56.114Z</time></trkpt><trkpt lat="41.3915283" lon="1.8678336"><ele>460.0</ele><time>2026-04-04T14:07:58.09Z</time></trkpt><trkpt lat="41.3916114" lon="1.86779"><ele>459.8</ele><time>2026-04-04T14:08:01.06Z</time></trkpt><trkpt lat="41.3916868" lon="1.8677823"><ele>459.6</ele><time>2026-04-04T14:08:03.056Z</time></trkpt><trkpt lat="41.3917499" lon="1.867821"><ele>459.4</ele><time>2026-04-04T14:08:05.052Z</time></trkpt><trkpt lat="41.391844" lon="1.8678166"><ele>459.2</ele><time>2026-04-04T14:08:20.063Z</time></trkpt><trkpt lat="41.3919571" lon="1.8677586"><ele>459.0</ele><time>2026-04-04T14:08:22.06Z</time></trkpt><trkpt lat="41.3920221" lon="1.8676667"><ele>458.6666666666667</ele><time>2026-04-04T14:08:24.069Z</time></trkpt><trkpt lat="41.3920623" lon="1.8675727"><ele>458.33333333333337</ele><time>2026-04-04T14:08:38.079Z</time></trkpt><trkpt lat="41.3921248" lon="1.8674672"><ele>458.0</ele><time>2026-04-04T14:08:40.072Z</time></trkpt><trkpt lat="41.392189" lon="1.8673415"><ele>457.6666666666667</ele><time>2026-04-04T14:08:42.055Z</time></trkpt><trkpt lat="41.392218" lon="1.8672646"><ele>457.33333333333337</ele><time>2026-04-04T14:08:43.067Z</time></trkpt><trkpt lat="41.3922499" lon="1.8671915"><ele>457.0</ele><time>2026-04-04T14:08:44.074Z</time></trkpt><trkpt lat="41.3922948" lon="1.8670457"><ele>457.00000000000006</ele><time>2026-04-04T14:08:46.069Z</time></trkpt><trkpt lat="41.3923181" lon="1.8668999"><ele>457.0</ele><time>2026-04-04T14:08:48.071Z</time></trkpt><trkpt lat="41.3923467" lon="1.8667584"><ele>457.0</ele><time>2026-04-04T14:08:50.068Z</time></trkpt><trkpt lat="41.3923677" lon="1.8666762"><ele>457.0</ele><time>2026-04-04T14:08:51.069Z</time></trkpt><trkpt lat="41.3923914" lon="1.86658"><ele>457.00000000000006</ele><time>2026-04-04T14:08:52.071Z</time></trkpt><trkpt lat="41.3924162" lon="1.8664813"><ele>457.0</ele><time>2026-04-04T14:08:53.074Z</time></trkpt><trkpt lat="41.3924388" lon="1.8663766"><ele>456.00000000000006</ele><time>2026-04-04T14:08:54.066Z</time></trkpt><trkpt lat="41.392459" lon="1.8662673"><ele>455.0</ele><time>2026-04-04T14:08:55.075Z</time></trkpt><trkpt lat="41.3924781" lon="1.8661596"><ele>454.0</ele><time>2026-04-04T14:08:56.067Z</time></trkpt><trkpt lat="41.3924925" lon="1.8660451"><ele>453.0</ele><time>2026-04-04T14:08:57.066Z</time></trkpt><trkpt lat="41.3925048" lon="1.8659345"><ele>452.00000000000006</ele><time>2026-04-04T14:08:58.068Z</time></trkpt><trkpt lat="41.3925201" lon="1.8658258"><ele>451.0</ele><time>2026-04-04T14:08:59.07Z</time></trkpt><trkpt lat="41.3925262" lon="1.8657168"><ele>451.00000000000006</ele><time>2026-04-04T14:09:00.066Z</time></trkpt><trkpt lat="41.3925331" lon="1.8656109"><ele>451.0</ele><time>2026-04-04T14:09:01.067Z</time></trkpt><trkpt lat="41.3925371" lon="1.8655192"><ele>451.0</ele><time>2026-04-04T14:09:02.063Z</time></trkpt><trkpt lat="41.3925532" lon="1.8653991"><ele>451.0</ele><time>2026-04-04T14:09:04.064Z</time></trkpt><trkpt lat="41.3925733" lon="1.865249"><ele>451.00000000000006</ele><time>2026-04-04T14:09:06.07Z</time></trkpt><trkpt lat="41.392583" lon="1.8651628"><ele>451.0</ele><time>2026-04-04T14:09:07.064Z</time></trkpt><trkpt lat="41.3925969" lon="1.8650112"><ele>451.0</ele><time>2026-04-04T14:09:09.068Z</time></trkpt><trkpt lat="41.3926004" lon="1.8648834"><ele>451.0</ele><time>2026-04-04T14:09:11.071Z</time></trkpt><trkpt lat="41.3926179" lon="1.8647564"><ele>451.0</ele><time>2026-04-04T14:09:13.063Z</time></trkpt><trkpt lat="41.3926403" lon="1.8645757"><ele>451.0</ele><time>2026-04-04T14:09:15.066Z</time></trkpt><trkpt lat="41.3926539" lon="1.8644543"><ele>451.0</ele><time>2026-04-04T14:09:16.067Z</time></trkpt><trkpt lat="41.3926635" lon="1.864327"><ele>450.33333333333337</ele><time>2026-04-04T14:09:17.081Z</time></trkpt><trkpt lat="41.392666" lon="1.8642208"><ele>449.6666666666667</ele><time>2026-04-04T14:09:18.064Z</time></trkpt><trkpt lat="41.3926559" lon="1.8640879"><ele>449.0</ele><time>2026-04-04T14:09:20.073Z</time></trkpt><trkpt lat="41.392645" lon="1.8639642"><ele>448.33333333333337</ele><time>2026-04-04T14:09:25.082Z</time></trkpt><trkpt lat="41.3926638" lon="1.8638763"><ele>447.6666666666667</ele><time>2026-04-04T14:09:27.085Z</time></trkpt><trkpt lat="41.392676" lon="1.8637551"><ele>447.0</ele><time>2026-04-04T14:09:29.086Z</time></trkpt><trkpt lat="41.3926855" lon="1.8636669"><ele>447.0</ele><time>2026-04-04T14:09:30.067Z</time></trkpt><trkpt lat="41.3927025" lon="1.8635691"><ele>447.0</ele><time>2026-04-04T14:09:31.079Z</time></trkpt><trkpt lat="41.3927193" lon="1.8634771"><ele>447.0</ele><time>2026-04-04T14:09:32.077Z</time></trkpt><trkpt lat="41.3927276" lon="1.8633814"><ele>447.0</ele><time>2026-04-04T14:09:34.069Z</time></trkpt><trkpt lat="41.3927225" lon="1.8632235"><ele>447.0</ele><time>2026-04-04T14:09:47.083Z</time></trkpt><trkpt lat="41.3927444" lon="1.863116"><ele>447.0</ele><time>2026-04-04T14:09:48.079Z</time></trkpt><trkpt lat="41.392774" lon="1.8629879"><ele>445.75</ele><time>2026-04-04T14:09:49.083Z</time></trkpt><trkpt lat="41.3928026" lon="1.8628501"><ele>444.5</ele><time>2026-04-04T14:09:50.085Z</time></trkpt><trkpt lat="41.3928416" lon="1.8627022"><ele>443.25</ele><time>2026-04-04T14:09:51.084Z</time></trkpt><trkpt lat="41.3928753" lon="1.8625455"><ele>442.0</ele><time>2026-04-04T14:09:52.083Z</time></trkpt><trkpt lat="41.3929172" lon="1.862379"><ele>441.25</ele><time>2026-04-04T14:09:53.081Z</time></trkpt><trkpt lat="41.392963" lon="1.8622045"><ele>440.5</ele><time>2026-04-04T14:09:54.081Z</time></trkpt><trkpt lat="41.3930077" lon="1.8620258"><ele>439.75</ele><time>2026-04-04T14:09:55.084Z</time></trkpt><trkpt lat="41.3930529" lon="1.8618451"><ele>439.0</ele><time>2026-04-04T14:09:56.082Z</time></trkpt><trkpt lat="41.3931005" lon="1.8616637"><ele>442.6666666666667</ele><time>2026-04-04T14:09:57.088Z</time></trkpt><trkpt lat="41.3931409" lon="1.8614755"><ele>446.33333333333337</ele><time>2026-04-04T14:09:58.085Z</time></trkpt><trkpt lat="41.3931892" lon="1.8612709"><ele>450.0</ele><time>2026-04-04T14:09:59.074Z</time></trkpt><trkpt lat="41.3932378" lon="1.8610578"><ele>448.0</ele><time>2026-04-04T14:10:00.082Z</time></trkpt><trkpt lat="41.3932855" lon="1.8608611"><ele>446.0</ele><time>2026-04-04T14:10:01.079Z</time></trkpt><trkpt lat="41.3933217" lon="1.8606688"><ele>444.0</ele><time>2026-04-04T14:10:02.082Z</time></trkpt><trkpt lat="41.3933613" lon="1.8604777"><ele>444.0</ele><time>2026-04-04T14:10:03.079Z</time></trkpt><trkpt lat="41.3934005" lon="1.8602819"><ele>444.0</ele><time>2026-04-04T14:10:04.074Z</time></trkpt><trkpt lat="41.393443" lon="1.8600941"><ele>444.0</ele><time>2026-04-04T14:10:05.074Z</time></trkpt><trkpt lat="41.3934863" lon="1.8599052"><ele>444.0</ele><time>2026-04-04T14:10:06.07Z</time></trkpt><trkpt lat="41.3935342" lon="1.8597042"><ele>440.33333333333337</ele><time>2026-04-04T14:10:07.075Z</time></trkpt><trkpt lat="41.3935837" lon="1.8595154"><ele>436.6666666666667</ele><time>2026-04-04T14:10:08.073Z</time></trkpt><trkpt lat="41.3936347" lon="1.8593262"><ele>433.0</ele><time>2026-04-04T14:10:09.072Z</time></trkpt><trkpt lat="41.3936818" lon="1.8591295"><ele>432.33333333333337</ele><time>2026-04-04T14:10:10.08Z</time></trkpt><trkpt lat="41.3937306" lon="1.8589346"><ele>431.66666666666663</ele><time>2026-04-04T14:10:11.074Z</time></trkpt><trkpt lat="41.3937784" lon="1.8587415"><ele>431.0</ele><time>2026-04-04T14:10:12.077Z</time></trkpt><trkpt lat="41.3938161" lon="1.8585526"><ele>431.25</ele><time>2026-04-04T14:10:13.075Z</time></trkpt><trkpt lat="41.3938541" lon="1.8583728"><ele>431.5</ele><time>2026-04-04T14:10:14.071Z</time></trkpt><trkpt lat="41.3938931" lon="1.8582021"><ele>431.75</ele><time>2026-04-04T14:10:15.097Z</time></trkpt><trkpt lat="41.3939306" lon="1.8580266"><ele>432.0</ele><time>2026-04-04T14:10:16.074Z</time></trkpt><trkpt lat="41.3939725" lon="1.8578623"><ele>432.0</ele><time>2026-04-04T14:10:17.077Z</time></trkpt><trkpt lat="41.3940092" lon="1.8576952"><ele>432.0</ele><time>2026-04-04T14:10:18.078Z</time></trkpt><trkpt lat="41.3940408" lon="1.8575285"><ele>432.0</ele><time>2026-04-04T14:10:19.081Z</time></trkpt><trkpt lat="41.3940747" lon="1.8573691"><ele>432.0</ele><time>2026-04-04T14:10:20.097Z</time></trkpt><trkpt lat="41.3941186" lon="1.8572001"><ele>431.0</ele><time>2026-04-04T14:10:21.083Z</time></trkpt><trkpt lat="41.394158" lon="1.8570236"><ele>430.0</ele><time>2026-04-04T14:10:22.088Z</time></trkpt><trkpt lat="41.3941943" lon="1.85685"><ele>429.0</ele><time>2026-04-04T14:10:23.081Z</time></trkpt><trkpt lat="41.3942352" lon="1.8566786"><ele>428.0</ele><time>2026-04-04T14:10:24.084Z</time></trkpt><trkpt lat="41.3942764" lon="1.8565065"><ele>427.0</ele><time>2026-04-04T14:10:25.098Z</time></trkpt><trkpt lat="41.3943167" lon="1.8563281"><ele>426.0</ele><time>2026-04-04T14:10:26.084Z</time></trkpt><trkpt lat="41.3943581" lon="1.856151"><ele>425.0</ele><time>2026-04-04T14:10:27.088Z</time></trkpt><trkpt lat="41.3944069" lon="1.8559768"><ele>424.0</ele><time>2026-04-04T14:10:28.096Z</time></trkpt><trkpt lat="41.394441" lon="1.8557955"><ele>422.25</ele><time>2026-04-04T14:10:29.095Z</time></trkpt><trkpt lat="41.3944823" lon="1.8556167"><ele>420.5</ele><time>2026-04-04T14:10:30.096Z</time></trkpt><trkpt lat="41.3945164" lon="1.8554335"><ele>418.75</ele><time>2026-04-04T14:10:31.091Z</time></trkpt><trkpt lat="41.3945575" lon="1.8552482"><ele>417.0</ele><time>2026-04-04T14:10:32.092Z</time></trkpt><trkpt lat="41.3946004" lon="1.8550611"><ele>416.5</ele><time>2026-04-04T14:10:33.083Z</time></trkpt><trkpt lat="41.3946418" lon="1.8548764"><ele>416.0</ele><time>2026-04-04T14:10:34.083Z</time></trkpt><trkpt lat="41.3946906" lon="1.8546954"><ele>415.5</ele><time>2026-04-04T14:10:35.099Z</time></trkpt><trkpt lat="41.3947438" lon="1.8545132"><ele>415.0</ele><time>2026-04-04T14:10:36.081Z</time></trkpt><trkpt lat="41.3947979" lon="1.8543394"><ele>417.0</ele><time>2026-04-04T14:10:37.087Z</time></trkpt><trkpt lat="41.3948563" lon="1.8541707"><ele>419.0</ele><time>2026-04-04T14:10:38.083Z</time></trkpt><trkpt lat="41.3949194" lon="1.8539969"><ele>421.0</ele><time>2026-04-04T14:10:39.08Z</time></trkpt><trkpt lat="41.3949946" lon="1.8538252"><ele>423.0</ele><time>2026-04-04T14:10:40.097Z</time></trkpt><trkpt lat="41.3950775" lon="1.8536625"><ele>423.0</ele><time>2026-04-04T14:10:41.089Z</time></trkpt><trkpt lat="41.3951718" lon="1.853504"><ele>423.0</ele><time>2026-04-04T14:10:42.079Z</time></trkpt><trkpt lat="41.3952715" lon="1.8533528"><ele>423.0</ele><time>2026-04-04T14:10:43.078Z</time></trkpt><trkpt lat="41.395376" lon="1.8532132"><ele>424.25</ele><time>2026-04-04T14:10:44.075Z</time></trkpt><trkpt lat="41.3954801" lon="1.8530901"><ele>425.5</ele><time>2026-04-04T14:10:45.096Z</time></trkpt><trkpt lat="41.3955937" lon="1.852992"><ele>426.75</ele><time>2026-04-04T14:10:46.065Z</time></trkpt><trkpt lat="41.3957128" lon="1.8529103"><ele>428.0</ele><time>2026-04-04T14:10:47.074Z</time></trkpt><trkpt lat="41.3958279" lon="1.8528558"><ele>428.0</ele><time>2026-04-04T14:10:48.066Z</time></trkpt><trkpt lat="41.3959402" lon="1.8528289"><ele>427.99999999999994</ele><time>2026-04-04T14:10:49.071Z</time></trkpt><trkpt lat="41.3960353" lon="1.8528344"><ele>427.99999999999994</ele><time>2026-04-04T14:10:50.081Z</time></trkpt><trkpt lat="41.3961236" lon="1.8528584"><ele>428.0</ele><time>2026-04-04T14:10:51.073Z</time></trkpt><trkpt lat="41.3962125" lon="1.8528813"><ele>428.0</ele><time>2026-04-04T14:10:52.069Z</time></trkpt><trkpt lat="41.3962835" lon="1.8529076"><ele>429.2</ele><time>2026-04-04T14:10:53.067Z</time></trkpt><trkpt lat="41.3963463" lon="1.8529288"><ele>430.4</ele><time>2026-04-04T14:10:54.069Z</time></trkpt><trkpt lat="41.3964536" lon="1.853021"><ele>431.59999999999997</ele><time>2026-04-04T14:11:08.071Z</time></trkpt><trkpt lat="41.3965305" lon="1.8531223"><ele>432.79999999999995</ele><time>2026-04-04T14:11:10.08Z</time></trkpt><trkpt lat="41.3966188" lon="1.8532411"><ele>434.0</ele><time>2026-04-04T14:11:12.074Z</time></trkpt><trkpt lat="41.3966616" lon="1.8533092"><ele>433.99999999999994</ele><time>2026-04-04T14:11:13.058Z</time></trkpt><trkpt lat="41.3967025" lon="1.853373"><ele>434.0</ele><time>2026-04-04T14:11:14.065Z</time></trkpt><trkpt lat="41.3967937" lon="1.8534558"><ele>434.0</ele><time>2026-04-04T14:11:16.066Z</time></trkpt><trkpt lat="41.3968809" lon="1.853391"><ele>434.0</ele><time>2026-04-04T14:11:18.072Z</time></trkpt><trkpt lat="41.3968994" lon="1.8533096"><ele>433.99999999999994</ele><time>2026-04-04T14:11:19.068Z</time></trkpt><trkpt lat="41.3969099" lon="1.8532255"><ele>434.0</ele><time>2026-04-04T14:11:20.082Z</time></trkpt><trkpt lat="41.3969253" lon="1.8531436"><ele>433.99999999999994</ele><time>2026-04-04T14:11:21.073Z</time></trkpt><trkpt lat="41.3969491" lon="1.8530659"><ele>434.0</ele><time>2026-04-04T14:11:22.075Z</time></trkpt><trkpt lat="41.3969692" lon="1.8529844"><ele>434.0</ele><time>2026-04-04T14:11:23.072Z</time></trkpt><trkpt lat="41.3969895" lon="1.8529007"><ele>434.0</ele><time>2026-04-04T14:11:24.073Z</time></trkpt><trkpt lat="41.3970291" lon="1.8527558"><ele>433.99999999999994</ele><time>2026-04-04T14:11:26.074Z</time></trkpt><trkpt lat="41.3970857" lon="1.8526875"><ele>434.0</ele><time>2026-04-04T14:11:28.083Z</time></trkpt><trkpt lat="41.3971784" lon="1.8527507"><ele>436.16666666666663</ele><time>2026-04-04T14:11:30.096Z</time></trkpt><trkpt lat="41.3972327" lon="1.8527941"><ele>438.3333333333333</ele><time>2026-04-04T14:11:31.083Z</time></trkpt><trkpt lat="41.3972932" lon="1.8528356"><ele>440.5</ele><time>2026-04-04T14:11:32.078Z</time></trkpt><trkpt lat="41.3973525" lon="1.8528666"><ele>442.66666666666663</ele><time>2026-04-04T14:11:33.082Z</time></trkpt><trkpt lat="41.3974154" lon="1.8528948"><ele>444.8333333333333</ele><time>2026-04-04T14:11:34.085Z</time></trkpt><trkpt lat="41.3975262" lon="1.8529519"><ele>447.0</ele><time>2026-04-04T14:11:36.076Z</time></trkpt><trkpt lat="41.3976313" lon="1.8529905"><ele>447.0</ele><time>2026-04-04T14:11:38.08Z</time></trkpt><trkpt lat="41.3977173" lon="1.8530401"><ele>447.0</ele><time>2026-04-04T14:11:40.104Z</time></trkpt><trkpt lat="41.3978026" lon="1.853073"><ele>447.0</ele><time>2026-04-04T14:11:42.096Z</time></trkpt><trkpt lat="41.3978839" lon="1.853093"><ele>447.0</ele><time>2026-04-04T14:11:44.107Z</time></trkpt><trkpt lat="41.3978152" lon="1.8531479"><ele>447.0</ele><time>2026-04-04T14:12:03.098Z</time></trkpt><trkpt lat="41.3977392" lon="1.8530872"><ele>447.0</ele><time>2026-04-04T14:12:05.093Z</time></trkpt><trkpt lat="41.3976615" lon="1.8529916"><ele>447.0</ele><time>2026-04-04T14:12:07.093Z</time></trkpt><trkpt lat="41.3976398" lon="1.8528414"><ele>447.00000000000006</ele><time>2026-04-04T14:12:09.085Z</time></trkpt><trkpt lat="41.3976526" lon="1.852748"><ele>447.00000000000006</ele><time>2026-04-04T14:12:10.089Z</time></trkpt><trkpt lat="41.3976907" lon="1.8526339"><ele>447.0</ele><time>2026-04-04T14:12:11.085Z</time></trkpt><trkpt lat="41.3977303" lon="1.8525227"><ele>447.0</ele><time>2026-04-04T14:12:12.079Z</time></trkpt><trkpt lat="41.397769" lon="1.8524169"><ele>446.0</ele><time>2026-04-04T14:12:13.09Z</time></trkpt><trkpt lat="41.3978066" lon="1.8523215"><ele>445.00000000000006</ele><time>2026-04-04T14:12:14.081Z</time></trkpt><trkpt lat="41.3978419" lon="1.852248"><ele>444.00000000000006</ele><time>2026-04-04T14:12:15.084Z</time></trkpt><trkpt lat="41.3979163" lon="1.8521758"><ele>443.0</ele><time>2026-04-04T14:12:17.089Z</time></trkpt><trkpt lat="41.3980439" lon="1.8522539"><ele>442.0</ele><time>2026-04-04T14:12:19.086Z</time></trkpt><trkpt lat="41.3981159" lon="1.8523213"><ele>441.20000000000005</ele><time>2026-04-04T14:12:20.081Z</time></trkpt><trkpt lat="41.3981805" lon="1.8524046"><ele>440.40000000000003</ele><time>2026-04-04T14:12:21.081Z</time></trkpt><trkpt lat="41.3982332" lon="1.8525059"><ele>439.59999999999997</ele><time>2026-04-04T14:12:22.085Z</time></trkpt><trkpt lat="41.3982646" lon="1.8526269"><ele>438.79999999999995</ele><time>2026-04-04T14:12:23.074Z</time></trkpt><trkpt lat="41.3982815" lon="1.8527521"><ele>438.0</ele><time>2026-04-04T14:12:24.085Z</time></trkpt><trkpt lat="41.3983059" lon="1.8528776"><ele>439.5</ele><time>2026-04-04T14:12:25.08Z</time></trkpt><trkpt lat="41.3983288" lon="1.8529937"><ele>441.0</ele><time>2026-04-04T14:12:26.076Z</time></trkpt><trkpt lat="41.3983601" lon="1.8530965"><ele>442.5</ele><time>2026-04-04T14:12:27.075Z</time></trkpt><trkpt lat="41.3984025" lon="1.8531976"><ele>444.0</ele><time>2026-04-04T14:12:28.073Z</time></trkpt><trkpt lat="41.3984568" lon="1.8532881"><ele>445.5</ele><time>2026-04-04T14:12:29.08Z</time></trkpt><trkpt lat="41.3985162" lon="1.853375"><ele>447.0</ele><time>2026-04-04T14:12:30.072Z</time></trkpt><trkpt lat="41.3985833" lon="1.8534568"><ele>445.40000000000003</ele><time>2026-04-04T14:12:31.079Z</time></trkpt><trkpt lat="41.3986508" lon="1.8535408"><ele>443.80000000000007</ele><time>2026-04-04T14:12:32.077Z</time></trkpt><trkpt lat="41.3987229" lon="1.8536264"><ele>442.2</ele><time>2026-04-04T14:12:33.074Z</time></trkpt><trkpt lat="41.3987995" lon="1.8537149"><ele>440.6</ele><time>2026-04-04T14:12:34.082Z</time></trkpt><trkpt lat="41.3988708" lon="1.853807"><ele>439.0</ele><time>2026-04-04T14:12:35.077Z</time></trkpt><trkpt lat="41.3989409" lon="1.8539043"><ele>439.0</ele><time>2026-04-04T14:12:36.076Z</time></trkpt><trkpt lat="41.3990122" lon="1.8540049"><ele>439.0</ele><time>2026-04-04T14:12:37.077Z</time></trkpt><trkpt lat="41.3990772" lon="1.8541079"><ele>439.0</ele><time>2026-04-04T14:12:38.076Z</time></trkpt><trkpt lat="41.3991466" lon="1.8542037"><ele>439.0</ele><time>2026-04-04T14:12:39.077Z</time></trkpt><trkpt lat="41.3992215" lon="1.8543051"><ele>439.0</ele><time>2026-04-04T14:12:40.074Z</time></trkpt><trkpt lat="41.39929" lon="1.8544072"><ele>440.79999999999995</ele><time>2026-04-04T14:12:41.084Z</time></trkpt><trkpt lat="41.3993484" lon="1.8545115"><ele>442.59999999999997</ele><time>2026-04-04T14:12:42.071Z</time></trkpt><trkpt lat="41.3993867" lon="1.8546158"><ele>444.4</ele><time>2026-04-04T14:12:43.076Z</time></trkpt><trkpt lat="41.3994102" lon="1.8547249"><ele>446.2</ele><time>2026-04-04T14:12:44.086Z</time></trkpt><trkpt lat="41.399413" lon="1.8548526"><ele>448.0</ele><time>2026-04-04T14:12:45.077Z</time></trkpt><trkpt lat="41.3994039" lon="1.8549931"><ele>447.5</ele><time>2026-04-04T14:12:46.077Z</time></trkpt><trkpt lat="41.3993869" lon="1.8551443"><ele>447.0</ele><time>2026-04-04T14:12:47.087Z</time></trkpt><trkpt lat="41.3993656" lon="1.8553001"><ele>446.5</ele><time>2026-04-04T14:12:48.072Z</time></trkpt><trkpt lat="41.3993461" lon="1.8554537"><ele>446.0</ele><time>2026-04-04T14:12:49.08Z</time></trkpt><trkpt lat="41.3993236" lon="1.8555939"><ele>445.99999999999994</ele><time>2026-04-04T14:12:50.092Z</time></trkpt><trkpt lat="41.3993064" lon="1.8556833"><ele>446.0</ele><time>2026-04-04T14:12:51.105Z</time></trkpt><trkpt lat="41.3992716" lon="1.8557691"><ele>446.0</ele><time>2026-04-04T14:24:44.073Z</time></trkpt><trkpt lat="41.3992381" lon="1.855905"><ele>446.0</ele><time>2026-04-04T14:24:46.073Z</time></trkpt><trkpt lat="41.3992212" lon="1.855995"><ele>445.99999999999994</ele><time>2026-04-04T14:24:47.065Z</time></trkpt><trkpt lat="41.3992009" lon="1.8560932"><ele>446.0</ele><time>2026-04-04T14:24:48.069Z</time></trkpt><trkpt lat="41.3991778" lon="1.8561993"><ele>445.6</ele><time>2026-04-04T14:24:49.077Z</time></trkpt><trkpt lat="41.3991517" lon="1.8563149"><ele>445.20000000000005</ele><time>2026-04-04T14:24:50.073Z</time></trkpt><trkpt lat="41.3991223" lon="1.8564356"><ele>444.79999999999995</ele><time>2026-04-04T14:24:51.07Z</time></trkpt><trkpt lat="41.3990874" lon="1.8565639"><ele>444.4</ele><time>2026-04-04T14:24:52.091Z</time></trkpt><trkpt lat="41.3990506" lon="1.8567037"><ele>444.0</ele><time>2026-04-04T14:24:53.072Z</time></trkpt><trkpt lat="41.3990191" lon="1.8568528"><ele>443.25</ele><time>2026-04-04T14:24:54.08Z</time></trkpt><trkpt lat="41.3989988" lon="1.8570046"><ele>442.5</ele><time>2026-04-04T14:24:55.073Z</time></trkpt><trkpt lat="41.3990023" lon="1.8571705"><ele>441.75</ele><time>2026-04-04T14:24:56.078Z</time></trkpt><trkpt lat="41.399028" lon="1.8573538"><ele>441.0</ele><time>2026-04-04T14:24:57.082Z</time></trkpt><trkpt lat="41.3990588" lon="1.8575403"><ele>441.0</ele><time>2026-04-04T14:24:58.097Z</time></trkpt><trkpt lat="41.3990826" lon="1.8577223"><ele>441.0</ele><time>2026-04-04T14:24:59.106Z</time></trkpt><trkpt lat="41.3990917" lon="1.8578876"><ele>441.0</ele><time>2026-04-04T14:25:00.092Z</time></trkpt><trkpt lat="41.3990965" lon="1.8580297"><ele>441.0</ele><time>2026-04-04T14:25:01.088Z</time></trkpt><trkpt lat="41.3990999" lon="1.8581344"><ele>441.0</ele><time>2026-04-04T14:25:02.089Z</time></trkpt><trkpt lat="41.3991549" lon="1.8582705"><ele>441.0</ele><time>2026-04-04T14:25:04.083Z</time></trkpt><trkpt lat="41.3992171" lon="1.8583014"><ele>441.0</ele><time>2026-04-04T14:25:05.085Z</time></trkpt><trkpt lat="41.3992977" lon="1.8583269"><ele>441.0</ele><time>2026-04-04T14:25:06.096Z</time></trkpt><trkpt lat="41.3993702" lon="1.8583771"><ele>441.0</ele><time>2026-04-04T14:25:07.084Z</time></trkpt><trkpt lat="41.3994337" lon="1.8584546"><ele>441.0</ele><time>2026-04-04T14:25:08.084Z</time></trkpt><trkpt lat="41.3994854" lon="1.8585538"><ele>441.0</ele><time>2026-04-04T14:25:09.083Z</time></trkpt><trkpt lat="41.399519" lon="1.8586624"><ele>441.0</ele><time>2026-04-04T14:25:10.084Z</time></trkpt><trkpt lat="41.3995425" lon="1.8587758"><ele>441.0</ele><time>2026-04-04T14:25:11.085Z</time></trkpt><trkpt lat="41.399555" lon="1.8588999"><ele>441.0</ele><time>2026-04-04T14:25:12.085Z</time></trkpt><trkpt lat="41.3995601" lon="1.8590351"><ele>441.0</ele><time>2026-04-04T14:25:13.076Z</time></trkpt><trkpt lat="41.39958" lon="1.8591525"><ele>441.0</ele><time>2026-04-04T14:25:14.103Z</time></trkpt><trkpt lat="41.3996074" lon="1.8592453"><ele>441.0</ele><time>2026-04-04T14:25:15.093Z</time></trkpt><trkpt lat="41.3996432" lon="1.8593332"><ele>438.20000000000005</ele><time>2026-04-04T14:25:16.11Z</time></trkpt><trkpt lat="41.3996724" lon="1.8594282"><ele>435.40000000000003</ele><time>2026-04-04T14:25:17.075Z</time></trkpt><trkpt lat="41.3996855" lon="1.8595401"><ele>432.6</ele><time>2026-04-04T14:25:18.069Z</time></trkpt><trkpt lat="41.3996967" lon="1.8596722"><ele>429.8</ele><time>2026-04-04T14:25:19.071Z</time></trkpt><trkpt lat="41.3997033" lon="1.859831"><ele>427.0</ele><time>2026-04-04T14:25:20.086Z</time></trkpt><trkpt lat="41.3997121" lon="1.8600067"><ele>427.8</ele><time>2026-04-04T14:25:21.07Z</time></trkpt><trkpt lat="41.3997194" lon="1.8601659"><ele>428.6</ele><time>2026-04-04T14:25:22.073Z</time></trkpt><trkpt lat="41.3997341" lon="1.8603083"><ele>429.40000000000003</ele><time>2026-04-04T14:25:23.067Z</time></trkpt><trkpt lat="41.3997579" lon="1.8604261"><ele>430.20000000000005</ele><time>2026-04-04T14:25:24.061Z</time></trkpt><trkpt lat="41.3998017" lon="1.8605131"><ele>431.0</ele><time>2026-04-04T14:25:25.095Z</time></trkpt><trkpt lat="41.3998685" lon="1.8605787"><ele>431.0</ele><time>2026-04-04T14:25:26.082Z</time></trkpt><trkpt lat="41.3999634" lon="1.8606397"><ele>431.0</ele><time>2026-04-04T14:25:27.08Z</time></trkpt><trkpt lat="41.4000716" lon="1.8606679"><ele>431.0</ele><time>2026-04-04T14:25:28.07Z</time></trkpt><trkpt lat="41.4001848" lon="1.8606782"><ele>431.0</ele><time>2026-04-04T14:25:29.079Z</time></trkpt><trkpt lat="41.4002987" lon="1.8606606"><ele>431.0</ele><time>2026-04-04T14:25:30.069Z</time></trkpt><trkpt lat="41.4004085" lon="1.8606327"><ele>430.6</ele><time>2026-04-04T14:25:31.071Z</time></trkpt><trkpt lat="41.4005012" lon="1.8606293"><ele>430.20000000000005</ele><time>2026-04-04T14:25:32.025Z</time></trkpt><trkpt lat="41.4005944" lon="1.8606487"><ele>429.79999999999995</ele><time>2026-04-04T14:25:33.054Z</time></trkpt><trkpt lat="41.4006857" lon="1.8607088"><ele>429.4</ele><time>2026-04-04T14:25:34.072Z</time></trkpt><trkpt lat="41.4007746" lon="1.8607906"><ele>429.0</ele><time>2026-04-04T14:25:35.067Z</time></trkpt><trkpt lat="41.400869" lon="1.8608661"><ele>429.0</ele><time>2026-04-04T14:25:36.056Z</time></trkpt><trkpt lat="41.4009685" lon="1.8609186"><ele>429.0</ele><time>2026-04-04T14:25:37.063Z</time></trkpt><trkpt lat="41.4010863" lon="1.8609512"><ele>429.0</ele><time>2026-04-04T14:25:38.06Z</time></trkpt><trkpt lat="41.4012078" lon="1.8609664"><ele>429.0</ele><time>2026-04-04T14:25:39.053Z</time></trkpt><trkpt lat="41.4013206" lon="1.8609823"><ele>430.0</ele><time>2026-04-04T14:25:40.056Z</time></trkpt><trkpt lat="41.4014124" lon="1.8610088"><ele>431.0</ele><time>2026-04-04T14:25:41.064Z</time></trkpt><trkpt lat="41.4014836" lon="1.861053"><ele>432.0</ele><time>2026-04-04T14:25:42.059Z</time></trkpt><trkpt lat="41.4015408" lon="1.8611191"><ele>433.0</ele><time>2026-04-04T14:25:43.069Z</time></trkpt><trkpt lat="41.401588" lon="1.8612059"><ele>434.0</ele><time>2026-04-04T14:25:44.07Z</time></trkpt><trkpt lat="41.401617" lon="1.861308"><ele>435.0</ele><time>2026-04-04T14:25:45.062Z</time></trkpt><trkpt lat="41.401633" lon="1.8614094"><ele>435.0</ele><time>2026-04-04T14:25:46.058Z</time></trkpt><trkpt lat="41.4016366" lon="1.8615162"><ele>435.0</ele><time>2026-04-04T14:25:47.064Z</time></trkpt><trkpt lat="41.4016355" lon="1.861622"><ele>435.0</ele><time>2026-04-04T14:25:48.063Z</time></trkpt><trkpt lat="41.4016284" lon="1.8617264"><ele>435.0</ele><time>2026-04-04T14:25:49.068Z</time></trkpt><trkpt lat="41.4016243" lon="1.8618385"><ele>435.0</ele><time>2026-04-04T14:25:50.024Z</time></trkpt><trkpt lat="41.4016133" lon="1.8619531"><ele>435.0</ele><time>2026-04-04T14:25:51.059Z</time></trkpt><trkpt lat="41.4016127" lon="1.8620743"><ele>435.8</ele><time>2026-04-04T14:25:52.056Z</time></trkpt><trkpt lat="41.4016102" lon="1.862208"><ele>436.6</ele><time>2026-04-04T14:25:53.06Z</time></trkpt><trkpt lat="41.4016073" lon="1.8623434"><ele>437.4</ele><time>2026-04-04T14:25:54.069Z</time></trkpt><trkpt lat="41.4016049" lon="1.8624747"><ele>438.2</ele><time>2026-04-04T14:25:55.06Z</time></trkpt><trkpt lat="41.401604" lon="1.8626022"><ele>439.0</ele><time>2026-04-04T14:25:56.067Z</time></trkpt><trkpt lat="41.4016033" lon="1.8627257"><ele>439.6</ele><time>2026-04-04T14:25:57.067Z</time></trkpt><trkpt lat="41.4016119" lon="1.8628526"><ele>440.2</ele><time>2026-04-04T14:25:58.089Z</time></trkpt><trkpt lat="41.401625" lon="1.8629806"><ele>440.80000000000007</ele><time>2026-04-04T14:25:59.063Z</time></trkpt><trkpt lat="41.401642" lon="1.8631092"><ele>441.40000000000003</ele><time>2026-04-04T14:26:00.06Z</time></trkpt><trkpt lat="41.4016625" lon="1.8632335"><ele>442.0</ele><time>2026-04-04T14:26:01.057Z</time></trkpt><trkpt lat="41.40169" lon="1.863362"><ele>443.0</ele><time>2026-04-04T14:26:02.056Z</time></trkpt><trkpt lat="41.40172" lon="1.8634912"><ele>444.00000000000006</ele><time>2026-04-04T14:26:03.057Z</time></trkpt><trkpt lat="41.4017531" lon="1.8636258"><ele>445.00000000000006</ele><time>2026-04-04T14:26:04.053Z</time></trkpt><trkpt lat="41.4017821" lon="1.8637577"><ele>446.0</ele><time>2026-04-04T14:26:05.056Z</time></trkpt><trkpt lat="41.4018147" lon="1.863893"><ele>447.0</ele><time>2026-04-04T14:26:06.051Z</time></trkpt><trkpt lat="41.4018583" lon="1.8640267"><ele>447.0</ele><time>2026-04-04T14:26:07.052Z</time></trkpt><trkpt lat="41.4019111" lon="1.8641619"><ele>447.00000000000006</ele><time>2026-04-04T14:26:08.054Z</time></trkpt><trkpt lat="41.4019709" lon="1.8642926"><ele>447.00000000000006</ele><time>2026-04-04T14:26:09.048Z</time></trkpt><trkpt lat="41.4020346" lon="1.8644183"><ele>447.0</ele><time>2026-04-04T14:26:10.051Z</time></trkpt><trkpt lat="41.4020962" lon="1.8645285"><ele>447.0</ele><time>2026-04-04T14:26:11.052Z</time></trkpt><trkpt lat="41.4021435" lon="1.8646289"><ele>447.0</ele><time>2026-04-04T14:26:12.057Z</time></trkpt><trkpt lat="41.4021689" lon="1.8647346"><ele>447.0</ele><time>2026-04-04T14:26:13.059Z</time></trkpt><trkpt lat="41.4021664" lon="1.8648514"><ele>447.0</ele><time>2026-04-04T14:26:14.054Z</time></trkpt><trkpt lat="41.4021453" lon="1.8649717"><ele>447.0</ele><time>2026-04-04T14:26:15.076Z</time></trkpt><trkpt lat="41.4021191" lon="1.8650812"><ele>447.0</ele><time>2026-04-04T14:26:16.055Z</time></trkpt><trkpt lat="41.40209" lon="1.865184"><ele>447.0</ele><time>2026-04-04T14:26:17.059Z</time></trkpt><trkpt lat="41.4020607" lon="1.8652843"><ele>447.0</ele><time>2026-04-04T14:26:18.007Z</time></trkpt><trkpt lat="41.4020267" lon="1.8653952"><ele>447.00000000000006</ele><time>2026-04-04T14:26:19.059Z</time></trkpt><trkpt lat="41.4019894" lon="1.86551"><ele>447.00000000000006</ele><time>2026-04-04T14:26:20.069Z</time></trkpt><trkpt lat="41.401948" lon="1.8656335"><ele>447.0</ele><time>2026-04-04T14:26:21.059Z</time></trkpt><trkpt lat="41.4019005" lon="1.8657619"><ele>447.0</ele><time>2026-04-04T14:26:22.057Z</time></trkpt><trkpt lat="41.4018573" lon="1.8658963"><ele>446.8</ele><time>2026-04-04T14:26:23.062Z</time></trkpt><trkpt lat="41.4018212" lon="1.8660228"><ele>446.6</ele><time>2026-04-04T14:26:24.051Z</time></trkpt><trkpt lat="41.4017896" lon="1.8661312"><ele>446.40000000000003</ele><time>2026-04-04T14:26:25.057Z</time></trkpt><trkpt lat="41.4017633" lon="1.8662098"><ele>446.20000000000005</ele><time>2026-04-04T14:26:26.06Z</time></trkpt><trkpt lat="41.401829" lon="1.8663456"><ele>446.0</ele><time>2026-04-04T14:26:53.07Z</time></trkpt><trkpt lat="41.4019118" lon="1.8664301"><ele>446.0</ele><time>2026-04-04T14:26:55.065Z</time></trkpt><trkpt lat="41.4020318" lon="1.8664849"><ele>446.0</ele><time>2026-04-04T14:26:57.065Z</time></trkpt><trkpt lat="41.4020929" lon="1.866509"><ele>446.0</ele><time>2026-04-04T14:26:58.057Z</time></trkpt><trkpt lat="41.4021538" lon="1.8665342"><ele>446.0</ele><time>2026-04-04T14:26:59.066Z</time></trkpt><trkpt lat="41.4022842" lon="1.8666084"><ele>446.0</ele><time>2026-04-04T14:27:01.056Z</time></trkpt><trkpt lat="41.4023595" lon="1.8666594"><ele>447.20000000000005</ele><time>2026-04-04T14:27:02.057Z</time></trkpt><trkpt lat="41.4024416" lon="1.8667194"><ele>448.40000000000003</ele><time>2026-04-04T14:27:03.011Z</time></trkpt><trkpt lat="41.402524" lon="1.866788"><ele>449.6</ele><time>2026-04-04T14:27:04.067Z</time></trkpt><trkpt lat="41.4026077" lon="1.8668641"><ele>450.8</ele><time>2026-04-04T14:27:05.063Z</time></trkpt><trkpt lat="41.4026918" lon="1.8669269"><ele>452.0</ele><time>2026-04-04T14:27:06.061Z</time></trkpt><trkpt lat="41.4027778" lon="1.86697"><ele>453.20000000000005</ele><time>2026-04-04T14:27:07.087Z</time></trkpt><trkpt lat="41.4028762" lon="1.8669769"><ele>454.40000000000003</ele><time>2026-04-04T14:27:08.063Z</time></trkpt><trkpt lat="41.4029862" lon="1.866957"><ele>455.59999999999997</ele><time>2026-04-04T14:27:09.066Z</time></trkpt><trkpt lat="41.4030983" lon="1.8669435"><ele>456.79999999999995</ele><time>2026-04-04T14:27:10.078Z</time></trkpt><trkpt lat="41.4032086" lon="1.8669405"><ele>458.0</ele><time>2026-04-04T14:27:11.073Z</time></trkpt><trkpt lat="41.4033154" lon="1.8669445"><ele>458.0</ele><time>2026-04-04T14:27:12.075Z</time></trkpt><trkpt lat="41.4034204" lon="1.8669609"><ele>457.99999999999994</ele><time>2026-04-04T14:27:13.068Z</time></trkpt><trkpt lat="41.4035238" lon="1.8669943"><ele>457.99999999999994</ele><time>2026-04-04T14:27:14.068Z</time></trkpt><trkpt lat="41.4036182" lon="1.8670477"><ele>458.0</ele><time>2026-04-04T14:27:15.053Z</time></trkpt><trkpt lat="41.4036979" lon="1.8671165"><ele>458.0</ele><time>2026-04-04T14:27:16.067Z</time></trkpt><trkpt lat="41.4037646" lon="1.8672093"><ele>458.0</ele><time>2026-04-04T14:27:17.083Z</time></trkpt><trkpt lat="41.4038159" lon="1.8673274"><ele>457.99999999999994</ele><time>2026-04-04T14:27:18.069Z</time></trkpt><trkpt lat="41.4038555" lon="1.8674489"><ele>457.99999999999994</ele><time>2026-04-04T14:27:19.057Z</time></trkpt><trkpt lat="41.4038965" lon="1.8675701"><ele>458.0</ele><time>2026-04-04T14:27:20.078Z</time></trkpt><trkpt lat="41.4039475" lon="1.8676753"><ele>458.0</ele><time>2026-04-04T14:27:21.029Z</time></trkpt><trkpt lat="41.4040128" lon="1.8677518"><ele>459.2</ele><time>2026-04-04T14:27:22.066Z</time></trkpt><trkpt lat="41.4040886" lon="1.867803"><ele>460.4</ele><time>2026-04-04T14:27:23.103Z</time></trkpt><trkpt lat="41.4041803" lon="1.867835"><ele>461.59999999999997</ele><time>2026-04-04T14:27:24.124Z</time></trkpt><trkpt lat="41.4042866" lon="1.867872"><ele>462.79999999999995</ele><time>2026-04-04T14:27:25.066Z</time></trkpt><trkpt lat="41.4044018" lon="1.8679223"><ele>464.0</ele><time>2026-04-04T14:27:26.062Z</time></trkpt><trkpt lat="41.4045193" lon="1.8679956"><ele>464.0</ele><time>2026-04-04T14:27:27.057Z</time></trkpt><trkpt lat="41.4046282" lon="1.8680879"><ele>464.0</ele><time>2026-04-04T14:27:28.064Z</time></trkpt><trkpt lat="41.4047338" lon="1.8681763"><ele>464.0</ele><time>2026-04-04T14:27:29.056Z</time></trkpt><trkpt lat="41.4048368" lon="1.8682556"><ele>464.0</ele><time>2026-04-04T14:27:30.007Z</time></trkpt><trkpt lat="41.4049366" lon="1.8683306"><ele>464.16666666666663</ele><time>2026-04-04T14:27:31.065Z</time></trkpt><trkpt lat="41.4050269" lon="1.8683941"><ele>464.3333333333333</ele><time>2026-04-04T14:27:32.059Z</time></trkpt><trkpt lat="41.4051089" lon="1.868433"><ele>464.5</ele><time>2026-04-04T14:27:33.074Z</time></trkpt><trkpt lat="41.405183" lon="1.8684523"><ele>464.66666666666663</ele><time>2026-04-04T14:27:35.057Z</time></trkpt><trkpt lat="41.4052189" lon="1.8683822"><ele>464.8333333333333</ele><time>2026-04-04T14:27:50.066Z</time></trkpt><trkpt lat="41.4052842" lon="1.8682638"><ele>465.0</ele><time>2026-04-04T14:27:52.051Z</time></trkpt><trkpt lat="41.4053244" lon="1.8681982"><ele>465.0</ele><time>2026-04-04T14:27:53.062Z</time></trkpt><trkpt lat="41.4053772" lon="1.8681519"><ele>465.0</ele><time>2026-04-04T14:27:54.068Z</time></trkpt><trkpt lat="41.4054554" lon="1.8681477"><ele>465.0</ele><time>2026-04-04T14:27:55.065Z</time></trkpt><trkpt lat="41.405541" lon="1.8681748"><ele>465.0</ele><time>2026-04-04T14:27:56.06Z</time></trkpt><trkpt lat="41.4056172" lon="1.8682288"><ele>465.0</ele><time>2026-04-04T14:27:57.058Z</time></trkpt><trkpt lat="41.4056789" lon="1.8682905"><ele>465.0</ele><time>2026-04-04T14:27:58.072Z</time></trkpt><trkpt lat="41.4057292" lon="1.8683568"><ele>466.6</ele><time>2026-04-04T14:27:59.056Z</time></trkpt><trkpt lat="41.405772" lon="1.8684371"><ele>468.2</ele><time>2026-04-04T14:28:00.052Z</time></trkpt><trkpt lat="41.405806" lon="1.8685354"><ele>469.79999999999995</ele><time>2026-04-04T14:28:01.062Z</time></trkpt><trkpt lat="41.405852" lon="1.8686568"><ele>471.4</ele><time>2026-04-04T14:28:02.053Z</time></trkpt><trkpt lat="41.4059007" lon="1.8687802"><ele>473.0</ele><time>2026-04-04T14:28:03.071Z</time></trkpt><trkpt lat="41.4059416" lon="1.8689069"><ele>473.59999999999997</ele><time>2026-04-04T14:28:04.048Z</time></trkpt><trkpt lat="41.4059819" lon="1.8690378"><ele>474.19999999999993</ele><time>2026-04-04T14:28:05.038Z</time></trkpt><trkpt lat="41.4060363" lon="1.8691688"><ele>474.8</ele><time>2026-04-04T14:28:06.045Z</time></trkpt><trkpt lat="41.4060978" lon="1.8692982"><ele>475.4</ele><time>2026-04-04T14:28:07.041Z</time></trkpt><trkpt lat="41.4061684" lon="1.869416"><ele>476.0</ele><time>2026-04-04T14:28:08.062Z</time></trkpt><trkpt lat="41.40626" lon="1.8695048"><ele>478.5</ele><time>2026-04-04T14:28:09.122Z</time></trkpt><trkpt lat="41.4063641" lon="1.8695879"><ele>481.0</ele><time>2026-04-04T14:28:10.05Z</time></trkpt><trkpt lat="41.4064818" lon="1.8696759"><ele>483.5</ele><time>2026-04-04T14:28:11.082Z</time></trkpt><trkpt lat="41.4065945" lon="1.8697639"><ele>486.0</ele><time>2026-04-04T14:28:12.057Z</time></trkpt><trkpt lat="41.406712" lon="1.8698482"><ele>486.0</ele><time>2026-04-04T14:28:13.072Z</time></trkpt><trkpt lat="41.406815" lon="1.86993"><ele>486.0</ele><time>2026-04-04T14:28:14.066Z</time></trkpt><trkpt lat="41.4068888" lon="1.8700011"><ele>486.0</ele><time>2026-04-04T14:28:15.077Z</time></trkpt><trkpt lat="41.4069415" lon="1.8700735"><ele>486.0</ele><time>2026-04-04T14:28:16.068Z</time></trkpt><trkpt lat="41.40698" lon="1.8702164"><ele>486.0</ele><time>2026-04-04T14:28:18.079Z</time></trkpt><trkpt lat="41.4069796" lon="1.870372"><ele>487.57142857142856</ele><time>2026-04-04T14:28:20.052Z</time></trkpt><trkpt lat="41.406971" lon="1.870468"><ele>489.14285714285717</ele><time>2026-04-04T14:28:21.064Z</time></trkpt><trkpt lat="41.4069556" lon="1.8705736"><ele>490.7142857142857</ele><time>2026-04-04T14:28:22.055Z</time></trkpt><trkpt lat="41.4069497" lon="1.870685"><ele>492.2857142857143</ele><time>2026-04-04T14:28:23.046Z</time></trkpt><trkpt lat="41.4069545" lon="1.8707871"><ele>493.8571428571429</ele><time>2026-04-04T14:28:24.067Z</time></trkpt><trkpt lat="41.4069819" lon="1.8708636"><ele>495.42857142857144</ele><time>2026-04-04T14:28:25.054Z</time></trkpt><trkpt lat="41.4070387" lon="1.8709191"><ele>497.0</ele><time>2026-04-04T14:28:26.053Z</time></trkpt><trkpt lat="41.407105" lon="1.8709761"><ele>496.40000000000003</ele><time>2026-04-04T14:28:27.048Z</time></trkpt><trkpt lat="41.4071876" lon="1.8710318"><ele>495.80000000000007</ele><time>2026-04-04T14:28:28.044Z</time></trkpt><trkpt lat="41.4072751" lon="1.8710877"><ele>495.2</ele><time>2026-04-04T14:28:29.048Z</time></trkpt><trkpt lat="41.4073575" lon="1.8711469"><ele>494.6</ele><time>2026-04-04T14:28:30.042Z</time></trkpt><trkpt lat="41.4074413" lon="1.8712184"><ele>494.0</ele><time>2026-04-04T14:28:31.043Z</time></trkpt><trkpt lat="41.4075161" lon="1.8713038"><ele>493.99999999999994</ele><time>2026-04-04T14:28:32.052Z</time></trkpt><trkpt lat="41.4075573" lon="1.8714066"><ele>494.0</ele><time>2026-04-04T14:28:33.055Z</time></trkpt><trkpt lat="41.4075837" lon="1.8715238"><ele>494.0</ele><time>2026-04-04T14:28:34.058Z</time></trkpt><trkpt lat="41.4076074" lon="1.8716231"><ele>494.0</ele><time>2026-04-04T14:28:35.051Z</time></trkpt><trkpt lat="41.4076542" lon="1.8717114"><ele>493.99999999999994</ele><time>2026-04-04T14:28:36.046Z</time></trkpt><trkpt lat="41.4077194" lon="1.8717813"><ele>494.0</ele><time>2026-04-04T14:28:37.052Z</time></trkpt><trkpt lat="41.4078083" lon="1.8718389"><ele>495.3333333333333</ele><time>2026-04-04T14:28:38.055Z</time></trkpt><trkpt lat="41.4078991" lon="1.8718792"><ele>496.66666666666663</ele><time>2026-04-04T14:28:39.058Z</time></trkpt><trkpt lat="41.4079947" lon="1.8718982"><ele>498.0</ele><time>2026-04-04T14:28:40.058Z</time></trkpt><trkpt lat="41.4080789" lon="1.871915"><ele>499.33333333333337</ele><time>2026-04-04T14:28:41.061Z</time></trkpt><trkpt lat="41.4081641" lon="1.8719447"><ele>500.6666666666667</ele><time>2026-04-04T14:28:42.058Z</time></trkpt><trkpt lat="41.408235" lon="1.871998"><ele>502.0</ele><time>2026-04-04T14:28:43.052Z</time></trkpt><trkpt lat="41.4082715" lon="1.8720865"><ele>502.0</ele><time>2026-04-04T14:28:44.055Z</time></trkpt><trkpt lat="41.4082792" lon="1.8721978"><ele>502.00000000000006</ele><time>2026-04-04T14:28:45.063Z</time></trkpt><trkpt lat="41.4082683" lon="1.8723416"><ele>502.00000000000006</ele><time>2026-04-04T14:28:46.058Z</time></trkpt><trkpt lat="41.4082646" lon="1.872491"><ele>502.0</ele><time>2026-04-04T14:28:47.06Z</time></trkpt><trkpt lat="41.4082735" lon="1.8726298"><ele>502.0</ele><time>2026-04-04T14:28:48.054Z</time></trkpt><trkpt lat="41.4083026" lon="1.8727467"><ele>504.40000000000003</ele><time>2026-04-04T14:28:49.052Z</time></trkpt><trkpt lat="41.4083428" lon="1.8728559"><ele>506.80000000000007</ele><time>2026-04-04T14:28:50.059Z</time></trkpt><trkpt lat="41.4083945" lon="1.8729654"><ele>509.2</ele><time>2026-04-04T14:28:51.001Z</time></trkpt><trkpt lat="41.4084623" lon="1.8730805"><ele>511.6</ele><time>2026-04-04T14:28:52.047Z</time></trkpt><trkpt lat="41.4085324" lon="1.8732049"><ele>514.0</ele><time>2026-04-04T14:28:53.053Z</time></trkpt><trkpt lat="41.4086055" lon="1.8733317"><ele>515.6</ele><time>2026-04-04T14:28:54.048Z</time></trkpt><trkpt lat="41.4086666" lon="1.8734595"><ele>517.2</ele><time>2026-04-04T14:28:55.052Z</time></trkpt><trkpt lat="41.4087196" lon="1.8735889"><ele>518.8000000000001</ele><time>2026-04-04T14:28:56.045Z</time></trkpt><trkpt lat="41.4087612" lon="1.8737241"><ele>520.4</ele><time>2026-04-04T14:28:57.047Z</time></trkpt><trkpt lat="41.4087961" lon="1.8738613"><ele>522.0</ele><time>2026-04-04T14:28:58.045Z</time></trkpt><trkpt lat="41.4088238" lon="1.8739977"><ele>521.75</ele><time>2026-04-04T14:28:59.054Z</time></trkpt><trkpt lat="41.4088558" lon="1.8741356"><ele>521.5</ele><time>2026-04-04T14:29:00Z</time></trkpt><trkpt lat="41.4088916" lon="1.874276"><ele>521.25</ele><time>2026-04-04T14:29:01.047Z</time></trkpt><trkpt lat="41.408921" lon="1.8744231"><ele>521.0</ele><time>2026-04-04T14:29:02.049Z</time></trkpt><trkpt lat="41.4089362" lon="1.8745768"><ele>521.0</ele><time>2026-04-04T14:29:03.045Z</time></trkpt><trkpt lat="41.4089374" lon="1.8747389"><ele>521.0</ele><time>2026-04-04T14:29:04.047Z</time></trkpt><trkpt lat="41.4089437" lon="1.8749104"><ele>521.0</ele><time>2026-04-04T14:29:05.049Z</time></trkpt><trkpt lat="41.4089599" lon="1.8750698"><ele>521.0</ele><time>2026-04-04T14:29:06.053Z</time></trkpt><trkpt lat="41.4089845" lon="1.8752101"><ele>520.8333333333333</ele><time>2026-04-04T14:29:07.051Z</time></trkpt><trkpt lat="41.4090182" lon="1.8753043"><ele>520.6666666666666</ele><time>2026-04-04T14:29:08.046Z</time></trkpt><trkpt lat="41.4090734" lon="1.8753743"><ele>520.5</ele><time>2026-04-04T14:29:09.042Z</time></trkpt><trkpt lat="41.4091405" lon="1.8754374"><ele>520.3333333333334</ele><time>2026-04-04T14:29:10.04Z</time></trkpt><trkpt lat="41.4092043" lon="1.8755099"><ele>520.1666666666667</ele><time>2026-04-04T14:29:11.042Z</time></trkpt><trkpt lat="41.4092696" lon="1.8756075"><ele>520.0</ele><time>2026-04-04T14:29:12.044Z</time></trkpt><trkpt lat="41.4093439" lon="1.8757079"><ele>520.0</ele><time>2026-04-04T14:29:13.04Z</time></trkpt><trkpt lat="41.4094255" lon="1.8757957"><ele>520.0</ele><time>2026-04-04T14:29:14.039Z</time></trkpt><trkpt lat="41.4095065" lon="1.8758716"><ele>520.0</ele><time>2026-04-04T14:29:15.044Z</time></trkpt><trkpt lat="41.4095706" lon="1.8759325"><ele>520.0</ele><time>2026-04-04T14:29:16.044Z</time></trkpt><trkpt lat="41.4096283" lon="1.8760061"><ele>520.0</ele><time>2026-04-04T14:29:17.043Z</time></trkpt><trkpt lat="41.4096744" lon="1.8760932"><ele>520.0</ele><time>2026-04-04T14:29:18.046Z</time></trkpt><trkpt lat="41.4097066" lon="1.8761948"><ele>521.1666666666667</ele><time>2026-04-04T14:29:19.045Z</time></trkpt><trkpt lat="41.4097275" lon="1.8762968"><ele>522.3333333333334</ele><time>2026-04-04T14:29:20.052Z</time></trkpt><trkpt lat="41.4097617" lon="1.8763994"><ele>523.5</ele><time>2026-04-04T14:29:21.054Z</time></trkpt><trkpt lat="41.4097946" lon="1.8764945"><ele>524.6666666666666</ele><time>2026-04-04T14:29:22.052Z</time></trkpt><trkpt lat="41.4098268" lon="1.8765933"><ele>525.8333333333333</ele><time>2026-04-04T14:29:23.047Z</time></trkpt><trkpt lat="41.409843" lon="1.8766896"><ele>527.0</ele><time>2026-04-04T14:29:24.05Z</time></trkpt><trkpt lat="41.409847" lon="1.8768353"><ele>527.0</ele><time>2026-04-04T14:29:26.058Z</time></trkpt><trkpt lat="41.4099257" lon="1.876826"><ele>527.0</ele><time>2026-04-04T14:29:30.049Z</time></trkpt><trkpt lat="41.4099835" lon="1.876756"><ele>527.0</ele><time>2026-04-04T14:29:31.044Z</time></trkpt><trkpt lat="41.4100773" lon="1.8766683"><ele>527.0</ele><time>2026-04-04T14:29:33.036Z</time></trkpt><trkpt lat="41.4101837" lon="1.8766417"><ele>527.0</ele><time>2026-04-04T14:29:35.043Z</time></trkpt><trkpt lat="41.4102459" lon="1.8766596"><ele>527.0</ele><time>2026-04-04T14:29:36.05Z</time></trkpt><trkpt lat="41.4103677" lon="1.8766735"><ele>527.0</ele><time>2026-04-04T14:29:38.052Z</time></trkpt><trkpt lat="41.4104365" lon="1.8766717"><ele>527.0</ele><time>2026-04-04T14:29:39.061Z</time></trkpt><trkpt lat="41.4105177" lon="1.8766705"><ele>527.0</ele><time>2026-04-04T14:29:40.053Z</time></trkpt><trkpt lat="41.4106027" lon="1.8766606"><ele>527.0</ele><time>2026-04-04T14:29:41.055Z</time></trkpt><trkpt lat="41.4106931" lon="1.8766526"><ele>527.0</ele><time>2026-04-04T14:29:42.058Z</time></trkpt><trkpt lat="41.4107831" lon="1.8766571"><ele>527.0</ele><time>2026-04-04T14:29:43.054Z</time></trkpt><trkpt lat="41.4108745" lon="1.8766749"><ele>530.2</ele><time>2026-04-04T14:29:44.009Z</time></trkpt><trkpt lat="41.4109702" lon="1.8767099"><ele>533.4000000000001</ele><time>2026-04-04T14:29:45.051Z</time></trkpt><trkpt lat="41.4110673" lon="1.8767488"><ele>536.5999999999999</ele><time>2026-04-04T14:29:46.054Z</time></trkpt><trkpt lat="41.4111644" lon="1.8767746"><ele>539.8</ele><time>2026-04-04T14:29:47.053Z</time></trkpt><trkpt lat="41.4112571" lon="1.8767837"><ele>543.0</ele><time>2026-04-04T14:29:48.046Z</time></trkpt><trkpt lat="41.4113554" lon="1.8767981"><ele>547.0</ele><time>2026-04-04T14:29:49.048Z</time></trkpt><trkpt lat="41.4114497" lon="1.8768055"><ele>551.0</ele><time>2026-04-04T14:29:50.055Z</time></trkpt><trkpt lat="41.41154" lon="1.8768186"><ele>555.0</ele><time>2026-04-04T14:29:51.049Z</time></trkpt><trkpt lat="41.4116218" lon="1.8768406"><ele>559.0</ele><time>2026-04-04T14:29:52.046Z</time></trkpt><trkpt lat="41.4116991" lon="1.876877"><ele>563.0</ele><time>2026-04-04T14:29:53.055Z</time></trkpt><trkpt lat="41.4117652" lon="1.8769355"><ele>567.0</ele><time>2026-04-04T14:29:54.049Z</time></trkpt><trkpt lat="41.4118247" lon="1.8769836"><ele>567.0</ele><time>2026-04-04T14:29:55.058Z</time></trkpt><trkpt lat="41.4119065" lon="1.8770474"><ele>567.0</ele><time>2026-04-04T14:29:57.064Z</time></trkpt><trkpt lat="41.4119901" lon="1.8771075"><ele>567.0</ele><time>2026-04-04T14:30:00.059Z</time></trkpt><trkpt lat="41.4120496" lon="1.877154"><ele>567.0</ele><time>2026-04-04T14:30:02.071Z</time></trkpt><trkpt lat="41.4121337" lon="1.8772251"><ele>567.0</ele><time>2026-04-04T14:30:04.073Z</time></trkpt><trkpt lat="41.412229" lon="1.877292"><ele>566.8000000000001</ele><time>2026-04-04T14:30:06.07Z</time></trkpt><trkpt lat="41.4123231" lon="1.877345"><ele>566.6</ele><time>2026-04-04T14:30:08.075Z</time></trkpt><trkpt lat="41.4124209" lon="1.8773839"><ele>566.4000000000001</ele><time>2026-04-04T14:30:10.074Z</time></trkpt><trkpt lat="41.412498" lon="1.8774186"><ele>566.2</ele><time>2026-04-04T14:30:12.094Z</time></trkpt><trkpt lat="41.4125617" lon="1.8774613"><ele>566.0</ele><time>2026-04-04T14:30:14.093Z</time></trkpt><trkpt lat="41.4125869" lon="1.8775885"><ele>565.2</ele><time>2026-04-04T14:30:16.09Z</time></trkpt><trkpt lat="41.4125848" lon="1.8776901"><ele>564.4000000000001</ele><time>2026-04-04T14:30:17.077Z</time></trkpt><trkpt lat="41.4125794" lon="1.8778097"><ele>563.6</ele><time>2026-04-04T14:30:18.075Z</time></trkpt><trkpt lat="41.4125766" lon="1.8779356"><ele>562.8000000000001</ele><time>2026-04-04T14:30:19.067Z</time></trkpt><trkpt lat="41.4125713" lon="1.8780686"><ele>562.0</ele><time>2026-04-04T14:30:20.071Z</time></trkpt><trkpt lat="41.4125573" lon="1.8782006"><ele>562.0</ele><time>2026-04-04T14:30:21.078Z</time></trkpt><trkpt lat="41.4125374" lon="1.8783234"><ele>562.0</ele><time>2026-04-04T14:30:22.07Z</time></trkpt><trkpt lat="41.4125228" lon="1.8784332"><ele>562.0</ele><time>2026-04-04T14:30:23.058Z</time></trkpt><trkpt lat="41.4125148" lon="1.8785335"><ele>562.0</ele><time>2026-04-04T14:30:24.069Z</time></trkpt><trkpt lat="41.4125167" lon="1.878637"><ele>562.0</ele><time>2026-04-04T14:30:25.077Z</time></trkpt><trkpt lat="41.4125367" lon="1.8787512"><ele>562.0</ele><time>2026-04-04T14:30:26.061Z</time></trkpt><trkpt lat="41.4125707" lon="1.8788799"><ele>562.6</ele><time>2026-04-04T14:30:27.07Z</time></trkpt><trkpt lat="41.4126123" lon="1.8790155"><ele>563.2</ele><time>2026-04-04T14:30:28.071Z</time></trkpt><trkpt lat="41.412662" lon="1.8791526"><ele>563.8</ele><time>2026-04-04T14:30:29.071Z</time></trkpt><trkpt lat="41.4127085" lon="1.8792852"><ele>564.4</ele><time>2026-04-04T14:30:30.064Z</time></trkpt><trkpt lat="41.4127505" lon="1.8794163"><ele>565.0</ele><time>2026-04-04T14:30:31.067Z</time></trkpt><trkpt lat="41.4127957" lon="1.8795456"><ele>566.5</ele><time>2026-04-04T14:30:32.065Z</time></trkpt><trkpt lat="41.4128457" lon="1.8796827"><ele>568.0</ele><time>2026-04-04T14:30:33.064Z</time></trkpt><trkpt lat="41.4129035" lon="1.8798303"><ele>569.5</ele><time>2026-04-04T14:30:34.06Z</time></trkpt><trkpt lat="41.4129761" lon="1.8799767"><ele>571.0</ele><time>2026-04-04T14:30:35.064Z</time></trkpt><trkpt lat="41.4130529" lon="1.8801096"><ele>566.25</ele><time>2026-04-04T14:30:36.068Z</time></trkpt><trkpt lat="41.4131237" lon="1.880243"><ele>561.5</ele><time>2026-04-04T14:30:37.066Z</time></trkpt><trkpt lat="41.4131834" lon="1.8803927"><ele>556.75</ele><time>2026-04-04T14:30:38.066Z</time></trkpt><trkpt lat="41.4132356" lon="1.8805452"><ele>552.0</ele><time>2026-04-04T14:30:39.071Z</time></trkpt><trkpt lat="41.4132878" lon="1.8806853"><ele>552.0</ele><time>2026-04-04T14:30:40.072Z</time></trkpt><trkpt lat="41.4133408" lon="1.8808098"><ele>552.0</ele><time>2026-04-04T14:30:41.06Z</time></trkpt><trkpt lat="41.4133948" lon="1.8809134"><ele>552.0</ele><time>2026-04-04T14:30:42.062Z</time></trkpt><trkpt lat="41.4134502" lon="1.8810003"><ele>552.0</ele><time>2026-04-04T14:30:43.057Z</time></trkpt><trkpt lat="41.4135082" lon="1.8810763"><ele>552.0</ele><time>2026-04-04T14:30:44.073Z</time></trkpt><trkpt lat="41.413561" lon="1.8811521"><ele>552.0</ele><time>2026-04-04T14:30:45.081Z</time></trkpt><trkpt lat="41.413608" lon="1.8812393"><ele>551.2</ele><time>2026-04-04T14:30:46.079Z</time></trkpt><trkpt lat="41.4136567" lon="1.8813452"><ele>550.4000000000001</ele><time>2026-04-04T14:30:47.067Z</time></trkpt><trkpt lat="41.4136976" lon="1.8814728"><ele>549.5999999999999</ele><time>2026-04-04T14:30:48.058Z</time></trkpt><trkpt lat="41.4137323" lon="1.8816089"><ele>548.8</ele><time>2026-04-04T14:30:49.058Z</time></trkpt><trkpt lat="41.4137626" lon="1.8817449"><ele>548.0</ele><time>2026-04-04T14:30:50.065Z</time></trkpt><trkpt lat="41.413791" lon="1.8818676"><ele>548.0</ele><time>2026-04-04T14:30:51.062Z</time></trkpt><trkpt lat="41.413821" lon="1.8819871"><ele>548.0</ele><time>2026-04-04T14:30:52.059Z</time></trkpt><trkpt lat="41.4138469" lon="1.8820999"><ele>548.0</ele><time>2026-04-04T14:30:53.06Z</time></trkpt><trkpt lat="41.4138673" lon="1.8821991"><ele>548.0</ele><time>2026-04-04T14:30:54.067Z</time></trkpt><trkpt lat="41.413882" lon="1.8823354"><ele>548.0</ele><time>2026-04-04T14:30:56.057Z</time></trkpt><trkpt lat="41.4138463" lon="1.882438"><ele>548.0</ele><time>2026-04-04T14:30:58.057Z</time></trkpt><trkpt lat="41.41378" lon="1.8825227"><ele>548.0</ele><time>2026-04-04T14:31:00.065Z</time></trkpt><trkpt lat="41.4136944" lon="1.8825718"><ele>548.0</ele><time>2026-04-04T14:31:02.064Z</time></trkpt><trkpt lat="41.4135863" lon="1.8826146"><ele>548.0</ele><time>2026-04-04T14:31:04.057Z</time></trkpt><trkpt lat="41.4135072" lon="1.8826441"><ele>548.0</ele><time>2026-04-04T14:31:05.051Z</time></trkpt><trkpt lat="41.4134063" lon="1.8827043"><ele>548.0</ele><time>2026-04-04T14:31:06.049Z</time></trkpt><trkpt lat="41.4132951" lon="1.8828043"><ele>546.6</ele><time>2026-04-04T14:31:07.047Z</time></trkpt><trkpt lat="41.4131812" lon="1.8829202"><ele>545.1999999999999</ele><time>2026-04-04T14:31:08.049Z</time></trkpt><trkpt lat="41.4130903" lon="1.8830375"><ele>543.8</ele><time>2026-04-04T14:31:09.044Z</time></trkpt><trkpt lat="41.4130246" lon="1.8831428"><ele>542.4</ele><time>2026-04-04T14:31:10.059Z</time></trkpt><trkpt lat="41.4129835" lon="1.8832275"><ele>541.0</ele><time>2026-04-04T14:31:11.062Z</time></trkpt><trkpt lat="41.4129985" lon="1.8833767"><ele>539.0</ele><time>2026-04-04T14:31:13.06Z</time></trkpt><trkpt lat="41.4130373" lon="1.8834525"><ele>537.0</ele><time>2026-04-04T14:31:14.058Z</time></trkpt><trkpt lat="41.4130877" lon="1.8835316"><ele>535.0</ele><time>2026-04-04T14:31:15.061Z</time></trkpt><trkpt lat="41.4131416" lon="1.883607"><ele>533.0</ele><time>2026-04-04T14:31:16.064Z</time></trkpt><trkpt lat="41.413178" lon="1.883679"><ele>531.0</ele><time>2026-04-04T14:31:17.074Z</time></trkpt><trkpt lat="41.4132267" lon="1.8838095"><ele>529.0</ele><time>2026-04-04T14:31:19.064Z</time></trkpt><trkpt lat="41.4132204" lon="1.8839257"><ele>529.0</ele><time>2026-04-04T14:31:22.082Z</time></trkpt><trkpt lat="41.4131447" lon="1.8839727"><ele>529.0</ele><time>2026-04-04T14:31:24.073Z</time></trkpt><trkpt lat="41.413032" lon="1.8839404"><ele>529.0</ele><time>2026-04-04T14:31:26.063Z</time></trkpt><trkpt lat="41.412953" lon="1.8838989"><ele>529.0</ele><time>2026-04-04T14:31:27.068Z</time></trkpt><trkpt lat="41.4128596" lon="1.8838505"><ele>529.0</ele><time>2026-04-04T14:31:28.058Z</time></trkpt><trkpt lat="41.412759" lon="1.8837949"><ele>528.0</ele><time>2026-04-04T14:31:29.061Z</time></trkpt><trkpt lat="41.4126662" lon="1.8837399"><ele>527.0</ele><time>2026-04-04T14:31:30.06Z</time></trkpt><trkpt lat="41.4125764" lon="1.8836912"><ele>526.0</ele><time>2026-04-04T14:31:31.058Z</time></trkpt><trkpt lat="41.4125079" lon="1.8836647"><ele>525.0</ele><time>2026-04-04T14:31:32.056Z</time></trkpt><trkpt lat="41.4123915" lon="1.8836764"><ele>524.0</ele><time>2026-04-04T14:31:34.042Z</time></trkpt><trkpt lat="41.4123409" lon="1.8837359"><ele>524.0</ele><time>2026-04-04T14:31:35.049Z</time></trkpt><trkpt lat="41.4122877" lon="1.8838178"><ele>524.0</ele><time>2026-04-04T14:31:36.044Z</time></trkpt><trkpt lat="41.4122238" lon="1.8839176"><ele>524.0</ele><time>2026-04-04T14:31:37.044Z</time></trkpt><trkpt lat="41.4121457" lon="1.8840251"><ele>524.0</ele><time>2026-04-04T14:31:38.057Z</time></trkpt><trkpt lat="41.4120651" lon="1.8841477"><ele>524.0</ele><time>2026-04-04T14:31:39.054Z</time></trkpt><trkpt lat="41.4119838" lon="1.8842844"><ele>521.8</ele><time>2026-04-04T14:31:40.058Z</time></trkpt><trkpt lat="41.4119132" lon="1.8844231"><ele>519.5999999999999</ele><time>2026-04-04T14:31:41.058Z</time></trkpt><trkpt lat="41.4118575" lon="1.8845532"><ele>517.4</ele><time>2026-04-04T14:31:42.02Z</time></trkpt><trkpt lat="41.4118159" lon="1.8846787"><ele>515.1999999999999</ele><time>2026-04-04T14:31:43.067Z</time></trkpt><trkpt lat="41.411799" lon="1.8847835"><ele>513.0</ele><time>2026-04-04T14:31:44.065Z</time></trkpt><trkpt lat="41.4118051" lon="1.8848727"><ele>513.0</ele><time>2026-04-04T14:31:45.068Z</time></trkpt><trkpt lat="41.4118557" lon="1.8849383"><ele>513.0</ele><time>2026-04-04T14:31:46.061Z</time></trkpt><trkpt lat="41.4119391" lon="1.8849801"><ele>513.0</ele><time>2026-04-04T14:31:47.056Z</time></trkpt><trkpt lat="41.4120407" lon="1.8850104"><ele>513.0</ele><time>2026-04-04T14:31:48.07Z</time></trkpt><trkpt lat="41.4121548" lon="1.8850361"><ele>513.0</ele><time>2026-04-04T14:31:49.063Z</time></trkpt><trkpt lat="41.4122779" lon="1.8850601"><ele>511.5</ele><time>2026-04-04T14:31:50.064Z</time></trkpt><trkpt lat="41.4124135" lon="1.8851016"><ele>510.0</ele><time>2026-04-04T14:31:51.062Z</time></trkpt><trkpt lat="41.4125554" lon="1.885168"><ele>508.5</ele><time>2026-04-04T14:31:52.063Z</time></trkpt><trkpt lat="41.4126978" lon="1.8852606"><ele>507.0</ele><time>2026-04-04T14:31:53.069Z</time></trkpt><trkpt lat="41.4128334" lon="1.8853727"><ele>507.0</ele><time>2026-04-04T14:31:54.064Z</time></trkpt><trkpt lat="41.4129485" lon="1.8854552"><ele>507.00000000000006</ele><time>2026-04-04T14:31:55.067Z</time></trkpt><trkpt lat="41.4130324" lon="1.8854906"><ele>507.00000000000006</ele><time>2026-04-04T14:31:56.071Z</time></trkpt><trkpt lat="41.4131201" lon="1.8854979"><ele>507.0</ele><time>2026-04-04T14:31:57.066Z</time></trkpt><trkpt lat="41.4132321" lon="1.8854702"><ele>507.0</ele><time>2026-04-04T14:31:58.071Z</time></trkpt><trkpt lat="41.4133517" lon="1.8854197"><ele>506.0</ele><time>2026-04-04T14:31:59.065Z</time></trkpt><trkpt lat="41.4134792" lon="1.8853709"><ele>505.0</ele><time>2026-04-04T14:32:00.067Z</time></trkpt><trkpt lat="41.4136142" lon="1.8853281"><ele>504.0</ele><time>2026-04-04T14:32:01.064Z</time></trkpt><trkpt lat="41.4137564" lon="1.8852879"><ele>503.0</ele><time>2026-04-04T14:32:02.072Z</time></trkpt><trkpt lat="41.4139076" lon="1.8852453"><ele>500.3333333333333</ele><time>2026-04-04T14:32:03.077Z</time></trkpt><trkpt lat="41.4140677" lon="1.8851988"><ele>497.66666666666663</ele><time>2026-04-04T14:32:04.06Z</time></trkpt><trkpt lat="41.4142361" lon="1.8851446"><ele>495.0</ele><time>2026-04-04T14:32:05.068Z</time></trkpt><trkpt lat="41.4143992" lon="1.8850998"><ele>496.25</ele><time>2026-04-04T14:32:06.063Z</time></trkpt><trkpt lat="41.4145501" lon="1.8850792"><ele>497.5</ele><time>2026-04-04T14:32:07.069Z</time></trkpt><trkpt lat="41.414686" lon="1.8850772"><ele>498.75</ele><time>2026-04-04T14:32:08.062Z</time></trkpt><trkpt lat="41.4148205" lon="1.8850935"><ele>500.0</ele><time>2026-04-04T14:32:09.071Z</time></trkpt><trkpt lat="41.41494" lon="1.8851104"><ele>497.8</ele><time>2026-04-04T14:32:10.066Z</time></trkpt><trkpt lat="41.4150477" lon="1.885132"><ele>495.6</ele><time>2026-04-04T14:32:11.063Z</time></trkpt><trkpt lat="41.4151363" lon="1.8851689"><ele>493.4</ele><time>2026-04-04T14:32:12.064Z</time></trkpt><trkpt lat="41.4152029" lon="1.8852449"><ele>491.2</ele><time>2026-04-04T14:32:13.05Z</time></trkpt><trkpt lat="41.415273" lon="1.8853438"><ele>489.0</ele><time>2026-04-04T14:32:14.05Z</time></trkpt><trkpt lat="41.4153468" lon="1.8854253"><ele>489.0</ele><time>2026-04-04T14:32:15.05Z</time></trkpt><trkpt lat="41.4154246" lon="1.8854811"><ele>489.0</ele><time>2026-04-04T14:32:16.059Z</time></trkpt><trkpt lat="41.4155016" lon="1.8855146"><ele>489.0</ele><time>2026-04-04T14:32:17.063Z</time></trkpt><trkpt lat="41.41557" lon="1.8855208"><ele>489.0</ele><time>2026-04-04T14:32:18.055Z</time></trkpt><trkpt lat="41.4156605" lon="1.8855043"><ele>489.0</ele><time>2026-04-04T14:32:20.075Z</time></trkpt><trkpt lat="41.4157163" lon="1.8855466"><ele>489.0</ele><time>2026-04-04T14:32:36.075Z</time></trkpt><trkpt lat="41.4157417" lon="1.885713"><ele>488.7142857142857</ele><time>2026-04-04T14:32:38.072Z</time></trkpt><trkpt lat="41.4157478" lon="1.8857983"><ele>488.42857142857144</ele><time>2026-04-04T14:32:39.072Z</time></trkpt><trkpt lat="41.4157599" lon="1.8858813"><ele>488.14285714285717</ele><time>2026-04-04T14:32:40.085Z</time></trkpt><trkpt lat="41.4157765" lon="1.8859668"><ele>487.8571428571429</ele><time>2026-04-04T14:32:41.082Z</time></trkpt><trkpt lat="41.4157924" lon="1.8860499"><ele>487.57142857142856</ele><time>2026-04-04T14:32:42.098Z</time></trkpt><trkpt lat="41.4158426" lon="1.8861728"><ele>487.28571428571433</ele><time>2026-04-04T14:32:44.083Z</time></trkpt><trkpt lat="41.4159195" lon="1.8862238"><ele>487.0</ele><time>2026-04-04T14:32:46.083Z</time></trkpt><trkpt lat="41.4160121" lon="1.8862172"><ele>487.0</ele><time>2026-04-04T14:32:48.09Z</time></trkpt><trkpt lat="41.4160997" lon="1.8861952"><ele>487.00000000000006</ele><time>2026-04-04T14:32:50.088Z</time></trkpt><trkpt lat="41.4161946" lon="1.88615"><ele>487.00000000000006</ele><time>2026-04-04T14:32:52.073Z</time></trkpt><trkpt lat="41.4163069" lon="1.8861634"><ele>487.0</ele><time>2026-04-04T14:32:54.065Z</time></trkpt><trkpt lat="41.4163674" lon="1.8861989"><ele>487.0</ele><time>2026-04-04T14:32:55.07Z</time></trkpt><trkpt lat="41.4164321" lon="1.8862692"><ele>487.1666666666667</ele><time>2026-04-04T14:32:56.072Z</time></trkpt><trkpt lat="41.4164921" lon="1.8863665"><ele>487.33333333333337</ele><time>2026-04-04T14:32:57.067Z</time></trkpt><trkpt lat="41.4165387" lon="1.8864826"><ele>487.5</ele><time>2026-04-04T14:32:58.063Z</time></trkpt><trkpt lat="41.4165796" lon="1.886603"><ele>487.66666666666663</ele><time>2026-04-04T14:32:59.073Z</time></trkpt><trkpt lat="41.4166066" lon="1.8867013"><ele>487.8333333333333</ele><time>2026-04-04T14:33:00.068Z</time></trkpt><trkpt lat="41.4166585" lon="1.8867653"><ele>488.0</ele><time>2026-04-04T14:33:14.083Z</time></trkpt><trkpt lat="41.4167548" lon="1.8867898"><ele>486.99999999999994</ele><time>2026-04-04T14:33:16.075Z</time></trkpt><trkpt lat="41.4168081" lon="1.8868461"><ele>486.0</ele><time>2026-04-04T14:33:17.068Z</time></trkpt><trkpt lat="41.4168637" lon="1.8869184"><ele>485.0</ele><time>2026-04-04T14:33:18.059Z</time></trkpt><trkpt lat="41.4169122" lon="1.8869937"><ele>484.0</ele><time>2026-04-04T14:33:19.074Z</time></trkpt><trkpt lat="41.4169591" lon="1.8870654"><ele>482.99999999999994</ele><time>2026-04-04T14:33:20.078Z</time></trkpt><trkpt lat="41.4170374" lon="1.8871782"><ele>482.0</ele><time>2026-04-04T14:33:22.064Z</time></trkpt><trkpt lat="41.4171126" lon="1.8872269"><ele>485.0</ele><time>2026-04-04T14:33:30.072Z</time></trkpt><trkpt lat="41.4171982" lon="1.8872837"><ele>488.00000000000006</ele><time>2026-04-04T14:33:32.079Z</time></trkpt><trkpt lat="41.4172683" lon="1.8873203"><ele>491.00000000000006</ele><time>2026-04-04T14:33:34.084Z</time></trkpt><trkpt lat="41.4173469" lon="1.8873839"><ele>494.0</ele><time>2026-04-04T14:33:36.081Z</time></trkpt><trkpt lat="41.4174544" lon="1.8874695"><ele>497.0</ele><time>2026-04-04T14:33:38.078Z</time></trkpt><trkpt lat="41.417507" lon="1.8875183"><ele>496.99999999999994</ele><time>2026-04-04T14:33:39.082Z</time></trkpt><trkpt lat="41.4175656" lon="1.8875642"><ele>497.0</ele><time>2026-04-04T14:33:40.078Z</time></trkpt><trkpt lat="41.4176359" lon="1.8876126"><ele>497.0</ele><time>2026-04-04T14:33:41.034Z</time></trkpt><trkpt lat="41.4177113" lon="1.8876645"><ele>497.0</ele><time>2026-04-04T14:33:42.076Z</time></trkpt><trkpt lat="41.4177841" lon="1.8877143"><ele>496.99999999999994</ele><time>2026-04-04T14:33:43.074Z</time></trkpt><trkpt lat="41.4178575" lon="1.887761"><ele>497.0</ele><time>2026-04-04T14:33:44.083Z</time></trkpt><trkpt lat="41.4179178" lon="1.887803"><ele>497.6</ele><time>2026-04-04T14:33:45.082Z</time></trkpt><trkpt lat="41.4180371" lon="1.8878643"><ele>498.20000000000005</ele><time>2026-04-04T14:33:47.077Z</time></trkpt><trkpt lat="41.4181089" lon="1.8878904"><ele>498.8</ele><time>2026-04-04T14:33:48.079Z</time></trkpt><trkpt lat="41.4181746" lon="1.8879136"><ele>499.4</ele><time>2026-04-04T14:33:49.087Z</time></trkpt><trkpt lat="41.418279" lon="1.887967"><ele>500.0</ele><time>2026-04-04T14:33:51.086Z</time></trkpt><trkpt lat="41.4183722" lon="1.888006"><ele>500.0</ele><time>2026-04-04T14:33:53.085Z</time></trkpt><trkpt lat="41.4184771" lon="1.8880464"><ele>500.0</ele><time>2026-04-04T14:33:55.087Z</time></trkpt><trkpt lat="41.4185745" lon="1.8881455"><ele>500.0</ele><time>2026-04-04T14:33:57.082Z</time></trkpt><trkpt lat="41.4186209" lon="1.888225"><ele>500.0</ele><time>2026-04-04T14:33:58.081Z</time></trkpt><trkpt lat="41.4186712" lon="1.8883104"><ele>500.0</ele><time>2026-04-04T14:33:59.084Z</time></trkpt><trkpt lat="41.4187307" lon="1.8883857"><ele>499.16666666666663</ele><time>2026-04-04T14:34:00.072Z</time></trkpt><trkpt lat="41.418797" lon="1.8884431"><ele>498.3333333333333</ele><time>2026-04-04T14:34:01.083Z</time></trkpt><trkpt lat="41.418859" lon="1.8884798"><ele>497.5</ele><time>2026-04-04T14:34:02.077Z</time></trkpt><trkpt lat="41.4189337" lon="1.8885927"><ele>496.66666666666663</ele><time>2026-04-04T14:34:04.077Z</time></trkpt><trkpt lat="41.4189567" lon="1.8886737"><ele>495.8333333333333</ele><time>2026-04-04T14:34:05.077Z</time></trkpt><trkpt lat="41.418975" lon="1.8887592"><ele>495.0</ele><time>2026-04-04T14:34:06.08Z</time></trkpt><trkpt lat="41.4190293" lon="1.8888662"><ele>498.0</ele><time>2026-04-04T14:34:08.079Z</time></trkpt><trkpt lat="41.4191279" lon="1.8888798"><ele>501.0</ele><time>2026-04-04T14:34:10.085Z</time></trkpt><trkpt lat="41.4192436" lon="1.8888769"><ele>504.0</ele><time>2026-04-04T14:34:12.076Z</time></trkpt><trkpt lat="41.4193759" lon="1.8888946"><ele>507.0</ele><time>2026-04-04T14:34:14.084Z</time></trkpt><trkpt lat="41.4194516" lon="1.8889019"><ele>510.0</ele><time>2026-04-04T14:34:15.082Z</time></trkpt><trkpt lat="41.4195318" lon="1.8889114"><ele>510.0</ele><time>2026-04-04T14:34:16.085Z</time></trkpt><trkpt lat="41.4196127" lon="1.8889346"><ele>510.0</ele><time>2026-04-04T14:34:17.083Z</time></trkpt><trkpt lat="41.4196977" lon="1.8889674"><ele>510.0</ele><time>2026-04-04T14:34:18.08Z</time></trkpt><trkpt lat="41.4197792" lon="1.8889927"><ele>510.0</ele><time>2026-04-04T14:34:19.083Z</time></trkpt><trkpt lat="41.419852" lon="1.8890165"><ele>510.0</ele><time>2026-04-04T14:34:20.082Z</time></trkpt><trkpt lat="41.4199192" lon="1.8890303"><ele>510.0</ele><time>2026-04-04T14:34:21.093Z</time></trkpt><trkpt lat="41.4200278" lon="1.8890183"><ele>511.6666666666667</ele><time>2026-04-04T14:34:23.09Z</time></trkpt><trkpt lat="41.4201076" lon="1.888971"><ele>513.3333333333334</ele><time>2026-04-04T14:34:25.089Z</time></trkpt><trkpt lat="41.4201975" lon="1.888923"><ele>515.0</ele><time>2026-04-04T14:34:27.082Z</time></trkpt><trkpt lat="41.4202872" lon="1.8889129"><ele>516.6666666666667</ele><time>2026-04-04T14:34:29.087Z</time></trkpt><trkpt lat="41.4203383" lon="1.8889882"><ele>518.3333333333334</ele><time>2026-04-04T14:34:31.081Z</time></trkpt><trkpt lat="41.4203581" lon="1.8891045"><ele>520.0</ele><time>2026-04-04T14:34:33.084Z</time></trkpt><trkpt lat="41.4204181" lon="1.8891851"><ele>520.8</ele><time>2026-04-04T14:34:36.087Z</time></trkpt><trkpt lat="41.4205049" lon="1.8892658"><ele>521.6</ele><time>2026-04-04T14:34:38.092Z</time></trkpt><trkpt lat="41.4205843" lon="1.8893213"><ele>522.4</ele><time>2026-04-04T14:34:40.098Z</time></trkpt><trkpt lat="41.4206862" lon="1.8893684"><ele>523.2</ele><time>2026-04-04T14:34:42.072Z</time></trkpt><trkpt lat="41.4207967" lon="1.8894172"><ele>524.0</ele><time>2026-04-04T14:34:44.076Z</time></trkpt><trkpt lat="41.420898" lon="1.8894699"><ele>524.0</ele><time>2026-04-04T14:34:46.076Z</time></trkpt><trkpt lat="41.4209854" lon="1.8895551"><ele>524.0</ele><time>2026-04-04T14:34:48.073Z</time></trkpt><trkpt lat="41.4210556" lon="1.8896464"><ele>524.0</ele><time>2026-04-04T14:34:50.068Z</time></trkpt><trkpt lat="41.4210892" lon="1.8897413"><ele>524.0</ele><time>2026-04-04T14:34:58.092Z</time></trkpt><trkpt lat="41.4211175" lon="1.8898278"><ele>524.0</ele><time>2026-04-04T14:35:01.097Z</time></trkpt><trkpt lat="41.4211414" lon="1.8899099"><ele>524.0</ele><time>2026-04-04T14:35:04.09Z</time></trkpt><trkpt lat="41.4211843" lon="1.8900083"><ele>523.8333333333333</ele><time>2026-04-04T14:35:09.095Z</time></trkpt><trkpt lat="41.4212199" lon="1.8901256"><ele>523.6666666666666</ele><time>2026-04-04T14:35:12.088Z</time></trkpt><trkpt lat="41.4212522" lon="1.8902349"><ele>523.5</ele><time>2026-04-04T14:35:15.098Z</time></trkpt><trkpt lat="41.4213007" lon="1.8903198"><ele>523.3333333333334</ele><time>2026-04-04T14:35:18.102Z</time></trkpt><trkpt lat="41.4213459" lon="1.8903922"><ele>523.1666666666667</ele><time>2026-04-04T14:35:23.095Z</time></trkpt><trkpt lat="41.4213764" lon="1.8905006"><ele>523.0</ele><time>2026-04-04T14:35:26.088Z</time></trkpt><trkpt lat="41.4213911" lon="1.8906177"><ele>526.3333333333334</ele><time>2026-04-04T14:35:28.101Z</time></trkpt><trkpt lat="41.4214093" lon="1.8907222"><ele>529.6666666666667</ele><time>2026-04-04T14:35:31.09Z</time></trkpt><trkpt lat="41.4214234" lon="1.8908493"><ele>533.0</ele><time>2026-04-04T14:35:37.087Z</time></trkpt><trkpt lat="41.4214255" lon="1.8909378"><ele>536.3333333333334</ele><time>2026-04-04T14:35:38.077Z</time></trkpt><trkpt lat="41.4214208" lon="1.8910234"><ele>539.6666666666666</ele><time>2026-04-04T14:35:39.077Z</time></trkpt><trkpt lat="41.4214144" lon="1.8911378"><ele>543.0</ele><time>2026-04-04T14:35:41.078Z</time></trkpt><trkpt lat="41.4214424" lon="1.8912325"><ele>543.0</ele><time>2026-04-04T14:35:44.091Z</time></trkpt><trkpt lat="41.4215008" lon="1.891289"><ele>543.0</ele><time>2026-04-04T14:35:47.093Z</time></trkpt><trkpt lat="41.4215866" lon="1.891274"><ele>543.0</ele><time>2026-04-04T14:35:50.099Z</time></trkpt><trkpt lat="41.4216472" lon="1.8912453"><ele>543.0</ele><time>2026-04-04T14:35:52.111Z</time></trkpt><trkpt lat="41.4217234" lon="1.8912119"><ele>543.0</ele><time>2026-04-04T14:35:54.112Z</time></trkpt><trkpt lat="41.4218449" lon="1.8912689"><ele>543.0</ele><time>2026-04-04T14:35:56.116Z</time></trkpt><trkpt lat="41.4219298" lon="1.8913123"><ele>543.0</ele><time>2026-04-04T14:35:57.112Z</time></trkpt><trkpt lat="41.422031" lon="1.8913582"><ele>543.0</ele><time>2026-04-04T14:35:58.115Z</time></trkpt><trkpt lat="41.4221392" lon="1.8913976"><ele>543.0</ele><time>2026-04-04T14:35:59.122Z</time></trkpt><trkpt lat="41.4222407" lon="1.8914295"><ele>543.0</ele><time>2026-04-04T14:36:00.099Z</time></trkpt><trkpt lat="41.4223237" lon="1.8914553"><ele>543.0</ele><time>2026-04-04T14:36:01.099Z</time></trkpt><trkpt lat="41.4223854" lon="1.8914839"><ele>542.5</ele><time>2026-04-04T14:36:02.095Z</time></trkpt><trkpt lat="41.42247" lon="1.8915964"><ele>542.0</ele><time>2026-04-04T14:36:04.093Z</time></trkpt><trkpt lat="41.4224978" lon="1.8916782"><ele>541.5</ele><time>2026-04-04T14:36:05.104Z</time></trkpt><trkpt lat="41.4225364" lon="1.8918115"><ele>541.0</ele><time>2026-04-04T14:36:07.12Z</time></trkpt><trkpt lat="41.4225811" lon="1.8918812"><ele>540.5</ele><time>2026-04-04T14:36:09.135Z</time></trkpt><trkpt lat="41.4226526" lon="1.8919295"><ele>540.0</ele><time>2026-04-04T14:36:11.13Z</time></trkpt><trkpt lat="41.4227751" lon="1.8919523"><ele>540.0</ele><time>2026-04-04T14:36:13.125Z</time></trkpt><trkpt lat="41.4228506" lon="1.8919679"><ele>540.0</ele><time>2026-04-04T14:36:14.124Z</time></trkpt><trkpt lat="41.42292" lon="1.892008"><ele>540.0</ele><time>2026-04-04T14:36:15.117Z</time></trkpt><trkpt lat="41.4229784" lon="1.8920634"><ele>540.0</ele><time>2026-04-04T14:36:16.088Z</time></trkpt><trkpt lat="41.423062" lon="1.8921575"><ele>540.0</ele><time>2026-04-04T14:36:18.078Z</time></trkpt><trkpt lat="41.4230923" lon="1.8920722"><ele>540.0</ele><time>2026-04-04T14:37:56.055Z</time></trkpt><trkpt lat="41.4231045" lon="1.8919676"><ele>542.3333333333334</ele><time>2026-04-04T14:37:58.06Z</time></trkpt><trkpt lat="41.4231153" lon="1.8918565"><ele>544.6666666666667</ele><time>2026-04-04T14:38:00.034Z</time></trkpt><trkpt lat="41.4231639" lon="1.8916682"><ele>547.0</ele><time>2026-04-04T14:38:03.061Z</time></trkpt><trkpt lat="41.423399" lon="1.8913224"><ele>549.2</ele><time>2026-04-04T14:38:10.052Z</time></trkpt><trkpt lat="41.4234562" lon="1.8912794"><ele>551.4000000000001</ele><time>2026-04-04T14:38:11.051Z</time></trkpt><trkpt lat="41.4235307" lon="1.8911843"><ele>553.5999999999999</ele><time>2026-04-04T14:38:13.059Z</time></trkpt><trkpt lat="41.4235551" lon="1.8910702"><ele>555.8</ele><time>2026-04-04T14:38:15.058Z</time></trkpt><trkpt lat="41.4235467" lon="1.8909029"><ele>558.0</ele><time>2026-04-04T14:38:17.044Z</time></trkpt><trkpt lat="41.4235476" lon="1.8908137"><ele>558.8333333333334</ele><time>2026-04-04T14:38:18.049Z</time></trkpt><trkpt lat="41.4235642" lon="1.8907223"><ele>559.6666666666666</ele><time>2026-04-04T14:38:19.046Z</time></trkpt><trkpt lat="41.423583" lon="1.8906293"><ele>560.5</ele><time>2026-04-04T14:38:20.049Z</time></trkpt><trkpt lat="41.4236005" lon="1.8905447"><ele>561.3333333333333</ele><time>2026-04-04T14:38:21.049Z</time></trkpt><trkpt lat="41.423616" lon="1.890397"><ele>562.1666666666666</ele><time>2026-04-04T14:38:23.048Z</time></trkpt><trkpt lat="41.4236088" lon="1.8902642"><ele>563.0</ele><time>2026-04-04T14:38:25.056Z</time></trkpt><trkpt lat="41.4236351" lon="1.8901031"><ele>563.5</ele><time>2026-04-04T14:38:27.061Z</time></trkpt><trkpt lat="41.4236517" lon="1.8900174"><ele>564.0</ele><time>2026-04-04T14:38:28.062Z</time></trkpt><trkpt lat="41.4236659" lon="1.889935"><ele>564.5</ele><time>2026-04-04T14:38:29.055Z</time></trkpt><trkpt lat="41.4237055" lon="1.889811"><ele>565.0</ele><time>2026-04-04T14:38:31.057Z</time></trkpt><trkpt lat="41.4237998" lon="1.889718"><ele>565.5</ele><time>2026-04-04T14:38:33.061Z</time></trkpt><trkpt lat="41.4238614" lon="1.8896501"><ele>566.0</ele><time>2026-04-04T14:38:34.058Z</time></trkpt><trkpt lat="41.423923" lon="1.8895562"><ele>563.8333333333333</ele><time>2026-04-04T14:38:35.058Z</time></trkpt><trkpt lat="41.4239841" lon="1.889449"><ele>561.6666666666666</ele><time>2026-04-04T14:38:36.059Z</time></trkpt><trkpt lat="41.4240442" lon="1.8893448"><ele>559.5</ele><time>2026-04-04T14:38:37.059Z</time></trkpt><trkpt lat="41.4241002" lon="1.8892467"><ele>557.3333333333334</ele><time>2026-04-04T14:38:38.056Z</time></trkpt><trkpt lat="41.4241422" lon="1.8891529"><ele>555.1666666666667</ele><time>2026-04-04T14:38:39.053Z</time></trkpt><trkpt lat="41.4241638" lon="1.8890657"><ele>553.0</ele><time>2026-04-04T14:38:40.053Z</time></trkpt><trkpt lat="41.4241714" lon="1.8889527"><ele>553.0</ele><time>2026-04-04T14:38:42.047Z</time></trkpt><trkpt lat="41.4241675" lon="1.8888638"><ele>553.0</ele><time>2026-04-04T14:38:44.06Z</time></trkpt><trkpt lat="41.4241724" lon="1.8887092"><ele>553.0</ele><time>2026-04-04T14:38:46.049Z</time></trkpt><trkpt lat="41.424177" lon="1.8886144"><ele>553.0</ele><time>2026-04-04T14:38:47.048Z</time></trkpt><trkpt lat="41.4241838" lon="1.8885191"><ele>553.0</ele><time>2026-04-04T14:38:48.045Z</time></trkpt><trkpt lat="41.4242056" lon="1.8884378"><ele>553.0</ele><time>2026-04-04T14:38:50.059Z</time></trkpt><trkpt lat="41.4242723" lon="1.8883998"><ele>554.1999999999999</ele><time>2026-04-04T14:39:04.087Z</time></trkpt><trkpt lat="41.4243423" lon="1.8883285"><ele>555.4</ele><time>2026-04-04T14:39:06.08Z</time></trkpt><trkpt lat="41.4244338" lon="1.8882232"><ele>556.5999999999999</ele><time>2026-04-04T14:39:08.076Z</time></trkpt><trkpt lat="41.4245412" lon="1.8881893"><ele>557.8</ele><time>2026-04-04T14:39:10.082Z</time></trkpt><trkpt lat="41.4246054" lon="1.8881876"><ele>559.0</ele><time>2026-04-04T14:39:11.073Z</time></trkpt><trkpt lat="41.424675" lon="1.8881775"><ele>559.0</ele><time>2026-04-04T14:39:12.077Z</time></trkpt><trkpt lat="41.4247512" lon="1.8881617"><ele>559.0</ele><time>2026-04-04T14:39:13.079Z</time></trkpt><trkpt lat="41.4248215" lon="1.8881546"><ele>559.0</ele><time>2026-04-04T14:39:14.073Z</time></trkpt><trkpt lat="41.4249452" lon="1.8881903"><ele>559.0</ele><time>2026-04-04T14:39:16.079Z</time></trkpt><trkpt lat="41.4250058" lon="1.888245"><ele>559.0</ele><time>2026-04-04T14:39:17.074Z</time></trkpt><trkpt lat="41.4250619" lon="1.8883255"><ele>559.0</ele><time>2026-04-04T14:39:18.083Z</time></trkpt><trkpt lat="41.4251063" lon="1.8884384"><ele>557.75</ele><time>2026-04-04T14:39:19.074Z</time></trkpt><trkpt lat="41.4251421" lon="1.8885702"><ele>556.5</ele><time>2026-04-04T14:39:20.08Z</time></trkpt><trkpt lat="41.4251784" lon="1.8887103"><ele>555.25</ele><time>2026-04-04T14:39:21.08Z</time></trkpt><trkpt lat="41.4252157" lon="1.8888619"><ele>554.0</ele><time>2026-04-04T14:39:22.064Z</time></trkpt><trkpt lat="41.4252637" lon="1.8890209"><ele>554.0</ele><time>2026-04-04T14:39:23.069Z</time></trkpt><trkpt lat="41.4253058" lon="1.8891821"><ele>554.0</ele><time>2026-04-04T14:39:24.062Z</time></trkpt><trkpt lat="41.4253314" lon="1.8893435"><ele>554.0</ele><time>2026-04-04T14:39:25.071Z</time></trkpt><trkpt lat="41.4253476" lon="1.8894894"><ele>554.0</ele><time>2026-04-04T14:39:26.075Z</time></trkpt><trkpt lat="41.4253738" lon="1.8896387"><ele>555.1666666666666</ele><time>2026-04-04T14:39:27.073Z</time></trkpt><trkpt lat="41.4254215" lon="1.8897688"><ele>556.3333333333333</ele><time>2026-04-04T14:39:28.073Z</time></trkpt><trkpt lat="41.4254771" lon="1.8898737"><ele>557.5</ele><time>2026-04-04T14:39:29.067Z</time></trkpt><trkpt lat="41.4255268" lon="1.8899632"><ele>558.6666666666666</ele><time>2026-04-04T14:39:30.068Z</time></trkpt><trkpt lat="41.4255922" lon="1.8900092"><ele>559.8333333333334</ele><time>2026-04-04T14:39:31.061Z</time></trkpt><trkpt lat="41.4256655" lon="1.8900384"><ele>561.0</ele><time>2026-04-04T14:39:32.064Z</time></trkpt><trkpt lat="41.4257502" lon="1.8900582"><ele>561.0</ele><time>2026-04-04T14:39:33.023Z</time></trkpt><trkpt lat="41.4258575" lon="1.8900605"><ele>561.0</ele><time>2026-04-04T14:39:34.067Z</time></trkpt><trkpt lat="41.4259779" lon="1.8900633"><ele>561.0</ele><time>2026-04-04T14:39:35.067Z</time></trkpt><trkpt lat="41.4261027" lon="1.8900886"><ele>561.0</ele><time>2026-04-04T14:39:36.072Z</time></trkpt><trkpt lat="41.4262089" lon="1.890117"><ele>556.2</ele><time>2026-04-04T14:39:37.072Z</time></trkpt><trkpt lat="41.426309" lon="1.8901333"><ele>551.4000000000001</ele><time>2026-04-04T14:39:38.082Z</time></trkpt><trkpt lat="41.4264021" lon="1.8901476"><ele>546.6</ele><time>2026-04-04T14:39:39.075Z</time></trkpt><trkpt lat="41.4264891" lon="1.8901549"><ele>541.8000000000001</ele><time>2026-04-04T14:39:40.073Z</time></trkpt><trkpt lat="41.4265796" lon="1.8901481"><ele>537.0</ele><time>2026-04-04T14:39:41.065Z</time></trkpt><trkpt lat="41.4266662" lon="1.8901412"><ele>536.6666666666666</ele><time>2026-04-04T14:39:42.055Z</time></trkpt><trkpt lat="41.4267483" lon="1.8901312"><ele>536.3333333333334</ele><time>2026-04-04T14:39:43.072Z</time></trkpt><trkpt lat="41.4268193" lon="1.8901287"><ele>536.0</ele><time>2026-04-04T14:39:44.072Z</time></trkpt><trkpt lat="41.4268866" lon="1.8901523"><ele>535.6666666666667</ele><time>2026-04-04T14:39:45.071Z</time></trkpt><trkpt lat="41.4269773" lon="1.890204"><ele>535.3333333333334</ele><time>2026-04-04T14:39:46.088Z</time></trkpt><trkpt lat="41.4270872" lon="1.8902597"><ele>535.0</ele><time>2026-04-04T14:39:47.08Z</time></trkpt><trkpt lat="41.4272081" lon="1.8903227"><ele>535.0</ele><time>2026-04-04T14:39:48.071Z</time></trkpt><trkpt lat="41.4273421" lon="1.8904002"><ele>535.0</ele><time>2026-04-04T14:39:49.076Z</time></trkpt><trkpt lat="41.4274865" lon="1.8905162"><ele>535.0</ele><time>2026-04-04T14:39:50.08Z</time></trkpt><trkpt lat="41.4276194" lon="1.8906358"><ele>535.0</ele><time>2026-04-04T14:39:51.075Z</time></trkpt><trkpt lat="41.4277177" lon="1.890733"><ele>535.0</ele><time>2026-04-04T14:39:52.084Z</time></trkpt><trkpt lat="41.4278036" lon="1.8907764"><ele>535.0</ele><time>2026-04-04T14:39:53.074Z</time></trkpt><trkpt lat="41.4279209" lon="1.8907912"><ele>535.0</ele><time>2026-04-04T14:39:54.076Z</time></trkpt><trkpt lat="41.4280451" lon="1.8908146"><ele>536.0</ele><time>2026-04-04T14:39:55.077Z</time></trkpt><trkpt lat="41.4281574" lon="1.8908579"><ele>537.0</ele><time>2026-04-04T14:39:56.08Z</time></trkpt><trkpt lat="41.4282576" lon="1.8909218"><ele>538.0</ele><time>2026-04-04T14:39:57.066Z</time></trkpt><trkpt lat="41.4283374" lon="1.890985"><ele>539.0</ele><time>2026-04-04T14:39:58.068Z</time></trkpt><trkpt lat="41.4283952" lon="1.8910496"><ele>540.0</ele><time>2026-04-04T14:39:59.077Z</time></trkpt><trkpt lat="41.4284441" lon="1.8911118"><ele>540.0</ele><time>2026-04-04T14:40:00.086Z</time></trkpt><trkpt lat="41.4284908" lon="1.8911729"><ele>540.0</ele><time>2026-04-04T14:40:01.075Z</time></trkpt><trkpt lat="41.4285486" lon="1.8912396"><ele>540.0</ele><time>2026-04-04T14:40:02.083Z</time></trkpt><trkpt lat="41.4286195" lon="1.8913064"><ele>540.0</ele><time>2026-04-04T14:40:03.084Z</time></trkpt><trkpt lat="41.428702" lon="1.8913679"><ele>540.0</ele><time>2026-04-04T14:40:04.077Z</time></trkpt><trkpt lat="41.4287923" lon="1.8914239"><ele>540.0</ele><time>2026-04-04T14:40:05.068Z</time></trkpt><trkpt lat="41.4288885" lon="1.8914687"><ele>541.5</ele><time>2026-04-04T14:40:06.074Z</time></trkpt><trkpt lat="41.4289963" lon="1.8914902"><ele>543.0</ele><time>2026-04-04T14:40:07.071Z</time></trkpt><trkpt lat="41.429117" lon="1.8914882"><ele>544.5</ele><time>2026-04-04T14:40:08.074Z</time></trkpt><trkpt lat="41.4292362" lon="1.8914715"><ele>546.0</ele><time>2026-04-04T14:40:09.086Z</time></trkpt><trkpt lat="41.4293505" lon="1.8914553"><ele>546.0</ele><time>2026-04-04T14:40:10.082Z</time></trkpt><trkpt lat="41.4294582" lon="1.8914556"><ele>546.0</ele><time>2026-04-04T14:40:11.083Z</time></trkpt><trkpt lat="41.4295527" lon="1.8914987"><ele>546.0</ele><time>2026-04-04T14:40:12.068Z</time></trkpt><trkpt lat="41.4296522" lon="1.8915827"><ele>546.0</ele><time>2026-04-04T14:40:13.071Z</time></trkpt><trkpt lat="41.4297494" lon="1.891687"><ele>545.0</ele><time>2026-04-04T14:40:14.067Z</time></trkpt><trkpt lat="41.4298567" lon="1.8918037"><ele>544.0</ele><time>2026-04-04T14:40:15.067Z</time></trkpt><trkpt lat="41.4299613" lon="1.891933"><ele>543.0</ele><time>2026-04-04T14:40:16.075Z</time></trkpt><trkpt lat="41.4300657" lon="1.8920849"><ele>542.0</ele><time>2026-04-04T14:40:17.067Z</time></trkpt><trkpt lat="41.4301801" lon="1.8922369"><ele>542.0</ele><time>2026-04-04T14:40:18.071Z</time></trkpt><trkpt lat="41.4302782" lon="1.8923301"><ele>542.0</ele><time>2026-04-04T14:40:19.067Z</time></trkpt><trkpt lat="41.4303677" lon="1.8923768"><ele>542.0</ele><time>2026-04-04T14:40:20.071Z</time></trkpt><trkpt lat="41.430434" lon="1.8923803"><ele>542.0</ele><time>2026-04-04T14:40:21.072Z</time></trkpt><trkpt lat="41.4305185" lon="1.892372"><ele>542.0</ele><time>2026-04-04T14:40:23.078Z</time></trkpt><trkpt lat="41.4305108" lon="1.892467"><ele>542.0</ele><time>2026-04-04T14:40:31.095Z</time></trkpt><trkpt lat="41.4305171" lon="1.8925649"><ele>542.4</ele><time>2026-04-04T14:40:32.039Z</time></trkpt><trkpt lat="41.4305338" lon="1.8926965"><ele>542.8000000000001</ele><time>2026-04-04T14:40:33.084Z</time></trkpt><trkpt lat="41.430552" lon="1.892832"><ele>543.2</ele><time>2026-04-04T14:40:34.087Z</time></trkpt><trkpt lat="41.4305677" lon="1.8929763"><ele>543.6</ele><time>2026-04-04T14:40:35.088Z</time></trkpt><trkpt lat="41.4305647" lon="1.8931274"><ele>544.0</ele><time>2026-04-04T14:40:36.095Z</time></trkpt><trkpt lat="41.4305294" lon="1.8932795"><ele>548.75</ele><time>2026-04-04T14:40:37.084Z</time></trkpt><trkpt lat="41.4304725" lon="1.8934298"><ele>553.5</ele><time>2026-04-04T14:40:38.088Z</time></trkpt><trkpt lat="41.4304241" lon="1.893578"><ele>558.25</ele><time>2026-04-04T14:40:39.083Z</time></trkpt><trkpt lat="41.4303901" lon="1.8937282"><ele>563.0</ele><time>2026-04-04T14:40:40.079Z</time></trkpt><trkpt lat="41.4303648" lon="1.8938772"><ele>563.0</ele><time>2026-04-04T14:40:41.092Z</time></trkpt><trkpt lat="41.430341" lon="1.894024"><ele>563.0</ele><time>2026-04-04T14:40:42.091Z</time></trkpt><trkpt lat="41.4303218" lon="1.8941672"><ele>563.0</ele><time>2026-04-04T14:40:43.101Z</time></trkpt><trkpt lat="41.4303005" lon="1.8943129"><ele>563.0</ele><time>2026-04-04T14:40:44.108Z</time></trkpt><trkpt lat="41.4302704" lon="1.8944627"><ele>563.0</ele><time>2026-04-04T14:40:45.093Z</time></trkpt><trkpt lat="41.4302337" lon="1.8946168"><ele>564.25</ele><time>2026-04-04T14:40:46.094Z</time></trkpt><trkpt lat="41.4301846" lon="1.8947685"><ele>565.5</ele><time>2026-04-04T14:40:47.09Z</time></trkpt><trkpt lat="41.4301259" lon="1.8949136"><ele>566.75</ele><time>2026-04-04T14:40:48.088Z</time></trkpt><trkpt lat="41.4300645" lon="1.8950433"><ele>568.0</ele><time>2026-04-04T14:40:49.098Z</time></trkpt><trkpt lat="41.4300041" lon="1.895148"><ele>568.0</ele><time>2026-04-04T14:40:50.108Z</time></trkpt><trkpt lat="41.4299421" lon="1.89526"><ele>568.0</ele><time>2026-04-04T14:40:51.087Z</time></trkpt><trkpt lat="41.4298753" lon="1.8953912"><ele>568.0</ele><time>2026-04-04T14:40:52.094Z</time></trkpt><trkpt lat="41.4298073" lon="1.8955443"><ele>568.0</ele><time>2026-04-04T14:40:53.094Z</time></trkpt><trkpt lat="41.4297374" lon="1.8956999"><ele>568.0</ele><time>2026-04-04T14:40:54.1Z</time></trkpt><trkpt lat="41.4296605" lon="1.8958484"><ele>568.0</ele><time>2026-04-04T14:40:55.081Z</time></trkpt><trkpt lat="41.4295711" lon="1.8959893"><ele>568.0</ele><time>2026-04-04T14:40:56.091Z</time></trkpt><trkpt lat="41.4294829" lon="1.8961395"><ele>568.0</ele><time>2026-04-04T14:40:57.101Z</time></trkpt><trkpt lat="41.4294038" lon="1.8963005"><ele>568.8</ele><time>2026-04-04T14:40:58.1Z</time></trkpt><trkpt lat="41.4293419" lon="1.8964496"><ele>569.5999999999999</ele><time>2026-04-04T14:40:59.095Z</time></trkpt><trkpt lat="41.4292848" lon="1.8965692"><ele>570.4000000000001</ele><time>2026-04-04T14:41:00.098Z</time></trkpt><trkpt lat="41.4292311" lon="1.8966432"><ele>571.2</ele><time>2026-04-04T14:41:01.097Z</time></trkpt><trkpt lat="41.4291847" lon="1.8967018"><ele>572.0</ele><time>2026-04-04T14:41:02.091Z</time></trkpt><trkpt lat="41.4291181" lon="1.8967768"><ele>572.0</ele><time>2026-04-04T14:41:04.099Z</time></trkpt><trkpt lat="41.4290495" lon="1.8968443"><ele>572.0</ele><time>2026-04-04T14:41:06.092Z</time></trkpt><trkpt lat="41.4289631" lon="1.896927"><ele>572.0</ele><time>2026-04-04T14:41:08.089Z</time></trkpt><trkpt lat="41.4289107" lon="1.8969736"><ele>572.0</ele><time>2026-04-04T14:41:09.098Z</time></trkpt><trkpt lat="41.4288533" lon="1.8970247"><ele>572.0</ele><time>2026-04-04T14:41:10.093Z</time></trkpt><trkpt lat="41.4287863" lon="1.8970789"><ele>572.0</ele><time>2026-04-04T14:41:11.093Z</time></trkpt><trkpt lat="41.428718" lon="1.8971371"><ele>571.8000000000001</ele><time>2026-04-04T14:41:12.087Z</time></trkpt><trkpt lat="41.4286615" lon="1.8972014"><ele>571.6</ele><time>2026-04-04T14:41:13.081Z</time></trkpt><trkpt lat="41.4286174" lon="1.8972711"><ele>571.4000000000001</ele><time>2026-04-04T14:41:14.084Z</time></trkpt><trkpt lat="41.4285937" lon="1.8974151"><ele>571.2</ele><time>2026-04-04T14:41:16.086Z</time></trkpt><trkpt lat="41.4286846" lon="1.8975531"><ele>571.0</ele><time>2026-04-04T14:41:18.081Z</time></trkpt><trkpt lat="41.4287483" lon="1.8976221"><ele>570.8333333333334</ele><time>2026-04-04T14:41:19.08Z</time></trkpt><trkpt lat="41.4288211" lon="1.8976857"><ele>570.6666666666667</ele><time>2026-04-04T14:41:20.086Z</time></trkpt><trkpt lat="41.4289023" lon="1.897733"><ele>570.5</ele><time>2026-04-04T14:41:21.085Z</time></trkpt><trkpt lat="41.4289827" lon="1.897778"><ele>570.3333333333334</ele><time>2026-04-04T14:41:22.069Z</time></trkpt><trkpt lat="41.4290534" lon="1.8978333"><ele>570.1666666666666</ele><time>2026-04-04T14:41:23.083Z</time></trkpt><trkpt lat="41.4291123" lon="1.8979159"><ele>570.0</ele><time>2026-04-04T14:41:24.093Z</time></trkpt><trkpt lat="41.4291569" lon="1.8980172"><ele>570.0</ele><time>2026-04-04T14:41:25.097Z</time></trkpt><trkpt lat="41.4291915" lon="1.8981072"><ele>570.0</ele><time>2026-04-04T14:41:26.091Z</time></trkpt><trkpt lat="41.4292405" lon="1.8982114"><ele>570.0</ele><time>2026-04-04T14:41:28.093Z</time></trkpt><trkpt lat="41.4292505" lon="1.8983285"><ele>570.0</ele><time>2026-04-04T14:41:50.108Z</time></trkpt><trkpt lat="41.4292656" lon="1.8984345"><ele>570.0</ele><time>2026-04-04T14:41:51.106Z</time></trkpt><trkpt lat="41.4292899" lon="1.8985635"><ele>570.0</ele><time>2026-04-04T14:41:52.1Z</time></trkpt><trkpt lat="41.4293187" lon="1.8986811"><ele>569.2</ele><time>2026-04-04T14:41:53.083Z</time></trkpt><trkpt lat="41.4293563" lon="1.8988021"><ele>568.4</ele><time>2026-04-04T14:41:54.087Z</time></trkpt><trkpt lat="41.4293917" lon="1.8989172"><ele>567.6</ele><time>2026-04-04T14:41:55.088Z</time></trkpt><trkpt lat="41.4294376" lon="1.8990352"><ele>566.8</ele><time>2026-04-04T14:41:56.088Z</time></trkpt><trkpt lat="41.4294851" lon="1.8991502"><ele>566.0</ele><time>2026-04-04T14:41:57.092Z</time></trkpt><trkpt lat="41.4295389" lon="1.8992595"><ele>565.0</ele><time>2026-04-04T14:41:58.093Z</time></trkpt><trkpt lat="41.4296001" lon="1.8993674"><ele>564.0</ele><time>2026-04-04T14:41:59.091Z</time></trkpt><trkpt lat="41.4296707" lon="1.8994769"><ele>563.0</ele><time>2026-04-04T14:42:00.088Z</time></trkpt><trkpt lat="41.4297472" lon="1.8995786"><ele>562.0</ele><time>2026-04-04T14:42:01.077Z</time></trkpt><trkpt lat="41.4298309" lon="1.8996678"><ele>561.0</ele><time>2026-04-04T14:42:02.082Z</time></trkpt><trkpt lat="41.4299184" lon="1.899753"><ele>563.6666666666666</ele><time>2026-04-04T14:42:03.084Z</time></trkpt><trkpt lat="41.4300008" lon="1.8998339"><ele>566.3333333333334</ele><time>2026-04-04T14:42:04.076Z</time></trkpt><trkpt lat="41.4300588" lon="1.8999139"><ele>569.0</ele><time>2026-04-04T14:42:05.081Z</time></trkpt><trkpt lat="41.4300983" lon="1.8999868"><ele>571.6666666666667</ele><time>2026-04-04T14:42:06.094Z</time></trkpt><trkpt lat="41.430041" lon="1.8999515"><ele>574.3333333333334</ele><time>2026-04-04T14:43:03.102Z</time></trkpt><trkpt lat="41.4300003" lon="1.8998429"><ele>577.0</ele><time>2026-04-04T14:43:05.098Z</time></trkpt><trkpt lat="41.4299568" lon="1.8997677"><ele>577.0</ele><time>2026-04-04T14:43:06.104Z</time></trkpt><trkpt lat="41.4298964" lon="1.8996852"><ele>577.0</ele><time>2026-04-04T14:43:07.083Z</time></trkpt><trkpt lat="41.4298221" lon="1.8996021"><ele>577.0</ele><time>2026-04-04T14:43:08.103Z</time></trkpt><trkpt lat="41.4297323" lon="1.8995068"><ele>577.0</ele><time>2026-04-04T14:43:09.088Z</time></trkpt><trkpt lat="41.4296446" lon="1.8993879"><ele>577.0</ele><time>2026-04-04T14:43:10.094Z</time></trkpt><trkpt lat="41.429562" lon="1.8992567"><ele>574.8000000000001</ele><time>2026-04-04T14:43:11.099Z</time></trkpt><trkpt lat="41.4294818" lon="1.8991342"><ele>572.6</ele><time>2026-04-04T14:43:12.09Z</time></trkpt><trkpt lat="41.4294141" lon="1.8990156"><ele>570.4000000000001</ele><time>2026-04-04T14:43:13.083Z</time></trkpt><trkpt lat="41.429355" lon="1.8988961"><ele>568.2</ele><time>2026-04-04T14:43:14.094Z</time></trkpt><trkpt lat="41.4293058" lon="1.8987762"><ele>566.0</ele><time>2026-04-04T14:43:15.096Z</time></trkpt><trkpt lat="41.4292667" lon="1.8986568"><ele>566.0</ele><time>2026-04-04T14:43:16.093Z</time></trkpt><trkpt lat="41.4292349" lon="1.8985398"><ele>566.0</ele><time>2026-04-04T14:43:17.104Z</time></trkpt><trkpt lat="41.4292101" lon="1.8984258"><ele>566.0</ele><time>2026-04-04T14:43:18.104Z</time></trkpt><trkpt lat="41.4291926" lon="1.8983104"><ele>566.0</ele><time>2026-04-04T14:43:19.092Z</time></trkpt><trkpt lat="41.4291745" lon="1.8982089"><ele>566.0</ele><time>2026-04-04T14:43:20.103Z</time></trkpt><trkpt lat="41.4291519" lon="1.898121"><ele>566.0</ele><time>2026-04-04T14:43:21.1Z</time></trkpt><trkpt lat="41.4291022" lon="1.8980019"><ele>566.6666666666666</ele><time>2026-04-04T14:43:23.087Z</time></trkpt><trkpt lat="41.4290359" lon="1.8980053"><ele>567.3333333333333</ele><time>2026-04-04T14:43:25.101Z</time></trkpt><trkpt lat="41.4289369" lon="1.8980797"><ele>568.0</ele><time>2026-04-04T14:43:27.104Z</time></trkpt><trkpt lat="41.4288569" lon="1.8981441"><ele>568.6666666666666</ele><time>2026-04-04T14:43:29.102Z</time></trkpt><trkpt lat="41.4287956" lon="1.898223"><ele>569.3333333333334</ele><time>2026-04-04T14:43:31.104Z</time></trkpt><trkpt lat="41.4287607" lon="1.8983314"><ele>570.0</ele><time>2026-04-04T14:43:33.108Z</time></trkpt><trkpt lat="41.428722" lon="1.8984722"><ele>566.0</ele><time>2026-04-04T14:43:35.093Z</time></trkpt><trkpt lat="41.4286573" lon="1.8985864"><ele>562.0</ele><time>2026-04-04T14:43:37.093Z</time></trkpt><trkpt lat="41.4285892" lon="1.8986553"><ele>558.0</ele><time>2026-04-04T14:43:39.096Z</time></trkpt><trkpt lat="41.428534" lon="1.8987431"><ele>554.0</ele><time>2026-04-04T14:43:41.093Z</time></trkpt><trkpt lat="41.4284552" lon="1.898871"><ele>550.0</ele><time>2026-04-04T14:43:43.078Z</time></trkpt><trkpt lat="41.4283832" lon="1.8989572"><ele>550.0</ele><time>2026-04-04T14:43:45.086Z</time></trkpt><trkpt lat="41.4283321" lon="1.8990304"><ele>550.0</ele><time>2026-04-04T14:43:47.074Z</time></trkpt><trkpt lat="41.4282804" lon="1.8991078"><ele>550.0</ele><time>2026-04-04T14:43:50.085Z</time></trkpt><trkpt lat="41.4282089" lon="1.8991412"><ele>550.0</ele><time>2026-04-04T14:43:53.082Z</time></trkpt><trkpt lat="41.4281376" lon="1.8991331"><ele>550.0</ele><time>2026-04-04T14:43:55.085Z</time></trkpt><trkpt lat="41.4280391" lon="1.8991137"><ele>550.0</ele><time>2026-04-04T14:43:57.084Z</time></trkpt><trkpt lat="41.4279352" lon="1.8990953"><ele>550.3333333333334</ele><time>2026-04-04T14:43:59.083Z</time></trkpt><trkpt lat="41.4278264" lon="1.8990734"><ele>550.6666666666667</ele><time>2026-04-04T14:44:01.071Z</time></trkpt><trkpt lat="41.427739" lon="1.899097"><ele>551.0</ele><time>2026-04-04T14:44:03.086Z</time></trkpt><trkpt lat="41.4276594" lon="1.8991901"><ele>551.3333333333334</ele><time>2026-04-04T14:44:05.086Z</time></trkpt><trkpt lat="41.4276098" lon="1.8992478"><ele>551.6666666666666</ele><time>2026-04-04T14:44:06.071Z</time></trkpt><trkpt lat="41.4275498" lon="1.8993128"><ele>552.0</ele><time>2026-04-04T14:44:07.093Z</time></trkpt><trkpt lat="41.4274806" lon="1.8993799"><ele>548.1666666666666</ele><time>2026-04-04T14:44:08.088Z</time></trkpt><trkpt lat="41.4274077" lon="1.8994536"><ele>544.3333333333334</ele><time>2026-04-04T14:44:09.074Z</time></trkpt><trkpt lat="41.4273427" lon="1.8995214"><ele>540.5</ele><time>2026-04-04T14:44:10.09Z</time></trkpt><trkpt lat="41.427291" lon="1.8995854"><ele>536.6666666666667</ele><time>2026-04-04T14:44:11.069Z</time></trkpt><trkpt lat="41.4272443" lon="1.8996434"><ele>532.8333333333334</ele><time>2026-04-04T14:44:12.073Z</time></trkpt><trkpt lat="41.4271561" lon="1.8997322"><ele>529.0</ele><time>2026-04-04T14:44:14.072Z</time></trkpt><trkpt lat="41.4270416" lon="1.8998087"><ele>529.0</ele><time>2026-04-04T14:44:16.07Z</time></trkpt><trkpt lat="41.4269807" lon="1.8998404"><ele>529.0</ele><time>2026-04-04T14:44:17.066Z</time></trkpt><trkpt lat="41.4269209" lon="1.8998728"><ele>529.0</ele><time>2026-04-04T14:44:18.074Z</time></trkpt><trkpt lat="41.4268233" lon="1.8999061"><ele>529.0</ele><time>2026-04-04T14:44:20.093Z</time></trkpt><trkpt lat="41.4268625" lon="1.8999828"><ele>529.0</ele><time>2026-04-04T14:44:54.084Z</time></trkpt><trkpt lat="41.4269449" lon="1.8999983"><ele>529.0</ele><time>2026-04-04T14:44:56.07Z</time></trkpt><trkpt lat="41.427021" lon="1.8999902"><ele>529.0</ele><time>2026-04-04T14:44:57.06Z</time></trkpt><trkpt lat="41.4270938" lon="1.8999729"><ele>529.0</ele><time>2026-04-04T14:44:58.057Z</time></trkpt><trkpt lat="41.4271993" lon="1.8999435"><ele>529.0</ele><time>2026-04-04T14:45:00.039Z</time></trkpt><trkpt lat="41.4272994" lon="1.8999084"><ele>529.0</ele><time>2026-04-04T14:45:02.036Z</time></trkpt><trkpt lat="41.4273923" lon="1.8998668"><ele>529.0</ele><time>2026-04-04T14:45:04.04Z</time></trkpt><trkpt lat="41.4274884" lon="1.8998362"><ele>528.6666666666667</ele><time>2026-04-04T14:45:06.047Z</time></trkpt><trkpt lat="41.4276145" lon="1.899803"><ele>528.3333333333334</ele><time>2026-04-04T14:45:08.03Z</time></trkpt><trkpt lat="41.4276774" lon="1.8997813"><ele>528.0</ele><time>2026-04-04T14:45:09.034Z</time></trkpt><trkpt lat="41.4277396" lon="1.8997668"><ele>527.6666666666666</ele><time>2026-04-04T14:45:10.046Z</time></trkpt><trkpt lat="41.4278064" lon="1.899769"><ele>527.3333333333333</ele><time>2026-04-04T14:45:11.047Z</time></trkpt><trkpt lat="41.4278702" lon="1.8997834"><ele>527.0</ele><time>2026-04-04T14:45:12.046Z</time></trkpt><trkpt lat="41.427972" lon="1.8998069"><ele>527.0</ele><time>2026-04-04T14:45:14.037Z</time></trkpt><trkpt lat="41.4280386" lon="1.899814"><ele>527.0</ele><time>2026-04-04T14:45:16.04Z</time></trkpt><trkpt lat="41.4280648" lon="1.899906"><ele>527.0</ele><time>2026-04-04T14:45:22.045Z</time></trkpt><trkpt lat="41.4280364" lon="1.8998176"><ele>527.0</ele><time>2026-04-04T14:47:47.049Z</time></trkpt><trkpt lat="41.4279628" lon="1.8998045"><ele>527.0</ele><time>2026-04-04T14:47:49.067Z</time></trkpt><trkpt lat="41.4278167" lon="1.8997949"><ele>527.0</ele><time>2026-04-04T14:47:51.035Z</time></trkpt><trkpt lat="41.4277289" lon="1.899788"><ele>527.0000000000001</ele><time>2026-04-04T14:47:52.039Z</time></trkpt><trkpt lat="41.4276528" lon="1.8997986"><ele>527.0</ele><time>2026-04-04T14:47:53.043Z</time></trkpt><trkpt lat="41.4275887" lon="1.8998304"><ele>527.0</ele><time>2026-04-04T14:47:54.045Z</time></trkpt><trkpt lat="41.4275149" lon="1.8998626"><ele>527.0</ele><time>2026-04-04T14:47:55.035Z</time></trkpt><trkpt lat="41.4274464" lon="1.89987"><ele>527.0</ele><time>2026-04-04T14:47:56.048Z</time></trkpt><trkpt lat="41.4273782" lon="1.8998846"><ele>527.0000000000001</ele><time>2026-04-04T14:47:57.038Z</time></trkpt><trkpt lat="41.4273131" lon="1.8999021"><ele>527.0</ele><time>2026-04-04T14:47:58.043Z</time></trkpt><trkpt lat="41.427214" lon="1.8999552"><ele>527.4</ele><time>2026-04-04T14:48:00.042Z</time></trkpt><trkpt lat="41.4271184" lon="1.8999922"><ele>527.8000000000001</ele><time>2026-04-04T14:48:02.049Z</time></trkpt><trkpt lat="41.4269972" lon="1.900014"><ele>528.2</ele><time>2026-04-04T14:48:04.061Z</time></trkpt><trkpt lat="41.4268777" lon="1.9000338"><ele>528.6</ele><time>2026-04-04T14:48:06.055Z</time></trkpt><trkpt lat="41.4267915" lon="1.9000155"><ele>529.0</ele><time>2026-04-04T14:48:08.07Z</time></trkpt><trkpt lat="41.4267223" lon="1.8999986"><ele>529.0</ele><time>2026-04-04T14:49:32.058Z</time></trkpt><trkpt lat="41.4263805" lon="1.8998809"><ele>529.0</ele><time>2026-04-04T14:49:37.056Z</time></trkpt><trkpt lat="41.4263147" lon="1.8998392"><ele>529.0</ele><time>2026-04-04T14:49:38.06Z</time></trkpt><trkpt lat="41.4262486" lon="1.8997886"><ele>524.8333333333334</ele><time>2026-04-04T14:49:39.055Z</time></trkpt><trkpt lat="41.4261838" lon="1.8997264"><ele>520.6666666666667</ele><time>2026-04-04T14:49:40.054Z</time></trkpt><trkpt lat="41.4261206" lon="1.8996666"><ele>516.5</ele><time>2026-04-04T14:49:41.056Z</time></trkpt><trkpt lat="41.4260603" lon="1.8996085"><ele>512.3333333333334</ele><time>2026-04-04T14:49:42.052Z</time></trkpt><trkpt lat="41.4260059" lon="1.8995447"><ele>508.1666666666667</ele><time>2026-04-04T14:49:43.056Z</time></trkpt><trkpt lat="41.4259576" lon="1.8994832"><ele>504.0</ele><time>2026-04-04T14:49:44.052Z</time></trkpt><trkpt lat="41.4258817" lon="1.8993736"><ele>504.0</ele><time>2026-04-04T14:49:46.084Z</time></trkpt><trkpt lat="41.425831" lon="1.8992551"><ele>504.0</ele><time>2026-04-04T14:49:48.062Z</time></trkpt><trkpt lat="41.4257699" lon="1.8991726"><ele>504.0</ele><time>2026-04-04T14:49:50.065Z</time></trkpt><trkpt lat="41.425818" lon="1.8992308"><ele>504.0</ele><time>2026-04-04T14:50:29.09Z</time></trkpt><trkpt lat="41.4258867" lon="1.8993553"><ele>504.0</ele><time>2026-04-04T14:50:31.081Z</time></trkpt><trkpt lat="41.4259211" lon="1.8994374"><ele>504.0</ele><time>2026-04-04T14:50:32.073Z</time></trkpt><trkpt lat="41.4259813" lon="1.8995068"><ele>504.0</ele><time>2026-04-04T14:50:33.054Z</time></trkpt><trkpt lat="41.4260436" lon="1.8995727"><ele>504.0</ele><time>2026-04-04T14:50:34.068Z</time></trkpt><trkpt lat="41.4261185" lon="1.8996432"><ele>504.0</ele><time>2026-04-04T14:50:35.071Z</time></trkpt><trkpt lat="41.4261884" lon="1.8997083"><ele>504.0</ele><time>2026-04-04T14:50:36.085Z</time></trkpt><trkpt lat="41.4262567" lon="1.8997692"><ele>504.0</ele><time>2026-04-04T14:50:37.095Z</time></trkpt><trkpt lat="41.4263214" lon="1.899827"><ele>504.0</ele><time>2026-04-04T14:50:38.093Z</time></trkpt><trkpt lat="41.4263811" lon="1.8998714"><ele>507.57142857142856</ele><time>2026-04-04T14:50:39.087Z</time></trkpt><trkpt lat="41.4264404" lon="1.8998997"><ele>511.1428571428571</ele><time>2026-04-04T14:50:40.067Z</time></trkpt><trkpt lat="41.426503" lon="1.8999176"><ele>514.7142857142858</ele><time>2026-04-04T14:50:41.02Z</time></trkpt><trkpt lat="41.4265785" lon="1.8999389"><ele>518.2857142857142</ele><time>2026-04-04T14:50:42.085Z</time></trkpt><trkpt lat="41.4266562" lon="1.8999602"><ele>521.8571428571429</ele><time>2026-04-04T14:50:43.085Z</time></trkpt><trkpt lat="41.4267303" lon="1.8999743"><ele>525.4285714285714</ele><time>2026-04-04T14:50:44.078Z</time></trkpt><trkpt lat="41.4268021" lon="1.8999766"><ele>529.0</ele><time>2026-04-04T14:50:45.101Z</time></trkpt><trkpt lat="41.4268734" lon="1.8999627"><ele>529.0</ele><time>2026-04-04T14:50:46.079Z</time></trkpt><trkpt lat="41.4269471" lon="1.8999296"><ele>529.0</ele><time>2026-04-04T14:50:47.084Z</time></trkpt><trkpt lat="41.4270246" lon="1.8998799"><ele>529.0</ele><time>2026-04-04T14:50:48.089Z</time></trkpt><trkpt lat="41.4270994" lon="1.8998269"><ele>529.0</ele><time>2026-04-04T14:50:49.088Z</time></trkpt><trkpt lat="41.4271697" lon="1.8997706"><ele>529.0</ele><time>2026-04-04T14:50:50.088Z</time></trkpt><trkpt lat="41.4272316" lon="1.8997106"><ele>529.0</ele><time>2026-04-04T14:50:51.101Z</time></trkpt><trkpt lat="41.4272864" lon="1.8996616"><ele>528.6666666666667</ele><time>2026-04-04T14:50:52.084Z</time></trkpt><trkpt lat="41.4273641" lon="1.8995616"><ele>528.3333333333334</ele><time>2026-04-04T14:50:54.092Z</time></trkpt><trkpt lat="41.4274465" lon="1.8994433"><ele>528.0</ele><time>2026-04-04T14:50:56.087Z</time></trkpt><trkpt lat="41.4274977" lon="1.899385"><ele>527.6666666666666</ele><time>2026-04-04T14:50:57.08Z</time></trkpt><trkpt lat="41.4275542" lon="1.8993327"><ele>527.3333333333333</ele><time>2026-04-04T14:50:58.074Z</time></trkpt><trkpt lat="41.4276078" lon="1.899281"><ele>527.0</ele><time>2026-04-04T14:50:59.083Z</time></trkpt><trkpt lat="41.4276591" lon="1.8992321"><ele>531.6</ele><time>2026-04-04T14:51:00.078Z</time></trkpt><trkpt lat="41.4277382" lon="1.8991311"><ele>536.2</ele><time>2026-04-04T14:51:02.059Z</time></trkpt><trkpt lat="41.427797" lon="1.8990416"><ele>540.8</ele><time>2026-04-04T14:51:04.043Z</time></trkpt><trkpt lat="41.4278954" lon="1.8990591"><ele>545.4</ele><time>2026-04-04T14:51:07.053Z</time></trkpt><trkpt lat="41.4279733" lon="1.8990954"><ele>550.0</ele><time>2026-04-04T14:51:09.052Z</time></trkpt><trkpt lat="41.4280561" lon="1.8991126"><ele>550.0</ele><time>2026-04-04T14:51:11.056Z</time></trkpt><trkpt lat="41.4281498" lon="1.8991194"><ele>550.0</ele><time>2026-04-04T14:51:13.054Z</time></trkpt><trkpt lat="41.4282258" lon="1.8991379"><ele>550.0</ele><time>2026-04-04T14:51:15.057Z</time></trkpt><trkpt lat="41.4282984" lon="1.8990988"><ele>550.0</ele><time>2026-04-04T14:51:18.064Z</time></trkpt><trkpt lat="41.428337" lon="1.8990113"><ele>550.0</ele><time>2026-04-04T14:51:30.054Z</time></trkpt><trkpt lat="41.4283726" lon="1.8989341"><ele>550.0</ele><time>2026-04-04T14:51:32.065Z</time></trkpt><trkpt lat="41.4284235" lon="1.8988619"><ele>550.0</ele><time>2026-04-04T14:51:34.068Z</time></trkpt><trkpt lat="41.4284759" lon="1.8987638"><ele>550.0</ele><time>2026-04-04T14:51:36.061Z</time></trkpt><trkpt lat="41.4285245" lon="1.8986795"><ele>550.0</ele><time>2026-04-04T14:51:38.074Z</time></trkpt><trkpt lat="41.4286129" lon="1.8985756"><ele>550.0</ele><time>2026-04-04T14:51:40.065Z</time></trkpt><trkpt lat="41.4286622" lon="1.8985227"><ele>550.0</ele><time>2026-04-04T14:51:42.082Z</time></trkpt><trkpt lat="41.4287187" lon="1.898419"><ele>550.0</ele><time>2026-04-04T14:51:59.069Z</time></trkpt><trkpt lat="41.4287687" lon="1.8983064"><ele>554.0</ele><time>2026-04-04T14:52:01.058Z</time></trkpt><trkpt lat="41.4288054" lon="1.8981916"><ele>558.0</ele><time>2026-04-04T14:52:03.064Z</time></trkpt><trkpt lat="41.4288697" lon="1.8980966"><ele>562.0</ele><time>2026-04-04T14:52:05.059Z</time></trkpt><trkpt lat="41.4289778" lon="1.8980313"><ele>566.0</ele><time>2026-04-04T14:52:07.062Z</time></trkpt><trkpt lat="41.4290669" lon="1.898007"><ele>570.0</ele><time>2026-04-04T14:52:09.071Z</time></trkpt><trkpt lat="41.4291196" lon="1.8979487"><ele>570.0</ele><time>2026-04-04T14:52:29.073Z</time></trkpt><trkpt lat="41.4292036" lon="1.8978858"><ele>570.0</ele><time>2026-04-04T14:52:32.072Z</time></trkpt><trkpt lat="41.4292927" lon="1.8978527"><ele>570.0</ele><time>2026-04-04T14:52:34.069Z</time></trkpt><trkpt lat="41.4293665" lon="1.8978467"><ele>570.0</ele><time>2026-04-04T14:52:36.067Z</time></trkpt><trkpt lat="41.4294439" lon="1.8978564"><ele>570.0</ele><time>2026-04-04T14:52:38.06Z</time></trkpt><trkpt lat="41.4295273" lon="1.8978793"><ele>570.0</ele><time>2026-04-04T14:52:40.061Z</time></trkpt><trkpt lat="41.4296188" lon="1.8979217"><ele>568.8571428571429</ele><time>2026-04-04T14:52:42.062Z</time></trkpt><trkpt lat="41.4297038" lon="1.8979546"><ele>567.7142857142858</ele><time>2026-04-04T14:52:44.058Z</time></trkpt><trkpt lat="41.4297669" lon="1.8979905"><ele>566.5714285714287</ele><time>2026-04-04T14:52:46.061Z</time></trkpt><trkpt lat="41.4298329" lon="1.8980447"><ele>565.4285714285714</ele><time>2026-04-04T14:52:49.065Z</time></trkpt><trkpt lat="41.4298861" lon="1.8981051"><ele>564.2857142857143</ele><time>2026-04-04T14:53:09.064Z</time></trkpt><trkpt lat="41.4299323" lon="1.8981697"><ele>563.1428571428572</ele><time>2026-04-04T14:53:12.962Z</time></trkpt><trkpt lat="41.4299635" lon="1.898261"><ele>562.0</ele><time>2026-04-04T14:53:16.015Z</time></trkpt><trkpt lat="41.4299748" lon="1.8983566"><ele>562.0</ele><time>2026-04-04T14:53:20.069Z</time></trkpt><trkpt lat="41.4300246" lon="1.8984291"><ele>562.0</ele><time>2026-04-04T14:53:25.073Z</time></trkpt><trkpt lat="41.430101" lon="1.8983748"><ele>562.0</ele><time>2026-04-04T14:53:29.06Z</time></trkpt><trkpt lat="41.4301634" lon="1.8983296"><ele>562.0</ele><time>2026-04-04T14:53:31.056Z</time></trkpt><trkpt lat="41.4302356" lon="1.8982755"><ele>562.0</ele><time>2026-04-04T14:53:33.052Z</time></trkpt><trkpt lat="41.430316" lon="1.898226"><ele>562.0</ele><time>2026-04-04T14:53:35.068Z</time></trkpt><trkpt lat="41.4303754" lon="1.8981838"><ele>562.0</ele><time>2026-04-04T14:53:36.054Z</time></trkpt><trkpt lat="41.4304703" lon="1.8981506"><ele>562.0</ele><time>2026-04-04T14:53:38.057Z</time></trkpt><trkpt lat="41.4305507" lon="1.8981211"><ele>562.0</ele><time>2026-04-04T14:53:40.059Z</time></trkpt><trkpt lat="41.4306322" lon="1.8980788"><ele>562.0</ele><time>2026-04-04T14:53:42.046Z</time></trkpt><trkpt lat="41.4306997" lon="1.8980429"><ele>562.0</ele><time>2026-04-04T14:53:44.055Z</time></trkpt><trkpt lat="41.4307797" lon="1.8979773"><ele>562.0</ele><time>2026-04-04T14:53:46.064Z</time></trkpt><trkpt lat="41.4308577" lon="1.8979321"><ele>559.5714285714287</ele><time>2026-04-04T14:53:48.057Z</time></trkpt><trkpt lat="41.4309182" lon="1.8979007"><ele>557.1428571428571</ele><time>2026-04-04T14:53:50.075Z</time></trkpt><trkpt lat="41.4309955" lon="1.8979084"><ele>554.7142857142858</ele><time>2026-04-04T14:53:54.064Z</time></trkpt><trkpt lat="41.4309427" lon="1.8979564"><ele>552.2857142857143</ele><time>2026-04-04T14:54:48.073Z</time></trkpt><trkpt lat="41.4308694" lon="1.897962"><ele>549.8571428571429</ele><time>2026-04-04T14:56:10.068Z</time></trkpt><trkpt lat="41.4307974" lon="1.8979815"><ele>547.4285714285714</ele><time>2026-04-04T14:56:12.062Z</time></trkpt><trkpt lat="41.4307362" lon="1.8980454"><ele>545.0</ele><time>2026-04-04T14:56:17.06Z</time></trkpt><trkpt lat="41.4306619" lon="1.8981075"><ele>545.0</ele><time>2026-04-04T14:56:19.075Z</time></trkpt><trkpt lat="41.4305608" lon="1.8981313"><ele>545.0</ele><time>2026-04-04T14:56:21.073Z</time></trkpt><trkpt lat="41.4304769" lon="1.8981745"><ele>545.0</ele><time>2026-04-04T14:56:23.027Z</time></trkpt><trkpt lat="41.4304069" lon="1.8982203"><ele>545.0</ele><time>2026-04-04T14:56:25.065Z</time></trkpt><trkpt lat="41.4303218" lon="1.8982723"><ele>545.0</ele><time>2026-04-04T14:56:27.08Z</time></trkpt><trkpt lat="41.4302427" lon="1.898313"><ele>545.0</ele><time>2026-04-04T14:56:29.091Z</time></trkpt><trkpt lat="41.4301612" lon="1.8983522"><ele>547.8333333333333</ele><time>2026-04-04T14:56:32.076Z</time></trkpt><trkpt lat="41.4301034" lon="1.8983921"><ele>550.6666666666666</ele><time>2026-04-04T14:56:34.075Z</time></trkpt><trkpt lat="41.4300318" lon="1.8984096"><ele>553.5</ele><time>2026-04-04T14:56:38.018Z</time></trkpt><trkpt lat="41.4299788" lon="1.8983555"><ele>556.3333333333334</ele><time>2026-04-04T14:56:43.057Z</time></trkpt><trkpt lat="41.4299559" lon="1.8982618"><ele>559.1666666666667</ele><time>2026-04-04T14:56:46.087Z</time></trkpt><trkpt lat="41.4299235" lon="1.8981424"><ele>562.0</ele><time>2026-04-04T14:56:49.096Z</time></trkpt><trkpt lat="41.4298526" lon="1.8980733"><ele>562.0</ele><time>2026-04-04T14:56:52.086Z</time></trkpt><trkpt lat="41.429771" lon="1.898012"><ele>562.0</ele><time>2026-04-04T14:56:54.975Z</time></trkpt><trkpt lat="41.4296905" lon="1.8979644"><ele>562.0</ele><time>2026-04-04T14:56:57.071Z</time></trkpt><trkpt lat="41.429622" lon="1.8979323"><ele>562.0</ele><time>2026-04-04T14:56:59.084Z</time></trkpt><trkpt lat="41.4295527" lon="1.8979088"><ele>562.0</ele><time>2026-04-04T14:57:01.068Z</time></trkpt><trkpt lat="41.4294472" lon="1.8978833"><ele>562.0</ele><time>2026-04-04T14:57:04.072Z</time></trkpt><trkpt lat="41.4293651" lon="1.8978631"><ele>563.6</ele><time>2026-04-04T14:57:06.078Z</time></trkpt><trkpt lat="41.4292759" lon="1.8978767"><ele>565.2</ele><time>2026-04-04T14:57:08.083Z</time></trkpt><trkpt lat="41.4291735" lon="1.8979163"><ele>566.8</ele><time>2026-04-04T14:57:10.07Z</time></trkpt><trkpt lat="41.4290928" lon="1.8979555"><ele>568.4</ele><time>2026-04-04T14:57:12.08Z</time></trkpt><trkpt lat="41.4290426" lon="1.8978829"><ele>570.0</ele><time>2026-04-04T14:58:07.082Z</time></trkpt><trkpt lat="41.4289791" lon="1.897784"><ele>570.0</ele><time>2026-04-04T14:58:09.08Z</time></trkpt><trkpt lat="41.4288828" lon="1.8976986"><ele>570.0</ele><time>2026-04-04T14:58:11.081Z</time></trkpt><trkpt lat="41.4287704" lon="1.897629"><ele>570.0</ele><time>2026-04-04T14:58:13.087Z</time></trkpt><trkpt lat="41.4286894" lon="1.8975291"><ele>570.0</ele><time>2026-04-04T14:58:15.085Z</time></trkpt><trkpt lat="41.4286343" lon="1.8974299"><ele>570.0</ele><time>2026-04-04T14:58:17.095Z</time></trkpt><trkpt lat="41.4285894" lon="1.8973396"><ele>571.8333333333334</ele><time>2026-04-04T14:58:19.098Z</time></trkpt><trkpt lat="41.4285745" lon="1.8972533"><ele>573.6666666666666</ele><time>2026-04-04T14:58:38.088Z</time></trkpt><trkpt lat="41.4284644" lon="1.897247"><ele>575.5</ele><time>2026-04-04T14:58:41.088Z</time></trkpt><trkpt lat="41.4283439" lon="1.897225"><ele>577.3333333333333</ele><time>2026-04-04T14:58:43.09Z</time></trkpt><trkpt lat="41.4282779" lon="1.8972064"><ele>579.1666666666666</ele><time>2026-04-04T14:58:44.083Z</time></trkpt><trkpt lat="41.4282083" lon="1.8971773"><ele>581.0</ele><time>2026-04-04T14:58:45.095Z</time></trkpt><trkpt lat="41.4281398" lon="1.8971314"><ele>581.0</ele><time>2026-04-04T14:58:46.086Z</time></trkpt><trkpt lat="41.4280657" lon="1.8970734"><ele>581.0</ele><time>2026-04-04T14:58:47.073Z</time></trkpt><trkpt lat="41.4279877" lon="1.8970018"><ele>581.0</ele><time>2026-04-04T14:58:48.068Z</time></trkpt><trkpt lat="41.4279063" lon="1.8969161"><ele>581.0</ele><time>2026-04-04T14:58:49.072Z</time></trkpt><trkpt lat="41.4278265" lon="1.8968118"><ele>581.0</ele><time>2026-04-04T14:58:50.071Z</time></trkpt><trkpt lat="41.4277541" lon="1.8966936"><ele>580.0</ele><time>2026-04-04T14:58:51.076Z</time></trkpt><trkpt lat="41.4276863" lon="1.8965784"><ele>579.0</ele><time>2026-04-04T14:58:52.081Z</time></trkpt><trkpt lat="41.4276206" lon="1.8964734"><ele>578.0</ele><time>2026-04-04T14:58:53.071Z</time></trkpt><trkpt lat="41.4275612" lon="1.8963799"><ele>577.0</ele><time>2026-04-04T14:58:54.073Z</time></trkpt><trkpt lat="41.4275099" lon="1.8962957"><ele>576.0</ele><time>2026-04-04T14:58:55.074Z</time></trkpt><trkpt lat="41.4274489" lon="1.8962191"><ele>576.0</ele><time>2026-04-04T14:58:56.068Z</time></trkpt><trkpt lat="41.4273827" lon="1.89615"><ele>576.0</ele><time>2026-04-04T14:58:57.074Z</time></trkpt><trkpt lat="41.4273126" lon="1.8960808"><ele>576.0</ele><time>2026-04-04T14:58:58.081Z</time></trkpt><trkpt lat="41.4272474" lon="1.8960141"><ele>576.0</ele><time>2026-04-04T14:58:59.072Z</time></trkpt><trkpt lat="41.4271919" lon="1.8959486"><ele>576.0</ele><time>2026-04-04T14:59:00.082Z</time></trkpt><trkpt lat="41.4271485" lon="1.8958852"><ele>576.0</ele><time>2026-04-04T14:59:01.085Z</time></trkpt><trkpt lat="41.4270749" lon="1.8957491"><ele>571.5</ele><time>2026-04-04T14:59:03.078Z</time></trkpt><trkpt lat="41.42702" lon="1.8956029"><ele>567.0</ele><time>2026-04-04T14:59:05.074Z</time></trkpt><trkpt lat="41.4269958" lon="1.8954755"><ele>562.5</ele><time>2026-04-04T14:59:07.074Z</time></trkpt><trkpt lat="41.4269853" lon="1.8953752"><ele>558.0</ele><time>2026-04-04T14:59:09.083Z</time></trkpt><trkpt lat="41.4269589" lon="1.8952919"><ele>553.5</ele><time>2026-04-04T14:59:11.082Z</time></trkpt><trkpt lat="41.4269163" lon="1.8952254"><ele>549.0</ele><time>2026-04-04T14:59:13.081Z</time></trkpt><trkpt lat="41.4268807" lon="1.8951302"><ele>549.3333333333334</ele><time>2026-04-04T14:59:15.087Z</time></trkpt><trkpt lat="41.4268713" lon="1.8950347"><ele>549.6666666666666</ele><time>2026-04-04T14:59:17.086Z</time></trkpt><trkpt lat="41.4268301" lon="1.8949388"><ele>550.0</ele><time>2026-04-04T14:59:26.075Z</time></trkpt><trkpt lat="41.4267911" lon="1.8948455"><ele>550.3333333333333</ele><time>2026-04-04T14:59:29.075Z</time></trkpt><trkpt lat="41.4267649" lon="1.8947437"><ele>550.6666666666666</ele><time>2026-04-04T14:59:32.081Z</time></trkpt><trkpt lat="41.4267437" lon="1.8946576"><ele>551.0</ele><time>2026-04-04T14:59:44.081Z</time></trkpt><trkpt lat="41.4266774" lon="1.8945639"><ele>551.0</ele><time>2026-04-04T14:59:48.069Z</time></trkpt><trkpt lat="41.4266246" lon="1.8945036"><ele>551.0</ele><time>2026-04-04T14:59:50.075Z</time></trkpt><trkpt lat="41.4265595" lon="1.8944151"><ele>551.0</ele><time>2026-04-04T14:59:53.068Z</time></trkpt><trkpt lat="41.426543" lon="1.894311"><ele>551.0</ele><time>2026-04-04T14:59:56.073Z</time></trkpt><trkpt lat="41.4265832" lon="1.8942201"><ele>551.0</ele><time>2026-04-04T14:59:59.079Z</time></trkpt><trkpt lat="41.4266265" lon="1.8941576"><ele>551.0</ele><time>2026-04-04T15:00:02.067Z</time></trkpt><trkpt lat="41.4266879" lon="1.8941056"><ele>549.2857142857142</ele><time>2026-04-04T15:00:07.028Z</time></trkpt><trkpt lat="41.4267491" lon="1.894074"><ele>547.5714285714286</ele><time>2026-04-04T15:00:09.074Z</time></trkpt><trkpt lat="41.4268232" lon="1.8940508"><ele>545.8571428571429</ele><time>2026-04-04T15:00:11.072Z</time></trkpt><trkpt lat="41.4268987" lon="1.8940519"><ele>544.1428571428571</ele><time>2026-04-04T15:00:13.077Z</time></trkpt><trkpt lat="41.4269709" lon="1.8940752"><ele>542.4285714285714</ele><time>2026-04-04T15:00:15.068Z</time></trkpt><trkpt lat="41.4270355" lon="1.8941111"><ele>540.7142857142857</ele><time>2026-04-04T15:00:17.078Z</time></trkpt><trkpt lat="41.4271086" lon="1.8941754"><ele>539.0</ele><time>2026-04-04T15:00:20.077Z</time></trkpt><trkpt lat="41.4271762" lon="1.8942456"><ele>541.3333333333333</ele><time>2026-04-04T15:00:22.992Z</time></trkpt><trkpt lat="41.4272361" lon="1.8943023"><ele>543.6666666666666</ele><time>2026-04-04T15:00:26.093Z</time></trkpt><trkpt lat="41.4272909" lon="1.8943822"><ele>546.0</ele><time>2026-04-04T15:00:29.083Z</time></trkpt><trkpt lat="41.4273454" lon="1.8944616"><ele>548.3333333333334</ele><time>2026-04-04T15:00:31.084Z</time></trkpt><trkpt lat="41.4273898" lon="1.89455"><ele>550.6666666666667</ele><time>2026-04-04T15:00:33.074Z</time></trkpt><trkpt lat="41.4274416" lon="1.8946304"><ele>553.0</ele><time>2026-04-04T15:00:35.075Z</time></trkpt><trkpt lat="41.4274819" lon="1.894731"><ele>553.0</ele><time>2026-04-04T15:00:37.078Z</time></trkpt><trkpt lat="41.4275131" lon="1.8948085"><ele>553.0</ele><time>2026-04-04T15:00:39.085Z</time></trkpt><trkpt lat="41.427562" lon="1.8949004"><ele>553.0</ele><time>2026-04-04T15:00:42.082Z</time></trkpt><trkpt lat="41.4276077" lon="1.8950019"><ele>553.0</ele><time>2026-04-04T15:00:45.082Z</time></trkpt><trkpt lat="41.4276524" lon="1.8950904"><ele>553.0</ele><time>2026-04-04T15:00:48.073Z</time></trkpt><trkpt lat="41.4277012" lon="1.8951562"><ele>553.0</ele><time>2026-04-04T15:00:57.067Z</time></trkpt><trkpt lat="41.4277868" lon="1.8952226"><ele>554.3333333333334</ele><time>2026-04-04T15:01:00.068Z</time></trkpt><trkpt lat="41.4278879" lon="1.895298"><ele>555.6666666666667</ele><time>2026-04-04T15:01:02.06Z</time></trkpt><trkpt lat="41.4279732" lon="1.8953234"><ele>557.0</ele><time>2026-04-04T15:01:04.095Z</time></trkpt><trkpt lat="41.4280581" lon="1.8953608"><ele>558.3333333333334</ele><time>2026-04-04T15:01:06.075Z</time></trkpt><trkpt lat="41.4281227" lon="1.8953703"><ele>559.6666666666666</ele><time>2026-04-04T15:01:08.074Z</time></trkpt><trkpt lat="41.428112" lon="1.8952768"><ele>561.0</ele><time>2026-04-04T15:01:14.119Z</time></trkpt><trkpt lat="41.4281048" lon="1.895159"><ele>557.8</ele><time>2026-04-04T15:01:16.099Z</time></trkpt><trkpt lat="41.4280879" lon="1.895024"><ele>554.6</ele><time>2026-04-04T15:01:18.099Z</time></trkpt><trkpt lat="41.4280631" lon="1.8948943"><ele>551.4</ele><time>2026-04-04T15:01:20.106Z</time></trkpt><trkpt lat="41.4280598" lon="1.8947803"><ele>548.2</ele><time>2026-04-04T15:01:22.06Z</time></trkpt><trkpt lat="41.4280838" lon="1.894674"><ele>545.0</ele><time>2026-04-04T15:01:24.122Z</time></trkpt><trkpt lat="41.4281456" lon="1.8946003"><ele>545.0</ele><time>2026-04-04T15:01:26.113Z</time></trkpt><trkpt lat="41.4282243" lon="1.8945915"><ele>545.0</ele><time>2026-04-04T15:01:28.107Z</time></trkpt><trkpt lat="41.428316" lon="1.894617"><ele>545.0</ele><time>2026-04-04T15:01:30.101Z</time></trkpt><trkpt lat="41.4283858" lon="1.8946472"><ele>545.0</ele><time>2026-04-04T15:01:32.097Z</time></trkpt><trkpt lat="41.4284487" lon="1.8946031"><ele>545.0</ele><time>2026-04-04T15:01:35.107Z</time></trkpt><trkpt lat="41.4284736" lon="1.8944739"><ele>545.0</ele><time>2026-04-04T15:01:38.072Z</time></trkpt><trkpt lat="41.428464" lon="1.8943323"><ele>543.5</ele><time>2026-04-04T15:01:40.077Z</time></trkpt><trkpt lat="41.4284673" lon="1.894212"><ele>542.0</ele><time>2026-04-04T15:01:42.08Z</time></trkpt><trkpt lat="41.4284773" lon="1.8940575"><ele>540.5</ele><time>2026-04-04T15:01:44.083Z</time></trkpt><trkpt lat="41.4284789" lon="1.8939547"><ele>539.0</ele><time>2026-04-04T15:01:46.07Z</time></trkpt><trkpt lat="41.4284625" lon="1.8938608"><ele>537.5</ele><time>2026-04-04T15:01:49.097Z</time></trkpt><trkpt lat="41.4284501" lon="1.8937744"><ele>536.0</ele><time>2026-04-04T15:01:51.09Z</time></trkpt><trkpt lat="41.4284385" lon="1.8936587"><ele>536.0</ele><time>2026-04-04T15:01:53.081Z</time></trkpt><trkpt lat="41.4284447" lon="1.8935206"><ele>536.0</ele><time>2026-04-04T15:01:55.069Z</time></trkpt><trkpt lat="41.4284887" lon="1.8933934"><ele>536.0</ele><time>2026-04-04T15:01:57.072Z</time></trkpt><trkpt lat="41.428536" lon="1.8932868"><ele>536.0</ele><time>2026-04-04T15:01:59.091Z</time></trkpt><trkpt lat="41.4285959" lon="1.8931753"><ele>536.0</ele><time>2026-04-04T15:02:01.063Z</time></trkpt><trkpt lat="41.4286489" lon="1.8930471"><ele>536.0</ele><time>2026-04-04T15:02:03.067Z</time></trkpt><trkpt lat="41.4286857" lon="1.892928"><ele>536.0</ele><time>2026-04-04T15:02:05.059Z</time></trkpt><trkpt lat="41.4287001" lon="1.8928419"><ele>536.0</ele><time>2026-04-04T15:02:08.074Z</time></trkpt><trkpt lat="41.428754" lon="1.8927827"><ele>536.0</ele><time>2026-04-04T15:02:13.07Z</time></trkpt><trkpt lat="41.4288414" lon="1.8927288"><ele>536.0</ele><time>2026-04-04T15:02:16.065Z</time></trkpt><trkpt lat="41.4289169" lon="1.8927139"><ele>536.0</ele><time>2026-04-04T15:02:18.069Z</time></trkpt><trkpt lat="41.4289816" lon="1.8926964"><ele>536.0</ele><time>2026-04-04T15:02:20.072Z</time></trkpt><trkpt lat="41.4289171" lon="1.8926192"><ele>536.0</ele><time>2026-04-04T15:02:24.065Z</time></trkpt><trkpt lat="41.428843" lon="1.8926044"><ele>536.0</ele><time>2026-04-04T15:02:27.077Z</time></trkpt><trkpt lat="41.4287742" lon="1.8925985"><ele>536.0</ele><time>2026-04-04T15:02:30.068Z</time></trkpt><trkpt lat="41.4287068" lon="1.8926566"><ele>536.0</ele><time>2026-04-04T15:02:39.071Z</time></trkpt><trkpt lat="41.4287379" lon="1.8925761"><ele>536.0</ele><time>2026-04-04T15:05:08.066Z</time></trkpt><trkpt lat="41.4288103" lon="1.8925487"><ele>536.0</ele><time>2026-04-04T15:05:44.077Z</time></trkpt><trkpt lat="41.4288727" lon="1.8925755"><ele>536.0</ele><time>2026-04-04T15:05:46.06Z</time></trkpt><trkpt lat="41.428934" lon="1.892612"><ele>536.0</ele><time>2026-04-04T15:05:48.064Z</time></trkpt><trkpt lat="41.4289834" lon="1.8926787"><ele>536.0</ele><time>2026-04-04T15:05:51.063Z</time></trkpt><trkpt lat="41.428908" lon="1.8927239"><ele>536.0</ele><time>2026-04-04T15:05:55.062Z</time></trkpt><trkpt lat="41.4288371" lon="1.8927374"><ele>536.0</ele><time>2026-04-04T15:05:57.065Z</time></trkpt><trkpt lat="41.4287728" lon="1.8927628"><ele>536.0</ele><time>2026-04-04T15:05:59.074Z</time></trkpt><trkpt lat="41.4287211" lon="1.8928164"><ele>533.6666666666666</ele><time>2026-04-04T15:06:01.06Z</time></trkpt><trkpt lat="41.4286934" lon="1.8928975"><ele>531.3333333333333</ele><time>2026-04-04T15:06:04.076Z</time></trkpt><trkpt lat="41.4286812" lon="1.8929824"><ele>529.0</ele><time>2026-04-04T15:06:06.062Z</time></trkpt><trkpt lat="41.4286563" lon="1.8930925"><ele>526.6666666666666</ele><time>2026-04-04T15:06:08.058Z</time></trkpt><trkpt lat="41.4286221" lon="1.8932011"><ele>524.3333333333334</ele><time>2026-04-04T15:06:10.036Z</time></trkpt><trkpt lat="41.4285743" lon="1.8933078"><ele>522.0</ele><time>2026-04-04T15:06:12.062Z</time></trkpt><trkpt lat="41.4285161" lon="1.8934179"><ele>524.8000000000001</ele><time>2026-04-04T15:06:14.031Z</time></trkpt><trkpt lat="41.4284538" lon="1.8935333"><ele>527.6</ele><time>2026-04-04T15:06:16.061Z</time></trkpt><trkpt lat="41.4284331" lon="1.8936485"><ele>530.4000000000001</ele><time>2026-04-04T15:06:18.074Z</time></trkpt><trkpt lat="41.4284576" lon="1.8937544"><ele>533.2</ele><time>2026-04-04T15:06:20.085Z</time></trkpt><trkpt lat="41.4284789" lon="1.893875"><ele>536.0</ele><time>2026-04-04T15:06:22.07Z</time></trkpt><trkpt lat="41.4285022" lon="1.8939763"><ele>536.0</ele><time>2026-04-04T15:06:24.062Z</time></trkpt><trkpt lat="41.42851" lon="1.8940863"><ele>536.0</ele><time>2026-04-04T15:06:26.076Z</time></trkpt><trkpt lat="41.4285057" lon="1.894192"><ele>536.0</ele><time>2026-04-04T15:06:28.077Z</time></trkpt><trkpt lat="41.4284851" lon="1.8943156"><ele>536.0</ele><time>2026-04-04T15:06:30.084Z</time></trkpt><trkpt lat="41.4284702" lon="1.8944453"><ele>536.0</ele><time>2026-04-04T15:06:32.058Z</time></trkpt><trkpt lat="41.4284606" lon="1.8945533"><ele>536.0</ele><time>2026-04-04T15:06:34.068Z</time></trkpt><trkpt lat="41.4284533" lon="1.8946518"><ele>537.5</ele><time>2026-04-04T15:06:37.073Z</time></trkpt><trkpt lat="41.4283736" lon="1.8946768"><ele>539.0</ele><time>2026-04-04T15:06:40.067Z</time></trkpt><trkpt lat="41.4282849" lon="1.8946547"><ele>540.5</ele><time>2026-04-04T15:06:42.07Z</time></trkpt><trkpt lat="41.4282073" lon="1.8946177"><ele>542.0</ele><time>2026-04-04T15:06:44.064Z</time></trkpt><trkpt lat="41.4281294" lon="1.8946518"><ele>543.5</ele><time>2026-04-04T15:06:46.061Z</time></trkpt><trkpt lat="41.4280866" lon="1.8947452"><ele>545.0</ele><time>2026-04-04T15:06:48.01Z</time></trkpt><trkpt lat="41.4280685" lon="1.8948852"><ele>545.0</ele><time>2026-04-04T15:06:50.082Z</time></trkpt><trkpt lat="41.4280818" lon="1.8949862"><ele>545.0</ele><time>2026-04-04T15:06:52.084Z</time></trkpt><trkpt lat="41.4281055" lon="1.8950676"><ele>545.0</ele><time>2026-04-04T15:06:56.088Z</time></trkpt><trkpt lat="41.4281227" lon="1.8951905"><ele>545.0</ele><time>2026-04-04T15:06:59.089Z</time></trkpt><trkpt lat="41.4281338" lon="1.8953012"><ele>545.0</ele><time>2026-04-04T15:07:01.086Z</time></trkpt><trkpt lat="41.4281393" lon="1.8953922"><ele>545.0</ele><time>2026-04-04T15:07:03.068Z</time></trkpt><trkpt lat="41.4280751" lon="1.8953841"><ele>547.6666666666666</ele><time>2026-04-04T15:07:15.064Z</time></trkpt><trkpt lat="41.4280076" lon="1.8953631"><ele>550.3333333333333</ele><time>2026-04-04T15:07:17.085Z</time></trkpt><trkpt lat="41.4279202" lon="1.8953351"><ele>553.0</ele><time>2026-04-04T15:07:19.08Z</time></trkpt><trkpt lat="41.4278453" lon="1.8952914"><ele>555.6666666666666</ele><time>2026-04-04T15:07:21.079Z</time></trkpt><trkpt lat="41.4277717" lon="1.8952393"><ele>558.3333333333334</ele><time>2026-04-04T15:07:23.069Z</time></trkpt><trkpt lat="41.4276951" lon="1.8951805"><ele>561.0</ele><time>2026-04-04T15:07:25.068Z</time></trkpt><trkpt lat="41.4276399" lon="1.8951144"><ele>559.4</ele><time>2026-04-04T15:07:27.067Z</time></trkpt><trkpt lat="41.427586" lon="1.8950052"><ele>557.8</ele><time>2026-04-04T15:07:32.07Z</time></trkpt><trkpt lat="41.4275342" lon="1.8948516"><ele>556.1999999999999</ele><time>2026-04-04T15:07:34.062Z</time></trkpt><trkpt lat="41.4275044" lon="1.8947703"><ele>554.6</ele><time>2026-04-04T15:07:35.058Z</time></trkpt><trkpt lat="41.4274663" lon="1.894692"><ele>553.0</ele><time>2026-04-04T15:07:36.059Z</time></trkpt><trkpt lat="41.4273981" lon="1.8945711"><ele>553.0</ele><time>2026-04-04T15:07:38.052Z</time></trkpt><trkpt lat="41.4273263" lon="1.8944555"><ele>553.0</ele><time>2026-04-04T15:07:40.06Z</time></trkpt><trkpt lat="41.4272492" lon="1.8943397"><ele>553.0</ele><time>2026-04-04T15:07:42.056Z</time></trkpt><trkpt lat="41.4271916" lon="1.8942608"><ele>553.0</ele><time>2026-04-04T15:07:44.06Z</time></trkpt><trkpt lat="41.427125" lon="1.8942087"><ele>553.0</ele><time>2026-04-04T15:07:47.075Z</time></trkpt><trkpt lat="41.4270589" lon="1.894152"><ele>550.6666666666667</ele><time>2026-04-04T15:07:50.07Z</time></trkpt><trkpt lat="41.4269942" lon="1.8941136"><ele>548.3333333333334</ele><time>2026-04-04T15:07:53.07Z</time></trkpt><trkpt lat="41.4269191" lon="1.8941131"><ele>546.0</ele><time>2026-04-04T15:08:08.069Z</time></trkpt><trkpt lat="41.426832" lon="1.8941067"><ele>543.6666666666666</ele><time>2026-04-04T15:08:10.06Z</time></trkpt><trkpt lat="41.4267477" lon="1.8941118"><ele>541.3333333333333</ele><time>2026-04-04T15:08:12.067Z</time></trkpt><trkpt lat="41.4266731" lon="1.8941298"><ele>539.0</ele><time>2026-04-04T15:08:14.061Z</time></trkpt><trkpt lat="41.4266173" lon="1.8941835"><ele>539.0</ele><time>2026-04-04T15:08:18.073Z</time></trkpt><trkpt lat="41.4265772" lon="1.8942499"><ele>539.0</ele><time>2026-04-04T15:08:20.076Z</time></trkpt><trkpt lat="41.4265532" lon="1.8943291"><ele>539.0</ele><time>2026-04-04T15:08:22.053Z</time></trkpt><trkpt lat="41.4265766" lon="1.8944388"><ele>539.0</ele><time>2026-04-04T15:08:25.061Z</time></trkpt><trkpt lat="41.4266348" lon="1.8944957"><ele>539.0</ele><time>2026-04-04T15:08:28.07Z</time></trkpt><trkpt lat="41.42668" lon="1.8945553"><ele>539.0</ele><time>2026-04-04T15:08:37.077Z</time></trkpt><trkpt lat="41.4267259" lon="1.8946299"><ele>539.0</ele><time>2026-04-04T15:08:53.08Z</time></trkpt><trkpt lat="41.4267592" lon="1.8947357"><ele>540.6666666666666</ele><time>2026-04-04T15:08:57.074Z</time></trkpt><trkpt lat="41.4267922" lon="1.8948406"><ele>542.3333333333333</ele><time>2026-04-04T15:09:00.062Z</time></trkpt><trkpt lat="41.4268342" lon="1.8949277"><ele>544.0</ele><time>2026-04-04T15:09:02.059Z</time></trkpt><trkpt lat="41.4268834" lon="1.8950424"><ele>545.6666666666666</ele><time>2026-04-04T15:09:04.018Z</time></trkpt><trkpt lat="41.4269238" lon="1.895152"><ele>547.3333333333334</ele><time>2026-04-04T15:09:06.073Z</time></trkpt><trkpt lat="41.4269394" lon="1.8952433"><ele>549.0</ele><time>2026-04-04T15:09:09.072Z</time></trkpt><trkpt lat="41.4269905" lon="1.8953631"><ele>549.0</ele><time>2026-04-04T15:09:18.072Z</time></trkpt><trkpt lat="41.4270307" lon="1.89548"><ele>549.0</ele><time>2026-04-04T15:09:20.08Z</time></trkpt><trkpt lat="41.4270677" lon="1.8956135"><ele>549.0</ele><time>2026-04-04T15:09:22.068Z</time></trkpt><trkpt lat="41.4270961" lon="1.8957283"><ele>549.0</ele><time>2026-04-04T15:09:24.056Z</time></trkpt><trkpt lat="41.427143" lon="1.8958327"><ele>549.0</ele><time>2026-04-04T15:09:25.07Z</time></trkpt><trkpt lat="41.4271842" lon="1.8959163"><ele>552.8571428571429</ele><time>2026-04-04T15:09:26.075Z</time></trkpt><trkpt lat="41.427225" lon="1.8959883"><ele>556.7142857142858</ele><time>2026-04-04T15:09:27.069Z</time></trkpt><trkpt lat="41.4272715" lon="1.8960539"><ele>560.5714285714287</ele><time>2026-04-04T15:09:28.081Z</time></trkpt><trkpt lat="41.4273277" lon="1.896119"><ele>564.4285714285714</ele><time>2026-04-04T15:09:29.078Z</time></trkpt><trkpt lat="41.4273865" lon="1.8961851"><ele>568.2857142857143</ele><time>2026-04-04T15:09:30.073Z</time></trkpt><trkpt lat="41.4274491" lon="1.8962497"><ele>572.1428571428572</ele><time>2026-04-04T15:09:31.072Z</time></trkpt><trkpt lat="41.4275141" lon="1.8963124"><ele>576.0</ele><time>2026-04-04T15:09:32.066Z</time></trkpt><trkpt lat="41.4275794" lon="1.8963805"><ele>576.0</ele><time>2026-04-04T15:09:33.079Z</time></trkpt><trkpt lat="41.4276401" lon="1.8964554"><ele>576.0</ele><time>2026-04-04T15:09:34.066Z</time></trkpt><trkpt lat="41.4276957" lon="1.896538"><ele>576.0</ele><time>2026-04-04T15:09:35.079Z</time></trkpt><trkpt lat="41.4277457" lon="1.8966261"><ele>576.0</ele><time>2026-04-04T15:09:36.073Z</time></trkpt><trkpt lat="41.4277982" lon="1.8967159"><ele>576.0</ele><time>2026-04-04T15:09:37.028Z</time></trkpt><trkpt lat="41.4278573" lon="1.8968138"><ele>576.0</ele><time>2026-04-04T15:09:38.068Z</time></trkpt><trkpt lat="41.4279233" lon="1.8969107"><ele>577.0</ele><time>2026-04-04T15:09:39.074Z</time></trkpt><trkpt lat="41.4279961" lon="1.8969995"><ele>578.0</ele><time>2026-04-04T15:09:40.059Z</time></trkpt><trkpt lat="41.4280741" lon="1.8970826"><ele>579.0</ele><time>2026-04-04T15:09:41.057Z</time></trkpt><trkpt lat="41.428156" lon="1.8971557"><ele>580.0</ele><time>2026-04-04T15:09:42.066Z</time></trkpt><trkpt lat="41.428232" lon="1.8972118"><ele>581.0</ele><time>2026-04-04T15:09:43.063Z</time></trkpt><trkpt lat="41.4283077" lon="1.8972559"><ele>581.0</ele><time>2026-04-04T15:09:44.056Z</time></trkpt><trkpt lat="41.4283924" lon="1.8972843"><ele>581.0</ele><time>2026-04-04T15:09:45.068Z</time></trkpt><trkpt lat="41.428478" lon="1.8972995"><ele>581.0</ele><time>2026-04-04T15:09:46.066Z</time></trkpt><trkpt lat="41.4285527" lon="1.8973128"><ele>581.0</ele><time>2026-04-04T15:09:47.068Z</time></trkpt><trkpt lat="41.4286384" lon="1.8973204"><ele>581.0</ele><time>2026-04-04T15:09:49.082Z</time></trkpt><trkpt lat="41.4286743" lon="1.8972466"><ele>581.0</ele><time>2026-04-04T15:10:19.067Z</time></trkpt><trkpt lat="41.4287099" lon="1.8971698"><ele>581.0</ele><time>2026-04-04T15:10:20.065Z</time></trkpt><trkpt lat="41.4287452" lon="1.8970891"><ele>581.0</ele><time>2026-04-04T15:10:21.068Z</time></trkpt><trkpt lat="41.4287874" lon="1.8970226"><ele>581.0</ele><time>2026-04-04T15:10:22.06Z</time></trkpt><trkpt lat="41.428867" lon="1.8969591"><ele>581.0</ele><time>2026-04-04T15:10:23.063Z</time></trkpt><trkpt lat="41.4289506" lon="1.8969078"><ele>581.0</ele><time>2026-04-04T15:10:24.064Z</time></trkpt><trkpt lat="41.429025" lon="1.8968422"><ele>581.0</ele><time>2026-04-04T15:10:25.066Z</time></trkpt><trkpt lat="41.4290931" lon="1.8967757"><ele>580.0</ele><time>2026-04-04T15:10:26.071Z</time></trkpt><trkpt lat="41.4291627" lon="1.8967129"><ele>579.0</ele><time>2026-04-04T15:10:27.062Z</time></trkpt><trkpt lat="41.4292223" lon="1.8966462"><ele>578.0</ele><time>2026-04-04T15:10:28.069Z</time></trkpt><trkpt lat="41.4292652" lon="1.896581"><ele>577.0</ele><time>2026-04-04T15:10:29.069Z</time></trkpt><trkpt lat="41.4293329" lon="1.8964556"><ele>576.0</ele><time>2026-04-04T15:10:31.071Z</time></trkpt><trkpt lat="41.4294017" lon="1.896311"><ele>576.0</ele><time>2026-04-04T15:10:33.075Z</time></trkpt><trkpt lat="41.4294311" lon="1.8962216"><ele>576.0</ele><time>2026-04-04T15:10:34.07Z</time></trkpt><trkpt lat="41.4294636" lon="1.89613"><ele>576.0</ele><time>2026-04-04T15:10:35.067Z</time></trkpt><trkpt lat="41.4295034" lon="1.8960434"><ele>576.0</ele><time>2026-04-04T15:10:36.067Z</time></trkpt><trkpt lat="41.4295483" lon="1.8959562"><ele>576.0</ele><time>2026-04-04T15:10:37.066Z</time></trkpt><trkpt lat="41.4296028" lon="1.8958639"><ele>576.0</ele><time>2026-04-04T15:10:38.063Z</time></trkpt><trkpt lat="41.4296648" lon="1.8957622"><ele>574.0</ele><time>2026-04-04T15:10:39.064Z</time></trkpt><trkpt lat="41.4297371" lon="1.8956547"><ele>572.0</ele><time>2026-04-04T15:10:40.061Z</time></trkpt><trkpt lat="41.4298061" lon="1.8955349"><ele>570.0</ele><time>2026-04-04T15:10:41.063Z</time></trkpt><trkpt lat="41.4298672" lon="1.8954033"><ele>568.0</ele><time>2026-04-04T15:10:42.066Z</time></trkpt><trkpt lat="41.429923" lon="1.8952694"><ele>568.0</ele><time>2026-04-04T15:10:43.064Z</time></trkpt><trkpt lat="41.429978" lon="1.8951475"><ele>568.0</ele><time>2026-04-04T15:10:44.058Z</time></trkpt><trkpt lat="41.4300262" lon="1.8950453"><ele>568.0</ele><time>2026-04-04T15:10:45.071Z</time></trkpt><trkpt lat="41.4300713" lon="1.8949627"><ele>568.0</ele><time>2026-04-04T15:10:46.068Z</time></trkpt><trkpt lat="41.4301111" lon="1.89488"><ele>568.0</ele><time>2026-04-04T15:10:47.064Z</time></trkpt><trkpt lat="41.4301447" lon="1.8947907"><ele>568.0</ele><time>2026-04-04T15:10:48.07Z</time></trkpt><trkpt lat="41.4301787" lon="1.8946929"><ele>568.1999999999999</ele><time>2026-04-04T15:10:49.065Z</time></trkpt><trkpt lat="41.4302069" lon="1.8945857"><ele>568.4</ele><time>2026-04-04T15:10:50.08Z</time></trkpt><trkpt lat="41.430238" lon="1.8944675"><ele>568.5999999999999</ele><time>2026-04-04T15:10:51.072Z</time></trkpt><trkpt lat="41.4302712" lon="1.8943469"><ele>568.8</ele><time>2026-04-04T15:10:52.068Z</time></trkpt><trkpt lat="41.4302983" lon="1.8942319"><ele>569.0</ele><time>2026-04-04T15:10:53.071Z</time></trkpt><trkpt lat="41.4303236" lon="1.8941229"><ele>567.8</ele><time>2026-04-04T15:10:54.067Z</time></trkpt><trkpt lat="41.4303437" lon="1.8940261"><ele>566.5999999999999</ele><time>2026-04-04T15:10:55.062Z</time></trkpt><trkpt lat="41.4303602" lon="1.8939429"><ele>565.4</ele><time>2026-04-04T15:10:56.075Z</time></trkpt><trkpt lat="41.4303756" lon="1.8938042"><ele>564.1999999999999</ele><time>2026-04-04T15:10:58.065Z</time></trkpt><trkpt lat="41.4303833" lon="1.8936752"><ele>563.0</ele><time>2026-04-04T15:11:00.068Z</time></trkpt><trkpt lat="41.4303947" lon="1.8935287"><ele>560.1999999999999</ele><time>2026-04-04T15:11:02.071Z</time></trkpt><trkpt lat="41.4304145" lon="1.8933795"><ele>557.4</ele><time>2026-04-04T15:11:04.069Z</time></trkpt><trkpt lat="41.4304475" lon="1.8932369"><ele>554.5999999999999</ele><time>2026-04-04T15:11:06.067Z</time></trkpt><trkpt lat="41.4304939" lon="1.893119"><ele>551.8</ele><time>2026-04-04T15:11:08.067Z</time></trkpt><trkpt lat="41.4305442" lon="1.8930614"><ele>549.0</ele><time>2026-04-04T15:11:25.073Z</time></trkpt><trkpt lat="41.430555" lon="1.8929296"><ele>548.1666666666666</ele><time>2026-04-04T15:11:28.068Z</time></trkpt><trkpt lat="41.4305366" lon="1.8927893"><ele>547.3333333333334</ele><time>2026-04-04T15:11:30.074Z</time></trkpt><trkpt lat="41.4305223" lon="1.8927063"><ele>546.5</ele><time>2026-04-04T15:11:31.065Z</time></trkpt><trkpt lat="41.4305069" lon="1.8926157"><ele>545.6666666666667</ele><time>2026-04-04T15:11:32.06Z</time></trkpt><trkpt lat="41.4304919" lon="1.8925208"><ele>544.8333333333334</ele><time>2026-04-04T15:11:33.065Z</time></trkpt><trkpt lat="41.4304563" lon="1.8923826"><ele>544.0</ele><time>2026-04-04T15:11:35.073Z</time></trkpt><trkpt lat="41.4303775" lon="1.892346"><ele>543.6</ele><time>2026-04-04T15:11:37.069Z</time></trkpt><trkpt lat="41.4302726" lon="1.8923115"><ele>543.2</ele><time>2026-04-04T15:11:39.051Z</time></trkpt><trkpt lat="41.4302106" lon="1.8922836"><ele>542.8000000000001</ele><time>2026-04-04T15:11:40.054Z</time></trkpt><trkpt lat="41.4301393" lon="1.8922387"><ele>542.4</ele><time>2026-04-04T15:11:41.053Z</time></trkpt><trkpt lat="41.4300561" lon="1.8921692"><ele>542.0</ele><time>2026-04-04T15:11:42.056Z</time></trkpt><trkpt lat="41.4299709" lon="1.8920841"><ele>542.0</ele><time>2026-04-04T15:11:43.054Z</time></trkpt><trkpt lat="41.4298853" lon="1.8919904"><ele>542.0</ele><time>2026-04-04T15:11:44.052Z</time></trkpt><trkpt lat="41.4298" lon="1.8918915"><ele>542.0</ele><time>2026-04-04T15:11:45.061Z</time></trkpt><trkpt lat="41.4297251" lon="1.8917924"><ele>542.0</ele><time>2026-04-04T15:11:46.06Z</time></trkpt><trkpt lat="41.4296474" lon="1.8916993"><ele>542.0</ele><time>2026-04-04T15:11:47.057Z</time></trkpt><trkpt lat="41.4295712" lon="1.8916201"><ele>542.6666666666666</ele><time>2026-04-04T15:11:48.049Z</time></trkpt><trkpt lat="41.4295043" lon="1.8915479"><ele>543.3333333333333</ele><time>2026-04-04T15:11:49.061Z</time></trkpt><trkpt lat="41.4294379" lon="1.8914859"><ele>544.0</ele><time>2026-04-04T15:11:50.059Z</time></trkpt><trkpt lat="41.4293578" lon="1.8914331"><ele>544.6666666666666</ele><time>2026-04-04T15:11:51.056Z</time></trkpt><trkpt lat="41.4292731" lon="1.8913999"><ele>545.3333333333334</ele><time>2026-04-04T15:11:52.059Z</time></trkpt><trkpt lat="41.4291839" lon="1.8914035"><ele>546.0</ele><time>2026-04-04T15:11:53.044Z</time></trkpt><trkpt lat="41.4290929" lon="1.8914171"><ele>546.0</ele><time>2026-04-04T15:11:54.05Z</time></trkpt><trkpt lat="41.4290085" lon="1.8914315"><ele>546.0</ele><time>2026-04-04T15:11:55.054Z</time></trkpt><trkpt lat="41.4289198" lon="1.8914394"><ele>546.0</ele><time>2026-04-04T15:11:56.065Z</time></trkpt><trkpt lat="41.428832" lon="1.8914444"><ele>546.0</ele><time>2026-04-04T15:11:57.061Z</time></trkpt><trkpt lat="41.4287432" lon="1.8914328"><ele>546.0</ele><time>2026-04-04T15:11:58.073Z</time></trkpt><trkpt lat="41.4286614" lon="1.8914016"><ele>546.0</ele><time>2026-04-04T15:11:59.058Z</time></trkpt><trkpt lat="41.4285869" lon="1.891354"><ele>545.0</ele><time>2026-04-04T15:12:00.053Z</time></trkpt><trkpt lat="41.4285193" lon="1.8913055"><ele>544.0</ele><time>2026-04-04T15:12:01.057Z</time></trkpt><trkpt lat="41.4284552" lon="1.8912577"><ele>543.0</ele><time>2026-04-04T15:12:02.061Z</time></trkpt><trkpt lat="41.4283984" lon="1.8912064"><ele>542.0</ele><time>2026-04-04T15:12:03.072Z</time></trkpt><trkpt lat="41.4283463" lon="1.8911407"><ele>541.0</ele><time>2026-04-04T15:12:04.059Z</time></trkpt><trkpt lat="41.4283013" lon="1.8910761"><ele>540.0</ele><time>2026-04-04T15:12:05.078Z</time></trkpt><trkpt lat="41.4282293" lon="1.8909549"><ele>540.6</ele><time>2026-04-04T15:12:07.075Z</time></trkpt><trkpt lat="41.4281383" lon="1.8908632"><ele>541.2</ele><time>2026-04-04T15:12:09.072Z</time></trkpt><trkpt lat="41.4280677" lon="1.8908317"><ele>541.8</ele><time>2026-04-04T15:12:10.076Z</time></trkpt><trkpt lat="41.4279787" lon="1.8908092"><ele>542.4</ele><time>2026-04-04T15:12:11.076Z</time></trkpt><trkpt lat="41.4278921" lon="1.8907835"><ele>543.0</ele><time>2026-04-04T15:12:12.078Z</time></trkpt><trkpt lat="41.4278111" lon="1.8907615"><ele>541.8571428571429</ele><time>2026-04-04T15:12:13.076Z</time></trkpt><trkpt lat="41.4277382" lon="1.8907443"><ele>540.7142857142857</ele><time>2026-04-04T15:12:14.069Z</time></trkpt><trkpt lat="41.4276694" lon="1.8907197"><ele>539.5714285714286</ele><time>2026-04-04T15:12:15.06Z</time></trkpt><trkpt lat="41.4276052" lon="1.8906827"><ele>538.4285714285714</ele><time>2026-04-04T15:12:16.057Z</time></trkpt><trkpt lat="41.4275521" lon="1.8906291"><ele>537.2857142857143</ele><time>2026-04-04T15:12:17.07Z</time></trkpt><trkpt lat="41.4274926" lon="1.8905757"><ele>536.1428571428571</ele><time>2026-04-04T15:12:18.061Z</time></trkpt><trkpt lat="41.4274293" lon="1.8905198"><ele>535.0</ele><time>2026-04-04T15:12:19.061Z</time></trkpt><trkpt lat="41.4273629" lon="1.8904505"><ele>535.0</ele><time>2026-04-04T15:12:21.063Z</time></trkpt><trkpt lat="41.4273279" lon="1.8903354"><ele>535.0</ele><time>2026-04-04T15:12:56.074Z</time></trkpt><trkpt lat="41.4272277" lon="1.8902343"><ele>535.0</ele><time>2026-04-04T15:12:58.064Z</time></trkpt><trkpt lat="41.4271815" lon="1.8901628"><ele>535.0</ele><time>2026-04-04T15:12:59.063Z</time></trkpt><trkpt lat="41.4271399" lon="1.8900736"><ele>535.0</ele><time>2026-04-04T15:13:00.077Z</time></trkpt><trkpt lat="41.4270958" lon="1.8899661"><ele>538.0</ele><time>2026-04-04T15:13:01.058Z</time></trkpt><trkpt lat="41.4270467" lon="1.8898657"><ele>541.0</ele><time>2026-04-04T15:13:02.07Z</time></trkpt><trkpt lat="41.4270017" lon="1.8897774"><ele>544.0</ele><time>2026-04-04T15:13:03.054Z</time></trkpt><trkpt lat="41.4269576" lon="1.8896849"><ele>547.0</ele><time>2026-04-04T15:13:04.052Z</time></trkpt><trkpt lat="41.4269215" lon="1.889602"><ele>550.0</ele><time>2026-04-04T15:13:05.062Z</time></trkpt><trkpt lat="41.4268688" lon="1.8895053"><ele>553.0</ele><time>2026-04-04T15:13:07.056Z</time></trkpt><trkpt lat="41.4268546" lon="1.8894084"><ele>553.0</ele><time>2026-04-04T15:13:13.068Z</time></trkpt><trkpt lat="41.426842" lon="1.8893088"><ele>553.0</ele><time>2026-04-04T15:13:15.067Z</time></trkpt><trkpt lat="41.4268285" lon="1.889175"><ele>553.0</ele><time>2026-04-04T15:13:17.065Z</time></trkpt><trkpt lat="41.4268093" lon="1.8890895"><ele>553.0</ele><time>2026-04-04T15:13:18.054Z</time></trkpt><trkpt lat="41.4267932" lon="1.8889961"><ele>553.0</ele><time>2026-04-04T15:13:19.067Z</time></trkpt><trkpt lat="41.4267775" lon="1.8889029"><ele>553.0</ele><time>2026-04-04T15:13:20.066Z</time></trkpt><trkpt lat="41.4267634" lon="1.8888128"><ele>553.5</ele><time>2026-04-04T15:13:21.075Z</time></trkpt><trkpt lat="41.4267564" lon="1.8887241"><ele>554.0</ele><time>2026-04-04T15:13:22.08Z</time></trkpt><trkpt lat="41.4267431" lon="1.8885777"><ele>554.5</ele><time>2026-04-04T15:13:24.058Z</time></trkpt><trkpt lat="41.4267136" lon="1.8884761"><ele>555.0</ele><time>2026-04-04T15:13:26.077Z</time></trkpt><trkpt lat="41.4266715" lon="1.8884035"><ele>555.5</ele><time>2026-04-04T15:13:28.085Z</time></trkpt><trkpt lat="41.426616" lon="1.8882976"><ele>556.0</ele><time>2026-04-04T15:13:30.074Z</time></trkpt><trkpt lat="41.426544" lon="1.8881863"><ele>553.75</ele><time>2026-04-04T15:13:32.063Z</time></trkpt><trkpt lat="41.426473" lon="1.8880631"><ele>551.5</ele><time>2026-04-04T15:13:34.063Z</time></trkpt><trkpt lat="41.4264273" lon="1.8879255"><ele>549.25</ele><time>2026-04-04T15:13:36.059Z</time></trkpt><trkpt lat="41.4264325" lon="1.8877754"><ele>547.0</ele><time>2026-04-04T15:13:38.055Z</time></trkpt><trkpt lat="41.4264756" lon="1.8876214"><ele>547.0</ele><time>2026-04-04T15:13:40.062Z</time></trkpt><trkpt lat="41.4264987" lon="1.8874913"><ele>536.0</ele><time>2026-04-04T15:13:42.071Z</time></trkpt></trkseg></trk></gpx>